<?xml version="1.0" encoding="UTF-8" standalone="no" ?>
<gpx xmlns="http://www.topografix.com/GPX/1/1" xmlns:xsi="http://www.w3.org/2001/XMLSchema-instance" xsi:schemaLocation="http://www.topografix.com/GPX/1/1 http://www.topografix.com/GPX/1/1/gpx.xsd" version="1.1" creator="VisuGPX - https://www.visugpx.com">
  <metadata>
    <name>Colomers J2 (CAF)</name>
    <desc><![CDATA[WE dans le cirque de Colomers (Encantats).
J2 : Refuge de Colomers - Pic blanc (contreforts) - Bahns de Tredos
La poudreuse tombée la veille nous empêche de rejoindre le sommet du pic blanc.]]></desc>
  </metadata>
  <trk>
    <name><![CDATA[COLO20-11 17:00:31]]></name>
    <trkseg>
      <trkpt lat="42.62421" lon="0.92054">
        <ele>2150.13</ele>
        <time>2011-02-20T07:29:58Z</time>
      </trkpt>
      <trkpt lat="42.62422" lon="0.92052">
        <ele>2152.53</ele>
        <time>2011-02-20T07:30:14Z</time>
      </trkpt>
      <trkpt lat="42.62426" lon="0.92051">
        <ele>2150.61</ele>
        <time>2011-02-20T07:30:30Z</time>
      </trkpt>
      <trkpt lat="42.62426" lon="0.92047">
        <ele>2149.16</ele>
        <time>2011-02-20T07:32:47Z</time>
      </trkpt>
      <trkpt lat="42.62427" lon="0.92045">
        <ele>2148.68</ele>
        <time>2011-02-20T07:32:57Z</time>
      </trkpt>
      <trkpt lat="42.62426" lon="0.92047">
        <ele>2148.68</ele>
        <time>2011-02-20T07:33:27Z</time>
      </trkpt>
      <trkpt lat="42.62423" lon="0.92047">
        <ele>2148.2</ele>
        <time>2011-02-20T07:34:19Z</time>
      </trkpt>
      <trkpt lat="42.62423" lon="0.92047">
        <ele>2148.2</ele>
        <time>2011-02-20T07:34:30Z</time>
      </trkpt>
      <trkpt lat="42.62422" lon="0.92045">
        <ele>2147.72</ele>
        <time>2011-02-20T07:35:13Z</time>
      </trkpt>
      <trkpt lat="42.62421" lon="0.92045">
        <ele>2147.72</ele>
        <time>2011-02-20T07:35:36Z</time>
      </trkpt>
      <trkpt lat="42.62422" lon="0.92047">
        <ele>2147.72</ele>
        <time>2011-02-20T07:36:03Z</time>
      </trkpt>
      <trkpt lat="42.6242" lon="0.92047">
        <ele>2147.72</ele>
        <time>2011-02-20T07:36:20Z</time>
      </trkpt>
      <trkpt lat="42.6242" lon="0.92047">
        <ele>2147.24</ele>
        <time>2011-02-20T07:36:57Z</time>
      </trkpt>
      <trkpt lat="42.62419" lon="0.92047">
        <ele>2146.76</ele>
        <time>2011-02-20T07:37:24Z</time>
      </trkpt>
      <trkpt lat="42.62419" lon="0.92048">
        <ele>2146.76</ele>
        <time>2011-02-20T07:37:48Z</time>
      </trkpt>
      <trkpt lat="42.62419" lon="0.92048">
        <ele>2146.76</ele>
        <time>2011-02-20T07:38:10Z</time>
      </trkpt>
      <trkpt lat="42.62419" lon="0.92048">
        <ele>2146.28</ele>
        <time>2011-02-20T07:38:35Z</time>
      </trkpt>
      <trkpt lat="42.62419" lon="0.9205">
        <ele>2146.76</ele>
        <time>2011-02-20T07:38:52Z</time>
      </trkpt>
      <trkpt lat="42.62419" lon="0.9205">
        <ele>2146.76</ele>
        <time>2011-02-20T07:39:13Z</time>
      </trkpt>
      <trkpt lat="42.62418" lon="0.92048">
        <ele>2147.72</ele>
        <time>2011-02-20T07:39:28Z</time>
      </trkpt>
      <trkpt lat="42.62418" lon="0.92048">
        <ele>2147.24</ele>
        <time>2011-02-20T07:39:44Z</time>
      </trkpt>
      <trkpt lat="42.62418" lon="0.92048">
        <ele>2146.76</ele>
        <time>2011-02-20T07:40:00Z</time>
      </trkpt>
      <trkpt lat="42.62417" lon="0.92047">
        <ele>2146.76</ele>
        <time>2011-02-20T07:40:34Z</time>
      </trkpt>
      <trkpt lat="42.62417" lon="0.92047">
        <ele>2146.76</ele>
        <time>2011-02-20T07:41:18Z</time>
      </trkpt>
      <trkpt lat="42.62423" lon="0.92046">
        <ele>2147.24</ele>
        <time>2011-02-20T07:41:34Z</time>
      </trkpt>
      <trkpt lat="42.62425" lon="0.92044">
        <ele>2148.2</ele>
        <time>2011-02-20T07:41:44Z</time>
      </trkpt>
      <trkpt lat="42.62425" lon="0.92044">
        <ele>2148.68</ele>
        <time>2011-02-20T07:41:56Z</time>
      </trkpt>
      <trkpt lat="42.62426" lon="0.92037">
        <ele>2149.16</ele>
        <time>2011-02-20T07:42:05Z</time>
      </trkpt>
      <trkpt lat="42.62434" lon="0.92024">
        <ele>2150.61</ele>
        <time>2011-02-20T07:42:17Z</time>
      </trkpt>
      <trkpt lat="42.62441" lon="0.92015">
        <ele>2152.05</ele>
        <time>2011-02-20T07:42:28Z</time>
      </trkpt>
      <trkpt lat="42.62443" lon="0.92011">
        <ele>2153.01</ele>
        <time>2011-02-20T07:42:34Z</time>
      </trkpt>
      <trkpt lat="42.62445" lon="0.92007">
        <ele>2153.01</ele>
        <time>2011-02-20T07:42:37Z</time>
      </trkpt>
      <trkpt lat="42.62446" lon="0.92001">
        <ele>2153.49</ele>
        <time>2011-02-20T07:42:43Z</time>
      </trkpt>
      <trkpt lat="42.62444" lon="0.91994">
        <ele>2153.01</ele>
        <time>2011-02-20T07:42:50Z</time>
      </trkpt>
      <trkpt lat="42.62449" lon="0.91977">
        <ele>2152.05</ele>
        <time>2011-02-20T07:43:03Z</time>
      </trkpt>
      <trkpt lat="42.6245" lon="0.91975">
        <ele>2152.05</ele>
        <time>2011-02-20T07:43:05Z</time>
      </trkpt>
      <trkpt lat="42.62453" lon="0.9197">
        <ele>2151.09</ele>
        <time>2011-02-20T07:43:09Z</time>
      </trkpt>
      <trkpt lat="42.62457" lon="0.91964">
        <ele>2151.57</ele>
        <time>2011-02-20T07:43:16Z</time>
      </trkpt>
      <trkpt lat="42.62462" lon="0.91963">
        <ele>2152.53</ele>
        <time>2011-02-20T07:43:21Z</time>
      </trkpt>
      <trkpt lat="42.62466" lon="0.91951">
        <ele>2153.49</ele>
        <time>2011-02-20T07:43:33Z</time>
      </trkpt>
      <trkpt lat="42.62467" lon="0.91947">
        <ele>2153.01</ele>
        <time>2011-02-20T07:43:36Z</time>
      </trkpt>
      <trkpt lat="42.62469" lon="0.9194">
        <ele>2153.49</ele>
        <time>2011-02-20T07:43:43Z</time>
      </trkpt>
      <trkpt lat="42.6247" lon="0.91935">
        <ele>2154.45</ele>
        <time>2011-02-20T07:43:48Z</time>
      </trkpt>
      <trkpt lat="42.62473" lon="0.91929">
        <ele>2155.41</ele>
        <time>2011-02-20T07:43:57Z</time>
      </trkpt>
      <trkpt lat="42.62478" lon="0.91917">
        <ele>2155.89</ele>
        <time>2011-02-20T07:44:09Z</time>
      </trkpt>
      <trkpt lat="42.62479" lon="0.91915">
        <ele>2155.89</ele>
        <time>2011-02-20T07:44:12Z</time>
      </trkpt>
      <trkpt lat="42.62482" lon="0.9191">
        <ele>2157.34</ele>
        <time>2011-02-20T07:44:24Z</time>
      </trkpt>
      <trkpt lat="42.62486" lon="0.91902">
        <ele>2159.26</ele>
        <time>2011-02-20T07:44:34Z</time>
      </trkpt>
      <trkpt lat="42.62488" lon="0.919">
        <ele>2160.22</ele>
        <time>2011-02-20T07:44:45Z</time>
      </trkpt>
      <trkpt lat="42.6249" lon="0.91895">
        <ele>2161.18</ele>
        <time>2011-02-20T07:44:57Z</time>
      </trkpt>
      <trkpt lat="42.62493" lon="0.91892">
        <ele>2162.62</ele>
        <time>2011-02-20T07:45:08Z</time>
      </trkpt>
      <trkpt lat="42.62493" lon="0.91891">
        <ele>2162.62</ele>
        <time>2011-02-20T07:45:09Z</time>
      </trkpt>
      <trkpt lat="42.62495" lon="0.91888">
        <ele>2163.1</ele>
        <time>2011-02-20T07:45:21Z</time>
      </trkpt>
      <trkpt lat="42.62496" lon="0.91884">
        <ele>2164.06</ele>
        <time>2011-02-20T07:45:39Z</time>
      </trkpt>
      <trkpt lat="42.62499" lon="0.91878">
        <ele>2167.43</ele>
        <time>2011-02-20T07:45:52Z</time>
      </trkpt>
      <trkpt lat="42.625" lon="0.91877">
        <ele>2166.95</ele>
        <time>2011-02-20T07:45:57Z</time>
      </trkpt>
      <trkpt lat="42.625" lon="0.91867">
        <ele>2169.35</ele>
        <time>2011-02-20T07:46:09Z</time>
      </trkpt>
      <trkpt lat="42.62497" lon="0.91861">
        <ele>2171.27</ele>
        <time>2011-02-20T07:46:19Z</time>
      </trkpt>
      <trkpt lat="42.62497" lon="0.9186">
        <ele>2170.79</ele>
        <time>2011-02-20T07:46:20Z</time>
      </trkpt>
      <trkpt lat="42.62495" lon="0.91851">
        <ele>2172.24</ele>
        <time>2011-02-20T07:46:30Z</time>
      </trkpt>
      <trkpt lat="42.62487" lon="0.9184">
        <ele>2173.68</ele>
        <time>2011-02-20T07:46:42Z</time>
      </trkpt>
      <trkpt lat="42.62478" lon="0.9183">
        <ele>2174.16</ele>
        <time>2011-02-20T07:46:54Z</time>
      </trkpt>
      <trkpt lat="42.62474" lon="0.91827">
        <ele>2175.12</ele>
        <time>2011-02-20T07:47:00Z</time>
      </trkpt>
      <trkpt lat="42.62468" lon="0.91819">
        <ele>2176.08</ele>
        <time>2011-02-20T07:47:12Z</time>
      </trkpt>
      <trkpt lat="42.62461" lon="0.91815">
        <ele>2177.52</ele>
        <time>2011-02-20T07:47:23Z</time>
      </trkpt>
      <trkpt lat="42.62454" lon="0.9181">
        <ele>2179.45</ele>
        <time>2011-02-20T07:47:33Z</time>
      </trkpt>
      <trkpt lat="42.6245" lon="0.91809">
        <ele>2179.45</ele>
        <time>2011-02-20T07:47:39Z</time>
      </trkpt>
      <trkpt lat="42.62439" lon="0.91806">
        <ele>2181.85</ele>
        <time>2011-02-20T07:47:52Z</time>
      </trkpt>
      <trkpt lat="42.62437" lon="0.91805">
        <ele>2181.85</ele>
        <time>2011-02-20T07:47:57Z</time>
      </trkpt>
      <trkpt lat="42.62432" lon="0.91804">
        <ele>2182.81</ele>
        <time>2011-02-20T07:48:03Z</time>
      </trkpt>
      <trkpt lat="42.62429" lon="0.91802">
        <ele>2182.81</ele>
        <time>2011-02-20T07:48:07Z</time>
      </trkpt>
      <trkpt lat="42.62425" lon="0.918">
        <ele>2183.29</ele>
        <time>2011-02-20T07:48:13Z</time>
      </trkpt>
      <trkpt lat="42.62418" lon="0.91797">
        <ele>2184.73</ele>
        <time>2011-02-20T07:48:21Z</time>
      </trkpt>
      <trkpt lat="42.62408" lon="0.9179">
        <ele>2185.21</ele>
        <time>2011-02-20T07:48:35Z</time>
      </trkpt>
      <trkpt lat="42.62406" lon="0.91789">
        <ele>2184.73</ele>
        <time>2011-02-20T07:48:37Z</time>
      </trkpt>
      <trkpt lat="42.62402" lon="0.91785">
        <ele>2186.18</ele>
        <time>2011-02-20T07:48:44Z</time>
      </trkpt>
      <trkpt lat="42.62392" lon="0.91776">
        <ele>2187.14</ele>
        <time>2011-02-20T07:48:58Z</time>
      </trkpt>
      <trkpt lat="42.62384" lon="0.9177">
        <ele>2189.06</ele>
        <time>2011-02-20T07:49:10Z</time>
      </trkpt>
      <trkpt lat="42.62377" lon="0.91761">
        <ele>2189.54</ele>
        <time>2011-02-20T07:49:23Z</time>
      </trkpt>
      <trkpt lat="42.6237" lon="0.91751">
        <ele>2190.98</ele>
        <time>2011-02-20T07:49:36Z</time>
      </trkpt>
      <trkpt lat="42.62366" lon="0.91742">
        <ele>2192.42</ele>
        <time>2011-02-20T07:49:49Z</time>
      </trkpt>
      <trkpt lat="42.62364" lon="0.91738">
        <ele>2194.35</ele>
        <time>2011-02-20T07:49:56Z</time>
      </trkpt>
      <trkpt lat="42.62359" lon="0.91728">
        <ele>2195.79</ele>
        <time>2011-02-20T07:50:09Z</time>
      </trkpt>
      <trkpt lat="42.62353" lon="0.91723">
        <ele>2197.23</ele>
        <time>2011-02-20T07:50:17Z</time>
      </trkpt>
      <trkpt lat="42.62349" lon="0.91721">
        <ele>2197.71</ele>
        <time>2011-02-20T07:50:23Z</time>
      </trkpt>
      <trkpt lat="42.62338" lon="0.91714">
        <ele>2198.67</ele>
        <time>2011-02-20T07:50:36Z</time>
      </trkpt>
      <trkpt lat="42.62337" lon="0.91713">
        <ele>2198.67</ele>
        <time>2011-02-20T07:50:38Z</time>
      </trkpt>
      <trkpt lat="42.6233" lon="0.91708">
        <ele>2198.19</ele>
        <time>2011-02-20T07:50:45Z</time>
      </trkpt>
      <trkpt lat="42.62326" lon="0.91706">
        <ele>2197.71</ele>
        <time>2011-02-20T07:50:49Z</time>
      </trkpt>
      <trkpt lat="42.62321" lon="0.91704">
        <ele>2198.67</ele>
        <time>2011-02-20T07:50:54Z</time>
      </trkpt>
      <trkpt lat="42.6231" lon="0.91694">
        <ele>2198.67</ele>
        <time>2011-02-20T07:51:07Z</time>
      </trkpt>
      <trkpt lat="42.62302" lon="0.91686">
        <ele>2199.63</ele>
        <time>2011-02-20T07:51:20Z</time>
      </trkpt>
      <trkpt lat="42.62296" lon="0.91677">
        <ele>2203</ele>
        <time>2011-02-20T07:51:32Z</time>
      </trkpt>
      <trkpt lat="42.6229" lon="0.91666">
        <ele>2203.96</ele>
        <time>2011-02-20T07:51:44Z</time>
      </trkpt>
      <trkpt lat="42.62289" lon="0.91662">
        <ele>2203.96</ele>
        <time>2011-02-20T07:51:56Z</time>
      </trkpt>
      <trkpt lat="42.62286" lon="0.91666">
        <ele>2204.44</ele>
        <time>2011-02-20T07:52:08Z</time>
      </trkpt>
      <trkpt lat="42.62282" lon="0.91673">
        <ele>2204.44</ele>
        <time>2011-02-20T07:52:21Z</time>
      </trkpt>
      <trkpt lat="42.62278" lon="0.9168">
        <ele>2203.96</ele>
        <time>2011-02-20T07:52:31Z</time>
      </trkpt>
      <trkpt lat="42.62273" lon="0.91682">
        <ele>2204.44</ele>
        <time>2011-02-20T07:52:44Z</time>
      </trkpt>
      <trkpt lat="42.62272" lon="0.91682">
        <ele>2204.44</ele>
        <time>2011-02-20T07:52:49Z</time>
      </trkpt>
      <trkpt lat="42.62263" lon="0.91673">
        <ele>2203.48</ele>
        <time>2011-02-20T07:53:02Z</time>
      </trkpt>
      <trkpt lat="42.62257" lon="0.91671">
        <ele>2203</ele>
        <time>2011-02-20T07:53:13Z</time>
      </trkpt>
      <trkpt lat="42.62251" lon="0.91675">
        <ele>2203.48</ele>
        <time>2011-02-20T07:53:25Z</time>
      </trkpt>
      <trkpt lat="42.6225" lon="0.91676">
        <ele>2204.92</ele>
        <time>2011-02-20T07:53:27Z</time>
      </trkpt>
      <trkpt lat="42.6225" lon="0.91682">
        <ele>2204.44</ele>
        <time>2011-02-20T07:53:34Z</time>
      </trkpt>
      <trkpt lat="42.62253" lon="0.91689">
        <ele>2204.44</ele>
        <time>2011-02-20T07:53:42Z</time>
      </trkpt>
      <trkpt lat="42.6226" lon="0.91701">
        <ele>2204.92</ele>
        <time>2011-02-20T07:53:56Z</time>
      </trkpt>
      <trkpt lat="42.62262" lon="0.91704">
        <ele>2205.88</ele>
        <time>2011-02-20T07:54:07Z</time>
      </trkpt>
      <trkpt lat="42.62249" lon="0.91705">
        <ele>2206.84</ele>
        <time>2011-02-20T07:54:22Z</time>
      </trkpt>
      <trkpt lat="42.62241" lon="0.91704">
        <ele>2207.32</ele>
        <time>2011-02-20T07:54:29Z</time>
      </trkpt>
      <trkpt lat="42.62239" lon="0.91703">
        <ele>2206.84</ele>
        <time>2011-02-20T07:54:32Z</time>
      </trkpt>
      <trkpt lat="42.62228" lon="0.91703">
        <ele>2208.77</ele>
        <time>2011-02-20T07:54:45Z</time>
      </trkpt>
      <trkpt lat="42.62222" lon="0.91706">
        <ele>2208.77</ele>
        <time>2011-02-20T07:54:52Z</time>
      </trkpt>
      <trkpt lat="42.62216" lon="0.91718">
        <ele>2210.21</ele>
        <time>2011-02-20T07:55:05Z</time>
      </trkpt>
      <trkpt lat="42.62211" lon="0.9173">
        <ele>2212.13</ele>
        <time>2011-02-20T07:55:18Z</time>
      </trkpt>
      <trkpt lat="42.62208" lon="0.91734">
        <ele>2214.05</ele>
        <time>2011-02-20T07:55:25Z</time>
      </trkpt>
      <trkpt lat="42.62198" lon="0.91736">
        <ele>2215.98</ele>
        <time>2011-02-20T07:55:37Z</time>
      </trkpt>
      <trkpt lat="42.62192" lon="0.91734">
        <ele>2217.42</ele>
        <time>2011-02-20T07:55:48Z</time>
      </trkpt>
      <trkpt lat="42.62189" lon="0.91732">
        <ele>2217.42</ele>
        <time>2011-02-20T07:55:53Z</time>
      </trkpt>
      <trkpt lat="42.62186" lon="0.9173">
        <ele>2217.9</ele>
        <time>2011-02-20T07:56:04Z</time>
      </trkpt>
      <trkpt lat="42.62186" lon="0.9173">
        <ele>2217.42</ele>
        <time>2011-02-20T07:56:38Z</time>
      </trkpt>
      <trkpt lat="42.62186" lon="0.91729">
        <ele>2217.42</ele>
        <time>2011-02-20T07:57:02Z</time>
      </trkpt>
      <trkpt lat="42.62186" lon="0.9173">
        <ele>2218.86</ele>
        <time>2011-02-20T07:57:31Z</time>
      </trkpt>
      <trkpt lat="42.62186" lon="0.9173">
        <ele>2215.5</ele>
        <time>2011-02-20T07:57:37Z</time>
      </trkpt>
      <trkpt lat="42.62186" lon="0.9173">
        <ele>2218.38</ele>
        <time>2011-02-20T07:57:57Z</time>
      </trkpt>
      <trkpt lat="42.62186" lon="0.91732">
        <ele>2217.42</ele>
        <time>2011-02-20T07:58:46Z</time>
      </trkpt>
      <trkpt lat="42.62186" lon="0.91731">
        <ele>2217.9</ele>
        <time>2011-02-20T07:59:19Z</time>
      </trkpt>
      <trkpt lat="42.62186" lon="0.91731">
        <ele>2217.42</ele>
        <time>2011-02-20T07:59:46Z</time>
      </trkpt>
      <trkpt lat="42.62185" lon="0.91731">
        <ele>2216.94</ele>
        <time>2011-02-20T08:00:50Z</time>
      </trkpt>
      <trkpt lat="42.62185" lon="0.9173">
        <ele>2216.46</ele>
        <time>2011-02-20T08:01:31Z</time>
      </trkpt>
      <trkpt lat="42.62185" lon="0.9173">
        <ele>2217.42</ele>
        <time>2011-02-20T08:01:49Z</time>
      </trkpt>
      <trkpt lat="42.62182" lon="0.91728">
        <ele>2216.46</ele>
        <time>2011-02-20T08:01:59Z</time>
      </trkpt>
      <trkpt lat="42.62175" lon="0.91726">
        <ele>2216.46</ele>
        <time>2011-02-20T08:02:12Z</time>
      </trkpt>
      <trkpt lat="42.62173" lon="0.91725">
        <ele>2215.5</ele>
        <time>2011-02-20T08:02:16Z</time>
      </trkpt>
      <trkpt lat="42.62158" lon="0.9172">
        <ele>2212.13</ele>
        <time>2011-02-20T08:02:23Z</time>
      </trkpt>
      <trkpt lat="42.62155" lon="0.91719">
        <ele>2212.13</ele>
        <time>2011-02-20T08:02:24Z</time>
      </trkpt>
      <trkpt lat="42.62149" lon="0.91718">
        <ele>2211.65</ele>
        <time>2011-02-20T08:02:27Z</time>
      </trkpt>
      <trkpt lat="42.62133" lon="0.91717">
        <ele>2211.65</ele>
        <time>2011-02-20T08:02:39Z</time>
      </trkpt>
      <trkpt lat="42.6213" lon="0.91717">
        <ele>2211.65</ele>
        <time>2011-02-20T08:02:51Z</time>
      </trkpt>
      <trkpt lat="42.62129" lon="0.91717">
        <ele>2211.65</ele>
        <time>2011-02-20T08:03:04Z</time>
      </trkpt>
      <trkpt lat="42.62122" lon="0.91717">
        <ele>2211.65</ele>
        <time>2011-02-20T08:03:12Z</time>
      </trkpt>
      <trkpt lat="42.62108" lon="0.91716">
        <ele>2211.17</ele>
        <time>2011-02-20T08:03:24Z</time>
      </trkpt>
      <trkpt lat="42.62105" lon="0.91715">
        <ele>2211.17</ele>
        <time>2011-02-20T08:03:27Z</time>
      </trkpt>
      <trkpt lat="42.62096" lon="0.91716">
        <ele>2212.13</ele>
        <time>2011-02-20T08:03:35Z</time>
      </trkpt>
      <trkpt lat="42.62088" lon="0.91715">
        <ele>2211.65</ele>
        <time>2011-02-20T08:03:43Z</time>
      </trkpt>
      <trkpt lat="42.62074" lon="0.91712">
        <ele>2211.65</ele>
        <time>2011-02-20T08:03:58Z</time>
      </trkpt>
      <trkpt lat="42.62068" lon="0.91711">
        <ele>2210.69</ele>
        <time>2011-02-20T08:04:04Z</time>
      </trkpt>
      <trkpt lat="42.62063" lon="0.91711">
        <ele>2213.09</ele>
        <time>2011-02-20T08:04:09Z</time>
      </trkpt>
      <trkpt lat="42.62048" lon="0.91712">
        <ele>2211.65</ele>
        <time>2011-02-20T08:04:22Z</time>
      </trkpt>
      <trkpt lat="42.62045" lon="0.91711">
        <ele>2211.17</ele>
        <time>2011-02-20T08:04:25Z</time>
      </trkpt>
      <trkpt lat="42.6204" lon="0.9171">
        <ele>2212.61</ele>
        <time>2011-02-20T08:04:30Z</time>
      </trkpt>
      <trkpt lat="42.62037" lon="0.91707">
        <ele>2211.17</ele>
        <time>2011-02-20T08:04:34Z</time>
      </trkpt>
      <trkpt lat="42.62033" lon="0.91705">
        <ele>2212.13</ele>
        <time>2011-02-20T08:04:38Z</time>
      </trkpt>
      <trkpt lat="42.62031" lon="0.91704">
        <ele>2211.65</ele>
        <time>2011-02-20T08:04:40Z</time>
      </trkpt>
      <trkpt lat="42.62023" lon="0.91708">
        <ele>2211.65</ele>
        <time>2011-02-20T08:04:51Z</time>
      </trkpt>
      <trkpt lat="42.62019" lon="0.91718">
        <ele>2215.01</ele>
        <time>2011-02-20T08:05:05Z</time>
      </trkpt>
      <trkpt lat="42.62018" lon="0.91718">
        <ele>2215.01</ele>
        <time>2011-02-20T08:05:06Z</time>
      </trkpt>
      <trkpt lat="42.62017" lon="0.91717">
        <ele>2215.01</ele>
        <time>2011-02-20T08:05:08Z</time>
      </trkpt>
      <trkpt lat="42.62009" lon="0.91711">
        <ele>2215.98</ele>
        <time>2011-02-20T08:05:22Z</time>
      </trkpt>
      <trkpt lat="42.62004" lon="0.91708">
        <ele>2216.94</ele>
        <time>2011-02-20T08:05:30Z</time>
      </trkpt>
      <trkpt lat="42.61996" lon="0.91706">
        <ele>2218.38</ele>
        <time>2011-02-20T08:05:43Z</time>
      </trkpt>
      <trkpt lat="42.61989" lon="0.91705">
        <ele>2219.82</ele>
        <time>2011-02-20T08:05:53Z</time>
      </trkpt>
      <trkpt lat="42.61983" lon="0.91708">
        <ele>2222.71</ele>
        <time>2011-02-20T08:06:06Z</time>
      </trkpt>
      <trkpt lat="42.6198" lon="0.91711">
        <ele>2223.19</ele>
        <time>2011-02-20T08:06:12Z</time>
      </trkpt>
      <trkpt lat="42.6197" lon="0.91718">
        <ele>2223.67</ele>
        <time>2011-02-20T08:06:26Z</time>
      </trkpt>
      <trkpt lat="42.61963" lon="0.91725">
        <ele>2225.11</ele>
        <time>2011-02-20T08:06:39Z</time>
      </trkpt>
      <trkpt lat="42.61953" lon="0.91737">
        <ele>2225.11</ele>
        <time>2011-02-20T08:06:54Z</time>
      </trkpt>
      <trkpt lat="42.61943" lon="0.91741">
        <ele>2226.55</ele>
        <time>2011-02-20T08:07:08Z</time>
      </trkpt>
      <trkpt lat="42.61934" lon="0.91746">
        <ele>2226.55</ele>
        <time>2011-02-20T08:07:21Z</time>
      </trkpt>
      <trkpt lat="42.61927" lon="0.91747">
        <ele>2227.51</ele>
        <time>2011-02-20T08:07:30Z</time>
      </trkpt>
      <trkpt lat="42.61916" lon="0.91751">
        <ele>2227.99</ele>
        <time>2011-02-20T08:07:44Z</time>
      </trkpt>
      <trkpt lat="42.61909" lon="0.91754">
        <ele>2228.47</ele>
        <time>2011-02-20T08:07:53Z</time>
      </trkpt>
      <trkpt lat="42.61904" lon="0.91755">
        <ele>2228.47</ele>
        <time>2011-02-20T08:07:59Z</time>
      </trkpt>
      <trkpt lat="42.61897" lon="0.91759">
        <ele>2230.4</ele>
        <time>2011-02-20T08:08:09Z</time>
      </trkpt>
      <trkpt lat="42.61887" lon="0.91763">
        <ele>2230.4</ele>
        <time>2011-02-20T08:08:23Z</time>
      </trkpt>
      <trkpt lat="42.61886" lon="0.91764">
        <ele>2231.36</ele>
        <time>2011-02-20T08:08:25Z</time>
      </trkpt>
      <trkpt lat="42.61881" lon="0.91766">
        <ele>2231.84</ele>
        <time>2011-02-20T08:08:33Z</time>
      </trkpt>
      <trkpt lat="42.61876" lon="0.91774">
        <ele>2234.24</ele>
        <time>2011-02-20T08:08:46Z</time>
      </trkpt>
      <trkpt lat="42.61871" lon="0.91779">
        <ele>2234.72</ele>
        <time>2011-02-20T08:08:56Z</time>
      </trkpt>
      <trkpt lat="42.61867" lon="0.91785">
        <ele>2236.64</ele>
        <time>2011-02-20T08:09:12Z</time>
      </trkpt>
      <trkpt lat="42.6186" lon="0.91793">
        <ele>2238.57</ele>
        <time>2011-02-20T08:09:28Z</time>
      </trkpt>
      <trkpt lat="42.61854" lon="0.91792">
        <ele>2240.49</ele>
        <time>2011-02-20T08:09:38Z</time>
      </trkpt>
      <trkpt lat="42.61853" lon="0.9179">
        <ele>2240.97</ele>
        <time>2011-02-20T08:09:50Z</time>
      </trkpt>
      <trkpt lat="42.61851" lon="0.91782">
        <ele>2241.45</ele>
        <time>2011-02-20T08:10:02Z</time>
      </trkpt>
      <trkpt lat="42.61851" lon="0.91779">
        <ele>2241.45</ele>
        <time>2011-02-20T08:10:35Z</time>
      </trkpt>
      <trkpt lat="42.61851" lon="0.91779">
        <ele>2241.45</ele>
        <time>2011-02-20T08:11:30Z</time>
      </trkpt>
      <trkpt lat="42.6185" lon="0.91777">
        <ele>2240.97</ele>
        <time>2011-02-20T08:11:47Z</time>
      </trkpt>
      <trkpt lat="42.61848" lon="0.91767">
        <ele>2242.41</ele>
        <time>2011-02-20T08:11:59Z</time>
      </trkpt>
      <trkpt lat="42.61847" lon="0.91765">
        <ele>2242.41</ele>
        <time>2011-02-20T08:12:01Z</time>
      </trkpt>
      <trkpt lat="42.61844" lon="0.91759">
        <ele>2242.41</ele>
        <time>2011-02-20T08:12:07Z</time>
      </trkpt>
      <trkpt lat="42.61838" lon="0.91748">
        <ele>2243.37</ele>
        <time>2011-02-20T08:12:20Z</time>
      </trkpt>
      <trkpt lat="42.61831" lon="0.91739">
        <ele>2244.33</ele>
        <time>2011-02-20T08:12:32Z</time>
      </trkpt>
      <trkpt lat="42.61824" lon="0.91728">
        <ele>2245.3</ele>
        <time>2011-02-20T08:12:46Z</time>
      </trkpt>
      <trkpt lat="42.61817" lon="0.91717">
        <ele>2245.78</ele>
        <time>2011-02-20T08:12:59Z</time>
      </trkpt>
      <trkpt lat="42.61813" lon="0.91706">
        <ele>2246.26</ele>
        <time>2011-02-20T08:13:14Z</time>
      </trkpt>
      <trkpt lat="42.61809" lon="0.917">
        <ele>2247.22</ele>
        <time>2011-02-20T08:13:24Z</time>
      </trkpt>
      <trkpt lat="42.61808" lon="0.9169">
        <ele>2248.18</ele>
        <time>2011-02-20T08:13:35Z</time>
      </trkpt>
      <trkpt lat="42.61807" lon="0.91683">
        <ele>2249.14</ele>
        <time>2011-02-20T08:13:45Z</time>
      </trkpt>
      <trkpt lat="42.61805" lon="0.91678">
        <ele>2250.58</ele>
        <time>2011-02-20T08:13:58Z</time>
      </trkpt>
      <trkpt lat="42.61804" lon="0.91678">
        <ele>2251.06</ele>
        <time>2011-02-20T08:14:01Z</time>
      </trkpt>
      <trkpt lat="42.61797" lon="0.91683">
        <ele>2253.47</ele>
        <time>2011-02-20T08:14:13Z</time>
      </trkpt>
      <trkpt lat="42.61789" lon="0.91689">
        <ele>2254.43</ele>
        <time>2011-02-20T08:14:26Z</time>
      </trkpt>
      <trkpt lat="42.61785" lon="0.91692">
        <ele>2255.87</ele>
        <time>2011-02-20T08:14:35Z</time>
      </trkpt>
      <trkpt lat="42.61783" lon="0.91692">
        <ele>2255.87</ele>
        <time>2011-02-20T08:14:53Z</time>
      </trkpt>
      <trkpt lat="42.61779" lon="0.91692">
        <ele>2255.87</ele>
        <time>2011-02-20T08:15:08Z</time>
      </trkpt>
      <trkpt lat="42.61776" lon="0.91693">
        <ele>2256.35</ele>
        <time>2011-02-20T08:15:12Z</time>
      </trkpt>
      <trkpt lat="42.61772" lon="0.91694">
        <ele>2256.83</ele>
        <time>2011-02-20T08:15:16Z</time>
      </trkpt>
      <trkpt lat="42.61759" lon="0.91701">
        <ele>2255.87</ele>
        <time>2011-02-20T08:15:28Z</time>
      </trkpt>
      <trkpt lat="42.6175" lon="0.91707">
        <ele>2256.83</ele>
        <time>2011-02-20T08:15:40Z</time>
      </trkpt>
      <trkpt lat="42.61745" lon="0.91711">
        <ele>2257.79</ele>
        <time>2011-02-20T08:15:51Z</time>
      </trkpt>
      <trkpt lat="42.61742" lon="0.91713">
        <ele>2259.24</ele>
        <time>2011-02-20T08:16:06Z</time>
      </trkpt>
      <trkpt lat="42.61735" lon="0.91725">
        <ele>2261.16</ele>
        <time>2011-02-20T08:16:30Z</time>
      </trkpt>
      <trkpt lat="42.61728" lon="0.91734">
        <ele>2262.12</ele>
        <time>2011-02-20T08:16:44Z</time>
      </trkpt>
      <trkpt lat="42.6172" lon="0.91739">
        <ele>2263.56</ele>
        <time>2011-02-20T08:16:56Z</time>
      </trkpt>
      <trkpt lat="42.61712" lon="0.91737">
        <ele>2264.04</ele>
        <time>2011-02-20T08:17:10Z</time>
      </trkpt>
      <trkpt lat="42.61708" lon="0.91736">
        <ele>2265</ele>
        <time>2011-02-20T08:17:21Z</time>
      </trkpt>
      <trkpt lat="42.617" lon="0.91733">
        <ele>2267.41</ele>
        <time>2011-02-20T08:17:33Z</time>
      </trkpt>
      <trkpt lat="42.61697" lon="0.9173">
        <ele>2268.37</ele>
        <time>2011-02-20T08:17:44Z</time>
      </trkpt>
      <trkpt lat="42.61697" lon="0.91727">
        <ele>2268.85</ele>
        <time>2011-02-20T08:17:48Z</time>
      </trkpt>
      <trkpt lat="42.61698" lon="0.91718">
        <ele>2271.25</ele>
        <time>2011-02-20T08:18:02Z</time>
      </trkpt>
      <trkpt lat="42.61697" lon="0.91713">
        <ele>2269.81</ele>
        <time>2011-02-20T08:18:05Z</time>
      </trkpt>
      <trkpt lat="42.61694" lon="0.91699">
        <ele>2269.33</ele>
        <time>2011-02-20T08:18:18Z</time>
      </trkpt>
      <trkpt lat="42.61692" lon="0.91696">
        <ele>2269.81</ele>
        <time>2011-02-20T08:18:21Z</time>
      </trkpt>
      <trkpt lat="42.61683" lon="0.91687">
        <ele>2270.29</ele>
        <time>2011-02-20T08:18:35Z</time>
      </trkpt>
      <trkpt lat="42.61672" lon="0.91682">
        <ele>2271.73</ele>
        <time>2011-02-20T08:18:50Z</time>
      </trkpt>
      <trkpt lat="42.61664" lon="0.91674">
        <ele>2273.66</ele>
        <time>2011-02-20T08:19:03Z</time>
      </trkpt>
      <trkpt lat="42.61658" lon="0.91661">
        <ele>2273.66</ele>
        <time>2011-02-20T08:19:16Z</time>
      </trkpt>
      <trkpt lat="42.61654" lon="0.91652">
        <ele>2274.14</ele>
        <time>2011-02-20T08:19:27Z</time>
      </trkpt>
      <trkpt lat="42.61646" lon="0.9164">
        <ele>2275.58</ele>
        <time>2011-02-20T08:19:42Z</time>
      </trkpt>
      <trkpt lat="42.61645" lon="0.91637">
        <ele>2276.06</ele>
        <time>2011-02-20T08:19:45Z</time>
      </trkpt>
      <trkpt lat="42.61638" lon="0.91628">
        <ele>2277.02</ele>
        <time>2011-02-20T08:19:59Z</time>
      </trkpt>
      <trkpt lat="42.6163" lon="0.91619">
        <ele>2278.46</ele>
        <time>2011-02-20T08:20:16Z</time>
      </trkpt>
      <trkpt lat="42.61619" lon="0.9161">
        <ele>2280.38</ele>
        <time>2011-02-20T08:20:31Z</time>
      </trkpt>
      <trkpt lat="42.6161" lon="0.91604">
        <ele>2280.87</ele>
        <time>2011-02-20T08:20:45Z</time>
      </trkpt>
      <trkpt lat="42.61604" lon="0.91601">
        <ele>2280.38</ele>
        <time>2011-02-20T08:20:55Z</time>
      </trkpt>
      <trkpt lat="42.61597" lon="0.91605">
        <ele>2282.31</ele>
        <time>2011-02-20T08:21:11Z</time>
      </trkpt>
      <trkpt lat="42.61593" lon="0.9161">
        <ele>2284.71</ele>
        <time>2011-02-20T08:21:27Z</time>
      </trkpt>
      <trkpt lat="42.61589" lon="0.91616">
        <ele>2286.15</ele>
        <time>2011-02-20T08:21:41Z</time>
      </trkpt>
      <trkpt lat="42.61588" lon="0.9162">
        <ele>2285.19</ele>
        <time>2011-02-20T08:21:51Z</time>
      </trkpt>
      <trkpt lat="42.61585" lon="0.91618">
        <ele>2286.63</ele>
        <time>2011-02-20T08:22:00Z</time>
      </trkpt>
      <trkpt lat="42.61581" lon="0.91609">
        <ele>2288.08</ele>
        <time>2011-02-20T08:22:13Z</time>
      </trkpt>
      <trkpt lat="42.61577" lon="0.91607">
        <ele>2290</ele>
        <time>2011-02-20T08:22:24Z</time>
      </trkpt>
      <trkpt lat="42.61574" lon="0.91617">
        <ele>2292.4</ele>
        <time>2011-02-20T08:22:40Z</time>
      </trkpt>
      <trkpt lat="42.61569" lon="0.91628">
        <ele>2294.32</ele>
        <time>2011-02-20T08:22:58Z</time>
      </trkpt>
      <trkpt lat="42.61566" lon="0.91632">
        <ele>2295.28</ele>
        <time>2011-02-20T08:23:05Z</time>
      </trkpt>
      <trkpt lat="42.61555" lon="0.91633">
        <ele>2296.73</ele>
        <time>2011-02-20T08:23:23Z</time>
      </trkpt>
      <trkpt lat="42.61544" lon="0.91633">
        <ele>2297.21</ele>
        <time>2011-02-20T08:23:37Z</time>
      </trkpt>
      <trkpt lat="42.61538" lon="0.91636">
        <ele>2299.61</ele>
        <time>2011-02-20T08:23:50Z</time>
      </trkpt>
      <trkpt lat="42.61532" lon="0.9164">
        <ele>2300.57</ele>
        <time>2011-02-20T08:24:06Z</time>
      </trkpt>
      <trkpt lat="42.61523" lon="0.91646">
        <ele>2302.49</ele>
        <time>2011-02-20T08:24:20Z</time>
      </trkpt>
      <trkpt lat="42.61517" lon="0.91647">
        <ele>2303.46</ele>
        <time>2011-02-20T08:24:32Z</time>
      </trkpt>
      <trkpt lat="42.61508" lon="0.91651">
        <ele>2304.9</ele>
        <time>2011-02-20T08:24:44Z</time>
      </trkpt>
      <trkpt lat="42.61501" lon="0.91654">
        <ele>2305.86</ele>
        <time>2011-02-20T08:24:57Z</time>
      </trkpt>
      <trkpt lat="42.61495" lon="0.91655">
        <ele>2306.82</ele>
        <time>2011-02-20T08:25:10Z</time>
      </trkpt>
      <trkpt lat="42.61485" lon="0.91658">
        <ele>2308.74</ele>
        <time>2011-02-20T08:25:25Z</time>
      </trkpt>
      <trkpt lat="42.61477" lon="0.9166">
        <ele>2309.22</ele>
        <time>2011-02-20T08:25:36Z</time>
      </trkpt>
      <trkpt lat="42.61471" lon="0.91661">
        <ele>2309.22</ele>
        <time>2011-02-20T08:25:48Z</time>
      </trkpt>
      <trkpt lat="42.61465" lon="0.91664">
        <ele>2311.15</ele>
        <time>2011-02-20T08:26:01Z</time>
      </trkpt>
      <trkpt lat="42.61456" lon="0.91672">
        <ele>2313.55</ele>
        <time>2011-02-20T08:26:18Z</time>
      </trkpt>
      <trkpt lat="42.61454" lon="0.91678">
        <ele>2314.51</ele>
        <time>2011-02-20T08:26:27Z</time>
      </trkpt>
      <trkpt lat="42.61447" lon="0.91685">
        <ele>2316.43</ele>
        <time>2011-02-20T08:26:40Z</time>
      </trkpt>
      <trkpt lat="42.61444" lon="0.91685">
        <ele>2316.91</ele>
        <time>2011-02-20T08:26:44Z</time>
      </trkpt>
      <trkpt lat="42.61439" lon="0.9168">
        <ele>2317.88</ele>
        <time>2011-02-20T08:26:58Z</time>
      </trkpt>
      <trkpt lat="42.61437" lon="0.91678">
        <ele>2318.36</ele>
        <time>2011-02-20T08:27:13Z</time>
      </trkpt>
      <trkpt lat="42.61435" lon="0.91677">
        <ele>2318.36</ele>
        <time>2011-02-20T08:27:28Z</time>
      </trkpt>
      <trkpt lat="42.6143" lon="0.91677">
        <ele>2317.4</ele>
        <time>2011-02-20T08:27:40Z</time>
      </trkpt>
      <trkpt lat="42.61419" lon="0.91681">
        <ele>2314.99</ele>
        <time>2011-02-20T08:27:44Z</time>
      </trkpt>
      <trkpt lat="42.61407" lon="0.91682">
        <ele>2314.03</ele>
        <time>2011-02-20T08:27:56Z</time>
      </trkpt>
      <trkpt lat="42.61398" lon="0.91685">
        <ele>2314.51</ele>
        <time>2011-02-20T08:28:06Z</time>
      </trkpt>
      <trkpt lat="42.61387" lon="0.91691">
        <ele>2314.51</ele>
        <time>2011-02-20T08:28:20Z</time>
      </trkpt>
      <trkpt lat="42.61378" lon="0.91691">
        <ele>2314.51</ele>
        <time>2011-02-20T08:28:31Z</time>
      </trkpt>
      <trkpt lat="42.61372" lon="0.91693">
        <ele>2314.99</ele>
        <time>2011-02-20T08:28:37Z</time>
      </trkpt>
      <trkpt lat="42.61359" lon="0.91693">
        <ele>2314.51</ele>
        <time>2011-02-20T08:28:51Z</time>
      </trkpt>
      <trkpt lat="42.61354" lon="0.91692">
        <ele>2314.99</ele>
        <time>2011-02-20T08:28:57Z</time>
      </trkpt>
      <trkpt lat="42.61341" lon="0.91694">
        <ele>2314.03</ele>
        <time>2011-02-20T08:29:11Z</time>
      </trkpt>
      <trkpt lat="42.6134" lon="0.91694">
        <ele>2314.51</ele>
        <time>2011-02-20T08:29:13Z</time>
      </trkpt>
      <trkpt lat="42.61334" lon="0.91694">
        <ele>2314.51</ele>
        <time>2011-02-20T08:29:19Z</time>
      </trkpt>
      <trkpt lat="42.61326" lon="0.91694">
        <ele>2314.51</ele>
        <time>2011-02-20T08:29:27Z</time>
      </trkpt>
      <trkpt lat="42.61319" lon="0.91693">
        <ele>2315.95</ele>
        <time>2011-02-20T08:29:35Z</time>
      </trkpt>
      <trkpt lat="42.61308" lon="0.91694">
        <ele>2316.43</ele>
        <time>2011-02-20T08:29:49Z</time>
      </trkpt>
      <trkpt lat="42.61299" lon="0.91697">
        <ele>2318.36</ele>
        <time>2011-02-20T08:30:04Z</time>
      </trkpt>
      <trkpt lat="42.61289" lon="0.91705">
        <ele>2317.88</ele>
        <time>2011-02-20T08:30:18Z</time>
      </trkpt>
      <trkpt lat="42.61277" lon="0.91709">
        <ele>2318.36</ele>
        <time>2011-02-20T08:30:32Z</time>
      </trkpt>
      <trkpt lat="42.61275" lon="0.9171">
        <ele>2317.88</ele>
        <time>2011-02-20T08:30:34Z</time>
      </trkpt>
      <trkpt lat="42.61265" lon="0.91714">
        <ele>2317.88</ele>
        <time>2011-02-20T08:30:46Z</time>
      </trkpt>
      <trkpt lat="42.61251" lon="0.91719">
        <ele>2316.91</ele>
        <time>2011-02-20T08:31:01Z</time>
      </trkpt>
      <trkpt lat="42.61241" lon="0.91722">
        <ele>2316.43</ele>
        <time>2011-02-20T08:31:14Z</time>
      </trkpt>
      <trkpt lat="42.61228" lon="0.91726">
        <ele>2317.4</ele>
        <time>2011-02-20T08:31:31Z</time>
      </trkpt>
      <trkpt lat="42.61218" lon="0.91729">
        <ele>2318.84</ele>
        <time>2011-02-20T08:31:46Z</time>
      </trkpt>
      <trkpt lat="42.61208" lon="0.91732">
        <ele>2319.8</ele>
        <time>2011-02-20T08:32:02Z</time>
      </trkpt>
      <trkpt lat="42.61197" lon="0.91736">
        <ele>2320.76</ele>
        <time>2011-02-20T08:32:15Z</time>
      </trkpt>
      <trkpt lat="42.61186" lon="0.91739">
        <ele>2320.76</ele>
        <time>2011-02-20T08:32:27Z</time>
      </trkpt>
      <trkpt lat="42.61174" lon="0.91744">
        <ele>2321.72</ele>
        <time>2011-02-20T08:32:42Z</time>
      </trkpt>
      <trkpt lat="42.61171" lon="0.91746">
        <ele>2321.72</ele>
        <time>2011-02-20T08:32:47Z</time>
      </trkpt>
      <trkpt lat="42.61161" lon="0.91751">
        <ele>2324.12</ele>
        <time>2011-02-20T08:33:02Z</time>
      </trkpt>
      <trkpt lat="42.61152" lon="0.91757">
        <ele>2325.57</ele>
        <time>2011-02-20T08:33:21Z</time>
      </trkpt>
      <trkpt lat="42.61149" lon="0.91757">
        <ele>2326.05</ele>
        <time>2011-02-20T08:33:35Z</time>
      </trkpt>
      <trkpt lat="42.61139" lon="0.91762">
        <ele>2327.97</ele>
        <time>2011-02-20T08:33:50Z</time>
      </trkpt>
      <trkpt lat="42.61131" lon="0.91768">
        <ele>2329.89</ele>
        <time>2011-02-20T08:34:05Z</time>
      </trkpt>
      <trkpt lat="42.61123" lon="0.91778">
        <ele>2330.85</ele>
        <time>2011-02-20T08:34:20Z</time>
      </trkpt>
      <trkpt lat="42.61121" lon="0.91781">
        <ele>2332.78</ele>
        <time>2011-02-20T08:34:27Z</time>
      </trkpt>
      <trkpt lat="42.61119" lon="0.91778">
        <ele>2332.78</ele>
        <time>2011-02-20T08:34:38Z</time>
      </trkpt>
      <trkpt lat="42.61117" lon="0.91772">
        <ele>2334.22</ele>
        <time>2011-02-20T08:34:53Z</time>
      </trkpt>
      <trkpt lat="42.61117" lon="0.91767">
        <ele>2335.18</ele>
        <time>2011-02-20T08:35:05Z</time>
      </trkpt>
      <trkpt lat="42.61114" lon="0.91771">
        <ele>2336.14</ele>
        <time>2011-02-20T08:35:16Z</time>
      </trkpt>
      <trkpt lat="42.61111" lon="0.91778">
        <ele>2339.02</ele>
        <time>2011-02-20T08:35:32Z</time>
      </trkpt>
      <trkpt lat="42.6111" lon="0.91783">
        <ele>2339.02</ele>
        <time>2011-02-20T08:35:41Z</time>
      </trkpt>
      <trkpt lat="42.61106" lon="0.91778">
        <ele>2339.02</ele>
        <time>2011-02-20T08:35:51Z</time>
      </trkpt>
      <trkpt lat="42.61105" lon="0.91773">
        <ele>2340.95</ele>
        <time>2011-02-20T08:36:15Z</time>
      </trkpt>
      <trkpt lat="42.61103" lon="0.91765">
        <ele>2341.91</ele>
        <time>2011-02-20T08:36:28Z</time>
      </trkpt>
      <trkpt lat="42.61103" lon="0.91763">
        <ele>2342.39</ele>
        <time>2011-02-20T08:36:39Z</time>
      </trkpt>
      <trkpt lat="42.61097" lon="0.91774">
        <ele>2344.31</ele>
        <time>2011-02-20T08:36:53Z</time>
      </trkpt>
      <trkpt lat="42.61097" lon="0.91775">
        <ele>2343.83</ele>
        <time>2011-02-20T08:36:55Z</time>
      </trkpt>
      <trkpt lat="42.61095" lon="0.91786">
        <ele>2345.75</ele>
        <time>2011-02-20T08:37:07Z</time>
      </trkpt>
      <trkpt lat="42.61095" lon="0.91796">
        <ele>2345.75</ele>
        <time>2011-02-20T08:37:20Z</time>
      </trkpt>
      <trkpt lat="42.61095" lon="0.91797">
        <ele>2346.72</ele>
        <time>2011-02-20T08:37:26Z</time>
      </trkpt>
      <trkpt lat="42.61095" lon="0.91802">
        <ele>2348.16</ele>
        <time>2011-02-20T08:37:33Z</time>
      </trkpt>
      <trkpt lat="42.61094" lon="0.91803">
        <ele>2348.64</ele>
        <time>2011-02-20T08:37:46Z</time>
      </trkpt>
      <trkpt lat="42.61086" lon="0.91797">
        <ele>2350.08</ele>
        <time>2011-02-20T08:38:00Z</time>
      </trkpt>
      <trkpt lat="42.61084" lon="0.91794">
        <ele>2351.52</ele>
        <time>2011-02-20T08:38:04Z</time>
      </trkpt>
      <trkpt lat="42.61079" lon="0.91789">
        <ele>2351.52</ele>
        <time>2011-02-20T08:38:15Z</time>
      </trkpt>
      <trkpt lat="42.61074" lon="0.91785">
        <ele>2353.44</ele>
        <time>2011-02-20T08:38:26Z</time>
      </trkpt>
      <trkpt lat="42.61072" lon="0.91788">
        <ele>2353.93</ele>
        <time>2011-02-20T08:38:34Z</time>
      </trkpt>
      <trkpt lat="42.61072" lon="0.918">
        <ele>2356.33</ele>
        <time>2011-02-20T08:38:47Z</time>
      </trkpt>
      <trkpt lat="42.6107" lon="0.91809">
        <ele>2357.77</ele>
        <time>2011-02-20T08:38:58Z</time>
      </trkpt>
      <trkpt lat="42.61069" lon="0.91811">
        <ele>2355.85</ele>
        <time>2011-02-20T08:39:00Z</time>
      </trkpt>
      <trkpt lat="42.61068" lon="0.91824">
        <ele>2357.77</ele>
        <time>2011-02-20T08:39:15Z</time>
      </trkpt>
      <trkpt lat="42.61067" lon="0.91828">
        <ele>2359.21</ele>
        <time>2011-02-20T08:39:22Z</time>
      </trkpt>
      <trkpt lat="42.61066" lon="0.91838">
        <ele>2359.69</ele>
        <time>2011-02-20T08:39:33Z</time>
      </trkpt>
      <trkpt lat="42.61066" lon="0.91852">
        <ele>2360.65</ele>
        <time>2011-02-20T08:39:49Z</time>
      </trkpt>
      <trkpt lat="42.61064" lon="0.91861">
        <ele>2361.14</ele>
        <time>2011-02-20T08:39:59Z</time>
      </trkpt>
      <trkpt lat="42.61062" lon="0.91872">
        <ele>2363.54</ele>
        <time>2011-02-20T08:40:13Z</time>
      </trkpt>
      <trkpt lat="42.61061" lon="0.9188">
        <ele>2363.54</ele>
        <time>2011-02-20T08:40:20Z</time>
      </trkpt>
      <trkpt lat="42.61058" lon="0.91888">
        <ele>2364.98</ele>
        <time>2011-02-20T08:40:34Z</time>
      </trkpt>
      <trkpt lat="42.61053" lon="0.91894">
        <ele>2366.42</ele>
        <time>2011-02-20T08:40:43Z</time>
      </trkpt>
      <trkpt lat="42.61045" lon="0.919">
        <ele>2366.9</ele>
        <time>2011-02-20T08:40:56Z</time>
      </trkpt>
      <trkpt lat="42.61036" lon="0.91906">
        <ele>2368.35</ele>
        <time>2011-02-20T08:41:11Z</time>
      </trkpt>
      <trkpt lat="42.61028" lon="0.91906">
        <ele>2369.79</ele>
        <time>2011-02-20T08:41:23Z</time>
      </trkpt>
      <trkpt lat="42.61017" lon="0.91909">
        <ele>2369.79</ele>
        <time>2011-02-20T08:41:37Z</time>
      </trkpt>
      <trkpt lat="42.61015" lon="0.91911">
        <ele>2370.27</ele>
        <time>2011-02-20T08:41:49Z</time>
      </trkpt>
      <trkpt lat="42.61007" lon="0.91918">
        <ele>2370.75</ele>
        <time>2011-02-20T08:42:01Z</time>
      </trkpt>
      <trkpt lat="42.60998" lon="0.91925">
        <ele>2371.71</ele>
        <time>2011-02-20T08:42:15Z</time>
      </trkpt>
      <trkpt lat="42.6099" lon="0.91933">
        <ele>2372.67</ele>
        <time>2011-02-20T08:42:28Z</time>
      </trkpt>
      <trkpt lat="42.60984" lon="0.91938">
        <ele>2375.07</ele>
        <time>2011-02-20T08:42:36Z</time>
      </trkpt>
      <trkpt lat="42.60978" lon="0.91946">
        <ele>2376.04</ele>
        <time>2011-02-20T08:42:48Z</time>
      </trkpt>
      <trkpt lat="42.60969" lon="0.91954">
        <ele>2377.48</ele>
        <time>2011-02-20T08:43:02Z</time>
      </trkpt>
      <trkpt lat="42.60961" lon="0.91962">
        <ele>2378.44</ele>
        <time>2011-02-20T08:43:15Z</time>
      </trkpt>
      <trkpt lat="42.60953" lon="0.9197">
        <ele>2378.44</ele>
        <time>2011-02-20T08:43:26Z</time>
      </trkpt>
      <trkpt lat="42.60943" lon="0.91982">
        <ele>2377.96</ele>
        <time>2011-02-20T08:43:41Z</time>
      </trkpt>
      <trkpt lat="42.60935" lon="0.91994">
        <ele>2377.48</ele>
        <time>2011-02-20T08:43:56Z</time>
      </trkpt>
      <trkpt lat="42.60934" lon="0.91995">
        <ele>2377.96</ele>
        <time>2011-02-20T08:43:57Z</time>
      </trkpt>
      <trkpt lat="42.60924" lon="0.92007">
        <ele>2376.52</ele>
        <time>2011-02-20T08:44:10Z</time>
      </trkpt>
      <trkpt lat="42.60918" lon="0.92012">
        <ele>2375.07</ele>
        <time>2011-02-20T08:44:17Z</time>
      </trkpt>
      <trkpt lat="42.60914" lon="0.92015">
        <ele>2375.07</ele>
        <time>2011-02-20T08:44:28Z</time>
      </trkpt>
      <trkpt lat="42.6091" lon="0.92019">
        <ele>2375.55</ele>
        <time>2011-02-20T08:44:32Z</time>
      </trkpt>
      <trkpt lat="42.60905" lon="0.92023">
        <ele>2375.07</ele>
        <time>2011-02-20T08:44:38Z</time>
      </trkpt>
      <trkpt lat="42.60902" lon="0.92025">
        <ele>2375.55</ele>
        <time>2011-02-20T08:44:48Z</time>
      </trkpt>
      <trkpt lat="42.60893" lon="0.92028">
        <ele>2376.52</ele>
        <time>2011-02-20T08:45:00Z</time>
      </trkpt>
      <trkpt lat="42.60886" lon="0.92028">
        <ele>2377.96</ele>
        <time>2011-02-20T08:45:12Z</time>
      </trkpt>
      <trkpt lat="42.60876" lon="0.9203">
        <ele>2379.4</ele>
        <time>2011-02-20T08:45:28Z</time>
      </trkpt>
      <trkpt lat="42.60867" lon="0.92033">
        <ele>2379.88</ele>
        <time>2011-02-20T08:45:41Z</time>
      </trkpt>
      <trkpt lat="42.60856" lon="0.92039">
        <ele>2381.8</ele>
        <time>2011-02-20T08:45:56Z</time>
      </trkpt>
      <trkpt lat="42.60845" lon="0.92044">
        <ele>2383.25</ele>
        <time>2011-02-20T08:46:11Z</time>
      </trkpt>
      <trkpt lat="42.60833" lon="0.92051">
        <ele>2382.76</ele>
        <time>2011-02-20T08:46:27Z</time>
      </trkpt>
      <trkpt lat="42.60829" lon="0.92053">
        <ele>2383.25</ele>
        <time>2011-02-20T08:46:31Z</time>
      </trkpt>
      <trkpt lat="42.60821" lon="0.92057">
        <ele>2384.69</ele>
        <time>2011-02-20T08:46:47Z</time>
      </trkpt>
      <trkpt lat="42.60819" lon="0.92058">
        <ele>2384.21</ele>
        <time>2011-02-20T08:46:50Z</time>
      </trkpt>
      <trkpt lat="42.60807" lon="0.92065">
        <ele>2385.65</ele>
        <time>2011-02-20T08:47:04Z</time>
      </trkpt>
      <trkpt lat="42.60797" lon="0.92071">
        <ele>2386.13</ele>
        <time>2011-02-20T08:47:17Z</time>
      </trkpt>
      <trkpt lat="42.60789" lon="0.92075">
        <ele>2386.13</ele>
        <time>2011-02-20T08:47:29Z</time>
      </trkpt>
      <trkpt lat="42.60779" lon="0.92077">
        <ele>2387.57</ele>
        <time>2011-02-20T08:47:42Z</time>
      </trkpt>
      <trkpt lat="42.60772" lon="0.92079">
        <ele>2387.57</ele>
        <time>2011-02-20T08:47:54Z</time>
      </trkpt>
      <trkpt lat="42.60768" lon="0.92079">
        <ele>2388.53</ele>
        <time>2011-02-20T08:48:06Z</time>
      </trkpt>
      <trkpt lat="42.60765" lon="0.92083">
        <ele>2388.53</ele>
        <time>2011-02-20T08:48:15Z</time>
      </trkpt>
      <trkpt lat="42.60764" lon="0.92086">
        <ele>2388.53</ele>
        <time>2011-02-20T08:48:25Z</time>
      </trkpt>
      <trkpt lat="42.60764" lon="0.92086">
        <ele>2388.53</ele>
        <time>2011-02-20T08:48:56Z</time>
      </trkpt>
      <trkpt lat="42.60764" lon="0.92086">
        <ele>2387.57</ele>
        <time>2011-02-20T08:49:30Z</time>
      </trkpt>
      <trkpt lat="42.60764" lon="0.92086">
        <ele>2388.05</ele>
        <time>2011-02-20T08:49:53Z</time>
      </trkpt>
      <trkpt lat="42.60764" lon="0.92086">
        <ele>2388.05</ele>
        <time>2011-02-20T08:50:51Z</time>
      </trkpt>
      <trkpt lat="42.60764" lon="0.92086">
        <ele>2388.05</ele>
        <time>2011-02-20T08:51:19Z</time>
      </trkpt>
      <trkpt lat="42.60764" lon="0.92086">
        <ele>2388.05</ele>
        <time>2011-02-20T08:51:43Z</time>
      </trkpt>
      <trkpt lat="42.60764" lon="0.92086">
        <ele>2388.05</ele>
        <time>2011-02-20T08:52:45Z</time>
      </trkpt>
      <trkpt lat="42.60763" lon="0.92086">
        <ele>2387.57</ele>
        <time>2011-02-20T08:53:11Z</time>
      </trkpt>
      <trkpt lat="42.60763" lon="0.92086">
        <ele>2387.09</ele>
        <time>2011-02-20T08:53:36Z</time>
      </trkpt>
      <trkpt lat="42.60763" lon="0.92085">
        <ele>2387.57</ele>
        <time>2011-02-20T08:53:46Z</time>
      </trkpt>
      <trkpt lat="42.60763" lon="0.92085">
        <ele>2388.05</ele>
        <time>2011-02-20T08:54:08Z</time>
      </trkpt>
      <trkpt lat="42.60764" lon="0.92085">
        <ele>2388.53</ele>
        <time>2011-02-20T08:54:24Z</time>
      </trkpt>
      <trkpt lat="42.60764" lon="0.92085">
        <ele>2388.05</ele>
        <time>2011-02-20T08:54:47Z</time>
      </trkpt>
      <trkpt lat="42.60764" lon="0.92086">
        <ele>2387.57</ele>
        <time>2011-02-20T08:55:13Z</time>
      </trkpt>
      <trkpt lat="42.60764" lon="0.92085">
        <ele>2388.05</ele>
        <time>2011-02-20T08:55:51Z</time>
      </trkpt>
      <trkpt lat="42.60763" lon="0.92086">
        <ele>2387.09</ele>
        <time>2011-02-20T08:55:56Z</time>
      </trkpt>
      <trkpt lat="42.60761" lon="0.92087">
        <ele>2388.05</ele>
        <time>2011-02-20T08:56:28Z</time>
      </trkpt>
      <trkpt lat="42.6075" lon="0.92098">
        <ele>2386.61</ele>
        <time>2011-02-20T08:56:43Z</time>
      </trkpt>
      <trkpt lat="42.60744" lon="0.92104">
        <ele>2386.13</ele>
        <time>2011-02-20T08:56:55Z</time>
      </trkpt>
      <trkpt lat="42.60734" lon="0.92112">
        <ele>2386.13</ele>
        <time>2011-02-20T08:57:10Z</time>
      </trkpt>
      <trkpt lat="42.60731" lon="0.92115">
        <ele>2385.65</ele>
        <time>2011-02-20T08:57:16Z</time>
      </trkpt>
      <trkpt lat="42.6072" lon="0.92124">
        <ele>2388.53</ele>
        <time>2011-02-20T08:57:32Z</time>
      </trkpt>
      <trkpt lat="42.6071" lon="0.9213">
        <ele>2388.53</ele>
        <time>2011-02-20T08:57:47Z</time>
      </trkpt>
      <trkpt lat="42.60702" lon="0.92135">
        <ele>2389.01</ele>
        <time>2011-02-20T08:58:00Z</time>
      </trkpt>
      <trkpt lat="42.60692" lon="0.92139">
        <ele>2390.94</ele>
        <time>2011-02-20T08:58:14Z</time>
      </trkpt>
      <trkpt lat="42.60684" lon="0.92147">
        <ele>2392.38</ele>
        <time>2011-02-20T08:58:28Z</time>
      </trkpt>
      <trkpt lat="42.60679" lon="0.92152">
        <ele>2392.38</ele>
        <time>2011-02-20T08:58:36Z</time>
      </trkpt>
      <trkpt lat="42.60677" lon="0.92154">
        <ele>2392.86</ele>
        <time>2011-02-20T08:58:40Z</time>
      </trkpt>
      <trkpt lat="42.60668" lon="0.92169">
        <ele>2394.3</ele>
        <time>2011-02-20T08:58:57Z</time>
      </trkpt>
      <trkpt lat="42.60663" lon="0.92178">
        <ele>2395.26</ele>
        <time>2011-02-20T08:59:07Z</time>
      </trkpt>
      <trkpt lat="42.60655" lon="0.92192">
        <ele>2395.74</ele>
        <time>2011-02-20T08:59:22Z</time>
      </trkpt>
      <trkpt lat="42.60648" lon="0.92206">
        <ele>2396.22</ele>
        <time>2011-02-20T08:59:38Z</time>
      </trkpt>
      <trkpt lat="42.60645" lon="0.92212">
        <ele>2396.22</ele>
        <time>2011-02-20T08:59:44Z</time>
      </trkpt>
      <trkpt lat="42.60639" lon="0.92223">
        <ele>2396.22</ele>
        <time>2011-02-20T08:59:57Z</time>
      </trkpt>
      <trkpt lat="42.60634" lon="0.92236">
        <ele>2396.22</ele>
        <time>2011-02-20T09:00:10Z</time>
      </trkpt>
      <trkpt lat="42.60631" lon="0.92245">
        <ele>2396.22</ele>
        <time>2011-02-20T09:00:18Z</time>
      </trkpt>
      <trkpt lat="42.60626" lon="0.92261">
        <ele>2397.18</ele>
        <time>2011-02-20T09:00:34Z</time>
      </trkpt>
      <trkpt lat="42.60624" lon="0.92272">
        <ele>2397.18</ele>
        <time>2011-02-20T09:00:46Z</time>
      </trkpt>
      <trkpt lat="42.60629" lon="0.92285">
        <ele>2399.11</ele>
        <time>2011-02-20T09:01:00Z</time>
      </trkpt>
      <trkpt lat="42.6063" lon="0.92294">
        <ele>2399.59</ele>
        <time>2011-02-20T09:01:12Z</time>
      </trkpt>
      <trkpt lat="42.60629" lon="0.92305">
        <ele>2400.07</ele>
        <time>2011-02-20T09:01:26Z</time>
      </trkpt>
      <trkpt lat="42.60623" lon="0.92312">
        <ele>2401.51</ele>
        <time>2011-02-20T09:01:39Z</time>
      </trkpt>
      <trkpt lat="42.60622" lon="0.92313">
        <ele>2402.47</ele>
        <time>2011-02-20T09:01:40Z</time>
      </trkpt>
      <trkpt lat="42.60616" lon="0.92324">
        <ele>2403.43</ele>
        <time>2011-02-20T09:01:53Z</time>
      </trkpt>
      <trkpt lat="42.6061" lon="0.92333">
        <ele>2403.91</ele>
        <time>2011-02-20T09:02:06Z</time>
      </trkpt>
      <trkpt lat="42.60606" lon="0.92343">
        <ele>2404.88</ele>
        <time>2011-02-20T09:02:19Z</time>
      </trkpt>
      <trkpt lat="42.60603" lon="0.92356">
        <ele>2406.32</ele>
        <time>2011-02-20T09:02:34Z</time>
      </trkpt>
      <trkpt lat="42.60602" lon="0.92358">
        <ele>2405.84</ele>
        <time>2011-02-20T09:02:36Z</time>
      </trkpt>
      <trkpt lat="42.60597" lon="0.92371">
        <ele>2406.8</ele>
        <time>2011-02-20T09:02:50Z</time>
      </trkpt>
      <trkpt lat="42.60593" lon="0.92383">
        <ele>2407.76</ele>
        <time>2011-02-20T09:03:04Z</time>
      </trkpt>
      <trkpt lat="42.60589" lon="0.92394">
        <ele>2408.24</ele>
        <time>2011-02-20T09:03:17Z</time>
      </trkpt>
      <trkpt lat="42.60587" lon="0.92405">
        <ele>2408.72</ele>
        <time>2011-02-20T09:03:31Z</time>
      </trkpt>
      <trkpt lat="42.60582" lon="0.92415">
        <ele>2411.12</ele>
        <time>2011-02-20T09:03:45Z</time>
      </trkpt>
      <trkpt lat="42.60576" lon="0.92425">
        <ele>2412.09</ele>
        <time>2011-02-20T09:03:58Z</time>
      </trkpt>
      <trkpt lat="42.60571" lon="0.9243">
        <ele>2413.05</ele>
        <time>2011-02-20T09:04:06Z</time>
      </trkpt>
      <trkpt lat="42.60564" lon="0.92436">
        <ele>2412.57</ele>
        <time>2011-02-20T09:04:18Z</time>
      </trkpt>
      <trkpt lat="42.60554" lon="0.92443">
        <ele>2414.01</ele>
        <time>2011-02-20T09:04:32Z</time>
      </trkpt>
      <trkpt lat="42.60546" lon="0.92447">
        <ele>2414.01</ele>
        <time>2011-02-20T09:04:45Z</time>
      </trkpt>
      <trkpt lat="42.60537" lon="0.92454">
        <ele>2414.97</ele>
        <time>2011-02-20T09:04:59Z</time>
      </trkpt>
      <trkpt lat="42.60537" lon="0.92461">
        <ele>2416.41</ele>
        <time>2011-02-20T09:05:10Z</time>
      </trkpt>
      <trkpt lat="42.60538" lon="0.92463">
        <ele>2416.41</ele>
        <time>2011-02-20T09:05:12Z</time>
      </trkpt>
      <trkpt lat="42.6054" lon="0.92469">
        <ele>2416.41</ele>
        <time>2011-02-20T09:05:17Z</time>
      </trkpt>
      <trkpt lat="42.60538" lon="0.9248">
        <ele>2415.93</ele>
        <time>2011-02-20T09:05:28Z</time>
      </trkpt>
      <trkpt lat="42.60528" lon="0.92481">
        <ele>2417.37</ele>
        <time>2011-02-20T09:05:40Z</time>
      </trkpt>
      <trkpt lat="42.60524" lon="0.92483">
        <ele>2417.37</ele>
        <time>2011-02-20T09:05:45Z</time>
      </trkpt>
      <trkpt lat="42.60514" lon="0.92486">
        <ele>2417.85</ele>
        <time>2011-02-20T09:05:59Z</time>
      </trkpt>
      <trkpt lat="42.60513" lon="0.92487">
        <ele>2418.33</ele>
        <time>2011-02-20T09:06:00Z</time>
      </trkpt>
      <trkpt lat="42.60502" lon="0.92491">
        <ele>2418.33</ele>
        <time>2011-02-20T09:06:12Z</time>
      </trkpt>
      <trkpt lat="42.60492" lon="0.92495">
        <ele>2417.85</ele>
        <time>2011-02-20T09:06:27Z</time>
      </trkpt>
      <trkpt lat="42.60482" lon="0.92497">
        <ele>2418.33</ele>
        <time>2011-02-20T09:06:41Z</time>
      </trkpt>
      <trkpt lat="42.60476" lon="0.92488">
        <ele>2419.3</ele>
        <time>2011-02-20T09:06:56Z</time>
      </trkpt>
      <trkpt lat="42.60466" lon="0.92481">
        <ele>2421.22</ele>
        <time>2011-02-20T09:07:11Z</time>
      </trkpt>
      <trkpt lat="42.60457" lon="0.92479">
        <ele>2421.7</ele>
        <time>2011-02-20T09:07:25Z</time>
      </trkpt>
      <trkpt lat="42.60448" lon="0.92479">
        <ele>2423.14</ele>
        <time>2011-02-20T09:07:40Z</time>
      </trkpt>
      <trkpt lat="42.60436" lon="0.92482">
        <ele>2425.54</ele>
        <time>2011-02-20T09:07:56Z</time>
      </trkpt>
      <trkpt lat="42.60427" lon="0.92487">
        <ele>2427.47</ele>
        <time>2011-02-20T09:08:11Z</time>
      </trkpt>
      <trkpt lat="42.60417" lon="0.92492">
        <ele>2427.47</ele>
        <time>2011-02-20T09:08:24Z</time>
      </trkpt>
      <trkpt lat="42.60407" lon="0.92498">
        <ele>2428.43</ele>
        <time>2011-02-20T09:08:38Z</time>
      </trkpt>
      <trkpt lat="42.604" lon="0.925">
        <ele>2427.95</ele>
        <time>2011-02-20T09:08:48Z</time>
      </trkpt>
      <trkpt lat="42.60389" lon="0.925">
        <ele>2428.91</ele>
        <time>2011-02-20T09:09:03Z</time>
      </trkpt>
      <trkpt lat="42.60381" lon="0.92499">
        <ele>2429.87</ele>
        <time>2011-02-20T09:09:15Z</time>
      </trkpt>
      <trkpt lat="42.60374" lon="0.925">
        <ele>2431.31</ele>
        <time>2011-02-20T09:09:28Z</time>
      </trkpt>
      <trkpt lat="42.60367" lon="0.92501">
        <ele>2432.27</ele>
        <time>2011-02-20T09:09:37Z</time>
      </trkpt>
      <trkpt lat="42.60355" lon="0.92505">
        <ele>2432.75</ele>
        <time>2011-02-20T09:09:52Z</time>
      </trkpt>
      <trkpt lat="42.60345" lon="0.92507">
        <ele>2432.75</ele>
        <time>2011-02-20T09:10:06Z</time>
      </trkpt>
      <trkpt lat="42.60336" lon="0.92508">
        <ele>2433.71</ele>
        <time>2011-02-20T09:10:18Z</time>
      </trkpt>
      <trkpt lat="42.60325" lon="0.92506">
        <ele>2435.16</ele>
        <time>2011-02-20T09:10:35Z</time>
      </trkpt>
      <trkpt lat="42.60315" lon="0.92505">
        <ele>2435.64</ele>
        <time>2011-02-20T09:10:48Z</time>
      </trkpt>
      <trkpt lat="42.60309" lon="0.92506">
        <ele>2436.6</ele>
        <time>2011-02-20T09:11:01Z</time>
      </trkpt>
      <trkpt lat="42.60306" lon="0.92511">
        <ele>2437.56</ele>
        <time>2011-02-20T09:11:10Z</time>
      </trkpt>
      <trkpt lat="42.60308" lon="0.92513">
        <ele>2439</ele>
        <time>2011-02-20T09:11:16Z</time>
      </trkpt>
      <trkpt lat="42.60307" lon="0.92524">
        <ele>2439.96</ele>
        <time>2011-02-20T09:11:31Z</time>
      </trkpt>
      <trkpt lat="42.603" lon="0.92528">
        <ele>2440.92</ele>
        <time>2011-02-20T09:11:43Z</time>
      </trkpt>
      <trkpt lat="42.60294" lon="0.92533">
        <ele>2441.41</ele>
        <time>2011-02-20T09:11:55Z</time>
      </trkpt>
      <trkpt lat="42.60287" lon="0.92534">
        <ele>2443.81</ele>
        <time>2011-02-20T09:12:07Z</time>
      </trkpt>
      <trkpt lat="42.60278" lon="0.92533">
        <ele>2443.81</ele>
        <time>2011-02-20T09:12:20Z</time>
      </trkpt>
      <trkpt lat="42.60269" lon="0.92532">
        <ele>2445.25</ele>
        <time>2011-02-20T09:12:35Z</time>
      </trkpt>
      <trkpt lat="42.60268" lon="0.92532">
        <ele>2446.21</ele>
        <time>2011-02-20T09:12:36Z</time>
      </trkpt>
      <trkpt lat="42.60257" lon="0.92532">
        <ele>2446.21</ele>
        <time>2011-02-20T09:12:51Z</time>
      </trkpt>
      <trkpt lat="42.60248" lon="0.92535">
        <ele>2447.65</ele>
        <time>2011-02-20T09:13:05Z</time>
      </trkpt>
      <trkpt lat="42.60238" lon="0.9254">
        <ele>2449.1</ele>
        <time>2011-02-20T09:13:21Z</time>
      </trkpt>
      <trkpt lat="42.6023" lon="0.9255">
        <ele>2450.54</ele>
        <time>2011-02-20T09:13:38Z</time>
      </trkpt>
      <trkpt lat="42.60234" lon="0.92557">
        <ele>2452.46</ele>
        <time>2011-02-20T09:13:49Z</time>
      </trkpt>
      <trkpt lat="42.60239" lon="0.92563">
        <ele>2451.5</ele>
        <time>2011-02-20T09:13:57Z</time>
      </trkpt>
      <trkpt lat="42.60243" lon="0.92569">
        <ele>2451.98</ele>
        <time>2011-02-20T09:14:04Z</time>
      </trkpt>
      <trkpt lat="42.60243" lon="0.92579">
        <ele>2452.46</ele>
        <time>2011-02-20T09:14:16Z</time>
      </trkpt>
      <trkpt lat="42.60239" lon="0.92591">
        <ele>2452.94</ele>
        <time>2011-02-20T09:14:34Z</time>
      </trkpt>
      <trkpt lat="42.60238" lon="0.92604">
        <ele>2452.94</ele>
        <time>2011-02-20T09:14:49Z</time>
      </trkpt>
      <trkpt lat="42.60239" lon="0.92607">
        <ele>2452.94</ele>
        <time>2011-02-20T09:14:52Z</time>
      </trkpt>
      <trkpt lat="42.60245" lon="0.92613">
        <ele>2455.34</ele>
        <time>2011-02-20T09:15:06Z</time>
      </trkpt>
      <trkpt lat="42.60251" lon="0.92619">
        <ele>2456.31</ele>
        <time>2011-02-20T09:15:20Z</time>
      </trkpt>
      <trkpt lat="42.60251" lon="0.92623">
        <ele>2456.31</ele>
        <time>2011-02-20T09:15:24Z</time>
      </trkpt>
      <trkpt lat="42.60247" lon="0.92631">
        <ele>2459.19</ele>
        <time>2011-02-20T09:15:41Z</time>
      </trkpt>
      <trkpt lat="42.60241" lon="0.92638">
        <ele>2461.11</ele>
        <time>2011-02-20T09:15:53Z</time>
      </trkpt>
      <trkpt lat="42.60238" lon="0.92645">
        <ele>2462.07</ele>
        <time>2011-02-20T09:16:02Z</time>
      </trkpt>
      <trkpt lat="42.60232" lon="0.92653">
        <ele>2464</ele>
        <time>2011-02-20T09:16:14Z</time>
      </trkpt>
      <trkpt lat="42.60225" lon="0.92655">
        <ele>2464.96</ele>
        <time>2011-02-20T09:16:26Z</time>
      </trkpt>
      <trkpt lat="42.60218" lon="0.92655">
        <ele>2465.92</ele>
        <time>2011-02-20T09:16:38Z</time>
      </trkpt>
      <trkpt lat="42.60212" lon="0.92655">
        <ele>2467.84</ele>
        <time>2011-02-20T09:16:50Z</time>
      </trkpt>
      <trkpt lat="42.60202" lon="0.92656">
        <ele>2468.32</ele>
        <time>2011-02-20T09:17:04Z</time>
      </trkpt>
      <trkpt lat="42.60192" lon="0.9266">
        <ele>2468.8</ele>
        <time>2011-02-20T09:17:18Z</time>
      </trkpt>
      <trkpt lat="42.6019" lon="0.9266">
        <ele>2469.28</ele>
        <time>2011-02-20T09:17:20Z</time>
      </trkpt>
      <trkpt lat="42.60186" lon="0.92662">
        <ele>2470.73</ele>
        <time>2011-02-20T09:17:31Z</time>
      </trkpt>
      <trkpt lat="42.60183" lon="0.92655">
        <ele>2471.69</ele>
        <time>2011-02-20T09:17:40Z</time>
      </trkpt>
      <trkpt lat="42.6018" lon="0.92653">
        <ele>2472.65</ele>
        <time>2011-02-20T09:17:58Z</time>
      </trkpt>
      <trkpt lat="42.6018" lon="0.92652">
        <ele>2472.17</ele>
        <time>2011-02-20T09:18:15Z</time>
      </trkpt>
      <trkpt lat="42.60179" lon="0.92649">
        <ele>2472.65</ele>
        <time>2011-02-20T09:18:24Z</time>
      </trkpt>
      <trkpt lat="42.60175" lon="0.92645">
        <ele>2474.09</ele>
        <time>2011-02-20T09:18:33Z</time>
      </trkpt>
      <trkpt lat="42.60173" lon="0.92652">
        <ele>2475.53</ele>
        <time>2011-02-20T09:18:47Z</time>
      </trkpt>
      <trkpt lat="42.60169" lon="0.92649">
        <ele>2476.49</ele>
        <time>2011-02-20T09:18:57Z</time>
      </trkpt>
      <trkpt lat="42.60166" lon="0.92647">
        <ele>2477.45</ele>
        <time>2011-02-20T09:19:04Z</time>
      </trkpt>
      <trkpt lat="42.60164" lon="0.92649">
        <ele>2477.94</ele>
        <time>2011-02-20T09:19:07Z</time>
      </trkpt>
      <trkpt lat="42.60161" lon="0.92654">
        <ele>2478.9</ele>
        <time>2011-02-20T09:19:18Z</time>
      </trkpt>
      <trkpt lat="42.60161" lon="0.92654">
        <ele>2479.38</ele>
        <time>2011-02-20T09:19:45Z</time>
      </trkpt>
      <trkpt lat="42.60161" lon="0.92653">
        <ele>2478.42</ele>
        <time>2011-02-20T09:20:31Z</time>
      </trkpt>
      <trkpt lat="42.60162" lon="0.92653">
        <ele>2477.94</ele>
        <time>2011-02-20T09:21:09Z</time>
      </trkpt>
      <trkpt lat="42.60156" lon="0.9266">
        <ele>2479.38</ele>
        <time>2011-02-20T09:21:22Z</time>
      </trkpt>
      <trkpt lat="42.60147" lon="0.92668">
        <ele>2480.82</ele>
        <time>2011-02-20T09:21:38Z</time>
      </trkpt>
      <trkpt lat="42.60147" lon="0.92679">
        <ele>2482.26</ele>
        <time>2011-02-20T09:21:54Z</time>
      </trkpt>
      <trkpt lat="42.60148" lon="0.92686">
        <ele>2484.18</ele>
        <time>2011-02-20T09:22:08Z</time>
      </trkpt>
      <trkpt lat="42.60149" lon="0.92697">
        <ele>2486.59</ele>
        <time>2011-02-20T09:22:22Z</time>
      </trkpt>
      <trkpt lat="42.60149" lon="0.92707">
        <ele>2488.03</ele>
        <time>2011-02-20T09:22:36Z</time>
      </trkpt>
      <trkpt lat="42.60149" lon="0.92712">
        <ele>2488.99</ele>
        <time>2011-02-20T09:22:50Z</time>
      </trkpt>
      <trkpt lat="42.60148" lon="0.92716">
        <ele>2489.95</ele>
        <time>2011-02-20T09:23:02Z</time>
      </trkpt>
      <trkpt lat="42.60144" lon="0.92712">
        <ele>2490.91</ele>
        <time>2011-02-20T09:23:12Z</time>
      </trkpt>
      <trkpt lat="42.60136" lon="0.92707">
        <ele>2492.36</ele>
        <time>2011-02-20T09:23:26Z</time>
      </trkpt>
      <trkpt lat="42.60132" lon="0.92707">
        <ele>2494.28</ele>
        <time>2011-02-20T09:23:35Z</time>
      </trkpt>
      <trkpt lat="42.60131" lon="0.92706">
        <ele>2493.8</ele>
        <time>2011-02-20T09:23:40Z</time>
      </trkpt>
      <trkpt lat="42.60126" lon="0.92703">
        <ele>2494.28</ele>
        <time>2011-02-20T09:23:49Z</time>
      </trkpt>
      <trkpt lat="42.60125" lon="0.92708">
        <ele>2495.24</ele>
        <time>2011-02-20T09:23:58Z</time>
      </trkpt>
      <trkpt lat="42.60121" lon="0.92721">
        <ele>2497.64</ele>
        <time>2011-02-20T09:24:14Z</time>
      </trkpt>
      <trkpt lat="42.60114" lon="0.92729">
        <ele>2499.08</ele>
        <time>2011-02-20T09:24:28Z</time>
      </trkpt>
      <trkpt lat="42.60108" lon="0.92732">
        <ele>2499.57</ele>
        <time>2011-02-20T09:24:36Z</time>
      </trkpt>
      <trkpt lat="42.60099" lon="0.92733">
        <ele>2500.53</ele>
        <time>2011-02-20T09:24:50Z</time>
      </trkpt>
      <trkpt lat="42.60093" lon="0.92734">
        <ele>2502.93</ele>
        <time>2011-02-20T09:25:05Z</time>
      </trkpt>
      <trkpt lat="42.60089" lon="0.92737">
        <ele>2503.89</ele>
        <time>2011-02-20T09:25:17Z</time>
      </trkpt>
      <trkpt lat="42.60083" lon="0.9274">
        <ele>2505.81</ele>
        <time>2011-02-20T09:25:29Z</time>
      </trkpt>
      <trkpt lat="42.60078" lon="0.92745">
        <ele>2505.81</ele>
        <time>2011-02-20T09:25:40Z</time>
      </trkpt>
      <trkpt lat="42.60083" lon="0.92752">
        <ele>2507.26</ele>
        <time>2011-02-20T09:25:56Z</time>
      </trkpt>
      <trkpt lat="42.60088" lon="0.92757">
        <ele>2508.22</ele>
        <time>2011-02-20T09:26:07Z</time>
      </trkpt>
      <trkpt lat="42.60091" lon="0.92761">
        <ele>2508.7</ele>
        <time>2011-02-20T09:26:21Z</time>
      </trkpt>
      <trkpt lat="42.60094" lon="0.92765">
        <ele>2510.62</ele>
        <time>2011-02-20T09:26:29Z</time>
      </trkpt>
      <trkpt lat="42.60092" lon="0.92771">
        <ele>2510.62</ele>
        <time>2011-02-20T09:26:39Z</time>
      </trkpt>
      <trkpt lat="42.60083" lon="0.92775">
        <ele>2512.06</ele>
        <time>2011-02-20T09:26:52Z</time>
      </trkpt>
      <trkpt lat="42.60075" lon="0.9278">
        <ele>2513.02</ele>
        <time>2011-02-20T09:27:05Z</time>
      </trkpt>
      <trkpt lat="42.60073" lon="0.92781">
        <ele>2513.98</ele>
        <time>2011-02-20T09:27:08Z</time>
      </trkpt>
      <trkpt lat="42.60067" lon="0.92782">
        <ele>2514.47</ele>
        <time>2011-02-20T09:27:19Z</time>
      </trkpt>
      <trkpt lat="42.60061" lon="0.92784">
        <ele>2516.39</ele>
        <time>2011-02-20T09:27:32Z</time>
      </trkpt>
      <trkpt lat="42.60057" lon="0.92786">
        <ele>2517.35</ele>
        <time>2011-02-20T09:27:44Z</time>
      </trkpt>
      <trkpt lat="42.60054" lon="0.92789">
        <ele>2519.75</ele>
        <time>2011-02-20T09:27:53Z</time>
      </trkpt>
      <trkpt lat="42.6005" lon="0.92793">
        <ele>2520.71</ele>
        <time>2011-02-20T09:28:07Z</time>
      </trkpt>
      <trkpt lat="42.60049" lon="0.92799">
        <ele>2522.16</ele>
        <time>2011-02-20T09:28:22Z</time>
      </trkpt>
      <trkpt lat="42.60049" lon="0.92805">
        <ele>2523.12</ele>
        <time>2011-02-20T09:28:32Z</time>
      </trkpt>
      <trkpt lat="42.60053" lon="0.92811">
        <ele>2525.04</ele>
        <time>2011-02-20T09:28:45Z</time>
      </trkpt>
      <trkpt lat="42.60053" lon="0.92812">
        <ele>2524.56</ele>
        <time>2011-02-20T09:28:49Z</time>
      </trkpt>
      <trkpt lat="42.60053" lon="0.92823">
        <ele>2525.52</ele>
        <time>2011-02-20T09:29:00Z</time>
      </trkpt>
      <trkpt lat="42.60051" lon="0.92834">
        <ele>2525.04</ele>
        <time>2011-02-20T09:29:12Z</time>
      </trkpt>
      <trkpt lat="42.60049" lon="0.92842">
        <ele>2524.56</ele>
        <time>2011-02-20T09:29:26Z</time>
      </trkpt>
      <trkpt lat="42.60044" lon="0.9285">
        <ele>2523.12</ele>
        <time>2011-02-20T09:29:35Z</time>
      </trkpt>
      <trkpt lat="42.60043" lon="0.92852">
        <ele>2523.6</ele>
        <time>2011-02-20T09:29:50Z</time>
      </trkpt>
      <trkpt lat="42.60043" lon="0.92852">
        <ele>2523.6</ele>
        <time>2011-02-20T09:30:19Z</time>
      </trkpt>
      <trkpt lat="42.60041" lon="0.92855">
        <ele>2524.08</ele>
        <time>2011-02-20T09:30:54Z</time>
      </trkpt>
      <trkpt lat="42.60038" lon="0.92862">
        <ele>2525.04</ele>
        <time>2011-02-20T09:31:08Z</time>
      </trkpt>
      <trkpt lat="42.60039" lon="0.92863">
        <ele>2526.48</ele>
        <time>2011-02-20T09:31:10Z</time>
      </trkpt>
      <trkpt lat="42.60038" lon="0.92876">
        <ele>2527.92</ele>
        <time>2011-02-20T09:31:26Z</time>
      </trkpt>
      <trkpt lat="42.60033" lon="0.92889">
        <ele>2528.89</ele>
        <time>2011-02-20T09:31:40Z</time>
      </trkpt>
      <trkpt lat="42.60031" lon="0.92903">
        <ele>2527.92</ele>
        <time>2011-02-20T09:31:51Z</time>
      </trkpt>
      <trkpt lat="42.60031" lon="0.92908">
        <ele>2528.4</ele>
        <time>2011-02-20T09:32:06Z</time>
      </trkpt>
      <trkpt lat="42.60029" lon="0.92913">
        <ele>2527.92</ele>
        <time>2011-02-20T09:32:11Z</time>
      </trkpt>
      <trkpt lat="42.60026" lon="0.92927">
        <ele>2529.85</ele>
        <time>2011-02-20T09:32:25Z</time>
      </trkpt>
      <trkpt lat="42.60022" lon="0.9294">
        <ele>2530.81</ele>
        <time>2011-02-20T09:32:41Z</time>
      </trkpt>
      <trkpt lat="42.60015" lon="0.92946">
        <ele>2532.25</ele>
        <time>2011-02-20T09:32:55Z</time>
      </trkpt>
      <trkpt lat="42.60013" lon="0.9296">
        <ele>2533.21</ele>
        <time>2011-02-20T09:33:11Z</time>
      </trkpt>
      <trkpt lat="42.60013" lon="0.92961">
        <ele>2534.65</ele>
        <time>2011-02-20T09:33:13Z</time>
      </trkpt>
      <trkpt lat="42.60019" lon="0.92972">
        <ele>2534.65</ele>
        <time>2011-02-20T09:33:27Z</time>
      </trkpt>
      <trkpt lat="42.60023" lon="0.92974">
        <ele>2534.65</ele>
        <time>2011-02-20T09:33:40Z</time>
      </trkpt>
      <trkpt lat="42.60024" lon="0.92974">
        <ele>2537.06</ele>
        <time>2011-02-20T09:33:51Z</time>
      </trkpt>
      <trkpt lat="42.60023" lon="0.92975">
        <ele>2538.02</ele>
        <time>2011-02-20T09:33:53Z</time>
      </trkpt>
      <trkpt lat="42.60019" lon="0.92986">
        <ele>2538.5</ele>
        <time>2011-02-20T09:34:09Z</time>
      </trkpt>
      <trkpt lat="42.60012" lon="0.92985">
        <ele>2540.42</ele>
        <time>2011-02-20T09:34:24Z</time>
      </trkpt>
      <trkpt lat="42.60009" lon="0.92985">
        <ele>2542.34</ele>
        <time>2011-02-20T09:34:31Z</time>
      </trkpt>
      <trkpt lat="42.59998" lon="0.92988">
        <ele>2543.79</ele>
        <time>2011-02-20T09:34:48Z</time>
      </trkpt>
      <trkpt lat="42.59989" lon="0.9299">
        <ele>2545.23</ele>
        <time>2011-02-20T09:35:03Z</time>
      </trkpt>
      <trkpt lat="42.59987" lon="0.92991">
        <ele>2545.23</ele>
        <time>2011-02-20T09:35:06Z</time>
      </trkpt>
      <trkpt lat="42.59982" lon="0.92994">
        <ele>2546.67</ele>
        <time>2011-02-20T09:35:12Z</time>
      </trkpt>
      <trkpt lat="42.59974" lon="0.92998">
        <ele>2547.63</ele>
        <time>2011-02-20T09:35:25Z</time>
      </trkpt>
      <trkpt lat="42.59964" lon="0.93003">
        <ele>2548.59</ele>
        <time>2011-02-20T09:35:41Z</time>
      </trkpt>
      <trkpt lat="42.59956" lon="0.93006">
        <ele>2550.51</ele>
        <time>2011-02-20T09:35:55Z</time>
      </trkpt>
      <trkpt lat="42.59949" lon="0.93007">
        <ele>2551.48</ele>
        <time>2011-02-20T09:36:07Z</time>
      </trkpt>
      <trkpt lat="42.59943" lon="0.93008">
        <ele>2554.84</ele>
        <time>2011-02-20T09:36:20Z</time>
      </trkpt>
      <trkpt lat="42.59937" lon="0.93008">
        <ele>2555.8</ele>
        <time>2011-02-20T09:36:33Z</time>
      </trkpt>
      <trkpt lat="42.59934" lon="0.93009">
        <ele>2556.28</ele>
        <time>2011-02-20T09:36:47Z</time>
      </trkpt>
      <trkpt lat="42.5993" lon="0.93015">
        <ele>2558.21</ele>
        <time>2011-02-20T09:37:08Z</time>
      </trkpt>
      <trkpt lat="42.59933" lon="0.93018">
        <ele>2559.17</ele>
        <time>2011-02-20T09:37:14Z</time>
      </trkpt>
      <trkpt lat="42.59938" lon="0.9302">
        <ele>2560.61</ele>
        <time>2011-02-20T09:37:28Z</time>
      </trkpt>
      <trkpt lat="42.59939" lon="0.9302">
        <ele>2560.13</ele>
        <time>2011-02-20T09:38:16Z</time>
      </trkpt>
      <trkpt lat="42.59941" lon="0.93022">
        <ele>2560.61</ele>
        <time>2011-02-20T09:38:29Z</time>
      </trkpt>
      <trkpt lat="42.59942" lon="0.93028">
        <ele>2561.09</ele>
        <time>2011-02-20T09:38:38Z</time>
      </trkpt>
      <trkpt lat="42.59938" lon="0.93029">
        <ele>2562.53</ele>
        <time>2011-02-20T09:38:51Z</time>
      </trkpt>
      <trkpt lat="42.59938" lon="0.9303">
        <ele>2563.97</ele>
        <time>2011-02-20T09:38:54Z</time>
      </trkpt>
      <trkpt lat="42.59937" lon="0.93034">
        <ele>2565.42</ele>
        <time>2011-02-20T09:39:05Z</time>
      </trkpt>
      <trkpt lat="42.59939" lon="0.93039">
        <ele>2565.9</ele>
        <time>2011-02-20T09:39:16Z</time>
      </trkpt>
      <trkpt lat="42.59941" lon="0.93047">
        <ele>2568.3</ele>
        <time>2011-02-20T09:39:29Z</time>
      </trkpt>
      <trkpt lat="42.59942" lon="0.9305">
        <ele>2568.78</ele>
        <time>2011-02-20T09:39:39Z</time>
      </trkpt>
      <trkpt lat="42.59941" lon="0.93052">
        <ele>2569.74</ele>
        <time>2011-02-20T09:39:44Z</time>
      </trkpt>
      <trkpt lat="42.59933" lon="0.93052">
        <ele>2571.18</ele>
        <time>2011-02-20T09:39:57Z</time>
      </trkpt>
      <trkpt lat="42.59934" lon="0.93055">
        <ele>2572.14</ele>
        <time>2011-02-20T09:40:08Z</time>
      </trkpt>
      <trkpt lat="42.59935" lon="0.93063">
        <ele>2574.07</ele>
        <time>2011-02-20T09:40:19Z</time>
      </trkpt>
      <trkpt lat="42.59929" lon="0.93064">
        <ele>2576.47</ele>
        <time>2011-02-20T09:40:32Z</time>
      </trkpt>
      <trkpt lat="42.59928" lon="0.93065">
        <ele>2576.95</ele>
        <time>2011-02-20T09:40:37Z</time>
      </trkpt>
      <trkpt lat="42.59926" lon="0.93073">
        <ele>2578.87</ele>
        <time>2011-02-20T09:40:50Z</time>
      </trkpt>
      <trkpt lat="42.59925" lon="0.93074">
        <ele>2578.87</ele>
        <time>2011-02-20T09:40:52Z</time>
      </trkpt>
      <trkpt lat="42.59923" lon="0.93078">
        <ele>2578.87</ele>
        <time>2011-02-20T09:41:04Z</time>
      </trkpt>
      <trkpt lat="42.59922" lon="0.93081">
        <ele>2579.84</ele>
        <time>2011-02-20T09:41:08Z</time>
      </trkpt>
      <trkpt lat="42.59915" lon="0.93093">
        <ele>2582.24</ele>
        <time>2011-02-20T09:41:23Z</time>
      </trkpt>
      <trkpt lat="42.59918" lon="0.93099">
        <ele>2583.68</ele>
        <time>2011-02-20T09:41:33Z</time>
      </trkpt>
      <trkpt lat="42.59913" lon="0.93103">
        <ele>2585.6</ele>
        <time>2011-02-20T09:41:43Z</time>
      </trkpt>
      <trkpt lat="42.59908" lon="0.93106">
        <ele>2587.04</ele>
        <time>2011-02-20T09:41:54Z</time>
      </trkpt>
      <trkpt lat="42.59907" lon="0.93105">
        <ele>2588.49</ele>
        <time>2011-02-20T09:41:57Z</time>
      </trkpt>
      <trkpt lat="42.59898" lon="0.93101">
        <ele>2589.93</ele>
        <time>2011-02-20T09:42:13Z</time>
      </trkpt>
      <trkpt lat="42.59898" lon="0.93101">
        <ele>2589.93</ele>
        <time>2011-02-20T09:42:32Z</time>
      </trkpt>
      <trkpt lat="42.59894" lon="0.931">
        <ele>2589.93</ele>
        <time>2011-02-20T09:42:47Z</time>
      </trkpt>
      <trkpt lat="42.59895" lon="0.93102">
        <ele>2591.37</ele>
        <time>2011-02-20T09:43:00Z</time>
      </trkpt>
      <trkpt lat="42.59897" lon="0.93105">
        <ele>2590.89</ele>
        <time>2011-02-20T09:43:24Z</time>
      </trkpt>
      <trkpt lat="42.59897" lon="0.93105">
        <ele>2591.85</ele>
        <time>2011-02-20T09:43:25Z</time>
      </trkpt>
      <trkpt lat="42.599" lon="0.93109">
        <ele>2590.41</ele>
        <time>2011-02-20T09:43:37Z</time>
      </trkpt>
      <trkpt lat="42.59898" lon="0.93109">
        <ele>2591.37</ele>
        <time>2011-02-20T09:43:44Z</time>
      </trkpt>
      <trkpt lat="42.59894" lon="0.93108">
        <ele>2592.33</ele>
        <time>2011-02-20T09:43:58Z</time>
      </trkpt>
      <trkpt lat="42.59893" lon="0.93106">
        <ele>2592.33</ele>
        <time>2011-02-20T09:44:09Z</time>
      </trkpt>
      <trkpt lat="42.59894" lon="0.93106">
        <ele>2591.37</ele>
        <time>2011-02-20T09:44:19Z</time>
      </trkpt>
      <trkpt lat="42.59891" lon="0.93103">
        <ele>2591.37</ele>
        <time>2011-02-20T09:44:29Z</time>
      </trkpt>
      <trkpt lat="42.59887" lon="0.93104">
        <ele>2592.33</ele>
        <time>2011-02-20T09:44:40Z</time>
      </trkpt>
      <trkpt lat="42.59881" lon="0.93102">
        <ele>2591.85</ele>
        <time>2011-02-20T09:44:51Z</time>
      </trkpt>
      <trkpt lat="42.59878" lon="0.93097">
        <ele>2590.89</ele>
        <time>2011-02-20T09:44:59Z</time>
      </trkpt>
      <trkpt lat="42.59874" lon="0.93098">
        <ele>2591.37</ele>
        <time>2011-02-20T09:45:04Z</time>
      </trkpt>
      <trkpt lat="42.5987" lon="0.93098">
        <ele>2591.85</ele>
        <time>2011-02-20T09:45:17Z</time>
      </trkpt>
      <trkpt lat="42.59871" lon="0.93101">
        <ele>2592.33</ele>
        <time>2011-02-20T09:45:25Z</time>
      </trkpt>
      <trkpt lat="42.59878" lon="0.9311">
        <ele>2594.25</ele>
        <time>2011-02-20T09:45:38Z</time>
      </trkpt>
      <trkpt lat="42.59879" lon="0.93111">
        <ele>2595.7</ele>
        <time>2011-02-20T09:45:40Z</time>
      </trkpt>
      <trkpt lat="42.59885" lon="0.9312">
        <ele>2597.14</ele>
        <time>2011-02-20T09:45:51Z</time>
      </trkpt>
      <trkpt lat="42.59889" lon="0.93131">
        <ele>2599.06</ele>
        <time>2011-02-20T09:46:04Z</time>
      </trkpt>
      <trkpt lat="42.59889" lon="0.93132">
        <ele>2599.06</ele>
        <time>2011-02-20T09:46:05Z</time>
      </trkpt>
      <trkpt lat="42.5989" lon="0.93137">
        <ele>2599.54</ele>
        <time>2011-02-20T09:46:09Z</time>
      </trkpt>
      <trkpt lat="42.59891" lon="0.9314">
        <ele>2599.54</ele>
        <time>2011-02-20T09:46:13Z</time>
      </trkpt>
      <trkpt lat="42.59889" lon="0.93148">
        <ele>2600.5</ele>
        <time>2011-02-20T09:46:20Z</time>
      </trkpt>
      <trkpt lat="42.59886" lon="0.93151">
        <ele>2600.98</ele>
        <time>2011-02-20T09:46:25Z</time>
      </trkpt>
      <trkpt lat="42.59876" lon="0.9316">
        <ele>2601.46</ele>
        <time>2011-02-20T09:46:39Z</time>
      </trkpt>
      <trkpt lat="42.59875" lon="0.9316">
        <ele>2601.46</ele>
        <time>2011-02-20T09:46:40Z</time>
      </trkpt>
      <trkpt lat="42.59865" lon="0.93162">
        <ele>2602.43</ele>
        <time>2011-02-20T09:46:53Z</time>
      </trkpt>
      <trkpt lat="42.59862" lon="0.93162">
        <ele>2602.43</ele>
        <time>2011-02-20T09:47:05Z</time>
      </trkpt>
      <trkpt lat="42.59862" lon="0.93161">
        <ele>2601.95</ele>
        <time>2011-02-20T09:47:20Z</time>
      </trkpt>
      <trkpt lat="42.59857" lon="0.93159">
        <ele>2602.43</ele>
        <time>2011-02-20T09:47:30Z</time>
      </trkpt>
      <trkpt lat="42.59853" lon="0.93157">
        <ele>2602.43</ele>
        <time>2011-02-20T09:47:35Z</time>
      </trkpt>
      <trkpt lat="42.59846" lon="0.93158">
        <ele>2600.5</ele>
        <time>2011-02-20T09:47:45Z</time>
      </trkpt>
      <trkpt lat="42.59839" lon="0.93156">
        <ele>2599.54</ele>
        <time>2011-02-20T09:47:47Z</time>
      </trkpt>
      <trkpt lat="42.59835" lon="0.93153">
        <ele>2597.62</ele>
        <time>2011-02-20T09:47:49Z</time>
      </trkpt>
      <trkpt lat="42.59829" lon="0.93148">
        <ele>2597.62</ele>
        <time>2011-02-20T09:47:59Z</time>
      </trkpt>
      <trkpt lat="42.59829" lon="0.93148">
        <ele>2599.06</ele>
        <time>2011-02-20T09:48:13Z</time>
      </trkpt>
      <trkpt lat="42.59829" lon="0.93148">
        <ele>2595.7</ele>
        <time>2011-02-20T09:48:19Z</time>
      </trkpt>
      <trkpt lat="42.59829" lon="0.93148">
        <ele>2597.14</ele>
        <time>2011-02-20T09:50:29Z</time>
      </trkpt>
      <trkpt lat="42.5983" lon="0.93149">
        <ele>2597.14</ele>
        <time>2011-02-20T09:55:21Z</time>
      </trkpt>
      <trkpt lat="42.5983" lon="0.93149">
        <ele>2595.7</ele>
        <time>2011-02-20T09:55:24Z</time>
      </trkpt>
      <trkpt lat="42.59829" lon="0.9315">
        <ele>2595.7</ele>
        <time>2011-02-20T09:55:43Z</time>
      </trkpt>
      <trkpt lat="42.59829" lon="0.9315">
        <ele>2587.04</ele>
        <time>2011-02-20T09:56:50Z</time>
      </trkpt>
      <trkpt lat="42.59829" lon="0.9315">
        <ele>2596.66</ele>
        <time>2011-02-20T09:56:51Z</time>
      </trkpt>
      <trkpt lat="42.59829" lon="0.9315">
        <ele>2596.66</ele>
        <time>2011-02-20T09:57:02Z</time>
      </trkpt>
      <trkpt lat="42.59829" lon="0.9315">
        <ele>2596.66</ele>
        <time>2011-02-20T09:57:39Z</time>
      </trkpt>
      <trkpt lat="42.59829" lon="0.9315">
        <ele>2596.66</ele>
        <time>2011-02-20T09:58:20Z</time>
      </trkpt>
      <trkpt lat="42.59825" lon="0.93141">
        <ele>2596.66</ele>
        <time>2011-02-20T09:58:38Z</time>
      </trkpt>
      <trkpt lat="42.59824" lon="0.93139">
        <ele>2596.66</ele>
        <time>2011-02-20T09:58:40Z</time>
      </trkpt>
      <trkpt lat="42.59819" lon="0.93126">
        <ele>2597.62</ele>
        <time>2011-02-20T09:58:52Z</time>
      </trkpt>
      <trkpt lat="42.59818" lon="0.93122">
        <ele>2597.14</ele>
        <time>2011-02-20T09:59:04Z</time>
      </trkpt>
      <trkpt lat="42.59818" lon="0.93121">
        <ele>2596.18</ele>
        <time>2011-02-20T09:59:13Z</time>
      </trkpt>
      <trkpt lat="42.59819" lon="0.93121">
        <ele>2597.14</ele>
        <time>2011-02-20T10:01:32Z</time>
      </trkpt>
      <trkpt lat="42.59818" lon="0.93123">
        <ele>2598.58</ele>
        <time>2011-02-20T10:01:40Z</time>
      </trkpt>
      <trkpt lat="42.59818" lon="0.93123">
        <ele>2597.14</ele>
        <time>2011-02-20T10:01:52Z</time>
      </trkpt>
      <trkpt lat="42.59817" lon="0.93124">
        <ele>2598.58</ele>
        <time>2011-02-20T10:01:59Z</time>
      </trkpt>
      <trkpt lat="42.59816" lon="0.93126">
        <ele>2597.62</ele>
        <time>2011-02-20T10:02:02Z</time>
      </trkpt>
      <trkpt lat="42.59806" lon="0.93133">
        <ele>2597.62</ele>
        <time>2011-02-20T10:02:11Z</time>
      </trkpt>
      <trkpt lat="42.59802" lon="0.9313">
        <ele>2599.06</ele>
        <time>2011-02-20T10:02:16Z</time>
      </trkpt>
      <trkpt lat="42.59799" lon="0.93126">
        <ele>2599.54</ele>
        <time>2011-02-20T10:02:20Z</time>
      </trkpt>
      <trkpt lat="42.59795" lon="0.93126">
        <ele>2600.5</ele>
        <time>2011-02-20T10:02:22Z</time>
      </trkpt>
      <trkpt lat="42.59785" lon="0.93114">
        <ele>2599.54</ele>
        <time>2011-02-20T10:02:32Z</time>
      </trkpt>
      <trkpt lat="42.59784" lon="0.93113">
        <ele>2599.54</ele>
        <time>2011-02-20T10:02:34Z</time>
      </trkpt>
      <trkpt lat="42.59777" lon="0.93107">
        <ele>2600.5</ele>
        <time>2011-02-20T10:02:42Z</time>
      </trkpt>
      <trkpt lat="42.59772" lon="0.93099">
        <ele>2600.5</ele>
        <time>2011-02-20T10:02:48Z</time>
      </trkpt>
      <trkpt lat="42.59765" lon="0.9309">
        <ele>2601.46</ele>
        <time>2011-02-20T10:02:55Z</time>
      </trkpt>
      <trkpt lat="42.59766" lon="0.93083">
        <ele>2601.46</ele>
        <time>2011-02-20T10:03:00Z</time>
      </trkpt>
      <trkpt lat="42.59766" lon="0.93078">
        <ele>2602.43</ele>
        <time>2011-02-20T10:03:04Z</time>
      </trkpt>
      <trkpt lat="42.59766" lon="0.93067">
        <ele>2604.83</ele>
        <time>2011-02-20T10:03:13Z</time>
      </trkpt>
      <trkpt lat="42.59765" lon="0.93064">
        <ele>2604.83</ele>
        <time>2011-02-20T10:03:16Z</time>
      </trkpt>
      <trkpt lat="42.59762" lon="0.93061">
        <ele>2607.23</ele>
        <time>2011-02-20T10:03:23Z</time>
      </trkpt>
      <trkpt lat="42.59755" lon="0.93061">
        <ele>2608.67</ele>
        <time>2011-02-20T10:03:32Z</time>
      </trkpt>
      <trkpt lat="42.59755" lon="0.93057">
        <ele>2609.64</ele>
        <time>2011-02-20T10:03:36Z</time>
      </trkpt>
      <trkpt lat="42.59755" lon="0.93054">
        <ele>2610.12</ele>
        <time>2011-02-20T10:03:39Z</time>
      </trkpt>
      <trkpt lat="42.59756" lon="0.93049">
        <ele>2611.08</ele>
        <time>2011-02-20T10:03:44Z</time>
      </trkpt>
      <trkpt lat="42.59755" lon="0.93044">
        <ele>2612.04</ele>
        <time>2011-02-20T10:03:49Z</time>
      </trkpt>
      <trkpt lat="42.59757" lon="0.93039">
        <ele>2612.52</ele>
        <time>2011-02-20T10:03:52Z</time>
      </trkpt>
      <trkpt lat="42.59755" lon="0.93033">
        <ele>2614.44</ele>
        <time>2011-02-20T10:04:00Z</time>
      </trkpt>
      <trkpt lat="42.59752" lon="0.93027">
        <ele>2615.4</ele>
        <time>2011-02-20T10:04:07Z</time>
      </trkpt>
      <trkpt lat="42.59744" lon="0.93022">
        <ele>2616.37</ele>
        <time>2011-02-20T10:04:18Z</time>
      </trkpt>
      <trkpt lat="42.59734" lon="0.93024">
        <ele>2617.81</ele>
        <time>2011-02-20T10:04:29Z</time>
      </trkpt>
      <trkpt lat="42.59729" lon="0.93027">
        <ele>2617.33</ele>
        <time>2011-02-20T10:04:36Z</time>
      </trkpt>
      <trkpt lat="42.59723" lon="0.93031">
        <ele>2619.25</ele>
        <time>2011-02-20T10:04:45Z</time>
      </trkpt>
      <trkpt lat="42.59715" lon="0.93036">
        <ele>2621.17</ele>
        <time>2011-02-20T10:04:57Z</time>
      </trkpt>
      <trkpt lat="42.59713" lon="0.93037">
        <ele>2621.65</ele>
        <time>2011-02-20T10:04:59Z</time>
      </trkpt>
      <trkpt lat="42.5971" lon="0.93038">
        <ele>2622.13</ele>
        <time>2011-02-20T10:05:03Z</time>
      </trkpt>
      <trkpt lat="42.59707" lon="0.93033">
        <ele>2623.09</ele>
        <time>2011-02-20T10:05:10Z</time>
      </trkpt>
      <trkpt lat="42.59706" lon="0.93033">
        <ele>2623.09</ele>
        <time>2011-02-20T10:05:12Z</time>
      </trkpt>
      <trkpt lat="42.59705" lon="0.93024">
        <ele>2624.54</ele>
        <time>2011-02-20T10:05:22Z</time>
      </trkpt>
      <trkpt lat="42.59702" lon="0.93018">
        <ele>2625.98</ele>
        <time>2011-02-20T10:05:31Z</time>
      </trkpt>
      <trkpt lat="42.59695" lon="0.93019">
        <ele>2627.9</ele>
        <time>2011-02-20T10:05:42Z</time>
      </trkpt>
      <trkpt lat="42.59687" lon="0.93017">
        <ele>2628.86</ele>
        <time>2011-02-20T10:05:52Z</time>
      </trkpt>
      <trkpt lat="42.5968" lon="0.93016">
        <ele>2630.79</ele>
        <time>2011-02-20T10:06:06Z</time>
      </trkpt>
      <trkpt lat="42.59676" lon="0.93017">
        <ele>2632.23</ele>
        <time>2011-02-20T10:06:16Z</time>
      </trkpt>
      <trkpt lat="42.59669" lon="0.93022">
        <ele>2633.19</ele>
        <time>2011-02-20T10:06:29Z</time>
      </trkpt>
      <trkpt lat="42.59662" lon="0.93026">
        <ele>2634.15</ele>
        <time>2011-02-20T10:06:45Z</time>
      </trkpt>
      <trkpt lat="42.59655" lon="0.93028">
        <ele>2635.59</ele>
        <time>2011-02-20T10:06:58Z</time>
      </trkpt>
      <trkpt lat="42.59649" lon="0.9303">
        <ele>2636.07</ele>
        <time>2011-02-20T10:07:08Z</time>
      </trkpt>
      <trkpt lat="42.59641" lon="0.9303">
        <ele>2636.55</ele>
        <time>2011-02-20T10:07:19Z</time>
      </trkpt>
      <trkpt lat="42.59632" lon="0.9303">
        <ele>2637.99</ele>
        <time>2011-02-20T10:07:31Z</time>
      </trkpt>
      <trkpt lat="42.59626" lon="0.93028">
        <ele>2637.99</ele>
        <time>2011-02-20T10:07:42Z</time>
      </trkpt>
      <trkpt lat="42.59623" lon="0.93024">
        <ele>2638.48</ele>
        <time>2011-02-20T10:07:50Z</time>
      </trkpt>
      <trkpt lat="42.59619" lon="0.93017">
        <ele>2638.96</ele>
        <time>2011-02-20T10:07:59Z</time>
      </trkpt>
      <trkpt lat="42.59614" lon="0.93012">
        <ele>2639.44</ele>
        <time>2011-02-20T10:08:08Z</time>
      </trkpt>
      <trkpt lat="42.59614" lon="0.93007">
        <ele>2640.4</ele>
        <time>2011-02-20T10:08:15Z</time>
      </trkpt>
      <trkpt lat="42.59613" lon="0.93001">
        <ele>2640.88</ele>
        <time>2011-02-20T10:08:26Z</time>
      </trkpt>
      <trkpt lat="42.59612" lon="0.92999">
        <ele>2641.36</ele>
        <time>2011-02-20T10:08:45Z</time>
      </trkpt>
      <trkpt lat="42.59611" lon="0.93">
        <ele>2641.84</ele>
        <time>2011-02-20T10:08:54Z</time>
      </trkpt>
      <trkpt lat="42.59608" lon="0.93009">
        <ele>2643.76</ele>
        <time>2011-02-20T10:09:07Z</time>
      </trkpt>
      <trkpt lat="42.59605" lon="0.93017">
        <ele>2645.69</ele>
        <time>2011-02-20T10:09:19Z</time>
      </trkpt>
      <trkpt lat="42.59604" lon="0.93018">
        <ele>2646.17</ele>
        <time>2011-02-20T10:09:24Z</time>
      </trkpt>
      <trkpt lat="42.59599" lon="0.93015">
        <ele>2647.13</ele>
        <time>2011-02-20T10:09:35Z</time>
      </trkpt>
      <trkpt lat="42.59596" lon="0.93011">
        <ele>2647.61</ele>
        <time>2011-02-20T10:09:44Z</time>
      </trkpt>
      <trkpt lat="42.59593" lon="0.93004">
        <ele>2649.05</ele>
        <time>2011-02-20T10:09:55Z</time>
      </trkpt>
      <trkpt lat="42.59593" lon="0.92996">
        <ele>2650.49</ele>
        <time>2011-02-20T10:10:08Z</time>
      </trkpt>
      <trkpt lat="42.59592" lon="0.92993">
        <ele>2651.93</ele>
        <time>2011-02-20T10:10:16Z</time>
      </trkpt>
      <trkpt lat="42.59585" lon="0.92993">
        <ele>2652.9</ele>
        <time>2011-02-20T10:10:29Z</time>
      </trkpt>
      <trkpt lat="42.59581" lon="0.92993">
        <ele>2653.86</ele>
        <time>2011-02-20T10:10:40Z</time>
      </trkpt>
      <trkpt lat="42.59576" lon="0.92993">
        <ele>2654.82</ele>
        <time>2011-02-20T10:10:51Z</time>
      </trkpt>
      <trkpt lat="42.59575" lon="0.92993">
        <ele>2655.78</ele>
        <time>2011-02-20T10:10:56Z</time>
      </trkpt>
      <trkpt lat="42.59568" lon="0.92995">
        <ele>2657.22</ele>
        <time>2011-02-20T10:11:09Z</time>
      </trkpt>
      <trkpt lat="42.59563" lon="0.93">
        <ele>2659.14</ele>
        <time>2011-02-20T10:11:25Z</time>
      </trkpt>
      <trkpt lat="42.59559" lon="0.93002">
        <ele>2660.59</ele>
        <time>2011-02-20T10:11:36Z</time>
      </trkpt>
      <trkpt lat="42.59553" lon="0.93004">
        <ele>2661.55</ele>
        <time>2011-02-20T10:11:48Z</time>
      </trkpt>
      <trkpt lat="42.59547" lon="0.93007">
        <ele>2662.03</ele>
        <time>2011-02-20T10:11:57Z</time>
      </trkpt>
      <trkpt lat="42.59546" lon="0.93012">
        <ele>2662.51</ele>
        <time>2011-02-20T10:12:11Z</time>
      </trkpt>
      <trkpt lat="42.59549" lon="0.93019">
        <ele>2663.95</ele>
        <time>2011-02-20T10:12:26Z</time>
      </trkpt>
      <trkpt lat="42.5955" lon="0.93025">
        <ele>2667.31</ele>
        <time>2011-02-20T10:12:34Z</time>
      </trkpt>
      <trkpt lat="42.5955" lon="0.93034">
        <ele>2666.83</ele>
        <time>2011-02-20T10:12:48Z</time>
      </trkpt>
      <trkpt lat="42.59549" lon="0.93038">
        <ele>2667.8</ele>
        <time>2011-02-20T10:12:56Z</time>
      </trkpt>
      <trkpt lat="42.59545" lon="0.93048">
        <ele>2669.72</ele>
        <time>2011-02-20T10:13:11Z</time>
      </trkpt>
      <trkpt lat="42.59541" lon="0.93052">
        <ele>2670.2</ele>
        <time>2011-02-20T10:13:23Z</time>
      </trkpt>
      <trkpt lat="42.5954" lon="0.93055">
        <ele>2672.12</ele>
        <time>2011-02-20T10:13:30Z</time>
      </trkpt>
      <trkpt lat="42.59536" lon="0.9306">
        <ele>2672.6</ele>
        <time>2011-02-20T10:13:43Z</time>
      </trkpt>
      <trkpt lat="42.59531" lon="0.93065">
        <ele>2675.01</ele>
        <time>2011-02-20T10:13:55Z</time>
      </trkpt>
      <trkpt lat="42.59528" lon="0.9307">
        <ele>2675.97</ele>
        <time>2011-02-20T10:14:09Z</time>
      </trkpt>
      <trkpt lat="42.59525" lon="0.93073">
        <ele>2677.41</ele>
        <time>2011-02-20T10:14:21Z</time>
      </trkpt>
      <trkpt lat="42.5952" lon="0.93079">
        <ele>2678.85</ele>
        <time>2011-02-20T10:14:41Z</time>
      </trkpt>
      <trkpt lat="42.59515" lon="0.93083">
        <ele>2680.77</ele>
        <time>2011-02-20T10:14:54Z</time>
      </trkpt>
      <trkpt lat="42.59509" lon="0.93086">
        <ele>2682.22</ele>
        <time>2011-02-20T10:15:05Z</time>
      </trkpt>
      <trkpt lat="42.59506" lon="0.93088">
        <ele>2684.14</ele>
        <time>2011-02-20T10:15:16Z</time>
      </trkpt>
      <trkpt lat="42.595" lon="0.93091">
        <ele>2686.06</ele>
        <time>2011-02-20T10:15:31Z</time>
      </trkpt>
      <trkpt lat="42.59494" lon="0.93096">
        <ele>2687.5</ele>
        <time>2011-02-20T10:15:45Z</time>
      </trkpt>
      <trkpt lat="42.5949" lon="0.93098">
        <ele>2689.43</ele>
        <time>2011-02-20T10:15:59Z</time>
      </trkpt>
      <trkpt lat="42.59486" lon="0.93097">
        <ele>2690.39</ele>
        <time>2011-02-20T10:16:10Z</time>
      </trkpt>
      <trkpt lat="42.59482" lon="0.93093">
        <ele>2691.83</ele>
        <time>2011-02-20T10:16:23Z</time>
      </trkpt>
      <trkpt lat="42.59481" lon="0.9309">
        <ele>2692.79</ele>
        <time>2011-02-20T10:16:28Z</time>
      </trkpt>
      <trkpt lat="42.59476" lon="0.93082">
        <ele>2693.27</ele>
        <time>2011-02-20T10:16:41Z</time>
      </trkpt>
      <trkpt lat="42.59473" lon="0.93076">
        <ele>2693.27</ele>
        <time>2011-02-20T10:16:53Z</time>
      </trkpt>
      <trkpt lat="42.59474" lon="0.93072">
        <ele>2694.71</ele>
        <time>2011-02-20T10:17:03Z</time>
      </trkpt>
      <trkpt lat="42.59474" lon="0.93072">
        <ele>2694.23</ele>
        <time>2011-02-20T10:17:08Z</time>
      </trkpt>
      <trkpt lat="42.59476" lon="0.93059">
        <ele>2693.27</ele>
        <time>2011-02-20T10:17:21Z</time>
      </trkpt>
      <trkpt lat="42.59476" lon="0.93059">
        <ele>2693.75</ele>
        <time>2011-02-20T10:17:22Z</time>
      </trkpt>
      <trkpt lat="42.59471" lon="0.93056">
        <ele>2695.19</ele>
        <time>2011-02-20T10:17:35Z</time>
      </trkpt>
      <trkpt lat="42.59467" lon="0.93056">
        <ele>2696.15</ele>
        <time>2011-02-20T10:17:44Z</time>
      </trkpt>
      <trkpt lat="42.59462" lon="0.93056">
        <ele>2697.12</ele>
        <time>2011-02-20T10:17:56Z</time>
      </trkpt>
      <trkpt lat="42.59459" lon="0.93056">
        <ele>2698.08</ele>
        <time>2011-02-20T10:18:10Z</time>
      </trkpt>
      <trkpt lat="42.59456" lon="0.93055">
        <ele>2698.08</ele>
        <time>2011-02-20T10:18:25Z</time>
      </trkpt>
      <trkpt lat="42.59456" lon="0.93052">
        <ele>2699.52</ele>
        <time>2011-02-20T10:18:36Z</time>
      </trkpt>
      <trkpt lat="42.59457" lon="0.9305">
        <ele>2700</ele>
        <time>2011-02-20T10:18:38Z</time>
      </trkpt>
      <trkpt lat="42.59461" lon="0.93044">
        <ele>2700.96</ele>
        <time>2011-02-20T10:18:49Z</time>
      </trkpt>
      <trkpt lat="42.59456" lon="0.93039">
        <ele>2701.92</ele>
        <time>2011-02-20T10:19:00Z</time>
      </trkpt>
      <trkpt lat="42.59456" lon="0.93039">
        <ele>2701.92</ele>
        <time>2011-02-20T10:19:30Z</time>
      </trkpt>
      <trkpt lat="42.59457" lon="0.93039">
        <ele>2700.96</ele>
        <time>2011-02-20T10:20:05Z</time>
      </trkpt>
      <trkpt lat="42.59456" lon="0.9304">
        <ele>2701.44</ele>
        <time>2011-02-20T10:20:34Z</time>
      </trkpt>
      <trkpt lat="42.59456" lon="0.93039">
        <ele>2701.44</ele>
        <time>2011-02-20T10:20:47Z</time>
      </trkpt>
      <trkpt lat="42.5945" lon="0.93036">
        <ele>2702.4</ele>
        <time>2011-02-20T10:21:02Z</time>
      </trkpt>
      <trkpt lat="42.59441" lon="0.93031">
        <ele>2703.85</ele>
        <time>2011-02-20T10:21:16Z</time>
      </trkpt>
      <trkpt lat="42.5944" lon="0.93028">
        <ele>2704.33</ele>
        <time>2011-02-20T10:21:19Z</time>
      </trkpt>
      <trkpt lat="42.59436" lon="0.93025">
        <ele>2706.25</ele>
        <time>2011-02-20T10:21:31Z</time>
      </trkpt>
      <trkpt lat="42.59432" lon="0.93025">
        <ele>2707.21</ele>
        <time>2011-02-20T10:21:40Z</time>
      </trkpt>
      <trkpt lat="42.5943" lon="0.93024">
        <ele>2707.21</ele>
        <time>2011-02-20T10:21:50Z</time>
      </trkpt>
      <trkpt lat="42.5943" lon="0.93024">
        <ele>2707.21</ele>
        <time>2011-02-20T10:22:19Z</time>
      </trkpt>
      <trkpt lat="42.59429" lon="0.93023">
        <ele>2708.17</ele>
        <time>2011-02-20T10:22:46Z</time>
      </trkpt>
      <trkpt lat="42.59428" lon="0.93023">
        <ele>2708.65</ele>
        <time>2011-02-20T10:23:09Z</time>
      </trkpt>
      <trkpt lat="42.59427" lon="0.93022">
        <ele>2708.65</ele>
        <time>2011-02-20T10:23:30Z</time>
      </trkpt>
      <trkpt lat="42.59425" lon="0.93015">
        <ele>2710.09</ele>
        <time>2011-02-20T10:23:42Z</time>
      </trkpt>
      <trkpt lat="42.59424" lon="0.93008">
        <ele>2712.02</ele>
        <time>2011-02-20T10:23:54Z</time>
      </trkpt>
      <trkpt lat="42.59425" lon="0.93001">
        <ele>2713.46</ele>
        <time>2011-02-20T10:24:08Z</time>
      </trkpt>
      <trkpt lat="42.5943" lon="0.92991">
        <ele>2714.9</ele>
        <time>2011-02-20T10:24:23Z</time>
      </trkpt>
      <trkpt lat="42.59433" lon="0.92987">
        <ele>2715.86</ele>
        <time>2011-02-20T10:24:36Z</time>
      </trkpt>
      <trkpt lat="42.59433" lon="0.92982">
        <ele>2716.82</ele>
        <time>2011-02-20T10:24:45Z</time>
      </trkpt>
      <trkpt lat="42.59432" lon="0.92979">
        <ele>2718.27</ele>
        <time>2011-02-20T10:24:56Z</time>
      </trkpt>
      <trkpt lat="42.5943" lon="0.92975">
        <ele>2719.71</ele>
        <time>2011-02-20T10:25:06Z</time>
      </trkpt>
      <trkpt lat="42.59432" lon="0.9297">
        <ele>2720.67</ele>
        <time>2011-02-20T10:25:17Z</time>
      </trkpt>
      <trkpt lat="42.59431" lon="0.92966">
        <ele>2721.63</ele>
        <time>2011-02-20T10:25:29Z</time>
      </trkpt>
      <trkpt lat="42.59428" lon="0.92966">
        <ele>2723.55</ele>
        <time>2011-02-20T10:25:41Z</time>
      </trkpt>
      <trkpt lat="42.59425" lon="0.92965">
        <ele>2724.03</ele>
        <time>2011-02-20T10:25:50Z</time>
      </trkpt>
      <trkpt lat="42.59423" lon="0.92963">
        <ele>2725.48</ele>
        <time>2011-02-20T10:26:01Z</time>
      </trkpt>
      <trkpt lat="42.59418" lon="0.92958">
        <ele>2726.44</ele>
        <time>2011-02-20T10:26:12Z</time>
      </trkpt>
      <trkpt lat="42.59414" lon="0.92957">
        <ele>2727.88</ele>
        <time>2011-02-20T10:26:23Z</time>
      </trkpt>
      <trkpt lat="42.59411" lon="0.92958">
        <ele>2729.32</ele>
        <time>2011-02-20T10:26:34Z</time>
      </trkpt>
      <trkpt lat="42.59409" lon="0.92959">
        <ele>2729.8</ele>
        <time>2011-02-20T10:26:49Z</time>
      </trkpt>
      <trkpt lat="42.59405" lon="0.92961">
        <ele>2731.24</ele>
        <time>2011-02-20T10:27:05Z</time>
      </trkpt>
      <trkpt lat="42.59401" lon="0.92963">
        <ele>2732.2</ele>
        <time>2011-02-20T10:27:16Z</time>
      </trkpt>
      <trkpt lat="42.59397" lon="0.92966">
        <ele>2733.17</ele>
        <time>2011-02-20T10:27:33Z</time>
      </trkpt>
      <trkpt lat="42.59394" lon="0.92968">
        <ele>2735.09</ele>
        <time>2011-02-20T10:27:45Z</time>
      </trkpt>
      <trkpt lat="42.59394" lon="0.9296">
        <ele>2735.57</ele>
        <time>2011-02-20T10:27:56Z</time>
      </trkpt>
      <trkpt lat="42.59395" lon="0.92954">
        <ele>2737.01</ele>
        <time>2011-02-20T10:28:08Z</time>
      </trkpt>
      <trkpt lat="42.59397" lon="0.92947">
        <ele>2737.49</ele>
        <time>2011-02-20T10:28:19Z</time>
      </trkpt>
      <trkpt lat="42.59395" lon="0.92939">
        <ele>2738.93</ele>
        <time>2011-02-20T10:28:32Z</time>
      </trkpt>
      <trkpt lat="42.59395" lon="0.92932">
        <ele>2740.86</ele>
        <time>2011-02-20T10:28:42Z</time>
      </trkpt>
      <trkpt lat="42.59394" lon="0.92924">
        <ele>2741.34</ele>
        <time>2011-02-20T10:28:57Z</time>
      </trkpt>
      <trkpt lat="42.59393" lon="0.92923">
        <ele>2743.26</ele>
        <time>2011-02-20T10:29:08Z</time>
      </trkpt>
      <trkpt lat="42.59391" lon="0.92926">
        <ele>2743.74</ele>
        <time>2011-02-20T10:29:21Z</time>
      </trkpt>
      <trkpt lat="42.59391" lon="0.92927">
        <ele>2743.74</ele>
        <time>2011-02-20T10:29:38Z</time>
      </trkpt>
      <trkpt lat="42.59391" lon="0.92926">
        <ele>2742.78</ele>
        <time>2011-02-20T10:29:53Z</time>
      </trkpt>
      <trkpt lat="42.59391" lon="0.92927">
        <ele>2743.74</ele>
        <time>2011-02-20T10:30:13Z</time>
      </trkpt>
      <trkpt lat="42.5939" lon="0.92928">
        <ele>2743.74</ele>
        <time>2011-02-20T10:30:27Z</time>
      </trkpt>
      <trkpt lat="42.59389" lon="0.92931">
        <ele>2743.74</ele>
        <time>2011-02-20T10:30:39Z</time>
      </trkpt>
      <trkpt lat="42.59388" lon="0.92933">
        <ele>2744.7</ele>
        <time>2011-02-20T10:30:55Z</time>
      </trkpt>
      <trkpt lat="42.59387" lon="0.92934">
        <ele>2745.66</ele>
        <time>2011-02-20T10:31:06Z</time>
      </trkpt>
      <trkpt lat="42.59387" lon="0.92936">
        <ele>2746.62</ele>
        <time>2011-02-20T10:31:20Z</time>
      </trkpt>
      <trkpt lat="42.59386" lon="0.92938">
        <ele>2747.59</ele>
        <time>2011-02-20T10:31:30Z</time>
      </trkpt>
      <trkpt lat="42.59385" lon="0.92939">
        <ele>2747.59</ele>
        <time>2011-02-20T10:31:42Z</time>
      </trkpt>
      <trkpt lat="42.59382" lon="0.92942">
        <ele>2748.55</ele>
        <time>2011-02-20T10:31:54Z</time>
      </trkpt>
      <trkpt lat="42.59379" lon="0.92942">
        <ele>2749.51</ele>
        <time>2011-02-20T10:32:05Z</time>
      </trkpt>
      <trkpt lat="42.59378" lon="0.92942">
        <ele>2749.99</ele>
        <time>2011-02-20T10:32:16Z</time>
      </trkpt>
      <trkpt lat="42.59376" lon="0.92942">
        <ele>2751.91</ele>
        <time>2011-02-20T10:32:23Z</time>
      </trkpt>
      <trkpt lat="42.59375" lon="0.92941">
        <ele>2752.87</ele>
        <time>2011-02-20T10:32:36Z</time>
      </trkpt>
      <trkpt lat="42.59374" lon="0.92941">
        <ele>2753.83</ele>
        <time>2011-02-20T10:32:46Z</time>
      </trkpt>
      <trkpt lat="42.59374" lon="0.92938">
        <ele>2755.76</ele>
        <time>2011-02-20T10:32:56Z</time>
      </trkpt>
      <trkpt lat="42.59372" lon="0.92938">
        <ele>2757.2</ele>
        <time>2011-02-20T10:33:05Z</time>
      </trkpt>
      <trkpt lat="42.5937" lon="0.92939">
        <ele>2756.24</ele>
        <time>2011-02-20T10:33:16Z</time>
      </trkpt>
      <trkpt lat="42.5937" lon="0.92939">
        <ele>2756.24</ele>
        <time>2011-02-20T10:33:34Z</time>
      </trkpt>
      <trkpt lat="42.5937" lon="0.9294">
        <ele>2755.28</ele>
        <time>2011-02-20T10:35:25Z</time>
      </trkpt>
      <trkpt lat="42.5937" lon="0.9294">
        <ele>2755.76</ele>
        <time>2011-02-20T10:36:34Z</time>
      </trkpt>
      <trkpt lat="42.59369" lon="0.9294">
        <ele>2755.28</ele>
        <time>2011-02-20T10:36:52Z</time>
      </trkpt>
      <trkpt lat="42.5937" lon="0.9294">
        <ele>2756.72</ele>
        <time>2011-02-20T10:37:07Z</time>
      </trkpt>
      <trkpt lat="42.59369" lon="0.92939">
        <ele>2757.2</ele>
        <time>2011-02-20T10:37:19Z</time>
      </trkpt>
      <trkpt lat="42.5937" lon="0.92939">
        <ele>2756.24</ele>
        <time>2011-02-20T10:37:30Z</time>
      </trkpt>
      <trkpt lat="42.59369" lon="0.9294">
        <ele>2755.76</ele>
        <time>2011-02-20T10:37:46Z</time>
      </trkpt>
      <trkpt lat="42.59369" lon="0.9294">
        <ele>2756.72</ele>
        <time>2011-02-20T10:38:04Z</time>
      </trkpt>
      <trkpt lat="42.5937" lon="0.9294">
        <ele>2751.43</ele>
        <time>2011-02-20T10:38:32Z</time>
      </trkpt>
      <trkpt lat="42.5937" lon="0.9294">
        <ele>2755.76</ele>
        <time>2011-02-20T10:38:33Z</time>
      </trkpt>
      <trkpt lat="42.5937" lon="0.9294">
        <ele>2759.12</ele>
        <time>2011-02-20T10:38:44Z</time>
      </trkpt>
      <trkpt lat="42.5937" lon="0.9294">
        <ele>2758.64</ele>
        <time>2011-02-20T10:38:45Z</time>
      </trkpt>
      <trkpt lat="42.5937" lon="0.9294">
        <ele>2753.35</ele>
        <time>2011-02-20T10:38:47Z</time>
      </trkpt>
      <trkpt lat="42.5937" lon="0.9294">
        <ele>2754.31</ele>
        <time>2011-02-20T10:38:48Z</time>
      </trkpt>
      <trkpt lat="42.5937" lon="0.9294">
        <ele>2756.24</ele>
        <time>2011-02-20T10:38:50Z</time>
      </trkpt>
      <trkpt lat="42.5937" lon="0.9294">
        <ele>2757.68</ele>
        <time>2011-02-20T10:39:30Z</time>
      </trkpt>
      <trkpt lat="42.59369" lon="0.92938">
        <ele>2757.2</ele>
        <time>2011-02-20T10:39:43Z</time>
      </trkpt>
      <trkpt lat="42.59369" lon="0.92939">
        <ele>2757.2</ele>
        <time>2011-02-20T10:40:05Z</time>
      </trkpt>
      <trkpt lat="42.59366" lon="0.9294">
        <ele>2758.64</ele>
        <time>2011-02-20T10:40:20Z</time>
      </trkpt>
      <trkpt lat="42.59362" lon="0.9294">
        <ele>2759.12</ele>
        <time>2011-02-20T10:40:34Z</time>
      </trkpt>
      <trkpt lat="42.5936" lon="0.9294">
        <ele>2758.64</ele>
        <time>2011-02-20T10:40:49Z</time>
      </trkpt>
      <trkpt lat="42.59359" lon="0.92941">
        <ele>2759.12</ele>
        <time>2011-02-20T10:41:02Z</time>
      </trkpt>
      <trkpt lat="42.59357" lon="0.92942">
        <ele>2761.04</ele>
        <time>2011-02-20T10:41:17Z</time>
      </trkpt>
      <trkpt lat="42.59355" lon="0.92944">
        <ele>2762</ele>
        <time>2011-02-20T10:41:30Z</time>
      </trkpt>
      <trkpt lat="42.59353" lon="0.92945">
        <ele>2763.93</ele>
        <time>2011-02-20T10:41:44Z</time>
      </trkpt>
      <trkpt lat="42.5935" lon="0.92945">
        <ele>2765.37</ele>
        <time>2011-02-20T10:41:58Z</time>
      </trkpt>
      <trkpt lat="42.59346" lon="0.92944">
        <ele>2765.37</ele>
        <time>2011-02-20T10:42:14Z</time>
      </trkpt>
      <trkpt lat="42.59344" lon="0.92946">
        <ele>2765.37</ele>
        <time>2011-02-20T10:43:02Z</time>
      </trkpt>
      <trkpt lat="42.59344" lon="0.92946">
        <ele>2766.33</ele>
        <time>2011-02-20T10:43:53Z</time>
      </trkpt>
      <trkpt lat="42.59343" lon="0.92947">
        <ele>2765.85</ele>
        <time>2011-02-20T10:44:05Z</time>
      </trkpt>
      <trkpt lat="42.59343" lon="0.92947">
        <ele>2766.33</ele>
        <time>2011-02-20T10:44:53Z</time>
      </trkpt>
      <trkpt lat="42.59343" lon="0.92947">
        <ele>2765.85</ele>
        <time>2011-02-20T10:45:25Z</time>
      </trkpt>
      <trkpt lat="42.59342" lon="0.92949">
        <ele>2766.33</ele>
        <time>2011-02-20T10:45:37Z</time>
      </trkpt>
      <trkpt lat="42.59342" lon="0.92949">
        <ele>2765.85</ele>
        <time>2011-02-20T10:46:07Z</time>
      </trkpt>
      <trkpt lat="42.59342" lon="0.92949">
        <ele>2765.37</ele>
        <time>2011-02-20T10:47:07Z</time>
      </trkpt>
      <trkpt lat="42.59342" lon="0.92949">
        <ele>2765.85</ele>
        <time>2011-02-20T10:47:39Z</time>
      </trkpt>
      <trkpt lat="42.59342" lon="0.92949">
        <ele>2765.85</ele>
        <time>2011-02-20T10:48:06Z</time>
      </trkpt>
      <trkpt lat="42.59345" lon="0.92947">
        <ele>2765.37</ele>
        <time>2011-02-20T10:48:57Z</time>
      </trkpt>
      <trkpt lat="42.59349" lon="0.92945">
        <ele>2763.45</ele>
        <time>2011-02-20T10:49:08Z</time>
      </trkpt>
      <trkpt lat="42.5935" lon="0.92945">
        <ele>2762.97</ele>
        <time>2011-02-20T10:49:31Z</time>
      </trkpt>
      <trkpt lat="42.59352" lon="0.92945">
        <ele>2761.52</ele>
        <time>2011-02-20T10:49:36Z</time>
      </trkpt>
      <trkpt lat="42.59356" lon="0.92942">
        <ele>2759.6</ele>
        <time>2011-02-20T10:49:44Z</time>
      </trkpt>
      <trkpt lat="42.5936" lon="0.92941">
        <ele>2756.72</ele>
        <time>2011-02-20T10:49:56Z</time>
      </trkpt>
      <trkpt lat="42.59362" lon="0.92941">
        <ele>2756.72</ele>
        <time>2011-02-20T10:49:59Z</time>
      </trkpt>
      <trkpt lat="42.59365" lon="0.92942">
        <ele>2756.24</ele>
        <time>2011-02-20T10:50:14Z</time>
      </trkpt>
      <trkpt lat="42.59365" lon="0.92942">
        <ele>2755.76</ele>
        <time>2011-02-20T10:50:31Z</time>
      </trkpt>
      <trkpt lat="42.59367" lon="0.92943">
        <ele>2754.8</ele>
        <time>2011-02-20T10:50:46Z</time>
      </trkpt>
      <trkpt lat="42.59367" lon="0.92943">
        <ele>2754.8</ele>
        <time>2011-02-20T10:51:23Z</time>
      </trkpt>
      <trkpt lat="42.59367" lon="0.92943">
        <ele>2754.31</ele>
        <time>2011-02-20T10:51:34Z</time>
      </trkpt>
      <trkpt lat="42.59367" lon="0.92943">
        <ele>2752.87</ele>
        <time>2011-02-20T10:51:39Z</time>
      </trkpt>
      <trkpt lat="42.59367" lon="0.92943">
        <ele>2752.87</ele>
        <time>2011-02-20T10:52:21Z</time>
      </trkpt>
      <trkpt lat="42.59367" lon="0.92943">
        <ele>2749.51</ele>
        <time>2011-02-20T10:53:04Z</time>
      </trkpt>
      <trkpt lat="42.59367" lon="0.92943">
        <ele>2753.83</ele>
        <time>2011-02-20T10:53:05Z</time>
      </trkpt>
      <trkpt lat="42.59367" lon="0.92943">
        <ele>2754.8</ele>
        <time>2011-02-20T10:53:07Z</time>
      </trkpt>
      <trkpt lat="42.59367" lon="0.92943">
        <ele>2749.99</ele>
        <time>2011-02-20T10:53:09Z</time>
      </trkpt>
      <trkpt lat="42.59367" lon="0.92943">
        <ele>2751.43</ele>
        <time>2011-02-20T10:53:10Z</time>
      </trkpt>
      <trkpt lat="42.59367" lon="0.92943">
        <ele>2752.39</ele>
        <time>2011-02-20T10:53:12Z</time>
      </trkpt>
      <trkpt lat="42.59368" lon="0.92942">
        <ele>2753.35</ele>
        <time>2011-02-20T11:00:40Z</time>
      </trkpt>
      <trkpt lat="42.59368" lon="0.92942">
        <ele>2754.31</ele>
        <time>2011-02-20T11:00:45Z</time>
      </trkpt>
      <trkpt lat="42.59368" lon="0.92942">
        <ele>2753.35</ele>
        <time>2011-02-20T11:00:47Z</time>
      </trkpt>
      <trkpt lat="42.59368" lon="0.92942">
        <ele>2756.72</ele>
        <time>2011-02-20T11:00:52Z</time>
      </trkpt>
      <trkpt lat="42.59369" lon="0.92942">
        <ele>2753.83</ele>
        <time>2011-02-20T11:00:55Z</time>
      </trkpt>
      <trkpt lat="42.59368" lon="0.92941">
        <ele>2753.83</ele>
        <time>2011-02-20T11:01:12Z</time>
      </trkpt>
      <trkpt lat="42.59368" lon="0.92943">
        <ele>2754.31</ele>
        <time>2011-02-20T11:01:25Z</time>
      </trkpt>
      <trkpt lat="42.59367" lon="0.92943">
        <ele>2754.8</ele>
        <time>2011-02-20T11:01:33Z</time>
      </trkpt>
      <trkpt lat="42.59367" lon="0.92944">
        <ele>2753.83</ele>
        <time>2011-02-20T11:01:42Z</time>
      </trkpt>
      <trkpt lat="42.59366" lon="0.92943">
        <ele>2754.31</ele>
        <time>2011-02-20T11:01:56Z</time>
      </trkpt>
      <trkpt lat="42.59366" lon="0.92943">
        <ele>2755.28</ele>
        <time>2011-02-20T11:02:09Z</time>
      </trkpt>
      <trkpt lat="42.59366" lon="0.92943">
        <ele>2754.31</ele>
        <time>2011-02-20T11:02:11Z</time>
      </trkpt>
      <trkpt lat="42.59367" lon="0.92943">
        <ele>2754.31</ele>
        <time>2011-02-20T11:02:50Z</time>
      </trkpt>
      <trkpt lat="42.59366" lon="0.92943">
        <ele>2753.35</ele>
        <time>2011-02-20T11:03:06Z</time>
      </trkpt>
      <trkpt lat="42.59366" lon="0.92943">
        <ele>2753.35</ele>
        <time>2011-02-20T11:03:21Z</time>
      </trkpt>
      <trkpt lat="42.59366" lon="0.92943">
        <ele>2754.31</ele>
        <time>2011-02-20T11:03:31Z</time>
      </trkpt>
      <trkpt lat="42.59366" lon="0.92943">
        <ele>2753.35</ele>
        <time>2011-02-20T11:03:48Z</time>
      </trkpt>
      <trkpt lat="42.59366" lon="0.92943">
        <ele>2754.31</ele>
        <time>2011-02-20T11:03:59Z</time>
      </trkpt>
      <trkpt lat="42.59366" lon="0.92943">
        <ele>2752.87</ele>
        <time>2011-02-20T11:04:31Z</time>
      </trkpt>
      <trkpt lat="42.59368" lon="0.92943">
        <ele>2750.47</ele>
        <time>2011-02-20T11:04:43Z</time>
      </trkpt>
      <trkpt lat="42.59368" lon="0.92943">
        <ele>2749.03</ele>
        <time>2011-02-20T11:04:47Z</time>
      </trkpt>
      <trkpt lat="42.59371" lon="0.92943">
        <ele>2747.1</ele>
        <time>2011-02-20T11:04:51Z</time>
      </trkpt>
      <trkpt lat="42.59373" lon="0.92943">
        <ele>2746.14</ele>
        <time>2011-02-20T11:04:53Z</time>
      </trkpt>
      <trkpt lat="42.5938" lon="0.92937">
        <ele>2742.78</ele>
        <time>2011-02-20T11:05:04Z</time>
      </trkpt>
      <trkpt lat="42.5938" lon="0.92937">
        <ele>2741.34</ele>
        <time>2011-02-20T11:05:18Z</time>
      </trkpt>
      <trkpt lat="42.5938" lon="0.92937">
        <ele>2739.41</ele>
        <time>2011-02-20T11:05:32Z</time>
      </trkpt>
      <trkpt lat="42.59381" lon="0.92937">
        <ele>2738.45</ele>
        <time>2011-02-20T11:05:47Z</time>
      </trkpt>
      <trkpt lat="42.59382" lon="0.92936">
        <ele>2736.53</ele>
        <time>2011-02-20T11:06:07Z</time>
      </trkpt>
      <trkpt lat="42.59382" lon="0.92936">
        <ele>2736.53</ele>
        <time>2011-02-20T11:06:33Z</time>
      </trkpt>
      <trkpt lat="42.59385" lon="0.92935">
        <ele>2736.05</ele>
        <time>2011-02-20T11:06:46Z</time>
      </trkpt>
      <trkpt lat="42.59385" lon="0.92935">
        <ele>2736.53</ele>
        <time>2011-02-20T11:06:48Z</time>
      </trkpt>
      <trkpt lat="42.5939" lon="0.92941">
        <ele>2734.13</ele>
        <time>2011-02-20T11:06:52Z</time>
      </trkpt>
      <trkpt lat="42.5939" lon="0.92942">
        <ele>2733.17</ele>
        <time>2011-02-20T11:07:02Z</time>
      </trkpt>
      <trkpt lat="42.59391" lon="0.92941">
        <ele>2733.65</ele>
        <time>2011-02-20T11:07:21Z</time>
      </trkpt>
      <trkpt lat="42.59392" lon="0.92941">
        <ele>2734.13</ele>
        <time>2011-02-20T11:07:35Z</time>
      </trkpt>
      <trkpt lat="42.59392" lon="0.92941">
        <ele>2733.65</ele>
        <time>2011-02-20T11:08:00Z</time>
      </trkpt>
      <trkpt lat="42.59394" lon="0.92945">
        <ele>2733.65</ele>
        <time>2011-02-20T11:08:12Z</time>
      </trkpt>
      <trkpt lat="42.59394" lon="0.92945">
        <ele>2733.65</ele>
        <time>2011-02-20T11:08:20Z</time>
      </trkpt>
      <trkpt lat="42.594" lon="0.92948">
        <ele>2730.76</ele>
        <time>2011-02-20T11:08:24Z</time>
      </trkpt>
      <trkpt lat="42.59403" lon="0.9295">
        <ele>2731.24</ele>
        <time>2011-02-20T11:08:25Z</time>
      </trkpt>
      <trkpt lat="42.59414" lon="0.92957">
        <ele>2723.07</ele>
        <time>2011-02-20T11:08:28Z</time>
      </trkpt>
      <trkpt lat="42.59415" lon="0.92959">
        <ele>2722.11</ele>
        <time>2011-02-20T11:08:30Z</time>
      </trkpt>
      <trkpt lat="42.59415" lon="0.92958">
        <ele>2721.15</ele>
        <time>2011-02-20T11:08:33Z</time>
      </trkpt>
      <trkpt lat="42.59417" lon="0.92959">
        <ele>2722.11</ele>
        <time>2011-02-20T11:08:35Z</time>
      </trkpt>
      <trkpt lat="42.59421" lon="0.92966">
        <ele>2719.23</ele>
        <time>2011-02-20T11:08:37Z</time>
      </trkpt>
      <trkpt lat="42.59427" lon="0.92978">
        <ele>2715.86</ele>
        <time>2011-02-20T11:08:39Z</time>
      </trkpt>
      <trkpt lat="42.59427" lon="0.92985">
        <ele>2712.98</ele>
        <time>2011-02-20T11:08:40Z</time>
      </trkpt>
      <trkpt lat="42.59426" lon="0.93014">
        <ele>2703.36</ele>
        <time>2011-02-20T11:08:44Z</time>
      </trkpt>
      <trkpt lat="42.59432" lon="0.93022">
        <ele>2701.92</ele>
        <time>2011-02-20T11:08:46Z</time>
      </trkpt>
      <trkpt lat="42.59446" lon="0.93029">
        <ele>2699.04</ele>
        <time>2011-02-20T11:08:49Z</time>
      </trkpt>
      <trkpt lat="42.59457" lon="0.93039">
        <ele>2696.64</ele>
        <time>2011-02-20T11:08:52Z</time>
      </trkpt>
      <trkpt lat="42.59459" lon="0.9304">
        <ele>2695.67</ele>
        <time>2011-02-20T11:09:02Z</time>
      </trkpt>
      <trkpt lat="42.59459" lon="0.9304">
        <ele>2695.67</ele>
        <time>2011-02-20T11:09:38Z</time>
      </trkpt>
      <trkpt lat="42.59459" lon="0.9304">
        <ele>2695.19</ele>
        <time>2011-02-20T11:10:07Z</time>
      </trkpt>
      <trkpt lat="42.59459" lon="0.9304">
        <ele>2695.67</ele>
        <time>2011-02-20T11:10:43Z</time>
      </trkpt>
      <trkpt lat="42.5946" lon="0.93042">
        <ele>2695.19</ele>
        <time>2011-02-20T11:10:57Z</time>
      </trkpt>
      <trkpt lat="42.59463" lon="0.93044">
        <ele>2694.71</ele>
        <time>2011-02-20T11:11:01Z</time>
      </trkpt>
      <trkpt lat="42.59477" lon="0.93056">
        <ele>2691.35</ele>
        <time>2011-02-20T11:11:04Z</time>
      </trkpt>
      <trkpt lat="42.5948" lon="0.93064">
        <ele>2689.43</ele>
        <time>2011-02-20T11:11:05Z</time>
      </trkpt>
      <trkpt lat="42.5949" lon="0.93097">
        <ele>2684.62</ele>
        <time>2011-02-20T11:11:10Z</time>
      </trkpt>
      <trkpt lat="42.59493" lon="0.93098">
        <ele>2684.62</ele>
        <time>2011-02-20T11:11:11Z</time>
      </trkpt>
      <trkpt lat="42.595" lon="0.93092">
        <ele>2681.25</ele>
        <time>2011-02-20T11:11:13Z</time>
      </trkpt>
      <trkpt lat="42.59501" lon="0.93088">
        <ele>2679.81</ele>
        <time>2011-02-20T11:11:15Z</time>
      </trkpt>
      <trkpt lat="42.59501" lon="0.93088">
        <ele>2680.29</ele>
        <time>2011-02-20T11:11:19Z</time>
      </trkpt>
      <trkpt lat="42.59506" lon="0.93088">
        <ele>2679.81</ele>
        <time>2011-02-20T11:11:21Z</time>
      </trkpt>
      <trkpt lat="42.59526" lon="0.93088">
        <ele>2674.04</ele>
        <time>2011-02-20T11:11:25Z</time>
      </trkpt>
      <trkpt lat="42.59533" lon="0.93091">
        <ele>2669.24</ele>
        <time>2011-02-20T11:11:27Z</time>
      </trkpt>
      <trkpt lat="42.59536" lon="0.931">
        <ele>2665.39</ele>
        <time>2011-02-20T11:11:29Z</time>
      </trkpt>
      <trkpt lat="42.59545" lon="0.93124">
        <ele>2659.14</ele>
        <time>2011-02-20T11:11:35Z</time>
      </trkpt>
      <trkpt lat="42.59556" lon="0.9312">
        <ele>2656.26</ele>
        <time>2011-02-20T11:11:38Z</time>
      </trkpt>
      <trkpt lat="42.59567" lon="0.93116">
        <ele>2653.86</ele>
        <time>2011-02-20T11:11:43Z</time>
      </trkpt>
      <trkpt lat="42.59576" lon="0.93124">
        <ele>2651.45</ele>
        <time>2011-02-20T11:11:47Z</time>
      </trkpt>
      <trkpt lat="42.59589" lon="0.93137">
        <ele>2643.28</ele>
        <time>2011-02-20T11:11:50Z</time>
      </trkpt>
      <trkpt lat="42.59593" lon="0.93143">
        <ele>2639.44</ele>
        <time>2011-02-20T11:11:51Z</time>
      </trkpt>
      <trkpt lat="42.59596" lon="0.93149">
        <ele>2636.55</ele>
        <time>2011-02-20T11:11:52Z</time>
      </trkpt>
      <trkpt lat="42.59596" lon="0.93154">
        <ele>2634.63</ele>
        <time>2011-02-20T11:11:53Z</time>
      </trkpt>
      <trkpt lat="42.59596" lon="0.93159">
        <ele>2634.15</ele>
        <time>2011-02-20T11:12:02Z</time>
      </trkpt>
      <trkpt lat="42.59596" lon="0.93159">
        <ele>2634.15</ele>
        <time>2011-02-20T11:12:24Z</time>
      </trkpt>
      <trkpt lat="42.59596" lon="0.93159">
        <ele>2634.15</ele>
        <time>2011-02-20T11:12:42Z</time>
      </trkpt>
      <trkpt lat="42.59596" lon="0.93159">
        <ele>2634.15</ele>
        <time>2011-02-20T11:13:13Z</time>
      </trkpt>
      <trkpt lat="42.59596" lon="0.93159">
        <ele>2633.67</ele>
        <time>2011-02-20T11:13:44Z</time>
      </trkpt>
      <trkpt lat="42.59596" lon="0.93159">
        <ele>2633.67</ele>
        <time>2011-02-20T11:13:53Z</time>
      </trkpt>
      <trkpt lat="42.59597" lon="0.93159">
        <ele>2633.19</ele>
        <time>2011-02-20T11:14:11Z</time>
      </trkpt>
      <trkpt lat="42.59608" lon="0.93156">
        <ele>2631.27</ele>
        <time>2011-02-20T11:14:18Z</time>
      </trkpt>
      <trkpt lat="42.59608" lon="0.93156">
        <ele>2630.79</ele>
        <time>2011-02-20T11:14:22Z</time>
      </trkpt>
      <trkpt lat="42.59624" lon="0.93161">
        <ele>2626.46</ele>
        <time>2011-02-20T11:14:27Z</time>
      </trkpt>
      <trkpt lat="42.59632" lon="0.93158">
        <ele>2623.09</ele>
        <time>2011-02-20T11:14:30Z</time>
      </trkpt>
      <trkpt lat="42.59633" lon="0.93157">
        <ele>2623.09</ele>
        <time>2011-02-20T11:14:31Z</time>
      </trkpt>
      <trkpt lat="42.59634" lon="0.93157">
        <ele>2622.61</ele>
        <time>2011-02-20T11:14:50Z</time>
      </trkpt>
      <trkpt lat="42.59634" lon="0.93157">
        <ele>2622.13</ele>
        <time>2011-02-20T11:14:51Z</time>
      </trkpt>
      <trkpt lat="42.59639" lon="0.93163">
        <ele>2619.73</ele>
        <time>2011-02-20T11:14:55Z</time>
      </trkpt>
      <trkpt lat="42.5964" lon="0.93171">
        <ele>2615.88</ele>
        <time>2011-02-20T11:14:57Z</time>
      </trkpt>
      <trkpt lat="42.59647" lon="0.93177">
        <ele>2611.08</ele>
        <time>2011-02-20T11:14:59Z</time>
      </trkpt>
      <trkpt lat="42.59655" lon="0.93181">
        <ele>2606.27</ele>
        <time>2011-02-20T11:15:01Z</time>
      </trkpt>
      <trkpt lat="42.59664" lon="0.93184">
        <ele>2600.02</ele>
        <time>2011-02-20T11:15:05Z</time>
      </trkpt>
      <trkpt lat="42.59671" lon="0.93191">
        <ele>2597.62</ele>
        <time>2011-02-20T11:15:15Z</time>
      </trkpt>
      <trkpt lat="42.59676" lon="0.93195">
        <ele>2596.66</ele>
        <time>2011-02-20T11:15:17Z</time>
      </trkpt>
      <trkpt lat="42.59681" lon="0.93199">
        <ele>2595.7</ele>
        <time>2011-02-20T11:15:20Z</time>
      </trkpt>
      <trkpt lat="42.59695" lon="0.93201">
        <ele>2590.89</ele>
        <time>2011-02-20T11:15:25Z</time>
      </trkpt>
      <trkpt lat="42.59704" lon="0.93202">
        <ele>2585.12</ele>
        <time>2011-02-20T11:15:27Z</time>
      </trkpt>
      <trkpt lat="42.59707" lon="0.93203">
        <ele>2583.68</ele>
        <time>2011-02-20T11:15:28Z</time>
      </trkpt>
      <trkpt lat="42.59715" lon="0.93204">
        <ele>2581.76</ele>
        <time>2011-02-20T11:15:35Z</time>
      </trkpt>
      <trkpt lat="42.59717" lon="0.93206">
        <ele>2581.28</ele>
        <time>2011-02-20T11:15:43Z</time>
      </trkpt>
      <trkpt lat="42.59718" lon="0.93205">
        <ele>2581.28</ele>
        <time>2011-02-20T11:15:52Z</time>
      </trkpt>
      <trkpt lat="42.59719" lon="0.93206">
        <ele>2581.28</ele>
        <time>2011-02-20T11:16:31Z</time>
      </trkpt>
      <trkpt lat="42.5972" lon="0.93207">
        <ele>2582.72</ele>
        <time>2011-02-20T11:17:23Z</time>
      </trkpt>
      <trkpt lat="42.59721" lon="0.93208">
        <ele>2582.72</ele>
        <time>2011-02-20T11:17:50Z</time>
      </trkpt>
      <trkpt lat="42.59721" lon="0.93208">
        <ele>2582.72</ele>
        <time>2011-02-20T11:18:04Z</time>
      </trkpt>
      <trkpt lat="42.59721" lon="0.93208">
        <ele>2582.72</ele>
        <time>2011-02-20T11:18:38Z</time>
      </trkpt>
      <trkpt lat="42.59721" lon="0.93208">
        <ele>2582.24</ele>
        <time>2011-02-20T11:18:54Z</time>
      </trkpt>
      <trkpt lat="42.59722" lon="0.93209">
        <ele>2582.24</ele>
        <time>2011-02-20T11:19:20Z</time>
      </trkpt>
      <trkpt lat="42.59722" lon="0.93207">
        <ele>2582.72</ele>
        <time>2011-02-20T11:19:34Z</time>
      </trkpt>
      <trkpt lat="42.59723" lon="0.93208">
        <ele>2581.76</ele>
        <time>2011-02-20T11:19:50Z</time>
      </trkpt>
      <trkpt lat="42.59723" lon="0.93208">
        <ele>2583.68</ele>
        <time>2011-02-20T11:20:16Z</time>
      </trkpt>
      <trkpt lat="42.59722" lon="0.93209">
        <ele>2582.72</ele>
        <time>2011-02-20T11:20:35Z</time>
      </trkpt>
      <trkpt lat="42.59722" lon="0.93209">
        <ele>2582.72</ele>
        <time>2011-02-20T11:20:46Z</time>
      </trkpt>
      <trkpt lat="42.59723" lon="0.9321">
        <ele>2582.72</ele>
        <time>2011-02-20T11:21:10Z</time>
      </trkpt>
      <trkpt lat="42.59725" lon="0.93211">
        <ele>2584.16</ele>
        <time>2011-02-20T11:21:38Z</time>
      </trkpt>
      <trkpt lat="42.59726" lon="0.93212">
        <ele>2583.2</ele>
        <time>2011-02-20T11:21:46Z</time>
      </trkpt>
      <trkpt lat="42.5973" lon="0.93212">
        <ele>2583.2</ele>
        <time>2011-02-20T11:21:57Z</time>
      </trkpt>
      <trkpt lat="42.59734" lon="0.93213">
        <ele>2583.2</ele>
        <time>2011-02-20T11:22:02Z</time>
      </trkpt>
      <trkpt lat="42.59739" lon="0.93219">
        <ele>2583.68</ele>
        <time>2011-02-20T11:22:09Z</time>
      </trkpt>
      <trkpt lat="42.59742" lon="0.9322">
        <ele>2583.68</ele>
        <time>2011-02-20T11:22:12Z</time>
      </trkpt>
      <trkpt lat="42.59754" lon="0.93225">
        <ele>2584.16</ele>
        <time>2011-02-20T11:22:27Z</time>
      </trkpt>
      <trkpt lat="42.5976" lon="0.93226">
        <ele>2583.2</ele>
        <time>2011-02-20T11:22:41Z</time>
      </trkpt>
      <trkpt lat="42.59764" lon="0.93227">
        <ele>2583.68</ele>
        <time>2011-02-20T11:22:48Z</time>
      </trkpt>
      <trkpt lat="42.59769" lon="0.93228">
        <ele>2583.68</ele>
        <time>2011-02-20T11:22:54Z</time>
      </trkpt>
      <trkpt lat="42.59775" lon="0.93231">
        <ele>2583.68</ele>
        <time>2011-02-20T11:23:05Z</time>
      </trkpt>
      <trkpt lat="42.59783" lon="0.93235">
        <ele>2583.68</ele>
        <time>2011-02-20T11:23:17Z</time>
      </trkpt>
      <trkpt lat="42.59791" lon="0.93237">
        <ele>2583.2</ele>
        <time>2011-02-20T11:23:29Z</time>
      </trkpt>
      <trkpt lat="42.59798" lon="0.93241">
        <ele>2583.68</ele>
        <time>2011-02-20T11:23:42Z</time>
      </trkpt>
      <trkpt lat="42.59804" lon="0.93243">
        <ele>2583.2</ele>
        <time>2011-02-20T11:23:59Z</time>
      </trkpt>
      <trkpt lat="42.59809" lon="0.93244">
        <ele>2583.68</ele>
        <time>2011-02-20T11:24:11Z</time>
      </trkpt>
      <trkpt lat="42.59818" lon="0.93248">
        <ele>2583.68</ele>
        <time>2011-02-20T11:24:25Z</time>
      </trkpt>
      <trkpt lat="42.5982" lon="0.93248">
        <ele>2583.2</ele>
        <time>2011-02-20T11:24:28Z</time>
      </trkpt>
      <trkpt lat="42.59826" lon="0.93253">
        <ele>2583.2</ele>
        <time>2011-02-20T11:24:41Z</time>
      </trkpt>
      <trkpt lat="42.59834" lon="0.93255">
        <ele>2583.2</ele>
        <time>2011-02-20T11:24:52Z</time>
      </trkpt>
      <trkpt lat="42.59842" lon="0.9326">
        <ele>2583.2</ele>
        <time>2011-02-20T11:25:03Z</time>
      </trkpt>
      <trkpt lat="42.5985" lon="0.93264">
        <ele>2583.2</ele>
        <time>2011-02-20T11:25:15Z</time>
      </trkpt>
      <trkpt lat="42.59858" lon="0.93269">
        <ele>2583.2</ele>
        <time>2011-02-20T11:25:27Z</time>
      </trkpt>
      <trkpt lat="42.59867" lon="0.93272">
        <ele>2583.68</ele>
        <time>2011-02-20T11:25:40Z</time>
      </trkpt>
      <trkpt lat="42.59873" lon="0.93276">
        <ele>2583.2</ele>
        <time>2011-02-20T11:25:51Z</time>
      </trkpt>
      <trkpt lat="42.59881" lon="0.93279">
        <ele>2583.2</ele>
        <time>2011-02-20T11:26:03Z</time>
      </trkpt>
      <trkpt lat="42.59888" lon="0.93282">
        <ele>2583.68</ele>
        <time>2011-02-20T11:26:14Z</time>
      </trkpt>
      <trkpt lat="42.59898" lon="0.93288">
        <ele>2583.2</ele>
        <time>2011-02-20T11:26:28Z</time>
      </trkpt>
      <trkpt lat="42.59907" lon="0.93293">
        <ele>2583.2</ele>
        <time>2011-02-20T11:26:41Z</time>
      </trkpt>
      <trkpt lat="42.59911" lon="0.93295">
        <ele>2583.68</ele>
        <time>2011-02-20T11:26:53Z</time>
      </trkpt>
      <trkpt lat="42.59914" lon="0.93295">
        <ele>2583.68</ele>
        <time>2011-02-20T11:26:58Z</time>
      </trkpt>
      <trkpt lat="42.59917" lon="0.93295">
        <ele>2583.68</ele>
        <time>2011-02-20T11:27:07Z</time>
      </trkpt>
      <trkpt lat="42.59923" lon="0.93289">
        <ele>2584.16</ele>
        <time>2011-02-20T11:27:17Z</time>
      </trkpt>
      <trkpt lat="42.59923" lon="0.93288">
        <ele>2584.16</ele>
        <time>2011-02-20T11:27:30Z</time>
      </trkpt>
      <trkpt lat="42.59923" lon="0.93292">
        <ele>2585.12</ele>
        <time>2011-02-20T11:27:37Z</time>
      </trkpt>
      <trkpt lat="42.59924" lon="0.93294">
        <ele>2585.12</ele>
        <time>2011-02-20T11:27:46Z</time>
      </trkpt>
      <trkpt lat="42.59926" lon="0.93295">
        <ele>2584.64</ele>
        <time>2011-02-20T11:27:55Z</time>
      </trkpt>
      <trkpt lat="42.59926" lon="0.93295">
        <ele>2573.59</ele>
        <time>2011-02-20T11:28:09Z</time>
      </trkpt>
      <trkpt lat="42.59926" lon="0.93295">
        <ele>2575.99</ele>
        <time>2011-02-20T11:28:10Z</time>
      </trkpt>
      <trkpt lat="42.59926" lon="0.93295">
        <ele>2584.16</ele>
        <time>2011-02-20T11:28:11Z</time>
      </trkpt>
      <trkpt lat="42.59926" lon="0.93295">
        <ele>2584.16</ele>
        <time>2011-02-20T11:28:12Z</time>
      </trkpt>
      <trkpt lat="42.59926" lon="0.93295">
        <ele>2586.08</ele>
        <time>2011-02-20T11:28:43Z</time>
      </trkpt>
      <trkpt lat="42.59926" lon="0.93295">
        <ele>2582.24</ele>
        <time>2011-02-20T11:28:44Z</time>
      </trkpt>
      <trkpt lat="42.59926" lon="0.93295">
        <ele>2582.24</ele>
        <time>2011-02-20T11:28:45Z</time>
      </trkpt>
      <trkpt lat="42.59926" lon="0.93295">
        <ele>2585.6</ele>
        <time>2011-02-20T11:28:48Z</time>
      </trkpt>
      <trkpt lat="42.59926" lon="0.93295">
        <ele>2582.24</ele>
        <time>2011-02-20T11:28:54Z</time>
      </trkpt>
      <trkpt lat="42.59926" lon="0.93295">
        <ele>2583.2</ele>
        <time>2011-02-20T11:28:55Z</time>
      </trkpt>
      <trkpt lat="42.59926" lon="0.93295">
        <ele>2584.64</ele>
        <time>2011-02-20T11:29:02Z</time>
      </trkpt>
      <trkpt lat="42.59926" lon="0.93295">
        <ele>2584.16</ele>
        <time>2011-02-20T11:29:37Z</time>
      </trkpt>
      <trkpt lat="42.59926" lon="0.93294">
        <ele>2583.68</ele>
        <time>2011-02-20T11:29:42Z</time>
      </trkpt>
      <trkpt lat="42.59926" lon="0.93295">
        <ele>2585.6</ele>
        <time>2011-02-20T11:29:51Z</time>
      </trkpt>
      <trkpt lat="42.59926" lon="0.93295">
        <ele>2585.12</ele>
        <time>2011-02-20T11:30:03Z</time>
      </trkpt>
      <trkpt lat="42.59927" lon="0.93297">
        <ele>2585.6</ele>
        <time>2011-02-20T11:30:17Z</time>
      </trkpt>
      <trkpt lat="42.59929" lon="0.93297">
        <ele>2585.6</ele>
        <time>2011-02-20T11:30:27Z</time>
      </trkpt>
      <trkpt lat="42.59934" lon="0.93299">
        <ele>2587.04</ele>
        <time>2011-02-20T11:30:41Z</time>
      </trkpt>
      <trkpt lat="42.59935" lon="0.93299">
        <ele>2587.53</ele>
        <time>2011-02-20T11:30:57Z</time>
      </trkpt>
      <trkpt lat="42.59935" lon="0.93302">
        <ele>2588.01</ele>
        <time>2011-02-20T11:31:01Z</time>
      </trkpt>
      <trkpt lat="42.59931" lon="0.93308">
        <ele>2588.49</ele>
        <time>2011-02-20T11:31:14Z</time>
      </trkpt>
      <trkpt lat="42.59929" lon="0.9331">
        <ele>2589.45</ele>
        <time>2011-02-20T11:31:24Z</time>
      </trkpt>
      <trkpt lat="42.59926" lon="0.93318">
        <ele>2589.45</ele>
        <time>2011-02-20T11:31:36Z</time>
      </trkpt>
      <trkpt lat="42.59928" lon="0.93323">
        <ele>2590.89</ele>
        <time>2011-02-20T11:31:48Z</time>
      </trkpt>
      <trkpt lat="42.59931" lon="0.93325">
        <ele>2591.37</ele>
        <time>2011-02-20T11:32:01Z</time>
      </trkpt>
      <trkpt lat="42.59935" lon="0.93326">
        <ele>2592.33</ele>
        <time>2011-02-20T11:32:13Z</time>
      </trkpt>
      <trkpt lat="42.59935" lon="0.93326">
        <ele>2592.81</ele>
        <time>2011-02-20T11:32:15Z</time>
      </trkpt>
      <trkpt lat="42.5994" lon="0.93327">
        <ele>2593.77</ele>
        <time>2011-02-20T11:32:27Z</time>
      </trkpt>
      <trkpt lat="42.59942" lon="0.93327">
        <ele>2594.74</ele>
        <time>2011-02-20T11:32:37Z</time>
      </trkpt>
      <trkpt lat="42.59947" lon="0.93331">
        <ele>2595.22</ele>
        <time>2011-02-20T11:32:49Z</time>
      </trkpt>
      <trkpt lat="42.59949" lon="0.93335">
        <ele>2596.18</ele>
        <time>2011-02-20T11:33:02Z</time>
      </trkpt>
      <trkpt lat="42.59955" lon="0.93339">
        <ele>2596.66</ele>
        <time>2011-02-20T11:33:14Z</time>
      </trkpt>
      <trkpt lat="42.59957" lon="0.93341">
        <ele>2597.14</ele>
        <time>2011-02-20T11:33:25Z</time>
      </trkpt>
      <trkpt lat="42.59958" lon="0.93342">
        <ele>2597.62</ele>
        <time>2011-02-20T11:33:31Z</time>
      </trkpt>
      <trkpt lat="42.59965" lon="0.93347">
        <ele>2597.62</ele>
        <time>2011-02-20T11:33:43Z</time>
      </trkpt>
      <trkpt lat="42.59966" lon="0.93347">
        <ele>2597.14</ele>
        <time>2011-02-20T11:33:55Z</time>
      </trkpt>
      <trkpt lat="42.59967" lon="0.93342">
        <ele>2598.1</ele>
        <time>2011-02-20T11:34:08Z</time>
      </trkpt>
      <trkpt lat="42.59965" lon="0.93333">
        <ele>2597.62</ele>
        <time>2011-02-20T11:34:19Z</time>
      </trkpt>
      <trkpt lat="42.59965" lon="0.93331">
        <ele>2597.62</ele>
        <time>2011-02-20T11:34:33Z</time>
      </trkpt>
      <trkpt lat="42.59964" lon="0.93329">
        <ele>2601.46</ele>
        <time>2011-02-20T11:34:40Z</time>
      </trkpt>
      <trkpt lat="42.59964" lon="0.93329">
        <ele>2597.62</ele>
        <time>2011-02-20T11:34:41Z</time>
      </trkpt>
      <trkpt lat="42.59964" lon="0.93329">
        <ele>2596.66</ele>
        <time>2011-02-20T11:34:43Z</time>
      </trkpt>
      <trkpt lat="42.59964" lon="0.93329">
        <ele>2597.14</ele>
        <time>2011-02-20T11:35:07Z</time>
      </trkpt>
      <trkpt lat="42.59964" lon="0.93329">
        <ele>2596.66</ele>
        <time>2011-02-20T11:36:32Z</time>
      </trkpt>
      <trkpt lat="42.59965" lon="0.93328">
        <ele>2596.66</ele>
        <time>2011-02-20T11:38:41Z</time>
      </trkpt>
      <trkpt lat="42.59966" lon="0.93329">
        <ele>2597.62</ele>
        <time>2011-02-20T11:53:35Z</time>
      </trkpt>
      <trkpt lat="42.59965" lon="0.93329">
        <ele>2593.29</ele>
        <time>2011-02-20T11:55:48Z</time>
      </trkpt>
      <trkpt lat="42.59965" lon="0.93329">
        <ele>2598.58</ele>
        <time>2011-02-20T11:55:49Z</time>
      </trkpt>
      <trkpt lat="42.59965" lon="0.93329">
        <ele>2597.14</ele>
        <time>2011-02-20T11:56:24Z</time>
      </trkpt>
      <trkpt lat="42.59965" lon="0.93329">
        <ele>2597.62</ele>
        <time>2011-02-20T11:57:41Z</time>
      </trkpt>
      <trkpt lat="42.59964" lon="0.93329">
        <ele>2598.1</ele>
        <time>2011-02-20T11:57:57Z</time>
      </trkpt>
      <trkpt lat="42.59965" lon="0.9333">
        <ele>2598.1</ele>
        <time>2011-02-20T11:58:05Z</time>
      </trkpt>
      <trkpt lat="42.59965" lon="0.9333">
        <ele>2598.58</ele>
        <time>2011-02-20T11:58:09Z</time>
      </trkpt>
      <trkpt lat="42.59964" lon="0.93329">
        <ele>2598.1</ele>
        <time>2011-02-20T11:58:13Z</time>
      </trkpt>
      <trkpt lat="42.59965" lon="0.93328">
        <ele>2596.66</ele>
        <time>2011-02-20T11:58:32Z</time>
      </trkpt>
      <trkpt lat="42.59965" lon="0.93328">
        <ele>2597.14</ele>
        <time>2011-02-20T11:58:41Z</time>
      </trkpt>
      <trkpt lat="42.59964" lon="0.93331">
        <ele>2598.58</ele>
        <time>2011-02-20T11:58:45Z</time>
      </trkpt>
      <trkpt lat="42.59968" lon="0.93337">
        <ele>2598.1</ele>
        <time>2011-02-20T11:58:55Z</time>
      </trkpt>
      <trkpt lat="42.59967" lon="0.93341">
        <ele>2597.14</ele>
        <time>2011-02-20T11:59:02Z</time>
      </trkpt>
      <trkpt lat="42.59967" lon="0.93347">
        <ele>2597.62</ele>
        <time>2011-02-20T11:59:15Z</time>
      </trkpt>
      <trkpt lat="42.59966" lon="0.93347">
        <ele>2598.58</ele>
        <time>2011-02-20T11:59:30Z</time>
      </trkpt>
      <trkpt lat="42.59966" lon="0.93347">
        <ele>2597.62</ele>
        <time>2011-02-20T11:59:54Z</time>
      </trkpt>
      <trkpt lat="42.59967" lon="0.93348">
        <ele>2597.62</ele>
        <time>2011-02-20T12:00:34Z</time>
      </trkpt>
      <trkpt lat="42.59966" lon="0.93348">
        <ele>2600.02</ele>
        <time>2011-02-20T12:00:49Z</time>
      </trkpt>
      <trkpt lat="42.59966" lon="0.93348">
        <ele>2598.1</ele>
        <time>2011-02-20T12:00:58Z</time>
      </trkpt>
      <trkpt lat="42.59966" lon="0.93348">
        <ele>2599.54</ele>
        <time>2011-02-20T12:01:02Z</time>
      </trkpt>
      <trkpt lat="42.59966" lon="0.93348">
        <ele>2598.58</ele>
        <time>2011-02-20T12:01:04Z</time>
      </trkpt>
      <trkpt lat="42.59966" lon="0.93348">
        <ele>2597.62</ele>
        <time>2011-02-20T12:01:09Z</time>
      </trkpt>
      <trkpt lat="42.59966" lon="0.93348">
        <ele>2600.5</ele>
        <time>2011-02-20T12:01:39Z</time>
      </trkpt>
      <trkpt lat="42.59966" lon="0.93348">
        <ele>2600.02</ele>
        <time>2011-02-20T12:01:40Z</time>
      </trkpt>
      <trkpt lat="42.59966" lon="0.93348">
        <ele>2597.14</ele>
        <time>2011-02-20T12:01:45Z</time>
      </trkpt>
      <trkpt lat="42.59966" lon="0.93348">
        <ele>2600.02</ele>
        <time>2011-02-20T12:01:49Z</time>
      </trkpt>
      <trkpt lat="42.59966" lon="0.93347">
        <ele>2595.22</ele>
        <time>2011-02-20T12:01:54Z</time>
      </trkpt>
      <trkpt lat="42.59966" lon="0.93347">
        <ele>2596.18</ele>
        <time>2011-02-20T12:01:55Z</time>
      </trkpt>
      <trkpt lat="42.59966" lon="0.93347">
        <ele>2598.58</ele>
        <time>2011-02-20T12:01:58Z</time>
      </trkpt>
      <trkpt lat="42.59966" lon="0.93347">
        <ele>2598.1</ele>
        <time>2011-02-20T12:02:19Z</time>
      </trkpt>
      <trkpt lat="42.59966" lon="0.93347">
        <ele>2598.58</ele>
        <time>2011-02-20T12:02:37Z</time>
      </trkpt>
      <trkpt lat="42.59966" lon="0.93347">
        <ele>2599.06</ele>
        <time>2011-02-20T12:02:54Z</time>
      </trkpt>
      <trkpt lat="42.59966" lon="0.93349">
        <ele>2598.58</ele>
        <time>2011-02-20T12:03:01Z</time>
      </trkpt>
      <trkpt lat="42.59966" lon="0.93349">
        <ele>2598.58</ele>
        <time>2011-02-20T12:03:03Z</time>
      </trkpt>
      <trkpt lat="42.59966" lon="0.93352">
        <ele>2598.1</ele>
        <time>2011-02-20T12:03:07Z</time>
      </trkpt>
      <trkpt lat="42.5997" lon="0.93364">
        <ele>2596.66</ele>
        <time>2011-02-20T12:03:16Z</time>
      </trkpt>
      <trkpt lat="42.59973" lon="0.93369">
        <ele>2595.7</ele>
        <time>2011-02-20T12:03:30Z</time>
      </trkpt>
      <trkpt lat="42.59971" lon="0.93369">
        <ele>2595.22</ele>
        <time>2011-02-20T12:03:47Z</time>
      </trkpt>
      <trkpt lat="42.59967" lon="0.93372">
        <ele>2595.7</ele>
        <time>2011-02-20T12:03:56Z</time>
      </trkpt>
      <trkpt lat="42.59965" lon="0.93376">
        <ele>2596.18</ele>
        <time>2011-02-20T12:04:06Z</time>
      </trkpt>
      <trkpt lat="42.59962" lon="0.93382">
        <ele>2595.22</ele>
        <time>2011-02-20T12:04:18Z</time>
      </trkpt>
      <trkpt lat="42.5996" lon="0.93393">
        <ele>2594.74</ele>
        <time>2011-02-20T12:04:32Z</time>
      </trkpt>
      <trkpt lat="42.59959" lon="0.93397">
        <ele>2595.22</ele>
        <time>2011-02-20T12:04:37Z</time>
      </trkpt>
      <trkpt lat="42.59957" lon="0.93398">
        <ele>2596.18</ele>
        <time>2011-02-20T12:04:46Z</time>
      </trkpt>
      <trkpt lat="42.59947" lon="0.93407">
        <ele>2592.81</ele>
        <time>2011-02-20T12:04:56Z</time>
      </trkpt>
      <trkpt lat="42.59947" lon="0.93408">
        <ele>2593.29</ele>
        <time>2011-02-20T12:04:57Z</time>
      </trkpt>
      <trkpt lat="42.59946" lon="0.93412">
        <ele>2592.81</ele>
        <time>2011-02-20T12:05:10Z</time>
      </trkpt>
      <trkpt lat="42.59946" lon="0.93413">
        <ele>2592.81</ele>
        <time>2011-02-20T12:05:38Z</time>
      </trkpt>
      <trkpt lat="42.59945" lon="0.93416">
        <ele>2592.33</ele>
        <time>2011-02-20T12:05:48Z</time>
      </trkpt>
      <trkpt lat="42.59938" lon="0.93427">
        <ele>2588.97</ele>
        <time>2011-02-20T12:05:52Z</time>
      </trkpt>
      <trkpt lat="42.59941" lon="0.93435">
        <ele>2587.04</ele>
        <time>2011-02-20T12:05:58Z</time>
      </trkpt>
      <trkpt lat="42.59943" lon="0.93434">
        <ele>2586.08</ele>
        <time>2011-02-20T12:06:02Z</time>
      </trkpt>
      <trkpt lat="42.59944" lon="0.93439">
        <ele>2585.12</ele>
        <time>2011-02-20T12:06:06Z</time>
      </trkpt>
      <trkpt lat="42.59947" lon="0.93447">
        <ele>2582.72</ele>
        <time>2011-02-20T12:06:16Z</time>
      </trkpt>
      <trkpt lat="42.59949" lon="0.93447">
        <ele>2581.76</ele>
        <time>2011-02-20T12:06:27Z</time>
      </trkpt>
      <trkpt lat="42.59949" lon="0.93447">
        <ele>2580.8</ele>
        <time>2011-02-20T12:06:37Z</time>
      </trkpt>
      <trkpt lat="42.59951" lon="0.93449">
        <ele>2579.35</ele>
        <time>2011-02-20T12:06:47Z</time>
      </trkpt>
      <trkpt lat="42.59952" lon="0.93449">
        <ele>2577.91</ele>
        <time>2011-02-20T12:06:50Z</time>
      </trkpt>
      <trkpt lat="42.59954" lon="0.9345">
        <ele>2577.43</ele>
        <time>2011-02-20T12:06:56Z</time>
      </trkpt>
      <trkpt lat="42.59957" lon="0.9346">
        <ele>2574.07</ele>
        <time>2011-02-20T12:06:59Z</time>
      </trkpt>
      <trkpt lat="42.59963" lon="0.93468">
        <ele>2569.74</ele>
        <time>2011-02-20T12:07:01Z</time>
      </trkpt>
      <trkpt lat="42.59966" lon="0.93473">
        <ele>2566.86</ele>
        <time>2011-02-20T12:07:02Z</time>
      </trkpt>
      <trkpt lat="42.59972" lon="0.93485">
        <ele>2558.21</ele>
        <time>2011-02-20T12:07:04Z</time>
      </trkpt>
      <trkpt lat="42.59977" lon="0.9349">
        <ele>2553.88</ele>
        <time>2011-02-20T12:07:05Z</time>
      </trkpt>
      <trkpt lat="42.59981" lon="0.93496">
        <ele>2553.4</ele>
        <time>2011-02-20T12:07:07Z</time>
      </trkpt>
      <trkpt lat="42.59979" lon="0.93493">
        <ele>2552.92</ele>
        <time>2011-02-20T12:07:14Z</time>
      </trkpt>
      <trkpt lat="42.59978" lon="0.93493">
        <ele>2553.4</ele>
        <time>2011-02-20T12:07:15Z</time>
      </trkpt>
      <trkpt lat="42.59982" lon="0.93493">
        <ele>2552.44</ele>
        <time>2011-02-20T12:07:21Z</time>
      </trkpt>
      <trkpt lat="42.59982" lon="0.93493">
        <ele>2551.48</ele>
        <time>2011-02-20T12:07:52Z</time>
      </trkpt>
      <trkpt lat="42.59984" lon="0.93491">
        <ele>2551</ele>
        <time>2011-02-20T12:08:01Z</time>
      </trkpt>
      <trkpt lat="42.59988" lon="0.93492">
        <ele>2550.51</ele>
        <time>2011-02-20T12:08:05Z</time>
      </trkpt>
      <trkpt lat="42.59994" lon="0.9351">
        <ele>2544.75</ele>
        <time>2011-02-20T12:08:10Z</time>
      </trkpt>
      <trkpt lat="42.59995" lon="0.93518">
        <ele>2540.42</ele>
        <time>2011-02-20T12:08:12Z</time>
      </trkpt>
      <trkpt lat="42.59995" lon="0.93519">
        <ele>2540.9</ele>
        <time>2011-02-20T12:08:13Z</time>
      </trkpt>
      <trkpt lat="42.59995" lon="0.93519">
        <ele>2540.42</ele>
        <time>2011-02-20T12:08:33Z</time>
      </trkpt>
      <trkpt lat="42.59994" lon="0.9352">
        <ele>2540.42</ele>
        <time>2011-02-20T12:09:00Z</time>
      </trkpt>
      <trkpt lat="42.59995" lon="0.9352">
        <ele>2540.42</ele>
        <time>2011-02-20T12:09:14Z</time>
      </trkpt>
      <trkpt lat="42.59996" lon="0.93521">
        <ele>2539.94</ele>
        <time>2011-02-20T12:09:28Z</time>
      </trkpt>
      <trkpt lat="42.60006" lon="0.9352">
        <ele>2538.5</ele>
        <time>2011-02-20T12:09:39Z</time>
      </trkpt>
      <trkpt lat="42.60005" lon="0.9352">
        <ele>2538.5</ele>
        <time>2011-02-20T12:10:30Z</time>
      </trkpt>
      <trkpt lat="42.60005" lon="0.9352">
        <ele>2538.02</ele>
        <time>2011-02-20T12:10:37Z</time>
      </trkpt>
      <trkpt lat="42.60005" lon="0.9352">
        <ele>2538.02</ele>
        <time>2011-02-20T12:10:51Z</time>
      </trkpt>
      <trkpt lat="42.60005" lon="0.9352">
        <ele>2538.02</ele>
        <time>2011-02-20T12:11:08Z</time>
      </trkpt>
      <trkpt lat="42.60014" lon="0.93514">
        <ele>2536.1</ele>
        <time>2011-02-20T12:11:19Z</time>
      </trkpt>
      <trkpt lat="42.60022" lon="0.93512">
        <ele>2535.13</ele>
        <time>2011-02-20T12:11:21Z</time>
      </trkpt>
      <trkpt lat="42.60027" lon="0.93519">
        <ele>2531.77</ele>
        <time>2011-02-20T12:11:24Z</time>
      </trkpt>
      <trkpt lat="42.60027" lon="0.9352">
        <ele>2531.29</ele>
        <time>2011-02-20T12:11:28Z</time>
      </trkpt>
      <trkpt lat="42.60039" lon="0.93524">
        <ele>2527.92</ele>
        <time>2011-02-20T12:11:32Z</time>
      </trkpt>
      <trkpt lat="42.60048" lon="0.93519">
        <ele>2524.56</ele>
        <time>2011-02-20T12:11:34Z</time>
      </trkpt>
      <trkpt lat="42.60055" lon="0.93521">
        <ele>2519.75</ele>
        <time>2011-02-20T12:11:39Z</time>
      </trkpt>
      <trkpt lat="42.60055" lon="0.93521">
        <ele>2520.23</ele>
        <time>2011-02-20T12:11:41Z</time>
      </trkpt>
      <trkpt lat="42.60056" lon="0.93524">
        <ele>2518.79</ele>
        <time>2011-02-20T12:11:45Z</time>
      </trkpt>
      <trkpt lat="42.60058" lon="0.93526">
        <ele>2518.31</ele>
        <time>2011-02-20T12:11:47Z</time>
      </trkpt>
      <trkpt lat="42.60061" lon="0.93524">
        <ele>2515.91</ele>
        <time>2011-02-20T12:11:51Z</time>
      </trkpt>
      <trkpt lat="42.60061" lon="0.93524">
        <ele>2514.95</ele>
        <time>2011-02-20T12:11:59Z</time>
      </trkpt>
      <trkpt lat="42.60071" lon="0.93517">
        <ele>2513.02</ele>
        <time>2011-02-20T12:12:03Z</time>
      </trkpt>
      <trkpt lat="42.60091" lon="0.935">
        <ele>2506.77</ele>
        <time>2011-02-20T12:12:07Z</time>
      </trkpt>
      <trkpt lat="42.60093" lon="0.93499">
        <ele>2506.77</ele>
        <time>2011-02-20T12:12:08Z</time>
      </trkpt>
      <trkpt lat="42.60093" lon="0.93498">
        <ele>2506.29</ele>
        <time>2011-02-20T12:12:12Z</time>
      </trkpt>
      <trkpt lat="42.60097" lon="0.93521">
        <ele>2499.57</ele>
        <time>2011-02-20T12:12:17Z</time>
      </trkpt>
      <trkpt lat="42.601" lon="0.93527">
        <ele>2499.08</ele>
        <time>2011-02-20T12:12:18Z</time>
      </trkpt>
      <trkpt lat="42.60102" lon="0.93534">
        <ele>2495.72</ele>
        <time>2011-02-20T12:12:19Z</time>
      </trkpt>
      <trkpt lat="42.60109" lon="0.93549">
        <ele>2491.87</ele>
        <time>2011-02-20T12:12:22Z</time>
      </trkpt>
      <trkpt lat="42.60112" lon="0.9356">
        <ele>2488.51</ele>
        <time>2011-02-20T12:12:24Z</time>
      </trkpt>
      <trkpt lat="42.60116" lon="0.93587">
        <ele>2478.42</ele>
        <time>2011-02-20T12:12:28Z</time>
      </trkpt>
      <trkpt lat="42.60116" lon="0.93591">
        <ele>2475.53</ele>
        <time>2011-02-20T12:12:30Z</time>
      </trkpt>
      <trkpt lat="42.60115" lon="0.93595">
        <ele>2476.49</ele>
        <time>2011-02-20T12:12:37Z</time>
      </trkpt>
      <trkpt lat="42.60114" lon="0.93605">
        <ele>2473.61</ele>
        <time>2011-02-20T12:12:41Z</time>
      </trkpt>
      <trkpt lat="42.60113" lon="0.93609">
        <ele>2473.61</ele>
        <time>2011-02-20T12:12:42Z</time>
      </trkpt>
      <trkpt lat="42.60112" lon="0.93625">
        <ele>2469.76</ele>
        <time>2011-02-20T12:12:45Z</time>
      </trkpt>
      <trkpt lat="42.60113" lon="0.93631">
        <ele>2465.92</ele>
        <time>2011-02-20T12:12:46Z</time>
      </trkpt>
      <trkpt lat="42.60117" lon="0.93644">
        <ele>2462.55</ele>
        <time>2011-02-20T12:12:48Z</time>
      </trkpt>
      <trkpt lat="42.6012" lon="0.93659">
        <ele>2456.79</ele>
        <time>2011-02-20T12:12:50Z</time>
      </trkpt>
      <trkpt lat="42.60122" lon="0.93666">
        <ele>2455.34</ele>
        <time>2011-02-20T12:12:51Z</time>
      </trkpt>
      <trkpt lat="42.60124" lon="0.93682">
        <ele>2449.58</ele>
        <time>2011-02-20T12:12:53Z</time>
      </trkpt>
      <trkpt lat="42.60128" lon="0.93701">
        <ele>2444.77</ele>
        <time>2011-02-20T12:12:56Z</time>
      </trkpt>
      <trkpt lat="42.6013" lon="0.93708">
        <ele>2434.2</ele>
        <time>2011-02-20T12:12:58Z</time>
      </trkpt>
      <trkpt lat="42.6013" lon="0.93707">
        <ele>2439.96</ele>
        <time>2011-02-20T12:12:59Z</time>
      </trkpt>
      <trkpt lat="42.6013" lon="0.93707">
        <ele>2441.41</ele>
        <time>2011-02-20T12:13:01Z</time>
      </trkpt>
      <trkpt lat="42.6013" lon="0.93707">
        <ele>2442.85</ele>
        <time>2011-02-20T12:13:12Z</time>
      </trkpt>
      <trkpt lat="42.6013" lon="0.93706">
        <ele>2440.44</ele>
        <time>2011-02-20T12:13:14Z</time>
      </trkpt>
      <trkpt lat="42.6013" lon="0.93706">
        <ele>2440.92</ele>
        <time>2011-02-20T12:13:31Z</time>
      </trkpt>
      <trkpt lat="42.6013" lon="0.93706">
        <ele>2440.92</ele>
        <time>2011-02-20T12:13:32Z</time>
      </trkpt>
      <trkpt lat="42.6013" lon="0.93706">
        <ele>2442.85</ele>
        <time>2011-02-20T12:13:39Z</time>
      </trkpt>
      <trkpt lat="42.6013" lon="0.93706">
        <ele>2439.48</ele>
        <time>2011-02-20T12:13:41Z</time>
      </trkpt>
      <trkpt lat="42.6013" lon="0.93706">
        <ele>2442.85</ele>
        <time>2011-02-20T12:13:43Z</time>
      </trkpt>
      <trkpt lat="42.6013" lon="0.93706">
        <ele>2441.89</ele>
        <time>2011-02-20T12:13:46Z</time>
      </trkpt>
      <trkpt lat="42.6013" lon="0.93706">
        <ele>2441.41</ele>
        <time>2011-02-20T12:13:59Z</time>
      </trkpt>
      <trkpt lat="42.6013" lon="0.93707">
        <ele>2442.37</ele>
        <time>2011-02-20T12:14:09Z</time>
      </trkpt>
      <trkpt lat="42.6013" lon="0.93707">
        <ele>2442.37</ele>
        <time>2011-02-20T12:14:10Z</time>
      </trkpt>
      <trkpt lat="42.6013" lon="0.93706">
        <ele>2442.85</ele>
        <time>2011-02-20T12:14:22Z</time>
      </trkpt>
      <trkpt lat="42.6013" lon="0.93706">
        <ele>2442.85</ele>
        <time>2011-02-20T12:14:33Z</time>
      </trkpt>
      <trkpt lat="42.6013" lon="0.93706">
        <ele>2442.85</ele>
        <time>2011-02-20T12:15:01Z</time>
      </trkpt>
      <trkpt lat="42.60131" lon="0.93706">
        <ele>2443.33</ele>
        <time>2011-02-20T12:15:15Z</time>
      </trkpt>
      <trkpt lat="42.60133" lon="0.93706">
        <ele>2442.37</ele>
        <time>2011-02-20T12:15:29Z</time>
      </trkpt>
      <trkpt lat="42.60135" lon="0.93707">
        <ele>2443.33</ele>
        <time>2011-02-20T12:15:33Z</time>
      </trkpt>
      <trkpt lat="42.60136" lon="0.93709">
        <ele>2442.85</ele>
        <time>2011-02-20T12:15:43Z</time>
      </trkpt>
      <trkpt lat="42.60137" lon="0.9371">
        <ele>2442.37</ele>
        <time>2011-02-20T12:15:55Z</time>
      </trkpt>
      <trkpt lat="42.6014" lon="0.93712">
        <ele>2443.81</ele>
        <time>2011-02-20T12:16:01Z</time>
      </trkpt>
      <trkpt lat="42.60146" lon="0.9371">
        <ele>2443.33</ele>
        <time>2011-02-20T12:16:08Z</time>
      </trkpt>
      <trkpt lat="42.60148" lon="0.93708">
        <ele>2442.85</ele>
        <time>2011-02-20T12:16:11Z</time>
      </trkpt>
      <trkpt lat="42.60149" lon="0.93708">
        <ele>2443.33</ele>
        <time>2011-02-20T12:16:19Z</time>
      </trkpt>
      <trkpt lat="42.60149" lon="0.93708">
        <ele>2443.33</ele>
        <time>2011-02-20T12:16:57Z</time>
      </trkpt>
      <trkpt lat="42.60149" lon="0.93708">
        <ele>2441.89</ele>
        <time>2011-02-20T12:17:10Z</time>
      </trkpt>
      <trkpt lat="42.60149" lon="0.93708">
        <ele>2443.81</ele>
        <time>2011-02-20T12:17:20Z</time>
      </trkpt>
      <trkpt lat="42.60149" lon="0.93708">
        <ele>2440.44</ele>
        <time>2011-02-20T12:17:36Z</time>
      </trkpt>
      <trkpt lat="42.60149" lon="0.93708">
        <ele>2441.89</ele>
        <time>2011-02-20T12:17:37Z</time>
      </trkpt>
      <trkpt lat="42.60149" lon="0.93708">
        <ele>2443.81</ele>
        <time>2011-02-20T12:17:39Z</time>
      </trkpt>
      <trkpt lat="42.60149" lon="0.93708">
        <ele>2438.04</ele>
        <time>2011-02-20T12:17:46Z</time>
      </trkpt>
      <trkpt lat="42.60149" lon="0.93708">
        <ele>2440.92</ele>
        <time>2011-02-20T12:17:47Z</time>
      </trkpt>
      <trkpt lat="42.60149" lon="0.93708">
        <ele>2444.29</ele>
        <time>2011-02-20T12:17:50Z</time>
      </trkpt>
      <trkpt lat="42.60151" lon="0.93712">
        <ele>2442.85</ele>
        <time>2011-02-20T12:17:57Z</time>
      </trkpt>
      <trkpt lat="42.60153" lon="0.93716">
        <ele>2442.85</ele>
        <time>2011-02-20T12:18:07Z</time>
      </trkpt>
      <trkpt lat="42.60152" lon="0.93716">
        <ele>2438.04</ele>
        <time>2011-02-20T12:18:14Z</time>
      </trkpt>
      <trkpt lat="42.60152" lon="0.93716">
        <ele>2441.41</ele>
        <time>2011-02-20T12:18:15Z</time>
      </trkpt>
      <trkpt lat="42.60152" lon="0.93716">
        <ele>2437.08</ele>
        <time>2011-02-20T12:18:31Z</time>
      </trkpt>
      <trkpt lat="42.60152" lon="0.93716">
        <ele>2443.33</ele>
        <time>2011-02-20T12:18:32Z</time>
      </trkpt>
      <trkpt lat="42.60152" lon="0.93716">
        <ele>2439.48</ele>
        <time>2011-02-20T12:18:34Z</time>
      </trkpt>
      <trkpt lat="42.60152" lon="0.93716">
        <ele>2439.48</ele>
        <time>2011-02-20T12:18:39Z</time>
      </trkpt>
      <trkpt lat="42.60152" lon="0.93716">
        <ele>2442.85</ele>
        <time>2011-02-20T12:18:40Z</time>
      </trkpt>
      <trkpt lat="42.60152" lon="0.93716">
        <ele>2441.89</ele>
        <time>2011-02-20T12:18:41Z</time>
      </trkpt>
      <trkpt lat="42.60153" lon="0.93717">
        <ele>2443.81</ele>
        <time>2011-02-20T12:18:46Z</time>
      </trkpt>
      <trkpt lat="42.60152" lon="0.93716">
        <ele>2442.37</ele>
        <time>2011-02-20T12:18:51Z</time>
      </trkpt>
      <trkpt lat="42.60152" lon="0.93716">
        <ele>2442.85</ele>
        <time>2011-02-20T12:18:52Z</time>
      </trkpt>
      <trkpt lat="42.60151" lon="0.93715">
        <ele>2443.33</ele>
        <time>2011-02-20T12:19:05Z</time>
      </trkpt>
      <trkpt lat="42.60152" lon="0.93716">
        <ele>2443.33</ele>
        <time>2011-02-20T12:19:11Z</time>
      </trkpt>
      <trkpt lat="42.60151" lon="0.93715">
        <ele>2443.33</ele>
        <time>2011-02-20T12:19:27Z</time>
      </trkpt>
      <trkpt lat="42.60151" lon="0.93715">
        <ele>2443.33</ele>
        <time>2011-02-20T12:19:50Z</time>
      </trkpt>
      <trkpt lat="42.60152" lon="0.93714">
        <ele>2442.85</ele>
        <time>2011-02-20T12:20:14Z</time>
      </trkpt>
      <trkpt lat="42.60152" lon="0.93715">
        <ele>2443.33</ele>
        <time>2011-02-20T12:20:38Z</time>
      </trkpt>
      <trkpt lat="42.60152" lon="0.93715">
        <ele>2443.33</ele>
        <time>2011-02-20T12:21:06Z</time>
      </trkpt>
      <trkpt lat="42.60152" lon="0.93714">
        <ele>2443.81</ele>
        <time>2011-02-20T12:21:26Z</time>
      </trkpt>
      <trkpt lat="42.60152" lon="0.93714">
        <ele>2443.81</ele>
        <time>2011-02-20T12:21:58Z</time>
      </trkpt>
      <trkpt lat="42.60152" lon="0.93714">
        <ele>2443.33</ele>
        <time>2011-02-20T12:21:59Z</time>
      </trkpt>
      <trkpt lat="42.60151" lon="0.93714">
        <ele>2442.37</ele>
        <time>2011-02-20T12:22:05Z</time>
      </trkpt>
      <trkpt lat="42.60152" lon="0.93714">
        <ele>2442.85</ele>
        <time>2011-02-20T12:23:43Z</time>
      </trkpt>
      <trkpt lat="42.60152" lon="0.93714">
        <ele>2443.81</ele>
        <time>2011-02-20T12:23:45Z</time>
      </trkpt>
      <trkpt lat="42.60152" lon="0.93715">
        <ele>2443.33</ele>
        <time>2011-02-20T12:24:08Z</time>
      </trkpt>
      <trkpt lat="42.60152" lon="0.93714">
        <ele>2443.33</ele>
        <time>2011-02-20T12:24:47Z</time>
      </trkpt>
      <trkpt lat="42.60152" lon="0.93714">
        <ele>2443.33</ele>
        <time>2011-02-20T12:24:57Z</time>
      </trkpt>
      <trkpt lat="42.60152" lon="0.93714">
        <ele>2442.85</ele>
        <time>2011-02-20T12:25:15Z</time>
      </trkpt>
      <trkpt lat="42.60153" lon="0.93718">
        <ele>2444.29</ele>
        <time>2011-02-20T12:26:04Z</time>
      </trkpt>
      <trkpt lat="42.60155" lon="0.93723">
        <ele>2444.29</ele>
        <time>2011-02-20T12:26:08Z</time>
      </trkpt>
      <trkpt lat="42.60158" lon="0.93728">
        <ele>2443.33</ele>
        <time>2011-02-20T12:26:13Z</time>
      </trkpt>
      <trkpt lat="42.60164" lon="0.93746">
        <ele>2444.29</ele>
        <time>2011-02-20T12:26:26Z</time>
      </trkpt>
      <trkpt lat="42.60171" lon="0.93766">
        <ele>2444.29</ele>
        <time>2011-02-20T12:26:40Z</time>
      </trkpt>
      <trkpt lat="42.60177" lon="0.93783">
        <ele>2443.81</ele>
        <time>2011-02-20T12:26:54Z</time>
      </trkpt>
      <trkpt lat="42.60183" lon="0.93802">
        <ele>2444.29</ele>
        <time>2011-02-20T12:27:08Z</time>
      </trkpt>
      <trkpt lat="42.60184" lon="0.93812">
        <ele>2444.29</ele>
        <time>2011-02-20T12:27:15Z</time>
      </trkpt>
      <trkpt lat="42.60188" lon="0.93827">
        <ele>2443.81</ele>
        <time>2011-02-20T12:27:30Z</time>
      </trkpt>
      <trkpt lat="42.60192" lon="0.93842">
        <ele>2444.29</ele>
        <time>2011-02-20T12:27:45Z</time>
      </trkpt>
      <trkpt lat="42.60197" lon="0.93863">
        <ele>2444.29</ele>
        <time>2011-02-20T12:27:57Z</time>
      </trkpt>
      <trkpt lat="42.60199" lon="0.93872">
        <ele>2444.29</ele>
        <time>2011-02-20T12:28:02Z</time>
      </trkpt>
      <trkpt lat="42.60204" lon="0.93885">
        <ele>2444.29</ele>
        <time>2011-02-20T12:28:13Z</time>
      </trkpt>
      <trkpt lat="42.60209" lon="0.93903">
        <ele>2444.77</ele>
        <time>2011-02-20T12:28:26Z</time>
      </trkpt>
      <trkpt lat="42.60214" lon="0.93919">
        <ele>2444.29</ele>
        <time>2011-02-20T12:28:37Z</time>
      </trkpt>
      <trkpt lat="42.60221" lon="0.93935">
        <ele>2444.77</ele>
        <time>2011-02-20T12:28:51Z</time>
      </trkpt>
      <trkpt lat="42.60227" lon="0.93952">
        <ele>2443.81</ele>
        <time>2011-02-20T12:29:05Z</time>
      </trkpt>
      <trkpt lat="42.60232" lon="0.93961">
        <ele>2444.29</ele>
        <time>2011-02-20T12:29:16Z</time>
      </trkpt>
      <trkpt lat="42.60236" lon="0.93966">
        <ele>2444.77</ele>
        <time>2011-02-20T12:29:25Z</time>
      </trkpt>
      <trkpt lat="42.60241" lon="0.93968">
        <ele>2444.77</ele>
        <time>2011-02-20T12:29:37Z</time>
      </trkpt>
      <trkpt lat="42.60246" lon="0.9397">
        <ele>2444.77</ele>
        <time>2011-02-20T12:29:45Z</time>
      </trkpt>
      <trkpt lat="42.60255" lon="0.93974">
        <ele>2445.25</ele>
        <time>2011-02-20T12:29:56Z</time>
      </trkpt>
      <trkpt lat="42.60257" lon="0.93975">
        <ele>2445.25</ele>
        <time>2011-02-20T12:30:07Z</time>
      </trkpt>
      <trkpt lat="42.60257" lon="0.93975">
        <ele>2444.29</ele>
        <time>2011-02-20T12:30:12Z</time>
      </trkpt>
      <trkpt lat="42.60256" lon="0.93974">
        <ele>2445.25</ele>
        <time>2011-02-20T12:30:24Z</time>
      </trkpt>
      <trkpt lat="42.60257" lon="0.93974">
        <ele>2445.25</ele>
        <time>2011-02-20T12:30:39Z</time>
      </trkpt>
      <trkpt lat="42.60258" lon="0.93975">
        <ele>2445.73</ele>
        <time>2011-02-20T12:30:54Z</time>
      </trkpt>
      <trkpt lat="42.60259" lon="0.93975">
        <ele>2445.25</ele>
        <time>2011-02-20T12:30:55Z</time>
      </trkpt>
      <trkpt lat="42.60259" lon="0.93977">
        <ele>2445.73</ele>
        <time>2011-02-20T12:30:57Z</time>
      </trkpt>
      <trkpt lat="42.6026" lon="0.93981">
        <ele>2446.21</ele>
        <time>2011-02-20T12:31:01Z</time>
      </trkpt>
      <trkpt lat="42.60266" lon="0.93993">
        <ele>2445.25</ele>
        <time>2011-02-20T12:31:12Z</time>
      </trkpt>
      <trkpt lat="42.60268" lon="0.93994">
        <ele>2445.25</ele>
        <time>2011-02-20T12:31:15Z</time>
      </trkpt>
      <trkpt lat="42.60274" lon="0.93995">
        <ele>2444.77</ele>
        <time>2011-02-20T12:31:19Z</time>
      </trkpt>
      <trkpt lat="42.60297" lon="0.93997">
        <ele>2443.33</ele>
        <time>2011-02-20T12:31:31Z</time>
      </trkpt>
      <trkpt lat="42.60324" lon="0.93998">
        <ele>2440.92</ele>
        <time>2011-02-20T12:31:44Z</time>
      </trkpt>
      <trkpt lat="42.60338" lon="0.94009">
        <ele>2437.56</ele>
        <time>2011-02-20T12:31:50Z</time>
      </trkpt>
      <trkpt lat="42.60347" lon="0.94022">
        <ele>2434.68</ele>
        <time>2011-02-20T12:31:53Z</time>
      </trkpt>
      <trkpt lat="42.6035" lon="0.94026">
        <ele>2434.68</ele>
        <time>2011-02-20T12:31:54Z</time>
      </trkpt>
      <trkpt lat="42.60353" lon="0.9403">
        <ele>2434.2</ele>
        <time>2011-02-20T12:31:55Z</time>
      </trkpt>
      <trkpt lat="42.60379" lon="0.9406">
        <ele>2429.87</ele>
        <time>2011-02-20T12:32:05Z</time>
      </trkpt>
      <trkpt lat="42.60382" lon="0.94063">
        <ele>2428.91</ele>
        <time>2011-02-20T12:32:07Z</time>
      </trkpt>
      <trkpt lat="42.60387" lon="0.94064">
        <ele>2427.95</ele>
        <time>2011-02-20T12:32:17Z</time>
      </trkpt>
      <trkpt lat="42.60389" lon="0.94064">
        <ele>2428.43</ele>
        <time>2011-02-20T12:32:25Z</time>
      </trkpt>
      <trkpt lat="42.60391" lon="0.94063">
        <ele>2428.91</ele>
        <time>2011-02-20T12:32:27Z</time>
      </trkpt>
      <trkpt lat="42.60397" lon="0.94062">
        <ele>2428.43</ele>
        <time>2011-02-20T12:32:31Z</time>
      </trkpt>
      <trkpt lat="42.60408" lon="0.94057">
        <ele>2428.43</ele>
        <time>2011-02-20T12:32:39Z</time>
      </trkpt>
      <trkpt lat="42.60419" lon="0.94058">
        <ele>2427.95</ele>
        <time>2011-02-20T12:32:51Z</time>
      </trkpt>
      <trkpt lat="42.60428" lon="0.9406">
        <ele>2428.43</ele>
        <time>2011-02-20T12:33:04Z</time>
      </trkpt>
      <trkpt lat="42.60435" lon="0.94059">
        <ele>2428.91</ele>
        <time>2011-02-20T12:33:13Z</time>
      </trkpt>
      <trkpt lat="42.6044" lon="0.9406">
        <ele>2428.91</ele>
        <time>2011-02-20T12:33:21Z</time>
      </trkpt>
      <trkpt lat="42.60442" lon="0.94058">
        <ele>2428.91</ele>
        <time>2011-02-20T12:33:29Z</time>
      </trkpt>
      <trkpt lat="42.60443" lon="0.94057">
        <ele>2429.39</ele>
        <time>2011-02-20T12:33:38Z</time>
      </trkpt>
      <trkpt lat="42.60444" lon="0.94056">
        <ele>2429.87</ele>
        <time>2011-02-20T12:33:49Z</time>
      </trkpt>
      <trkpt lat="42.60448" lon="0.94055">
        <ele>2430.35</ele>
        <time>2011-02-20T12:33:57Z</time>
      </trkpt>
      <trkpt lat="42.60456" lon="0.94057">
        <ele>2430.35</ele>
        <time>2011-02-20T12:34:08Z</time>
      </trkpt>
      <trkpt lat="42.60458" lon="0.94057">
        <ele>2430.35</ele>
        <time>2011-02-20T12:34:21Z</time>
      </trkpt>
      <trkpt lat="42.60458" lon="0.94057">
        <ele>2429.39</ele>
        <time>2011-02-20T12:34:33Z</time>
      </trkpt>
      <trkpt lat="42.60458" lon="0.94057">
        <ele>2433.71</ele>
        <time>2011-02-20T12:34:43Z</time>
      </trkpt>
      <trkpt lat="42.60458" lon="0.94057">
        <ele>2429.87</ele>
        <time>2011-02-20T12:34:46Z</time>
      </trkpt>
      <trkpt lat="42.60458" lon="0.94057">
        <ele>2429.39</ele>
        <time>2011-02-20T12:34:52Z</time>
      </trkpt>
      <trkpt lat="42.60459" lon="0.94057">
        <ele>2426.02</ele>
        <time>2011-02-20T12:35:17Z</time>
      </trkpt>
      <trkpt lat="42.60458" lon="0.94057">
        <ele>2431.79</ele>
        <time>2011-02-20T12:35:18Z</time>
      </trkpt>
      <trkpt lat="42.60458" lon="0.94056">
        <ele>2429.87</ele>
        <time>2011-02-20T12:35:32Z</time>
      </trkpt>
      <trkpt lat="42.60459" lon="0.94056">
        <ele>2427.95</ele>
        <time>2011-02-20T12:35:49Z</time>
      </trkpt>
      <trkpt lat="42.60459" lon="0.94056">
        <ele>2429.87</ele>
        <time>2011-02-20T12:35:51Z</time>
      </trkpt>
      <trkpt lat="42.60459" lon="0.94056">
        <ele>2428.91</ele>
        <time>2011-02-20T12:35:53Z</time>
      </trkpt>
      <trkpt lat="42.60458" lon="0.94056">
        <ele>2433.71</ele>
        <time>2011-02-20T12:35:55Z</time>
      </trkpt>
      <trkpt lat="42.60458" lon="0.94056">
        <ele>2432.27</ele>
        <time>2011-02-20T12:35:56Z</time>
      </trkpt>
      <trkpt lat="42.60458" lon="0.94057">
        <ele>2429.39</ele>
        <time>2011-02-20T12:36:00Z</time>
      </trkpt>
      <trkpt lat="42.60458" lon="0.94058">
        <ele>2429.39</ele>
        <time>2011-02-20T12:36:40Z</time>
      </trkpt>
      <trkpt lat="42.60458" lon="0.94058">
        <ele>2429.87</ele>
        <time>2011-02-20T12:37:06Z</time>
      </trkpt>
      <trkpt lat="42.60458" lon="0.94059">
        <ele>2434.68</ele>
        <time>2011-02-20T12:37:21Z</time>
      </trkpt>
      <trkpt lat="42.60458" lon="0.94058">
        <ele>2430.35</ele>
        <time>2011-02-20T12:37:22Z</time>
      </trkpt>
      <trkpt lat="42.60458" lon="0.94058">
        <ele>2430.83</ele>
        <time>2011-02-20T12:37:52Z</time>
      </trkpt>
      <trkpt lat="42.60458" lon="0.94058">
        <ele>2431.31</ele>
        <time>2011-02-20T12:38:00Z</time>
      </trkpt>
      <trkpt lat="42.60464" lon="0.94063">
        <ele>2429.39</ele>
        <time>2011-02-20T12:38:06Z</time>
      </trkpt>
      <trkpt lat="42.60486" lon="0.94065">
        <ele>2426.99</ele>
        <time>2011-02-20T12:38:16Z</time>
      </trkpt>
      <trkpt lat="42.60492" lon="0.94062">
        <ele>2426.02</ele>
        <time>2011-02-20T12:38:20Z</time>
      </trkpt>
      <trkpt lat="42.60498" lon="0.94059">
        <ele>2426.02</ele>
        <time>2011-02-20T12:38:23Z</time>
      </trkpt>
      <trkpt lat="42.60518" lon="0.94061">
        <ele>2421.7</ele>
        <time>2011-02-20T12:38:27Z</time>
      </trkpt>
      <trkpt lat="42.60526" lon="0.94063">
        <ele>2419.3</ele>
        <time>2011-02-20T12:38:28Z</time>
      </trkpt>
      <trkpt lat="42.60553" lon="0.94062">
        <ele>2410.64</ele>
        <time>2011-02-20T12:38:32Z</time>
      </trkpt>
      <trkpt lat="42.60566" lon="0.9406">
        <ele>2407.28</ele>
        <time>2011-02-20T12:38:34Z</time>
      </trkpt>
      <trkpt lat="42.60585" lon="0.94061">
        <ele>2400.55</ele>
        <time>2011-02-20T12:38:37Z</time>
      </trkpt>
      <trkpt lat="42.60608" lon="0.94063">
        <ele>2397.67</ele>
        <time>2011-02-20T12:38:42Z</time>
      </trkpt>
      <trkpt lat="42.60615" lon="0.94067">
        <ele>2396.22</ele>
        <time>2011-02-20T12:38:44Z</time>
      </trkpt>
      <trkpt lat="42.60621" lon="0.94082">
        <ele>2392.86</ele>
        <time>2011-02-20T12:38:48Z</time>
      </trkpt>
      <trkpt lat="42.60626" lon="0.94092">
        <ele>2391.42</ele>
        <time>2011-02-20T12:38:58Z</time>
      </trkpt>
      <trkpt lat="42.60626" lon="0.94092">
        <ele>2390.94</ele>
        <time>2011-02-20T12:39:15Z</time>
      </trkpt>
      <trkpt lat="42.60648" lon="0.9409">
        <ele>2385.65</ele>
        <time>2011-02-20T12:39:21Z</time>
      </trkpt>
      <trkpt lat="42.60653" lon="0.94089">
        <ele>2382.76</ele>
        <time>2011-02-20T12:39:22Z</time>
      </trkpt>
      <trkpt lat="42.60671" lon="0.94081">
        <ele>2375.07</ele>
        <time>2011-02-20T12:39:25Z</time>
      </trkpt>
      <trkpt lat="42.60675" lon="0.94082">
        <ele>2370.75</ele>
        <time>2011-02-20T12:39:26Z</time>
      </trkpt>
      <trkpt lat="42.60678" lon="0.94092">
        <ele>2366.9</ele>
        <time>2011-02-20T12:39:29Z</time>
      </trkpt>
      <trkpt lat="42.60694" lon="0.94112">
        <ele>2359.69</ele>
        <time>2011-02-20T12:39:35Z</time>
      </trkpt>
      <trkpt lat="42.60703" lon="0.9411">
        <ele>2356.33</ele>
        <time>2011-02-20T12:39:37Z</time>
      </trkpt>
      <trkpt lat="42.60712" lon="0.94108">
        <ele>2352.96</ele>
        <time>2011-02-20T12:39:39Z</time>
      </trkpt>
      <trkpt lat="42.60718" lon="0.94109">
        <ele>2345.75</ele>
        <time>2011-02-20T12:39:41Z</time>
      </trkpt>
      <trkpt lat="42.60717" lon="0.94109">
        <ele>2347.2</ele>
        <time>2011-02-20T12:39:42Z</time>
      </trkpt>
      <trkpt lat="42.60717" lon="0.94109">
        <ele>2348.16</ele>
        <time>2011-02-20T12:39:43Z</time>
      </trkpt>
      <trkpt lat="42.60717" lon="0.94108">
        <ele>2348.64</ele>
        <time>2011-02-20T12:39:49Z</time>
      </trkpt>
      <trkpt lat="42.60718" lon="0.94108">
        <ele>2347.68</ele>
        <time>2011-02-20T12:40:00Z</time>
      </trkpt>
      <trkpt lat="42.60718" lon="0.94108">
        <ele>2348.16</ele>
        <time>2011-02-20T12:40:08Z</time>
      </trkpt>
      <trkpt lat="42.60728" lon="0.94103">
        <ele>2346.72</ele>
        <time>2011-02-20T12:40:14Z</time>
      </trkpt>
      <trkpt lat="42.60747" lon="0.94103">
        <ele>2339.99</ele>
        <time>2011-02-20T12:40:18Z</time>
      </trkpt>
      <trkpt lat="42.60753" lon="0.94104">
        <ele>2340.95</ele>
        <time>2011-02-20T12:40:19Z</time>
      </trkpt>
      <trkpt lat="42.60758" lon="0.94105">
        <ele>2339.02</ele>
        <time>2011-02-20T12:40:20Z</time>
      </trkpt>
      <trkpt lat="42.60787" lon="0.94102">
        <ele>2331.81</ele>
        <time>2011-02-20T12:40:25Z</time>
      </trkpt>
      <trkpt lat="42.60801" lon="0.94095">
        <ele>2328.45</ele>
        <time>2011-02-20T12:40:27Z</time>
      </trkpt>
      <trkpt lat="42.60828" lon="0.94082">
        <ele>2320.76</ele>
        <time>2011-02-20T12:40:31Z</time>
      </trkpt>
      <trkpt lat="42.60845" lon="0.94077">
        <ele>2316.91</ele>
        <time>2011-02-20T12:40:35Z</time>
      </trkpt>
      <trkpt lat="42.60846" lon="0.94079">
        <ele>2316.43</ele>
        <time>2011-02-20T12:40:42Z</time>
      </trkpt>
      <trkpt lat="42.60847" lon="0.9408">
        <ele>2316.91</ele>
        <time>2011-02-20T12:41:10Z</time>
      </trkpt>
      <trkpt lat="42.60846" lon="0.94082">
        <ele>2316.43</ele>
        <time>2011-02-20T12:41:22Z</time>
      </trkpt>
      <trkpt lat="42.60846" lon="0.94082">
        <ele>2315.95</ele>
        <time>2011-02-20T12:41:42Z</time>
      </trkpt>
      <trkpt lat="42.60846" lon="0.94081">
        <ele>2316.43</ele>
        <time>2011-02-20T12:42:00Z</time>
      </trkpt>
      <trkpt lat="42.60846" lon="0.94082">
        <ele>2316.91</ele>
        <time>2011-02-20T12:42:16Z</time>
      </trkpt>
      <trkpt lat="42.60846" lon="0.94082">
        <ele>2313.55</ele>
        <time>2011-02-20T12:42:21Z</time>
      </trkpt>
      <trkpt lat="42.60845" lon="0.94081">
        <ele>2316.91</ele>
        <time>2011-02-20T12:42:27Z</time>
      </trkpt>
      <trkpt lat="42.60845" lon="0.94082">
        <ele>2316.91</ele>
        <time>2011-02-20T12:42:31Z</time>
      </trkpt>
      <trkpt lat="42.60846" lon="0.94082">
        <ele>2315.47</ele>
        <time>2011-02-20T12:42:49Z</time>
      </trkpt>
      <trkpt lat="42.60846" lon="0.94083">
        <ele>2317.88</ele>
        <time>2011-02-20T12:43:05Z</time>
      </trkpt>
      <trkpt lat="42.60846" lon="0.94083">
        <ele>2316.43</ele>
        <time>2011-02-20T12:43:43Z</time>
      </trkpt>
      <trkpt lat="42.60846" lon="0.94083">
        <ele>2316.43</ele>
        <time>2011-02-20T12:45:37Z</time>
      </trkpt>
      <trkpt lat="42.60846" lon="0.94084">
        <ele>2316.91</ele>
        <time>2011-02-20T12:45:51Z</time>
      </trkpt>
      <trkpt lat="42.60849" lon="0.94086">
        <ele>2315.95</ele>
        <time>2011-02-20T12:45:53Z</time>
      </trkpt>
      <trkpt lat="42.60857" lon="0.94087">
        <ele>2314.51</ele>
        <time>2011-02-20T12:46:05Z</time>
      </trkpt>
      <trkpt lat="42.60858" lon="0.94087">
        <ele>2314.51</ele>
        <time>2011-02-20T12:46:19Z</time>
      </trkpt>
      <trkpt lat="42.60865" lon="0.94086">
        <ele>2313.07</ele>
        <time>2011-02-20T12:46:31Z</time>
      </trkpt>
      <trkpt lat="42.60876" lon="0.94081">
        <ele>2311.63</ele>
        <time>2011-02-20T12:46:34Z</time>
      </trkpt>
      <trkpt lat="42.6089" lon="0.94082">
        <ele>2307.3</ele>
        <time>2011-02-20T12:46:37Z</time>
      </trkpt>
      <trkpt lat="42.609" lon="0.94087">
        <ele>2302.98</ele>
        <time>2011-02-20T12:46:39Z</time>
      </trkpt>
      <trkpt lat="42.60916" lon="0.94094">
        <ele>2297.21</ele>
        <time>2011-02-20T12:46:42Z</time>
      </trkpt>
      <trkpt lat="42.60932" lon="0.94104">
        <ele>2292.88</ele>
        <time>2011-02-20T12:46:45Z</time>
      </trkpt>
      <trkpt lat="42.60937" lon="0.94108">
        <ele>2288.56</ele>
        <time>2011-02-20T12:46:46Z</time>
      </trkpt>
      <trkpt lat="42.60943" lon="0.94111">
        <ele>2288.08</ele>
        <time>2011-02-20T12:46:47Z</time>
      </trkpt>
      <trkpt lat="42.60948" lon="0.94116">
        <ele>2287.11</ele>
        <time>2011-02-20T12:46:48Z</time>
      </trkpt>
      <trkpt lat="42.60958" lon="0.94128">
        <ele>2283.27</ele>
        <time>2011-02-20T12:46:50Z</time>
      </trkpt>
      <trkpt lat="42.60963" lon="0.94134">
        <ele>2281.35</ele>
        <time>2011-02-20T12:46:51Z</time>
      </trkpt>
      <trkpt lat="42.60977" lon="0.94147">
        <ele>2278.46</ele>
        <time>2011-02-20T12:46:55Z</time>
      </trkpt>
      <trkpt lat="42.60982" lon="0.94152">
        <ele>2276.54</ele>
        <time>2011-02-20T12:46:58Z</time>
      </trkpt>
      <trkpt lat="42.60984" lon="0.94154">
        <ele>2276.54</ele>
        <time>2011-02-20T12:47:08Z</time>
      </trkpt>
      <trkpt lat="42.60986" lon="0.94156">
        <ele>2277.02</ele>
        <time>2011-02-20T12:47:17Z</time>
      </trkpt>
      <trkpt lat="42.60987" lon="0.94156">
        <ele>2276.54</ele>
        <time>2011-02-20T12:47:34Z</time>
      </trkpt>
      <trkpt lat="42.60989" lon="0.94159">
        <ele>2277.5</ele>
        <time>2011-02-20T12:47:53Z</time>
      </trkpt>
      <trkpt lat="42.60989" lon="0.94158">
        <ele>2277.02</ele>
        <time>2011-02-20T12:48:22Z</time>
      </trkpt>
      <trkpt lat="42.6099" lon="0.9416">
        <ele>2268.37</ele>
        <time>2011-02-20T12:48:25Z</time>
      </trkpt>
      <trkpt lat="42.6099" lon="0.9416">
        <ele>2275.1</ele>
        <time>2011-02-20T12:48:26Z</time>
      </trkpt>
      <trkpt lat="42.6099" lon="0.9416">
        <ele>2278.46</ele>
        <time>2011-02-20T12:50:29Z</time>
      </trkpt>
      <trkpt lat="42.60992" lon="0.94161">
        <ele>2277.98</ele>
        <time>2011-02-20T12:50:38Z</time>
      </trkpt>
      <trkpt lat="42.60992" lon="0.94161">
        <ele>2277.98</ele>
        <time>2011-02-20T12:51:21Z</time>
      </trkpt>
      <trkpt lat="42.60992" lon="0.94162">
        <ele>2277.98</ele>
        <time>2011-02-20T12:51:28Z</time>
      </trkpt>
      <trkpt lat="42.60993" lon="0.94163">
        <ele>2277.98</ele>
        <time>2011-02-20T12:51:30Z</time>
      </trkpt>
      <trkpt lat="42.61004" lon="0.94174">
        <ele>2274.14</ele>
        <time>2011-02-20T12:51:36Z</time>
      </trkpt>
      <trkpt lat="42.61007" lon="0.94173">
        <ele>2273.66</ele>
        <time>2011-02-20T12:51:37Z</time>
      </trkpt>
      <trkpt lat="42.61011" lon="0.94171">
        <ele>2272.69</ele>
        <time>2011-02-20T12:51:39Z</time>
      </trkpt>
      <trkpt lat="42.61013" lon="0.94171">
        <ele>2272.69</ele>
        <time>2011-02-20T12:51:40Z</time>
      </trkpt>
      <trkpt lat="42.61029" lon="0.94187">
        <ele>2266.45</ele>
        <time>2011-02-20T12:51:44Z</time>
      </trkpt>
      <trkpt lat="42.61047" lon="0.942">
        <ele>2259.72</ele>
        <time>2011-02-20T12:51:47Z</time>
      </trkpt>
      <trkpt lat="42.6106" lon="0.94204">
        <ele>2255.87</ele>
        <time>2011-02-20T12:51:50Z</time>
      </trkpt>
      <trkpt lat="42.61063" lon="0.94205">
        <ele>2256.35</ele>
        <time>2011-02-20T12:51:51Z</time>
      </trkpt>
      <trkpt lat="42.61071" lon="0.94209">
        <ele>2254.91</ele>
        <time>2011-02-20T12:51:54Z</time>
      </trkpt>
      <trkpt lat="42.61083" lon="0.94216">
        <ele>2253.47</ele>
        <time>2011-02-20T12:51:59Z</time>
      </trkpt>
      <trkpt lat="42.61108" lon="0.94235">
        <ele>2249.14</ele>
        <time>2011-02-20T12:52:08Z</time>
      </trkpt>
      <trkpt lat="42.61116" lon="0.94247">
        <ele>2246.74</ele>
        <time>2011-02-20T12:52:10Z</time>
      </trkpt>
      <trkpt lat="42.61133" lon="0.94263">
        <ele>2241.45</ele>
        <time>2011-02-20T12:52:13Z</time>
      </trkpt>
      <trkpt lat="42.61152" lon="0.94271">
        <ele>2238.09</ele>
        <time>2011-02-20T12:52:16Z</time>
      </trkpt>
      <trkpt lat="42.61164" lon="0.94275">
        <ele>2236.16</ele>
        <time>2011-02-20T12:52:18Z</time>
      </trkpt>
      <trkpt lat="42.61179" lon="0.94277">
        <ele>2234.72</ele>
        <time>2011-02-20T12:52:21Z</time>
      </trkpt>
      <trkpt lat="42.61184" lon="0.94277">
        <ele>2234.24</ele>
        <time>2011-02-20T12:52:22Z</time>
      </trkpt>
      <trkpt lat="42.61197" lon="0.94276">
        <ele>2232.32</ele>
        <time>2011-02-20T12:52:26Z</time>
      </trkpt>
      <trkpt lat="42.61205" lon="0.94275">
        <ele>2231.36</ele>
        <time>2011-02-20T12:52:33Z</time>
      </trkpt>
      <trkpt lat="42.6121" lon="0.94273">
        <ele>2230.88</ele>
        <time>2011-02-20T12:52:43Z</time>
      </trkpt>
      <trkpt lat="42.6121" lon="0.94273">
        <ele>2232.32</ele>
        <time>2011-02-20T12:52:55Z</time>
      </trkpt>
      <trkpt lat="42.6121" lon="0.94273">
        <ele>2231.36</ele>
        <time>2011-02-20T12:52:57Z</time>
      </trkpt>
      <trkpt lat="42.6121" lon="0.94273">
        <ele>2229.43</ele>
        <time>2011-02-20T12:53:02Z</time>
      </trkpt>
      <trkpt lat="42.61211" lon="0.94274">
        <ele>2230.88</ele>
        <time>2011-02-20T12:53:05Z</time>
      </trkpt>
      <trkpt lat="42.6121" lon="0.94274">
        <ele>2233.28</ele>
        <time>2011-02-20T12:53:09Z</time>
      </trkpt>
      <trkpt lat="42.61211" lon="0.94274">
        <ele>2229.43</ele>
        <time>2011-02-20T12:53:13Z</time>
      </trkpt>
      <trkpt lat="42.61212" lon="0.94274">
        <ele>2232.8</ele>
        <time>2011-02-20T12:53:18Z</time>
      </trkpt>
      <trkpt lat="42.61212" lon="0.94274">
        <ele>2230.88</ele>
        <time>2011-02-20T12:53:21Z</time>
      </trkpt>
      <trkpt lat="42.61212" lon="0.94274">
        <ele>2228.95</ele>
        <time>2011-02-20T12:53:27Z</time>
      </trkpt>
      <trkpt lat="42.61211" lon="0.94275">
        <ele>2233.28</ele>
        <time>2011-02-20T12:53:38Z</time>
      </trkpt>
      <trkpt lat="42.61211" lon="0.94275">
        <ele>2232.32</ele>
        <time>2011-02-20T12:53:39Z</time>
      </trkpt>
      <trkpt lat="42.61212" lon="0.94273">
        <ele>2230.4</ele>
        <time>2011-02-20T12:53:44Z</time>
      </trkpt>
      <trkpt lat="42.61212" lon="0.94273">
        <ele>2230.4</ele>
        <time>2011-02-20T12:54:12Z</time>
      </trkpt>
      <trkpt lat="42.61212" lon="0.94273">
        <ele>2230.4</ele>
        <time>2011-02-20T12:54:36Z</time>
      </trkpt>
      <trkpt lat="42.61211" lon="0.94272">
        <ele>2233.28</ele>
        <time>2011-02-20T12:54:51Z</time>
      </trkpt>
      <trkpt lat="42.61211" lon="0.94272">
        <ele>2230.4</ele>
        <time>2011-02-20T12:54:54Z</time>
      </trkpt>
      <trkpt lat="42.61211" lon="0.94271">
        <ele>2228.47</ele>
        <time>2011-02-20T12:54:57Z</time>
      </trkpt>
      <trkpt lat="42.61211" lon="0.94271">
        <ele>2230.4</ele>
        <time>2011-02-20T12:54:59Z</time>
      </trkpt>
      <trkpt lat="42.61212" lon="0.94272">
        <ele>2219.82</ele>
        <time>2011-02-20T12:55:00Z</time>
      </trkpt>
      <trkpt lat="42.61212" lon="0.94272">
        <ele>2227.03</ele>
        <time>2011-02-20T12:55:01Z</time>
      </trkpt>
      <trkpt lat="42.61212" lon="0.94272">
        <ele>2228.47</ele>
        <time>2011-02-20T12:55:03Z</time>
      </trkpt>
      <trkpt lat="42.61212" lon="0.94272">
        <ele>2224.15</ele>
        <time>2011-02-20T12:55:16Z</time>
      </trkpt>
      <trkpt lat="42.61212" lon="0.94272">
        <ele>2226.07</ele>
        <time>2011-02-20T12:55:17Z</time>
      </trkpt>
      <trkpt lat="42.61212" lon="0.94272">
        <ele>2229.43</ele>
        <time>2011-02-20T12:55:19Z</time>
      </trkpt>
      <trkpt lat="42.61212" lon="0.94272">
        <ele>2227.99</ele>
        <time>2011-02-20T12:55:20Z</time>
      </trkpt>
      <trkpt lat="42.61212" lon="0.94272">
        <ele>2228.47</ele>
        <time>2011-02-20T12:55:22Z</time>
      </trkpt>
      <trkpt lat="42.61211" lon="0.94272">
        <ele>2230.88</ele>
        <time>2011-02-20T12:55:25Z</time>
      </trkpt>
      <trkpt lat="42.61211" lon="0.94272">
        <ele>2230.4</ele>
        <time>2011-02-20T12:55:41Z</time>
      </trkpt>
      <trkpt lat="42.61211" lon="0.9427">
        <ele>2230.88</ele>
        <time>2011-02-20T12:55:48Z</time>
      </trkpt>
      <trkpt lat="42.61218" lon="0.94265">
        <ele>2229.92</ele>
        <time>2011-02-20T12:55:59Z</time>
      </trkpt>
      <trkpt lat="42.61221" lon="0.94261">
        <ele>2230.4</ele>
        <time>2011-02-20T12:56:11Z</time>
      </trkpt>
      <trkpt lat="42.61232" lon="0.9425">
        <ele>2230.4</ele>
        <time>2011-02-20T12:56:24Z</time>
      </trkpt>
      <trkpt lat="42.61233" lon="0.94249">
        <ele>2230.88</ele>
        <time>2011-02-20T12:56:25Z</time>
      </trkpt>
      <trkpt lat="42.61236" lon="0.94248">
        <ele>2230.4</ele>
        <time>2011-02-20T12:56:27Z</time>
      </trkpt>
      <trkpt lat="42.61247" lon="0.94215">
        <ele>2228.47</ele>
        <time>2011-02-20T12:56:41Z</time>
      </trkpt>
      <trkpt lat="42.61253" lon="0.9421">
        <ele>2228.47</ele>
        <time>2011-02-20T12:56:49Z</time>
      </trkpt>
      <trkpt lat="42.61256" lon="0.94207">
        <ele>2228.95</ele>
        <time>2011-02-20T12:56:53Z</time>
      </trkpt>
      <trkpt lat="42.61265" lon="0.94203">
        <ele>2227.99</ele>
        <time>2011-02-20T12:57:07Z</time>
      </trkpt>
      <trkpt lat="42.6127" lon="0.94199">
        <ele>2227.99</ele>
        <time>2011-02-20T12:57:28Z</time>
      </trkpt>
      <trkpt lat="42.61276" lon="0.94187">
        <ele>2227.99</ele>
        <time>2011-02-20T12:57:38Z</time>
      </trkpt>
      <trkpt lat="42.61284" lon="0.94177">
        <ele>2228.47</ele>
        <time>2011-02-20T12:57:48Z</time>
      </trkpt>
      <trkpt lat="42.61292" lon="0.94169">
        <ele>2227.99</ele>
        <time>2011-02-20T12:58:01Z</time>
      </trkpt>
      <trkpt lat="42.61302" lon="0.94152">
        <ele>2227.99</ele>
        <time>2011-02-20T12:58:15Z</time>
      </trkpt>
      <trkpt lat="42.61307" lon="0.94144">
        <ele>2228.95</ele>
        <time>2011-02-20T12:58:21Z</time>
      </trkpt>
      <trkpt lat="42.61312" lon="0.94138">
        <ele>2228.47</ele>
        <time>2011-02-20T12:58:26Z</time>
      </trkpt>
      <trkpt lat="42.61326" lon="0.94124">
        <ele>2228.47</ele>
        <time>2011-02-20T12:58:41Z</time>
      </trkpt>
      <trkpt lat="42.61335" lon="0.94115">
        <ele>2228.47</ele>
        <time>2011-02-20T12:58:54Z</time>
      </trkpt>
      <trkpt lat="42.61343" lon="0.94108">
        <ele>2228.47</ele>
        <time>2011-02-20T12:59:03Z</time>
      </trkpt>
      <trkpt lat="42.61348" lon="0.94104">
        <ele>2228.95</ele>
        <time>2011-02-20T12:59:08Z</time>
      </trkpt>
      <trkpt lat="42.61355" lon="0.94096">
        <ele>2228.95</ele>
        <time>2011-02-20T12:59:18Z</time>
      </trkpt>
      <trkpt lat="42.61361" lon="0.94091">
        <ele>2228.47</ele>
        <time>2011-02-20T12:59:28Z</time>
      </trkpt>
      <trkpt lat="42.61371" lon="0.94085">
        <ele>2228.47</ele>
        <time>2011-02-20T12:59:40Z</time>
      </trkpt>
      <trkpt lat="42.61377" lon="0.94082">
        <ele>2228.47</ele>
        <time>2011-02-20T12:59:47Z</time>
      </trkpt>
      <trkpt lat="42.61386" lon="0.94077">
        <ele>2228.47</ele>
        <time>2011-02-20T13:00:01Z</time>
      </trkpt>
      <trkpt lat="42.61396" lon="0.94074">
        <ele>2228.47</ele>
        <time>2011-02-20T13:00:13Z</time>
      </trkpt>
      <trkpt lat="42.61404" lon="0.9407">
        <ele>2228.95</ele>
        <time>2011-02-20T13:00:26Z</time>
      </trkpt>
      <trkpt lat="42.61414" lon="0.94064">
        <ele>2228.47</ele>
        <time>2011-02-20T13:00:41Z</time>
      </trkpt>
      <trkpt lat="42.61418" lon="0.94061">
        <ele>2228.95</ele>
        <time>2011-02-20T13:00:53Z</time>
      </trkpt>
      <trkpt lat="42.61427" lon="0.9405">
        <ele>2229.43</ele>
        <time>2011-02-20T13:01:26Z</time>
      </trkpt>
      <trkpt lat="42.6144" lon="0.94036">
        <ele>2228.47</ele>
        <time>2011-02-20T13:01:41Z</time>
      </trkpt>
      <trkpt lat="42.61447" lon="0.94027">
        <ele>2228.95</ele>
        <time>2011-02-20T13:01:49Z</time>
      </trkpt>
      <trkpt lat="42.61452" lon="0.94022">
        <ele>2228.95</ele>
        <time>2011-02-20T13:01:55Z</time>
      </trkpt>
      <trkpt lat="42.61459" lon="0.94016">
        <ele>2228.47</ele>
        <time>2011-02-20T13:02:09Z</time>
      </trkpt>
      <trkpt lat="42.61468" lon="0.94011">
        <ele>2228.47</ele>
        <time>2011-02-20T13:02:20Z</time>
      </trkpt>
      <trkpt lat="42.61474" lon="0.94004">
        <ele>2228.95</ele>
        <time>2011-02-20T13:02:28Z</time>
      </trkpt>
      <trkpt lat="42.6148" lon="0.93999">
        <ele>2228.95</ele>
        <time>2011-02-20T13:02:35Z</time>
      </trkpt>
      <trkpt lat="42.61492" lon="0.9399">
        <ele>2228.95</ele>
        <time>2011-02-20T13:02:48Z</time>
      </trkpt>
      <trkpt lat="42.61493" lon="0.93989">
        <ele>2228.95</ele>
        <time>2011-02-20T13:02:50Z</time>
      </trkpt>
      <trkpt lat="42.61506" lon="0.9398">
        <ele>2229.43</ele>
        <time>2011-02-20T13:03:05Z</time>
      </trkpt>
      <trkpt lat="42.61518" lon="0.93971">
        <ele>2228.47</ele>
        <time>2011-02-20T13:03:20Z</time>
      </trkpt>
      <trkpt lat="42.6153" lon="0.93964">
        <ele>2229.43</ele>
        <time>2011-02-20T13:03:37Z</time>
      </trkpt>
      <trkpt lat="42.61541" lon="0.93957">
        <ele>2228.47</ele>
        <time>2011-02-20T13:03:50Z</time>
      </trkpt>
      <trkpt lat="42.61545" lon="0.93955">
        <ele>2229.43</ele>
        <time>2011-02-20T13:03:54Z</time>
      </trkpt>
      <trkpt lat="42.61549" lon="0.93951">
        <ele>2228.95</ele>
        <time>2011-02-20T13:04:02Z</time>
      </trkpt>
      <trkpt lat="42.61557" lon="0.93943">
        <ele>2229.43</ele>
        <time>2011-02-20T13:04:17Z</time>
      </trkpt>
      <trkpt lat="42.61562" lon="0.93938">
        <ele>2229.92</ele>
        <time>2011-02-20T13:04:31Z</time>
      </trkpt>
      <trkpt lat="42.61571" lon="0.9393">
        <ele>2229.92</ele>
        <time>2011-02-20T13:04:45Z</time>
      </trkpt>
      <trkpt lat="42.61588" lon="0.93915">
        <ele>2229.43</ele>
        <time>2011-02-20T13:05:01Z</time>
      </trkpt>
      <trkpt lat="42.61601" lon="0.93903">
        <ele>2228.47</ele>
        <time>2011-02-20T13:05:17Z</time>
      </trkpt>
      <trkpt lat="42.61616" lon="0.93892">
        <ele>2227.99</ele>
        <time>2011-02-20T13:05:30Z</time>
      </trkpt>
      <trkpt lat="42.61624" lon="0.93888">
        <ele>2227.99</ele>
        <time>2011-02-20T13:05:44Z</time>
      </trkpt>
      <trkpt lat="42.61645" lon="0.93879">
        <ele>2227.03</ele>
        <time>2011-02-20T13:05:58Z</time>
      </trkpt>
      <trkpt lat="42.61666" lon="0.93876">
        <ele>2225.59</ele>
        <time>2011-02-20T13:06:12Z</time>
      </trkpt>
      <trkpt lat="42.61673" lon="0.93875">
        <ele>2225.11</ele>
        <time>2011-02-20T13:06:22Z</time>
      </trkpt>
      <trkpt lat="42.61678" lon="0.93877">
        <ele>2225.59</ele>
        <time>2011-02-20T13:06:30Z</time>
      </trkpt>
      <trkpt lat="42.61679" lon="0.93877">
        <ele>2225.59</ele>
        <time>2011-02-20T13:06:32Z</time>
      </trkpt>
      <trkpt lat="42.61682" lon="0.93874">
        <ele>2226.07</ele>
        <time>2011-02-20T13:06:40Z</time>
      </trkpt>
      <trkpt lat="42.61684" lon="0.93873">
        <ele>2226.07</ele>
        <time>2011-02-20T13:06:44Z</time>
      </trkpt>
      <trkpt lat="42.61688" lon="0.93869">
        <ele>2226.07</ele>
        <time>2011-02-20T13:06:51Z</time>
      </trkpt>
      <trkpt lat="42.61688" lon="0.93867">
        <ele>2226.55</ele>
        <time>2011-02-20T13:07:03Z</time>
      </trkpt>
      <trkpt lat="42.61691" lon="0.93864">
        <ele>2226.07</ele>
        <time>2011-02-20T13:07:13Z</time>
      </trkpt>
      <trkpt lat="42.61692" lon="0.93863">
        <ele>2226.07</ele>
        <time>2011-02-20T13:07:15Z</time>
      </trkpt>
      <trkpt lat="42.61696" lon="0.93861">
        <ele>2226.07</ele>
        <time>2011-02-20T13:07:21Z</time>
      </trkpt>
      <trkpt lat="42.61722" lon="0.93842">
        <ele>2223.19</ele>
        <time>2011-02-20T13:07:34Z</time>
      </trkpt>
      <trkpt lat="42.61729" lon="0.93838">
        <ele>2222.71</ele>
        <time>2011-02-20T13:07:41Z</time>
      </trkpt>
      <trkpt lat="42.61731" lon="0.93836">
        <ele>2221.26</ele>
        <time>2011-02-20T13:07:55Z</time>
      </trkpt>
      <trkpt lat="42.61731" lon="0.93837">
        <ele>2221.74</ele>
        <time>2011-02-20T13:08:12Z</time>
      </trkpt>
      <trkpt lat="42.61731" lon="0.93837">
        <ele>2222.22</ele>
        <time>2011-02-20T13:08:38Z</time>
      </trkpt>
      <trkpt lat="42.61732" lon="0.93837">
        <ele>2222.22</ele>
        <time>2011-02-20T13:08:52Z</time>
      </trkpt>
      <trkpt lat="42.61742" lon="0.93823">
        <ele>2219.34</ele>
        <time>2011-02-20T13:08:58Z</time>
      </trkpt>
      <trkpt lat="42.61751" lon="0.9382">
        <ele>2215.98</ele>
        <time>2011-02-20T13:09:02Z</time>
      </trkpt>
      <trkpt lat="42.61752" lon="0.93811">
        <ele>2213.09</ele>
        <time>2011-02-20T13:09:05Z</time>
      </trkpt>
      <trkpt lat="42.61752" lon="0.9381">
        <ele>2213.09</ele>
        <time>2011-02-20T13:09:06Z</time>
      </trkpt>
      <trkpt lat="42.6176" lon="0.93804">
        <ele>2211.17</ele>
        <time>2011-02-20T13:09:10Z</time>
      </trkpt>
      <trkpt lat="42.61779" lon="0.93812">
        <ele>2206.36</ele>
        <time>2011-02-20T13:09:16Z</time>
      </trkpt>
      <trkpt lat="42.61785" lon="0.93813">
        <ele>2204.92</ele>
        <time>2011-02-20T13:09:18Z</time>
      </trkpt>
      <trkpt lat="42.61798" lon="0.93802">
        <ele>2200.59</ele>
        <time>2011-02-20T13:09:22Z</time>
      </trkpt>
      <trkpt lat="42.61802" lon="0.93797">
        <ele>2199.63</ele>
        <time>2011-02-20T13:09:23Z</time>
      </trkpt>
      <trkpt lat="42.61811" lon="0.9378">
        <ele>2195.79</ele>
        <time>2011-02-20T13:09:26Z</time>
      </trkpt>
      <trkpt lat="42.61828" lon="0.93756">
        <ele>2190.98</ele>
        <time>2011-02-20T13:09:30Z</time>
      </trkpt>
      <trkpt lat="42.61844" lon="0.93738">
        <ele>2186.66</ele>
        <time>2011-02-20T13:09:33Z</time>
      </trkpt>
      <trkpt lat="42.6185" lon="0.93732">
        <ele>2184.73</ele>
        <time>2011-02-20T13:09:34Z</time>
      </trkpt>
      <trkpt lat="42.61863" lon="0.93714">
        <ele>2182.81</ele>
        <time>2011-02-20T13:09:37Z</time>
      </trkpt>
      <trkpt lat="42.6188" lon="0.93692">
        <ele>2180.41</ele>
        <time>2011-02-20T13:09:42Z</time>
      </trkpt>
      <trkpt lat="42.61894" lon="0.93663">
        <ele>2175.6</ele>
        <time>2011-02-20T13:09:47Z</time>
      </trkpt>
      <trkpt lat="42.61896" lon="0.9366">
        <ele>2175.6</ele>
        <time>2011-02-20T13:09:48Z</time>
      </trkpt>
      <trkpt lat="42.61918" lon="0.93636">
        <ele>2172.24</ele>
        <time>2011-02-20T13:09:59Z</time>
      </trkpt>
      <trkpt lat="42.61923" lon="0.93621">
        <ele>2171.27</ele>
        <time>2011-02-20T13:10:04Z</time>
      </trkpt>
      <trkpt lat="42.61929" lon="0.93612">
        <ele>2170.79</ele>
        <time>2011-02-20T13:10:15Z</time>
      </trkpt>
      <trkpt lat="42.61929" lon="0.93613">
        <ele>2170.79</ele>
        <time>2011-02-20T13:10:31Z</time>
      </trkpt>
      <trkpt lat="42.61929" lon="0.93613">
        <ele>2170.79</ele>
        <time>2011-02-20T13:10:44Z</time>
      </trkpt>
      <trkpt lat="42.61929" lon="0.93613">
        <ele>2171.76</ele>
        <time>2011-02-20T13:10:54Z</time>
      </trkpt>
      <trkpt lat="42.61931" lon="0.93614">
        <ele>2170.31</ele>
        <time>2011-02-20T13:11:17Z</time>
      </trkpt>
      <trkpt lat="42.61932" lon="0.93614">
        <ele>2170.31</ele>
        <time>2011-02-20T13:11:34Z</time>
      </trkpt>
      <trkpt lat="42.61933" lon="0.9361">
        <ele>2171.76</ele>
        <time>2011-02-20T13:11:41Z</time>
      </trkpt>
      <trkpt lat="42.61942" lon="0.93596">
        <ele>2171.27</ele>
        <time>2011-02-20T13:11:54Z</time>
      </trkpt>
      <trkpt lat="42.61955" lon="0.93578">
        <ele>2168.87</ele>
        <time>2011-02-20T13:12:07Z</time>
      </trkpt>
      <trkpt lat="42.61956" lon="0.93576">
        <ele>2169.35</ele>
        <time>2011-02-20T13:12:09Z</time>
      </trkpt>
      <trkpt lat="42.61968" lon="0.93563">
        <ele>2169.35</ele>
        <time>2011-02-20T13:12:22Z</time>
      </trkpt>
      <trkpt lat="42.61972" lon="0.93558">
        <ele>2169.35</ele>
        <time>2011-02-20T13:12:27Z</time>
      </trkpt>
      <trkpt lat="42.61985" lon="0.93549">
        <ele>2169.83</ele>
        <time>2011-02-20T13:12:39Z</time>
      </trkpt>
      <trkpt lat="42.62001" lon="0.93544">
        <ele>2168.87</ele>
        <time>2011-02-20T13:12:53Z</time>
      </trkpt>
      <trkpt lat="42.62006" lon="0.93541">
        <ele>2169.83</ele>
        <time>2011-02-20T13:13:10Z</time>
      </trkpt>
      <trkpt lat="42.62006" lon="0.93541">
        <ele>2169.83</ele>
        <time>2011-02-20T13:13:36Z</time>
      </trkpt>
      <trkpt lat="42.62006" lon="0.93541">
        <ele>2170.31</ele>
        <time>2011-02-20T13:13:42Z</time>
      </trkpt>
      <trkpt lat="42.6201" lon="0.93543">
        <ele>2170.31</ele>
        <time>2011-02-20T13:13:53Z</time>
      </trkpt>
      <trkpt lat="42.6201" lon="0.93542">
        <ele>2169.35</ele>
        <time>2011-02-20T13:14:16Z</time>
      </trkpt>
      <trkpt lat="42.6201" lon="0.93542">
        <ele>2170.79</ele>
        <time>2011-02-20T13:14:21Z</time>
      </trkpt>
      <trkpt lat="42.62011" lon="0.9354">
        <ele>2169.35</ele>
        <time>2011-02-20T13:14:53Z</time>
      </trkpt>
      <trkpt lat="42.62011" lon="0.93539">
        <ele>2170.79</ele>
        <time>2011-02-20T13:14:55Z</time>
      </trkpt>
      <trkpt lat="42.62011" lon="0.93537">
        <ele>2169.83</ele>
        <time>2011-02-20T13:14:57Z</time>
      </trkpt>
      <trkpt lat="42.62013" lon="0.93535">
        <ele>2170.79</ele>
        <time>2011-02-20T13:15:03Z</time>
      </trkpt>
      <trkpt lat="42.62012" lon="0.93533">
        <ele>2172.24</ele>
        <time>2011-02-20T13:15:14Z</time>
      </trkpt>
      <trkpt lat="42.62013" lon="0.93531">
        <ele>2172.24</ele>
        <time>2011-02-20T13:15:31Z</time>
      </trkpt>
      <trkpt lat="42.62015" lon="0.93529">
        <ele>2173.2</ele>
        <time>2011-02-20T13:15:43Z</time>
      </trkpt>
      <trkpt lat="42.62016" lon="0.93528">
        <ele>2174.16</ele>
        <time>2011-02-20T13:16:03Z</time>
      </trkpt>
      <trkpt lat="42.62016" lon="0.93528">
        <ele>2174.64</ele>
        <time>2011-02-20T13:16:15Z</time>
      </trkpt>
      <trkpt lat="42.62016" lon="0.93527">
        <ele>2176.08</ele>
        <time>2011-02-20T13:16:30Z</time>
      </trkpt>
      <trkpt lat="42.6202" lon="0.9352">
        <ele>2178</ele>
        <time>2011-02-20T13:16:55Z</time>
      </trkpt>
      <trkpt lat="42.62021" lon="0.93515">
        <ele>2178.48</ele>
        <time>2011-02-20T13:17:04Z</time>
      </trkpt>
      <trkpt lat="42.62022" lon="0.93511">
        <ele>2179.45</ele>
        <time>2011-02-20T13:17:07Z</time>
      </trkpt>
      <trkpt lat="42.62026" lon="0.93507">
        <ele>2179.45</ele>
        <time>2011-02-20T13:17:12Z</time>
      </trkpt>
      <trkpt lat="42.6203" lon="0.93502">
        <ele>2178.97</ele>
        <time>2011-02-20T13:17:22Z</time>
      </trkpt>
      <trkpt lat="42.62032" lon="0.93499">
        <ele>2179.45</ele>
        <time>2011-02-20T13:17:36Z</time>
      </trkpt>
      <trkpt lat="42.62033" lon="0.935">
        <ele>2179.93</ele>
        <time>2011-02-20T13:17:53Z</time>
      </trkpt>
      <trkpt lat="42.62035" lon="0.93498">
        <ele>2180.41</ele>
        <time>2011-02-20T13:18:10Z</time>
      </trkpt>
      <trkpt lat="42.62036" lon="0.93499">
        <ele>2180.41</ele>
        <time>2011-02-20T13:18:23Z</time>
      </trkpt>
      <trkpt lat="42.62036" lon="0.93498">
        <ele>2178.97</ele>
        <time>2011-02-20T13:18:26Z</time>
      </trkpt>
      <trkpt lat="42.62037" lon="0.93497">
        <ele>2179.93</ele>
        <time>2011-02-20T13:18:28Z</time>
      </trkpt>
      <trkpt lat="42.62044" lon="0.93491">
        <ele>2178.97</ele>
        <time>2011-02-20T13:18:35Z</time>
      </trkpt>
      <trkpt lat="42.62048" lon="0.93484">
        <ele>2179.45</ele>
        <time>2011-02-20T13:18:40Z</time>
      </trkpt>
      <trkpt lat="42.62052" lon="0.93479">
        <ele>2178</ele>
        <time>2011-02-20T13:18:43Z</time>
      </trkpt>
      <trkpt lat="42.62057" lon="0.9347">
        <ele>2178</ele>
        <time>2011-02-20T13:18:52Z</time>
      </trkpt>
      <trkpt lat="42.62071" lon="0.93456">
        <ele>2175.12</ele>
        <time>2011-02-20T13:19:02Z</time>
      </trkpt>
      <trkpt lat="42.62072" lon="0.93455">
        <ele>2175.12</ele>
        <time>2011-02-20T13:19:07Z</time>
      </trkpt>
      <trkpt lat="42.62079" lon="0.93441">
        <ele>2174.64</ele>
        <time>2011-02-20T13:19:17Z</time>
      </trkpt>
      <trkpt lat="42.62081" lon="0.93436">
        <ele>2174.16</ele>
        <time>2011-02-20T13:19:29Z</time>
      </trkpt>
      <trkpt lat="42.62082" lon="0.93435">
        <ele>2174.16</ele>
        <time>2011-02-20T13:19:31Z</time>
      </trkpt>
      <trkpt lat="42.62092" lon="0.93421">
        <ele>2172.24</ele>
        <time>2011-02-20T13:19:41Z</time>
      </trkpt>
      <trkpt lat="42.62112" lon="0.93409">
        <ele>2169.83</ele>
        <time>2011-02-20T13:19:49Z</time>
      </trkpt>
      <trkpt lat="42.62117" lon="0.93404">
        <ele>2168.87</ele>
        <time>2011-02-20T13:19:54Z</time>
      </trkpt>
      <trkpt lat="42.62123" lon="0.93399">
        <ele>2169.83</ele>
        <time>2011-02-20T13:19:59Z</time>
      </trkpt>
      <trkpt lat="42.62132" lon="0.93392">
        <ele>2169.83</ele>
        <time>2011-02-20T13:20:12Z</time>
      </trkpt>
      <trkpt lat="42.62132" lon="0.93392">
        <ele>2169.83</ele>
        <time>2011-02-20T13:20:28Z</time>
      </trkpt>
      <trkpt lat="42.62132" lon="0.93392">
        <ele>2169.35</ele>
        <time>2011-02-20T13:20:46Z</time>
      </trkpt>
      <trkpt lat="42.62132" lon="0.93392">
        <ele>2168.87</ele>
        <time>2011-02-20T13:21:02Z</time>
      </trkpt>
      <trkpt lat="42.62132" lon="0.93392">
        <ele>2165.99</ele>
        <time>2011-02-20T13:21:04Z</time>
      </trkpt>
      <trkpt lat="42.62132" lon="0.93392">
        <ele>2167.43</ele>
        <time>2011-02-20T13:21:05Z</time>
      </trkpt>
      <trkpt lat="42.62132" lon="0.93393">
        <ele>2168.87</ele>
        <time>2011-02-20T13:22:29Z</time>
      </trkpt>
      <trkpt lat="42.62132" lon="0.93393">
        <ele>2165.03</ele>
        <time>2011-02-20T13:24:34Z</time>
      </trkpt>
      <trkpt lat="42.62132" lon="0.93393">
        <ele>2165.51</ele>
        <time>2011-02-20T13:24:35Z</time>
      </trkpt>
      <trkpt lat="42.62132" lon="0.93393">
        <ele>2168.39</ele>
        <time>2011-02-20T13:24:38Z</time>
      </trkpt>
      <trkpt lat="42.62131" lon="0.93392">
        <ele>2169.35</ele>
        <time>2011-02-20T13:24:49Z</time>
      </trkpt>
      <trkpt lat="42.62131" lon="0.93392">
        <ele>2169.35</ele>
        <time>2011-02-20T13:25:04Z</time>
      </trkpt>
      <trkpt lat="42.62131" lon="0.93392">
        <ele>2169.83</ele>
        <time>2011-02-20T13:25:18Z</time>
      </trkpt>
      <trkpt lat="42.62131" lon="0.93392">
        <ele>2170.31</ele>
        <time>2011-02-20T13:25:36Z</time>
      </trkpt>
      <trkpt lat="42.62131" lon="0.93392">
        <ele>2170.31</ele>
        <time>2011-02-20T13:25:54Z</time>
      </trkpt>
      <trkpt lat="42.62131" lon="0.93391">
        <ele>2168.87</ele>
        <time>2011-02-20T13:26:17Z</time>
      </trkpt>
      <trkpt lat="42.62131" lon="0.93392">
        <ele>2169.83</ele>
        <time>2011-02-20T13:26:53Z</time>
      </trkpt>
      <trkpt lat="42.62131" lon="0.93392">
        <ele>2168.39</ele>
        <time>2011-02-20T13:27:13Z</time>
      </trkpt>
      <trkpt lat="42.6213" lon="0.93393">
        <ele>2173.2</ele>
        <time>2011-02-20T13:27:54Z</time>
      </trkpt>
      <trkpt lat="42.6213" lon="0.93393">
        <ele>2178.97</ele>
        <time>2011-02-20T13:27:55Z</time>
      </trkpt>
      <trkpt lat="42.6213" lon="0.93393">
        <ele>2171.27</ele>
        <time>2011-02-20T13:27:56Z</time>
      </trkpt>
      <trkpt lat="42.6213" lon="0.93393">
        <ele>2168.39</ele>
        <time>2011-02-20T13:27:59Z</time>
      </trkpt>
      <trkpt lat="42.62131" lon="0.93392">
        <ele>2168.87</ele>
        <time>2011-02-20T13:28:07Z</time>
      </trkpt>
      <trkpt lat="42.62131" lon="0.93395">
        <ele>2168.87</ele>
        <time>2011-02-20T13:28:17Z</time>
      </trkpt>
      <trkpt lat="42.62131" lon="0.93395">
        <ele>2168.87</ele>
        <time>2011-02-20T13:28:34Z</time>
      </trkpt>
      <trkpt lat="42.62131" lon="0.93393">
        <ele>2168.39</ele>
        <time>2011-02-20T13:29:08Z</time>
      </trkpt>
      <trkpt lat="42.62131" lon="0.93394">
        <ele>2168.87</ele>
        <time>2011-02-20T13:29:25Z</time>
      </trkpt>
      <trkpt lat="42.62132" lon="0.93394">
        <ele>2168.39</ele>
        <time>2011-02-20T13:29:31Z</time>
      </trkpt>
      <trkpt lat="42.62133" lon="0.93388">
        <ele>2169.83</ele>
        <time>2011-02-20T13:29:37Z</time>
      </trkpt>
      <trkpt lat="42.62134" lon="0.93382">
        <ele>2170.31</ele>
        <time>2011-02-20T13:29:42Z</time>
      </trkpt>
      <trkpt lat="42.6214" lon="0.93377">
        <ele>2169.83</ele>
        <time>2011-02-20T13:29:48Z</time>
      </trkpt>
      <trkpt lat="42.62149" lon="0.93362">
        <ele>2168.87</ele>
        <time>2011-02-20T13:30:01Z</time>
      </trkpt>
      <trkpt lat="42.6215" lon="0.93361">
        <ele>2169.35</ele>
        <time>2011-02-20T13:30:02Z</time>
      </trkpt>
      <trkpt lat="42.62156" lon="0.93356">
        <ele>2168.87</ele>
        <time>2011-02-20T13:30:08Z</time>
      </trkpt>
      <trkpt lat="42.62163" lon="0.93344">
        <ele>2169.35</ele>
        <time>2011-02-20T13:30:16Z</time>
      </trkpt>
      <trkpt lat="42.62164" lon="0.93339">
        <ele>2169.83</ele>
        <time>2011-02-20T13:30:19Z</time>
      </trkpt>
      <trkpt lat="42.62164" lon="0.93336">
        <ele>2169.35</ele>
        <time>2011-02-20T13:30:21Z</time>
      </trkpt>
      <trkpt lat="42.62167" lon="0.93331">
        <ele>2170.79</ele>
        <time>2011-02-20T13:30:25Z</time>
      </trkpt>
      <trkpt lat="42.62169" lon="0.93328">
        <ele>2170.79</ele>
        <time>2011-02-20T13:30:37Z</time>
      </trkpt>
      <trkpt lat="42.62169" lon="0.93327">
        <ele>2171.76</ele>
        <time>2011-02-20T13:30:40Z</time>
      </trkpt>
      <trkpt lat="42.62171" lon="0.93327">
        <ele>2171.76</ele>
        <time>2011-02-20T13:30:43Z</time>
      </trkpt>
      <trkpt lat="42.62184" lon="0.93323">
        <ele>2174.16</ele>
        <time>2011-02-20T13:30:58Z</time>
      </trkpt>
      <trkpt lat="42.62191" lon="0.93313">
        <ele>2175.12</ele>
        <time>2011-02-20T13:31:08Z</time>
      </trkpt>
      <trkpt lat="42.62191" lon="0.9331">
        <ele>2175.12</ele>
        <time>2011-02-20T13:31:21Z</time>
      </trkpt>
      <trkpt lat="42.62191" lon="0.9331">
        <ele>2175.12</ele>
        <time>2011-02-20T13:31:51Z</time>
      </trkpt>
      <trkpt lat="42.62191" lon="0.9331">
        <ele>2175.12</ele>
        <time>2011-02-20T13:32:47Z</time>
      </trkpt>
      <trkpt lat="42.62191" lon="0.93306">
        <ele>2175.6</ele>
        <time>2011-02-20T13:33:12Z</time>
      </trkpt>
      <trkpt lat="42.62193" lon="0.93298">
        <ele>2175.12</ele>
        <time>2011-02-20T13:33:19Z</time>
      </trkpt>
      <trkpt lat="42.62193" lon="0.93292">
        <ele>2174.64</ele>
        <time>2011-02-20T13:33:23Z</time>
      </trkpt>
      <trkpt lat="42.62195" lon="0.93286">
        <ele>2174.64</ele>
        <time>2011-02-20T13:33:29Z</time>
      </trkpt>
      <trkpt lat="42.62194" lon="0.93277">
        <ele>2175.12</ele>
        <time>2011-02-20T13:33:41Z</time>
      </trkpt>
      <trkpt lat="42.62193" lon="0.93267">
        <ele>2175.6</ele>
        <time>2011-02-20T13:33:49Z</time>
      </trkpt>
      <trkpt lat="42.62193" lon="0.93265">
        <ele>2176.08</ele>
        <time>2011-02-20T13:33:51Z</time>
      </trkpt>
      <trkpt lat="42.62196" lon="0.93256">
        <ele>2177.04</ele>
        <time>2011-02-20T13:33:59Z</time>
      </trkpt>
      <trkpt lat="42.62199" lon="0.93248">
        <ele>2177.04</ele>
        <time>2011-02-20T13:34:10Z</time>
      </trkpt>
      <trkpt lat="42.62199" lon="0.93247">
        <ele>2177.04</ele>
        <time>2011-02-20T13:34:11Z</time>
      </trkpt>
      <trkpt lat="42.62201" lon="0.93239">
        <ele>2178</ele>
        <time>2011-02-20T13:34:20Z</time>
      </trkpt>
      <trkpt lat="42.62201" lon="0.93235">
        <ele>2178</ele>
        <time>2011-02-20T13:34:23Z</time>
      </trkpt>
      <trkpt lat="42.62202" lon="0.93231">
        <ele>2178.48</ele>
        <time>2011-02-20T13:34:26Z</time>
      </trkpt>
      <trkpt lat="42.622" lon="0.93222">
        <ele>2179.45</ele>
        <time>2011-02-20T13:34:37Z</time>
      </trkpt>
      <trkpt lat="42.62199" lon="0.93221">
        <ele>2178.97</ele>
        <time>2011-02-20T13:34:38Z</time>
      </trkpt>
      <trkpt lat="42.62196" lon="0.93212">
        <ele>2180.89</ele>
        <time>2011-02-20T13:34:50Z</time>
      </trkpt>
      <trkpt lat="42.62197" lon="0.93208">
        <ele>2181.37</ele>
        <time>2011-02-20T13:35:02Z</time>
      </trkpt>
      <trkpt lat="42.622" lon="0.93201">
        <ele>2181.85</ele>
        <time>2011-02-20T13:35:13Z</time>
      </trkpt>
      <trkpt lat="42.62209" lon="0.93196">
        <ele>2184.25</ele>
        <time>2011-02-20T13:35:28Z</time>
      </trkpt>
      <trkpt lat="42.62209" lon="0.93195">
        <ele>2183.77</ele>
        <time>2011-02-20T13:35:29Z</time>
      </trkpt>
      <trkpt lat="42.62213" lon="0.93184">
        <ele>2183.77</ele>
        <time>2011-02-20T13:35:39Z</time>
      </trkpt>
      <trkpt lat="42.62214" lon="0.93172">
        <ele>2185.69</ele>
        <time>2011-02-20T13:35:52Z</time>
      </trkpt>
      <trkpt lat="42.62214" lon="0.93167">
        <ele>2185.69</ele>
        <time>2011-02-20T13:35:56Z</time>
      </trkpt>
      <trkpt lat="42.62218" lon="0.93155">
        <ele>2184.73</ele>
        <time>2011-02-20T13:36:09Z</time>
      </trkpt>
      <trkpt lat="42.62218" lon="0.9315">
        <ele>2185.69</ele>
        <time>2011-02-20T13:36:14Z</time>
      </trkpt>
      <trkpt lat="42.62219" lon="0.93134">
        <ele>2184.73</ele>
        <time>2011-02-20T13:36:27Z</time>
      </trkpt>
      <trkpt lat="42.62221" lon="0.93129">
        <ele>2184.73</ele>
        <time>2011-02-20T13:36:31Z</time>
      </trkpt>
      <trkpt lat="42.62222" lon="0.93127">
        <ele>2184.73</ele>
        <time>2011-02-20T13:36:33Z</time>
      </trkpt>
      <trkpt lat="42.62222" lon="0.93124">
        <ele>2183.77</ele>
        <time>2011-02-20T13:36:36Z</time>
      </trkpt>
      <trkpt lat="42.62227" lon="0.93112">
        <ele>2184.73</ele>
        <time>2011-02-20T13:36:51Z</time>
      </trkpt>
      <trkpt lat="42.6223" lon="0.93103">
        <ele>2184.73</ele>
        <time>2011-02-20T13:36:59Z</time>
      </trkpt>
      <trkpt lat="42.6223" lon="0.93101">
        <ele>2184.73</ele>
        <time>2011-02-20T13:37:01Z</time>
      </trkpt>
      <trkpt lat="42.62234" lon="0.93089">
        <ele>2185.69</ele>
        <time>2011-02-20T13:37:14Z</time>
      </trkpt>
      <trkpt lat="42.62234" lon="0.93092">
        <ele>2185.69</ele>
        <time>2011-02-20T13:37:37Z</time>
      </trkpt>
      <trkpt lat="42.62234" lon="0.93097">
        <ele>2184.25</ele>
        <time>2011-02-20T13:37:45Z</time>
      </trkpt>
      <trkpt lat="42.62236" lon="0.93098">
        <ele>2183.77</ele>
        <time>2011-02-20T13:37:47Z</time>
      </trkpt>
      <trkpt lat="42.6224" lon="0.93097">
        <ele>2183.77</ele>
        <time>2011-02-20T13:37:52Z</time>
      </trkpt>
      <trkpt lat="42.62245" lon="0.9309">
        <ele>2182.81</ele>
        <time>2011-02-20T13:37:57Z</time>
      </trkpt>
      <trkpt lat="42.62246" lon="0.93084">
        <ele>2181.37</ele>
        <time>2011-02-20T13:38:03Z</time>
      </trkpt>
      <trkpt lat="42.62248" lon="0.93081">
        <ele>2180.89</ele>
        <time>2011-02-20T13:38:06Z</time>
      </trkpt>
      <trkpt lat="42.6225" lon="0.93072">
        <ele>2180.41</ele>
        <time>2011-02-20T13:38:20Z</time>
      </trkpt>
      <trkpt lat="42.62251" lon="0.93062">
        <ele>2179.93</ele>
        <time>2011-02-20T13:38:31Z</time>
      </trkpt>
      <trkpt lat="42.62253" lon="0.93057">
        <ele>2180.41</ele>
        <time>2011-02-20T13:38:38Z</time>
      </trkpt>
      <trkpt lat="42.62256" lon="0.93044">
        <ele>2180.41</ele>
        <time>2011-02-20T13:38:51Z</time>
      </trkpt>
      <trkpt lat="42.62256" lon="0.93035">
        <ele>2178.97</ele>
        <time>2011-02-20T13:39:03Z</time>
      </trkpt>
      <trkpt lat="42.62256" lon="0.93031">
        <ele>2179.45</ele>
        <time>2011-02-20T13:39:13Z</time>
      </trkpt>
      <trkpt lat="42.62256" lon="0.93024">
        <ele>2179.45</ele>
        <time>2011-02-20T13:39:25Z</time>
      </trkpt>
      <trkpt lat="42.62259" lon="0.93014">
        <ele>2180.89</ele>
        <time>2011-02-20T13:39:34Z</time>
      </trkpt>
      <trkpt lat="42.62263" lon="0.93008">
        <ele>2181.37</ele>
        <time>2011-02-20T13:39:46Z</time>
      </trkpt>
      <trkpt lat="42.62266" lon="0.93001">
        <ele>2182.81</ele>
        <time>2011-02-20T13:39:59Z</time>
      </trkpt>
      <trkpt lat="42.62268" lon="0.92994">
        <ele>2183.29</ele>
        <time>2011-02-20T13:40:09Z</time>
      </trkpt>
      <trkpt lat="42.62272" lon="0.92989">
        <ele>2184.25</ele>
        <time>2011-02-20T13:40:19Z</time>
      </trkpt>
      <trkpt lat="42.62273" lon="0.92986">
        <ele>2184.25</ele>
        <time>2011-02-20T13:40:36Z</time>
      </trkpt>
      <trkpt lat="42.62274" lon="0.92985">
        <ele>2184.25</ele>
        <time>2011-02-20T13:40:37Z</time>
      </trkpt>
      <trkpt lat="42.62276" lon="0.92973">
        <ele>2185.69</ele>
        <time>2011-02-20T13:40:50Z</time>
      </trkpt>
      <trkpt lat="42.62275" lon="0.92972">
        <ele>2185.69</ele>
        <time>2011-02-20T13:40:54Z</time>
      </trkpt>
      <trkpt lat="42.62272" lon="0.92968">
        <ele>2186.66</ele>
        <time>2011-02-20T13:41:01Z</time>
      </trkpt>
      <trkpt lat="42.62269" lon="0.92964">
        <ele>2188.58</ele>
        <time>2011-02-20T13:41:12Z</time>
      </trkpt>
      <trkpt lat="42.62268" lon="0.9296">
        <ele>2190.02</ele>
        <time>2011-02-20T13:41:22Z</time>
      </trkpt>
      <trkpt lat="42.62263" lon="0.92949">
        <ele>2191.46</ele>
        <time>2011-02-20T13:41:33Z</time>
      </trkpt>
      <trkpt lat="42.62262" lon="0.92942">
        <ele>2192.9</ele>
        <time>2011-02-20T13:41:41Z</time>
      </trkpt>
      <trkpt lat="42.6226" lon="0.92932">
        <ele>2193.87</ele>
        <time>2011-02-20T13:41:54Z</time>
      </trkpt>
      <trkpt lat="42.62258" lon="0.92925">
        <ele>2194.83</ele>
        <time>2011-02-20T13:42:02Z</time>
      </trkpt>
      <trkpt lat="42.62255" lon="0.92911">
        <ele>2195.31</ele>
        <time>2011-02-20T13:42:16Z</time>
      </trkpt>
      <trkpt lat="42.62255" lon="0.92909">
        <ele>2196.27</ele>
        <time>2011-02-20T13:42:30Z</time>
      </trkpt>
      <trkpt lat="42.62252" lon="0.92899">
        <ele>2196.27</ele>
        <time>2011-02-20T13:42:43Z</time>
      </trkpt>
      <trkpt lat="42.62251" lon="0.92894">
        <ele>2195.31</ele>
        <time>2011-02-20T13:42:51Z</time>
      </trkpt>
      <trkpt lat="42.62249" lon="0.9289">
        <ele>2194.83</ele>
        <time>2011-02-20T13:42:56Z</time>
      </trkpt>
      <trkpt lat="42.62245" lon="0.92877">
        <ele>2193.39</ele>
        <time>2011-02-20T13:43:06Z</time>
      </trkpt>
      <trkpt lat="42.62246" lon="0.92869">
        <ele>2192.9</ele>
        <time>2011-02-20T13:43:11Z</time>
      </trkpt>
      <trkpt lat="42.62244" lon="0.92853">
        <ele>2191.46</ele>
        <time>2011-02-20T13:43:23Z</time>
      </trkpt>
      <trkpt lat="42.62241" lon="0.92845">
        <ele>2190.98</ele>
        <time>2011-02-20T13:43:28Z</time>
      </trkpt>
      <trkpt lat="42.62238" lon="0.92839">
        <ele>2190.02</ele>
        <time>2011-02-20T13:43:33Z</time>
      </trkpt>
      <trkpt lat="42.6223" lon="0.92832">
        <ele>2189.54</ele>
        <time>2011-02-20T13:43:42Z</time>
      </trkpt>
      <trkpt lat="42.62224" lon="0.92828">
        <ele>2190.5</ele>
        <time>2011-02-20T13:43:53Z</time>
      </trkpt>
      <trkpt lat="42.62223" lon="0.92827">
        <ele>2191.46</ele>
        <time>2011-02-20T13:43:54Z</time>
      </trkpt>
      <trkpt lat="42.62218" lon="0.92821">
        <ele>2191.94</ele>
        <time>2011-02-20T13:44:03Z</time>
      </trkpt>
      <trkpt lat="42.62213" lon="0.92817">
        <ele>2191.94</ele>
        <time>2011-02-20T13:44:09Z</time>
      </trkpt>
      <trkpt lat="42.62208" lon="0.9281">
        <ele>2192.42</ele>
        <time>2011-02-20T13:44:18Z</time>
      </trkpt>
      <trkpt lat="42.62205" lon="0.92802">
        <ele>2191.46</ele>
        <time>2011-02-20T13:44:32Z</time>
      </trkpt>
      <trkpt lat="42.62205" lon="0.92798">
        <ele>2191.46</ele>
        <time>2011-02-20T13:44:35Z</time>
      </trkpt>
      <trkpt lat="42.62208" lon="0.9279">
        <ele>2190.98</ele>
        <time>2011-02-20T13:44:40Z</time>
      </trkpt>
      <trkpt lat="42.6221" lon="0.92785">
        <ele>2190.5</ele>
        <time>2011-02-20T13:44:44Z</time>
      </trkpt>
      <trkpt lat="42.62209" lon="0.92773">
        <ele>2189.54</ele>
        <time>2011-02-20T13:44:51Z</time>
      </trkpt>
      <trkpt lat="42.62208" lon="0.92769">
        <ele>2189.06</ele>
        <time>2011-02-20T13:44:54Z</time>
      </trkpt>
      <trkpt lat="42.62208" lon="0.92762">
        <ele>2188.58</ele>
        <time>2011-02-20T13:45:09Z</time>
      </trkpt>
      <trkpt lat="42.62208" lon="0.92759">
        <ele>2188.58</ele>
        <time>2011-02-20T13:45:31Z</time>
      </trkpt>
      <trkpt lat="42.62208" lon="0.92758">
        <ele>2188.1</ele>
        <time>2011-02-20T13:45:51Z</time>
      </trkpt>
      <trkpt lat="42.62208" lon="0.92759">
        <ele>2188.58</ele>
        <time>2011-02-20T13:46:30Z</time>
      </trkpt>
      <trkpt lat="42.62208" lon="0.92759">
        <ele>2188.1</ele>
        <time>2011-02-20T13:47:03Z</time>
      </trkpt>
      <trkpt lat="42.62208" lon="0.92758">
        <ele>2188.58</ele>
        <time>2011-02-20T13:47:44Z</time>
      </trkpt>
      <trkpt lat="42.62208" lon="0.92757">
        <ele>2188.1</ele>
        <time>2011-02-20T13:48:11Z</time>
      </trkpt>
      <trkpt lat="42.62208" lon="0.92756">
        <ele>2188.1</ele>
        <time>2011-02-20T13:48:12Z</time>
      </trkpt>
      <trkpt lat="42.62197" lon="0.92747">
        <ele>2185.21</ele>
        <time>2011-02-20T13:48:23Z</time>
      </trkpt>
      <trkpt lat="42.62196" lon="0.92746">
        <ele>2184.73</ele>
        <time>2011-02-20T13:48:30Z</time>
      </trkpt>
      <trkpt lat="42.622" lon="0.92739">
        <ele>2182.81</ele>
        <time>2011-02-20T13:48:34Z</time>
      </trkpt>
      <trkpt lat="42.62202" lon="0.92738">
        <ele>2181.37</ele>
        <time>2011-02-20T13:48:44Z</time>
      </trkpt>
      <trkpt lat="42.62202" lon="0.92738">
        <ele>2180.89</ele>
        <time>2011-02-20T13:48:47Z</time>
      </trkpt>
      <trkpt lat="42.62204" lon="0.9273">
        <ele>2178.48</ele>
        <time>2011-02-20T13:48:51Z</time>
      </trkpt>
      <trkpt lat="42.622" lon="0.92718">
        <ele>2175.6</ele>
        <time>2011-02-20T13:48:57Z</time>
      </trkpt>
      <trkpt lat="42.62202" lon="0.9271">
        <ele>2172.24</ele>
        <time>2011-02-20T13:49:01Z</time>
      </trkpt>
      <trkpt lat="42.62202" lon="0.9271">
        <ele>2171.76</ele>
        <time>2011-02-20T13:49:03Z</time>
      </trkpt>
      <trkpt lat="42.6221" lon="0.92697">
        <ele>2167.43</ele>
        <time>2011-02-20T13:49:09Z</time>
      </trkpt>
      <trkpt lat="42.62216" lon="0.92681">
        <ele>2163.58</ele>
        <time>2011-02-20T13:49:14Z</time>
      </trkpt>
      <trkpt lat="42.62212" lon="0.92667">
        <ele>2161.18</ele>
        <time>2011-02-20T13:49:19Z</time>
      </trkpt>
      <trkpt lat="42.62211" lon="0.92664">
        <ele>2160.7</ele>
        <time>2011-02-20T13:49:20Z</time>
      </trkpt>
      <trkpt lat="42.62203" lon="0.92647">
        <ele>2156.86</ele>
        <time>2011-02-20T13:49:24Z</time>
      </trkpt>
      <trkpt lat="42.62202" lon="0.92642">
        <ele>2155.41</ele>
        <time>2011-02-20T13:49:25Z</time>
      </trkpt>
      <trkpt lat="42.62199" lon="0.92631">
        <ele>2153.01</ele>
        <time>2011-02-20T13:49:27Z</time>
      </trkpt>
      <trkpt lat="42.62198" lon="0.92616">
        <ele>2150.61</ele>
        <time>2011-02-20T13:49:30Z</time>
      </trkpt>
      <trkpt lat="42.62198" lon="0.9261">
        <ele>2149.16</ele>
        <time>2011-02-20T13:49:32Z</time>
      </trkpt>
      <trkpt lat="42.622" lon="0.92603">
        <ele>2147.72</ele>
        <time>2011-02-20T13:49:36Z</time>
      </trkpt>
      <trkpt lat="42.62197" lon="0.92587">
        <ele>2148.2</ele>
        <time>2011-02-20T13:49:49Z</time>
      </trkpt>
      <trkpt lat="42.62197" lon="0.92586">
        <ele>2147.72</ele>
        <time>2011-02-20T13:49:50Z</time>
      </trkpt>
      <trkpt lat="42.62196" lon="0.9258">
        <ele>2147.72</ele>
        <time>2011-02-20T13:49:54Z</time>
      </trkpt>
      <trkpt lat="42.62194" lon="0.92569">
        <ele>2148.68</ele>
        <time>2011-02-20T13:50:07Z</time>
      </trkpt>
      <trkpt lat="42.62191" lon="0.92571">
        <ele>2148.68</ele>
        <time>2011-02-20T13:50:18Z</time>
      </trkpt>
      <trkpt lat="42.6219" lon="0.92572">
        <ele>2148.68</ele>
        <time>2011-02-20T13:50:33Z</time>
      </trkpt>
      <trkpt lat="42.62188" lon="0.92573">
        <ele>2148.68</ele>
        <time>2011-02-20T13:50:47Z</time>
      </trkpt>
      <trkpt lat="42.62184" lon="0.9257">
        <ele>2147.72</ele>
        <time>2011-02-20T13:50:56Z</time>
      </trkpt>
      <trkpt lat="42.6218" lon="0.92563">
        <ele>2146.76</ele>
        <time>2011-02-20T13:51:00Z</time>
      </trkpt>
      <trkpt lat="42.62174" lon="0.92555">
        <ele>2144.36</ele>
        <time>2011-02-20T13:51:05Z</time>
      </trkpt>
      <trkpt lat="42.62172" lon="0.92552">
        <ele>2142.92</ele>
        <time>2011-02-20T13:51:15Z</time>
      </trkpt>
      <trkpt lat="42.6217" lon="0.92549">
        <ele>2142.44</ele>
        <time>2011-02-20T13:51:29Z</time>
      </trkpt>
      <trkpt lat="42.62169" lon="0.92544">
        <ele>2140.03</ele>
        <time>2011-02-20T13:51:41Z</time>
      </trkpt>
      <trkpt lat="42.62167" lon="0.9254">
        <ele>2138.59</ele>
        <time>2011-02-20T13:51:51Z</time>
      </trkpt>
      <trkpt lat="42.62164" lon="0.9253">
        <ele>2136.19</ele>
        <time>2011-02-20T13:51:59Z</time>
      </trkpt>
      <trkpt lat="42.62165" lon="0.92532">
        <ele>2134.74</ele>
        <time>2011-02-20T13:52:11Z</time>
      </trkpt>
      <trkpt lat="42.62167" lon="0.92531">
        <ele>2133.3</ele>
        <time>2011-02-20T13:52:14Z</time>
      </trkpt>
      <trkpt lat="42.62179" lon="0.92525">
        <ele>2129.94</ele>
        <time>2011-02-20T13:52:19Z</time>
      </trkpt>
      <trkpt lat="42.62183" lon="0.92523">
        <ele>2128.98</ele>
        <time>2011-02-20T13:52:20Z</time>
      </trkpt>
      <trkpt lat="42.62195" lon="0.92513">
        <ele>2123.21</ele>
        <time>2011-02-20T13:52:24Z</time>
      </trkpt>
      <trkpt lat="42.62196" lon="0.92512">
        <ele>2123.69</ele>
        <time>2011-02-20T13:52:25Z</time>
      </trkpt>
      <trkpt lat="42.62191" lon="0.92512">
        <ele>2122.73</ele>
        <time>2011-02-20T13:52:34Z</time>
      </trkpt>
      <trkpt lat="42.62197" lon="0.92495">
        <ele>2119.36</ele>
        <time>2011-02-20T13:52:39Z</time>
      </trkpt>
      <trkpt lat="42.62195" lon="0.92483">
        <ele>2116</ele>
        <time>2011-02-20T13:52:44Z</time>
      </trkpt>
      <trkpt lat="42.62195" lon="0.92479">
        <ele>2114.56</ele>
        <time>2011-02-20T13:52:56Z</time>
      </trkpt>
      <trkpt lat="42.62195" lon="0.92478">
        <ele>2113.6</ele>
        <time>2011-02-20T13:53:11Z</time>
      </trkpt>
      <trkpt lat="42.62193" lon="0.92472">
        <ele>2113.12</ele>
        <time>2011-02-20T13:53:20Z</time>
      </trkpt>
      <trkpt lat="42.62194" lon="0.9247">
        <ele>2113.6</ele>
        <time>2011-02-20T13:53:41Z</time>
      </trkpt>
      <trkpt lat="42.62195" lon="0.92469">
        <ele>2113.6</ele>
        <time>2011-02-20T13:53:57Z</time>
      </trkpt>
      <trkpt lat="42.62196" lon="0.9247">
        <ele>2114.08</ele>
        <time>2011-02-20T13:54:17Z</time>
      </trkpt>
      <trkpt lat="42.62196" lon="0.92466">
        <ele>2113.12</ele>
        <time>2011-02-20T13:54:41Z</time>
      </trkpt>
      <trkpt lat="42.62195" lon="0.92466">
        <ele>2113.6</ele>
        <time>2011-02-20T13:55:04Z</time>
      </trkpt>
      <trkpt lat="42.62195" lon="0.92463">
        <ele>2113.6</ele>
        <time>2011-02-20T13:55:25Z</time>
      </trkpt>
      <trkpt lat="42.62195" lon="0.92462">
        <ele>2112.63</ele>
        <time>2011-02-20T13:55:50Z</time>
      </trkpt>
      <trkpt lat="42.62195" lon="0.92458">
        <ele>2113.12</ele>
        <time>2011-02-20T13:56:11Z</time>
      </trkpt>
      <trkpt lat="42.62194" lon="0.92444">
        <ele>2113.12</ele>
        <time>2011-02-20T13:56:24Z</time>
      </trkpt>
      <trkpt lat="42.62194" lon="0.92439">
        <ele>2113.6</ele>
        <time>2011-02-20T13:56:32Z</time>
      </trkpt>
      <trkpt lat="42.62193" lon="0.92425">
        <ele>2113.6</ele>
        <time>2011-02-20T13:56:45Z</time>
      </trkpt>
      <trkpt lat="42.62189" lon="0.92406">
        <ele>2110.71</ele>
        <time>2011-02-20T13:56:51Z</time>
      </trkpt>
      <trkpt lat="42.62189" lon="0.92399">
        <ele>2109.75</ele>
        <time>2011-02-20T13:56:53Z</time>
      </trkpt>
      <trkpt lat="42.62188" lon="0.92392">
        <ele>2108.79</ele>
        <time>2011-02-20T13:57:03Z</time>
      </trkpt>
      <trkpt lat="42.62188" lon="0.92387">
        <ele>2109.27</ele>
        <time>2011-02-20T13:57:21Z</time>
      </trkpt>
      <trkpt lat="42.62188" lon="0.92383">
        <ele>2108.79</ele>
        <time>2011-02-20T13:57:23Z</time>
      </trkpt>
      <trkpt lat="42.62185" lon="0.9237">
        <ele>2109.27</ele>
        <time>2011-02-20T13:57:34Z</time>
      </trkpt>
      <trkpt lat="42.62185" lon="0.92367">
        <ele>2109.27</ele>
        <time>2011-02-20T13:57:37Z</time>
      </trkpt>
      <trkpt lat="42.62184" lon="0.92357">
        <ele>2110.23</ele>
        <time>2011-02-20T13:57:47Z</time>
      </trkpt>
      <trkpt lat="42.62184" lon="0.92344">
        <ele>2110.71</ele>
        <time>2011-02-20T13:58:02Z</time>
      </trkpt>
      <trkpt lat="42.62183" lon="0.92332">
        <ele>2111.67</ele>
        <time>2011-02-20T13:58:13Z</time>
      </trkpt>
      <trkpt lat="42.62183" lon="0.92329">
        <ele>2111.67</ele>
        <time>2011-02-20T13:58:15Z</time>
      </trkpt>
      <trkpt lat="42.62182" lon="0.92319">
        <ele>2112.15</ele>
        <time>2011-02-20T13:58:29Z</time>
      </trkpt>
      <trkpt lat="42.6218" lon="0.92309">
        <ele>2113.6</ele>
        <time>2011-02-20T13:58:38Z</time>
      </trkpt>
      <trkpt lat="42.62179" lon="0.92301">
        <ele>2113.6</ele>
        <time>2011-02-20T13:58:45Z</time>
      </trkpt>
      <trkpt lat="42.6218" lon="0.923">
        <ele>2113.6</ele>
        <time>2011-02-20T13:58:46Z</time>
      </trkpt>
      <trkpt lat="42.6218" lon="0.92292">
        <ele>2114.56</ele>
        <time>2011-02-20T13:58:53Z</time>
      </trkpt>
      <trkpt lat="42.62176" lon="0.92277">
        <ele>2114.56</ele>
        <time>2011-02-20T13:59:07Z</time>
      </trkpt>
      <trkpt lat="42.62175" lon="0.9227">
        <ele>2115.04</ele>
        <time>2011-02-20T13:59:15Z</time>
      </trkpt>
      <trkpt lat="42.6217" lon="0.92258">
        <ele>2115.52</ele>
        <time>2011-02-20T13:59:28Z</time>
      </trkpt>
      <trkpt lat="42.62166" lon="0.92249">
        <ele>2116.48</ele>
        <time>2011-02-20T13:59:38Z</time>
      </trkpt>
      <trkpt lat="42.62166" lon="0.92243">
        <ele>2117.92</ele>
        <time>2011-02-20T13:59:50Z</time>
      </trkpt>
      <trkpt lat="42.62166" lon="0.92242">
        <ele>2117.44</ele>
        <time>2011-02-20T13:59:51Z</time>
      </trkpt>
      <trkpt lat="42.62168" lon="0.92236">
        <ele>2117.44</ele>
        <time>2011-02-20T13:59:55Z</time>
      </trkpt>
      <trkpt lat="42.62173" lon="0.92223">
        <ele>2117.44</ele>
        <time>2011-02-20T14:00:09Z</time>
      </trkpt>
      <trkpt lat="42.62173" lon="0.92222">
        <ele>2117.44</ele>
        <time>2011-02-20T14:00:10Z</time>
      </trkpt>
      <trkpt lat="42.62174" lon="0.92217">
        <ele>2117.92</ele>
        <time>2011-02-20T14:00:13Z</time>
      </trkpt>
      <trkpt lat="42.62176" lon="0.92213">
        <ele>2117.44</ele>
        <time>2011-02-20T14:00:17Z</time>
      </trkpt>
      <trkpt lat="42.62182" lon="0.92202">
        <ele>2117.44</ele>
        <time>2011-02-20T14:00:30Z</time>
      </trkpt>
      <trkpt lat="42.62185" lon="0.92192">
        <ele>2117.92</ele>
        <time>2011-02-20T14:00:41Z</time>
      </trkpt>
      <trkpt lat="42.62191" lon="0.92181">
        <ele>2117.44</ele>
        <time>2011-02-20T14:00:54Z</time>
      </trkpt>
      <trkpt lat="42.62198" lon="0.92169">
        <ele>2117.92</ele>
        <time>2011-02-20T14:01:07Z</time>
      </trkpt>
      <trkpt lat="42.62201" lon="0.92164">
        <ele>2117.92</ele>
        <time>2011-02-20T14:01:14Z</time>
      </trkpt>
      <trkpt lat="42.62206" lon="0.9215">
        <ele>2117.44</ele>
        <time>2011-02-20T14:01:27Z</time>
      </trkpt>
      <trkpt lat="42.62207" lon="0.92145">
        <ele>2118.4</ele>
        <time>2011-02-20T14:01:31Z</time>
      </trkpt>
      <trkpt lat="42.62212" lon="0.92132">
        <ele>2117.92</ele>
        <time>2011-02-20T14:01:45Z</time>
      </trkpt>
      <trkpt lat="42.62211" lon="0.92129">
        <ele>2118.4</ele>
        <time>2011-02-20T14:01:48Z</time>
      </trkpt>
      <trkpt lat="42.62215" lon="0.92115">
        <ele>2118.4</ele>
        <time>2011-02-20T14:02:03Z</time>
      </trkpt>
      <trkpt lat="42.62215" lon="0.9211">
        <ele>2118.88</ele>
        <time>2011-02-20T14:02:07Z</time>
      </trkpt>
      <trkpt lat="42.62217" lon="0.92099">
        <ele>2119.84</ele>
        <time>2011-02-20T14:02:19Z</time>
      </trkpt>
      <trkpt lat="42.62218" lon="0.92093">
        <ele>2120.81</ele>
        <time>2011-02-20T14:02:28Z</time>
      </trkpt>
      <trkpt lat="42.6222" lon="0.92084">
        <ele>2120.81</ele>
        <time>2011-02-20T14:02:34Z</time>
      </trkpt>
      <trkpt lat="42.62221" lon="0.92075">
        <ele>2121.77</ele>
        <time>2011-02-20T14:02:46Z</time>
      </trkpt>
      <trkpt lat="42.62222" lon="0.92074">
        <ele>2122.25</ele>
        <time>2011-02-20T14:02:47Z</time>
      </trkpt>
      <trkpt lat="42.62225" lon="0.92068">
        <ele>2121.29</ele>
        <time>2011-02-20T14:02:52Z</time>
      </trkpt>
      <trkpt lat="42.62233" lon="0.92058">
        <ele>2121.29</ele>
        <time>2011-02-20T14:03:05Z</time>
      </trkpt>
      <trkpt lat="42.62235" lon="0.92057">
        <ele>2121.29</ele>
        <time>2011-02-20T14:03:07Z</time>
      </trkpt>
      <trkpt lat="42.62245" lon="0.92053">
        <ele>2120.81</ele>
        <time>2011-02-20T14:03:20Z</time>
      </trkpt>
      <trkpt lat="42.62259" lon="0.92045">
        <ele>2117.92</ele>
        <time>2011-02-20T14:03:35Z</time>
      </trkpt>
      <trkpt lat="42.6226" lon="0.92045">
        <ele>2118.4</ele>
        <time>2011-02-20T14:03:36Z</time>
      </trkpt>
      <trkpt lat="42.62269" lon="0.92043">
        <ele>2117.44</ele>
        <time>2011-02-20T14:03:47Z</time>
      </trkpt>
      <trkpt lat="42.62272" lon="0.9204">
        <ele>2116.96</ele>
        <time>2011-02-20T14:03:50Z</time>
      </trkpt>
      <trkpt lat="42.62282" lon="0.92036">
        <ele>2116.48</ele>
        <time>2011-02-20T14:04:01Z</time>
      </trkpt>
      <trkpt lat="42.62295" lon="0.92033">
        <ele>2115.04</ele>
        <time>2011-02-20T14:04:13Z</time>
      </trkpt>
      <trkpt lat="42.62303" lon="0.9203">
        <ele>2114.56</ele>
        <time>2011-02-20T14:04:23Z</time>
      </trkpt>
      <trkpt lat="42.62312" lon="0.92032">
        <ele>2114.56</ele>
        <time>2011-02-20T14:04:35Z</time>
      </trkpt>
      <trkpt lat="42.62314" lon="0.92032">
        <ele>2114.56</ele>
        <time>2011-02-20T14:04:38Z</time>
      </trkpt>
      <trkpt lat="42.62322" lon="0.92033">
        <ele>2115.04</ele>
        <time>2011-02-20T14:04:50Z</time>
      </trkpt>
      <trkpt lat="42.62325" lon="0.92036">
        <ele>2115.52</ele>
        <time>2011-02-20T14:04:57Z</time>
      </trkpt>
      <trkpt lat="42.62334" lon="0.92038">
        <ele>2116</ele>
        <time>2011-02-20T14:05:10Z</time>
      </trkpt>
      <trkpt lat="42.62338" lon="0.92039">
        <ele>2116.96</ele>
        <time>2011-02-20T14:05:16Z</time>
      </trkpt>
      <trkpt lat="42.62341" lon="0.92041">
        <ele>2116.96</ele>
        <time>2011-02-20T14:05:19Z</time>
      </trkpt>
      <trkpt lat="42.62343" lon="0.92042">
        <ele>2116.48</ele>
        <time>2011-02-20T14:05:21Z</time>
      </trkpt>
      <trkpt lat="42.62345" lon="0.92048">
        <ele>2115.52</ele>
        <time>2011-02-20T14:05:27Z</time>
      </trkpt>
      <trkpt lat="42.6235" lon="0.92055">
        <ele>2116.96</ele>
        <time>2011-02-20T14:05:39Z</time>
      </trkpt>
      <trkpt lat="42.62354" lon="0.92057">
        <ele>2117.44</ele>
        <time>2011-02-20T14:05:52Z</time>
      </trkpt>
      <trkpt lat="42.62362" lon="0.92061">
        <ele>2116.96</ele>
        <time>2011-02-20T14:06:05Z</time>
      </trkpt>
      <trkpt lat="42.62363" lon="0.92062">
        <ele>2117.44</ele>
        <time>2011-02-20T14:06:06Z</time>
      </trkpt>
      <trkpt lat="42.62364" lon="0.92065">
        <ele>2116.48</ele>
        <time>2011-02-20T14:06:20Z</time>
      </trkpt>
      <trkpt lat="42.62369" lon="0.92072">
        <ele>2118.88</ele>
        <time>2011-02-20T14:06:34Z</time>
      </trkpt>
      <trkpt lat="42.62373" lon="0.92074">
        <ele>2120.32</ele>
        <time>2011-02-20T14:06:47Z</time>
      </trkpt>
      <trkpt lat="42.62378" lon="0.9208">
        <ele>2121.77</ele>
        <time>2011-02-20T14:06:57Z</time>
      </trkpt>
      <trkpt lat="42.6238" lon="0.92087">
        <ele>2123.69</ele>
        <time>2011-02-20T14:07:10Z</time>
      </trkpt>
      <trkpt lat="42.62384" lon="0.92088">
        <ele>2125.61</ele>
        <time>2011-02-20T14:07:25Z</time>
      </trkpt>
      <trkpt lat="42.6239" lon="0.92085">
        <ele>2127.53</ele>
        <time>2011-02-20T14:07:37Z</time>
      </trkpt>
      <trkpt lat="42.62394" lon="0.92081">
        <ele>2128.98</ele>
        <time>2011-02-20T14:07:49Z</time>
      </trkpt>
      <trkpt lat="42.62397" lon="0.92078">
        <ele>2130.42</ele>
        <time>2011-02-20T14:08:00Z</time>
      </trkpt>
      <trkpt lat="42.62403" lon="0.92077">
        <ele>2130.9</ele>
        <time>2011-02-20T14:08:09Z</time>
      </trkpt>
      <trkpt lat="42.62405" lon="0.9208">
        <ele>2132.34</ele>
        <time>2011-02-20T14:08:18Z</time>
      </trkpt>
      <trkpt lat="42.62409" lon="0.92086">
        <ele>2133.78</ele>
        <time>2011-02-20T14:08:31Z</time>
      </trkpt>
      <trkpt lat="42.62412" lon="0.92087">
        <ele>2135.23</ele>
        <time>2011-02-20T14:08:45Z</time>
      </trkpt>
      <trkpt lat="42.62416" lon="0.92088">
        <ele>2136.19</ele>
        <time>2011-02-20T14:08:50Z</time>
      </trkpt>
      <trkpt lat="42.62416" lon="0.92088">
        <ele>2135.71</ele>
        <time>2011-02-20T14:08:51Z</time>
      </trkpt>
      <trkpt lat="42.6242" lon="0.92081">
        <ele>2138.11</ele>
        <time>2011-02-20T14:09:06Z</time>
      </trkpt>
      <trkpt lat="42.6242" lon="0.9208">
        <ele>2138.11</ele>
        <time>2011-02-20T14:09:31Z</time>
      </trkpt>
      <trkpt lat="42.62421" lon="0.9208">
        <ele>2137.63</ele>
        <time>2011-02-20T14:09:53Z</time>
      </trkpt>
      <trkpt lat="42.62421" lon="0.92078">
        <ele>2137.63</ele>
        <time>2011-02-20T14:09:57Z</time>
      </trkpt>
      <trkpt lat="42.62419" lon="0.92075">
        <ele>2137.15</ele>
        <time>2011-02-20T14:10:00Z</time>
      </trkpt>
      <trkpt lat="42.6242" lon="0.9207">
        <ele>2138.11</ele>
        <time>2011-02-20T14:10:04Z</time>
      </trkpt>
      <trkpt lat="42.6242" lon="0.92068">
        <ele>2137.63</ele>
        <time>2011-02-20T14:10:11Z</time>
      </trkpt>
      <trkpt lat="42.62421" lon="0.92072">
        <ele>2137.63</ele>
        <time>2011-02-20T14:10:19Z</time>
      </trkpt>
      <trkpt lat="42.6242" lon="0.92069">
        <ele>2138.11</ele>
        <time>2011-02-20T14:10:28Z</time>
      </trkpt>
      <trkpt lat="42.62418" lon="0.9207">
        <ele>2136.67</ele>
        <time>2011-02-20T14:10:31Z</time>
      </trkpt>
      <trkpt lat="42.62417" lon="0.92071">
        <ele>2137.15</ele>
        <time>2011-02-20T14:10:51Z</time>
      </trkpt>
      <trkpt lat="42.62417" lon="0.9207">
        <ele>2133.78</ele>
        <time>2011-02-20T14:13:34Z</time>
      </trkpt>
      <trkpt lat="42.62417" lon="0.9207">
        <ele>2137.63</ele>
        <time>2011-02-20T14:13:37Z</time>
      </trkpt>
      <trkpt lat="42.62417" lon="0.92071">
        <ele>2136.19</ele>
        <time>2011-02-20T14:13:45Z</time>
      </trkpt>
      <trkpt lat="42.62418" lon="0.92072">
        <ele>2132.34</ele>
        <time>2011-02-20T14:16:48Z</time>
      </trkpt>
      <trkpt lat="42.62418" lon="0.92073">
        <ele>2132.82</ele>
        <time>2011-02-20T14:16:49Z</time>
      </trkpt>
      <trkpt lat="42.62418" lon="0.92073">
        <ele>2136.19</ele>
        <time>2011-02-20T14:16:50Z</time>
      </trkpt>
      <trkpt lat="42.62418" lon="0.92073">
        <ele>2137.15</ele>
        <time>2011-02-20T14:17:24Z</time>
      </trkpt>
      <trkpt lat="42.62417" lon="0.92074">
        <ele>2138.11</ele>
        <time>2011-02-20T14:17:35Z</time>
      </trkpt>
      <trkpt lat="42.62417" lon="0.92074">
        <ele>2137.63</ele>
        <time>2011-02-20T14:17:49Z</time>
      </trkpt>
      <trkpt lat="42.62417" lon="0.92075">
        <ele>2137.15</ele>
        <time>2011-02-20T14:18:20Z</time>
      </trkpt>
      <trkpt lat="42.62417" lon="0.92075">
        <ele>2137.15</ele>
        <time>2011-02-20T14:18:44Z</time>
      </trkpt>
      <trkpt lat="42.62418" lon="0.92071">
        <ele>2138.11</ele>
        <time>2011-02-20T14:18:55Z</time>
      </trkpt>
      <trkpt lat="42.62418" lon="0.92071">
        <ele>2138.11</ele>
        <time>2011-02-20T14:18:58Z</time>
      </trkpt>
      <trkpt lat="42.62418" lon="0.92071">
        <ele>2138.11</ele>
        <time>2011-02-20T14:19:11Z</time>
      </trkpt>
      <trkpt lat="42.62418" lon="0.92071">
        <ele>2138.11</ele>
        <time>2011-02-20T14:19:15Z</time>
      </trkpt>
      <trkpt lat="42.62419" lon="0.92071">
        <ele>2142.92</ele>
        <time>2011-02-20T14:19:22Z</time>
      </trkpt>
      <trkpt lat="42.62419" lon="0.92071">
        <ele>2138.11</ele>
        <time>2011-02-20T14:19:23Z</time>
      </trkpt>
      <trkpt lat="42.62419" lon="0.92071">
        <ele>2137.15</ele>
        <time>2011-02-20T14:19:25Z</time>
      </trkpt>
      <trkpt lat="42.62419" lon="0.92071">
        <ele>2140.51</ele>
        <time>2011-02-20T14:19:33Z</time>
      </trkpt>
      <trkpt lat="42.62419" lon="0.92071">
        <ele>2135.23</ele>
        <time>2011-02-20T14:19:34Z</time>
      </trkpt>
      <trkpt lat="42.62419" lon="0.92071">
        <ele>2138.59</ele>
        <time>2011-02-20T14:19:39Z</time>
      </trkpt>
      <trkpt lat="42.62419" lon="0.92071">
        <ele>2142.44</ele>
        <time>2011-02-20T14:19:40Z</time>
      </trkpt>
      <trkpt lat="42.62419" lon="0.92071">
        <ele>2138.11</ele>
        <time>2011-02-20T14:19:41Z</time>
      </trkpt>
      <trkpt lat="42.62418" lon="0.9207">
        <ele>2139.55</ele>
        <time>2011-02-20T14:19:52Z</time>
      </trkpt>
      <trkpt lat="42.62419" lon="0.92069">
        <ele>2138.59</ele>
        <time>2011-02-20T14:20:25Z</time>
      </trkpt>
      <trkpt lat="42.62418" lon="0.92056">
        <ele>2139.55</ele>
        <time>2011-02-20T14:20:34Z</time>
      </trkpt>
      <trkpt lat="42.62419" lon="0.92046">
        <ele>2139.55</ele>
        <time>2011-02-20T14:20:40Z</time>
      </trkpt>
      <trkpt lat="42.6242" lon="0.92041">
        <ele>2139.07</ele>
        <time>2011-02-20T14:20:58Z</time>
      </trkpt>
      <trkpt lat="42.6242" lon="0.92041">
        <ele>2139.07</ele>
        <time>2011-02-20T14:21:21Z</time>
      </trkpt>
      <trkpt lat="42.6242" lon="0.92041">
        <ele>2140.51</ele>
        <time>2011-02-20T14:21:41Z</time>
      </trkpt>
      <trkpt lat="42.6242" lon="0.92041">
        <ele>2139.07</ele>
        <time>2011-02-20T14:21:44Z</time>
      </trkpt>
      <trkpt lat="42.6242" lon="0.92041">
        <ele>2140.03</ele>
        <time>2011-02-20T14:21:46Z</time>
      </trkpt>
      <trkpt lat="42.62418" lon="0.92044">
        <ele>2140.51</ele>
        <time>2011-02-20T14:21:49Z</time>
      </trkpt>
      <trkpt lat="42.62416" lon="0.92056">
        <ele>2139.55</ele>
        <time>2011-02-20T14:21:56Z</time>
      </trkpt>
      <trkpt lat="42.62418" lon="0.92066">
        <ele>2139.07</ele>
        <time>2011-02-20T14:22:08Z</time>
      </trkpt>
      <trkpt lat="42.62419" lon="0.92056">
        <ele>2139.55</ele>
        <time>2011-02-20T14:22:18Z</time>
      </trkpt>
      <trkpt lat="42.62424" lon="0.92048">
        <ele>2139.55</ele>
        <time>2011-02-20T14:22:28Z</time>
      </trkpt>
      <trkpt lat="42.62422" lon="0.92045">
        <ele>2140.03</ele>
        <time>2011-02-20T14:22:52Z</time>
      </trkpt>
      <trkpt lat="42.62422" lon="0.92044">
        <ele>2139.55</ele>
        <time>2011-02-20T14:23:10Z</time>
      </trkpt>
      <trkpt lat="42.62421" lon="0.92044">
        <ele>2140.03</ele>
        <time>2011-02-20T14:24:05Z</time>
      </trkpt>
      <trkpt lat="42.62422" lon="0.92044">
        <ele>2141.47</ele>
        <time>2011-02-20T14:24:52Z</time>
      </trkpt>
      <trkpt lat="42.62422" lon="0.92037">
        <ele>2143.88</ele>
        <time>2011-02-20T14:25:03Z</time>
      </trkpt>
      <trkpt lat="42.62422" lon="0.92037">
        <ele>2143.88</ele>
        <time>2011-02-20T14:25:05Z</time>
      </trkpt>
      <trkpt lat="42.62434" lon="0.92022">
        <ele>2145.8</ele>
        <time>2011-02-20T14:25:18Z</time>
      </trkpt>
      <trkpt lat="42.62443" lon="0.9201">
        <ele>2147.24</ele>
        <time>2011-02-20T14:25:32Z</time>
      </trkpt>
      <trkpt lat="42.62454" lon="0.92003">
        <ele>2146.28</ele>
        <time>2011-02-20T14:25:46Z</time>
      </trkpt>
      <trkpt lat="42.62465" lon="0.91996">
        <ele>2145.8</ele>
        <time>2011-02-20T14:25:59Z</time>
      </trkpt>
      <trkpt lat="42.62472" lon="0.91996">
        <ele>2146.76</ele>
        <time>2011-02-20T14:26:10Z</time>
      </trkpt>
      <trkpt lat="42.62481" lon="0.91994">
        <ele>2146.76</ele>
        <time>2011-02-20T14:26:23Z</time>
      </trkpt>
      <trkpt lat="42.62487" lon="0.9199">
        <ele>2148.2</ele>
        <time>2011-02-20T14:26:36Z</time>
      </trkpt>
      <trkpt lat="42.62494" lon="0.91988">
        <ele>2148.68</ele>
        <time>2011-02-20T14:26:50Z</time>
      </trkpt>
      <trkpt lat="42.62498" lon="0.9198">
        <ele>2150.13</ele>
        <time>2011-02-20T14:27:04Z</time>
      </trkpt>
      <trkpt lat="42.62501" lon="0.91974">
        <ele>2150.61</ele>
        <time>2011-02-20T14:27:11Z</time>
      </trkpt>
      <trkpt lat="42.62507" lon="0.91963">
        <ele>2149.65</ele>
        <time>2011-02-20T14:27:26Z</time>
      </trkpt>
      <trkpt lat="42.6252" lon="0.91948">
        <ele>2147.24</ele>
        <time>2011-02-20T14:27:37Z</time>
      </trkpt>
      <trkpt lat="42.62523" lon="0.91945">
        <ele>2145.32</ele>
        <time>2011-02-20T14:27:45Z</time>
      </trkpt>
      <trkpt lat="42.62529" lon="0.91944">
        <ele>2144.36</ele>
        <time>2011-02-20T14:27:54Z</time>
      </trkpt>
      <trkpt lat="42.6253" lon="0.91944">
        <ele>2143.88</ele>
        <time>2011-02-20T14:27:55Z</time>
      </trkpt>
      <trkpt lat="42.62536" lon="0.91947">
        <ele>2143.4</ele>
        <time>2011-02-20T14:27:59Z</time>
      </trkpt>
      <trkpt lat="42.62551" lon="0.91966">
        <ele>2139.07</ele>
        <time>2011-02-20T14:28:08Z</time>
      </trkpt>
      <trkpt lat="42.62564" lon="0.91994">
        <ele>2135.23</ele>
        <time>2011-02-20T14:28:20Z</time>
      </trkpt>
      <trkpt lat="42.62566" lon="0.92006">
        <ele>2133.78</ele>
        <time>2011-02-20T14:28:25Z</time>
      </trkpt>
      <trkpt lat="42.62567" lon="0.92009">
        <ele>2133.3</ele>
        <time>2011-02-20T14:28:26Z</time>
      </trkpt>
      <trkpt lat="42.62584" lon="0.92017">
        <ele>2131.38</ele>
        <time>2011-02-20T14:28:40Z</time>
      </trkpt>
      <trkpt lat="42.62591" lon="0.92019">
        <ele>2129.94</ele>
        <time>2011-02-20T14:28:47Z</time>
      </trkpt>
      <trkpt lat="42.62603" lon="0.92017">
        <ele>2127.05</ele>
        <time>2011-02-20T14:28:53Z</time>
      </trkpt>
      <trkpt lat="42.62614" lon="0.92016">
        <ele>2128.98</ele>
        <time>2011-02-20T14:29:03Z</time>
      </trkpt>
      <trkpt lat="42.62617" lon="0.92017">
        <ele>2128.02</ele>
        <time>2011-02-20T14:29:15Z</time>
      </trkpt>
      <trkpt lat="42.62616" lon="0.92017">
        <ele>2128.02</ele>
        <time>2011-02-20T14:29:43Z</time>
      </trkpt>
      <trkpt lat="42.62619" lon="0.9202">
        <ele>2128.5</ele>
        <time>2011-02-20T14:29:50Z</time>
      </trkpt>
      <trkpt lat="42.6262" lon="0.92021">
        <ele>2129.46</ele>
        <time>2011-02-20T14:29:52Z</time>
      </trkpt>
      <trkpt lat="42.62627" lon="0.92025">
        <ele>2130.42</ele>
        <time>2011-02-20T14:29:59Z</time>
      </trkpt>
      <trkpt lat="42.6263" lon="0.92027">
        <ele>2129.46</ele>
        <time>2011-02-20T14:30:12Z</time>
      </trkpt>
      <trkpt lat="42.62632" lon="0.92027">
        <ele>2130.9</ele>
        <time>2011-02-20T14:30:15Z</time>
      </trkpt>
      <trkpt lat="42.62633" lon="0.92028">
        <ele>2130.42</ele>
        <time>2011-02-20T14:30:17Z</time>
      </trkpt>
      <trkpt lat="42.62637" lon="0.92037">
        <ele>2128.98</ele>
        <time>2011-02-20T14:30:25Z</time>
      </trkpt>
      <trkpt lat="42.62638" lon="0.92038">
        <ele>2128.02</ele>
        <time>2011-02-20T14:30:26Z</time>
      </trkpt>
      <trkpt lat="42.62642" lon="0.92044">
        <ele>2126.57</ele>
        <time>2011-02-20T14:30:32Z</time>
      </trkpt>
      <trkpt lat="42.62644" lon="0.92049">
        <ele>2126.09</ele>
        <time>2011-02-20T14:30:48Z</time>
      </trkpt>
      <trkpt lat="42.62645" lon="0.9205">
        <ele>2125.61</ele>
        <time>2011-02-20T14:30:49Z</time>
      </trkpt>
      <trkpt lat="42.62648" lon="0.92055">
        <ele>2125.13</ele>
        <time>2011-02-20T14:30:54Z</time>
      </trkpt>
      <trkpt lat="42.62651" lon="0.92063">
        <ele>2125.61</ele>
        <time>2011-02-20T14:31:00Z</time>
      </trkpt>
      <trkpt lat="42.62656" lon="0.92077">
        <ele>2126.09</ele>
        <time>2011-02-20T14:31:11Z</time>
      </trkpt>
      <trkpt lat="42.62659" lon="0.92079">
        <ele>2126.57</ele>
        <time>2011-02-20T14:31:15Z</time>
      </trkpt>
      <trkpt lat="42.62666" lon="0.9209">
        <ele>2126.57</ele>
        <time>2011-02-20T14:31:25Z</time>
      </trkpt>
      <trkpt lat="42.6267" lon="0.92105">
        <ele>2127.53</ele>
        <time>2011-02-20T14:31:37Z</time>
      </trkpt>
      <trkpt lat="42.62671" lon="0.92112">
        <ele>2128.02</ele>
        <time>2011-02-20T14:31:42Z</time>
      </trkpt>
      <trkpt lat="42.62672" lon="0.92132">
        <ele>2128.98</ele>
        <time>2011-02-20T14:31:56Z</time>
      </trkpt>
      <trkpt lat="42.62675" lon="0.92139">
        <ele>2130.42</ele>
        <time>2011-02-20T14:32:01Z</time>
      </trkpt>
      <trkpt lat="42.62673" lon="0.92148">
        <ele>2131.86</ele>
        <time>2011-02-20T14:32:13Z</time>
      </trkpt>
      <trkpt lat="42.62673" lon="0.92148">
        <ele>2132.34</ele>
        <time>2011-02-20T14:32:14Z</time>
      </trkpt>
      <trkpt lat="42.62671" lon="0.92157">
        <ele>2134.74</ele>
        <time>2011-02-20T14:32:25Z</time>
      </trkpt>
      <trkpt lat="42.62667" lon="0.92161">
        <ele>2134.26</ele>
        <time>2011-02-20T14:32:29Z</time>
      </trkpt>
      <trkpt lat="42.62665" lon="0.92167">
        <ele>2134.26</ele>
        <time>2011-02-20T14:32:42Z</time>
      </trkpt>
      <trkpt lat="42.62663" lon="0.92167">
        <ele>2133.78</ele>
        <time>2011-02-20T14:32:52Z</time>
      </trkpt>
      <trkpt lat="42.62662" lon="0.92169">
        <ele>2133.3</ele>
        <time>2011-02-20T14:32:54Z</time>
      </trkpt>
      <trkpt lat="42.62656" lon="0.92175">
        <ele>2132.34</ele>
        <time>2011-02-20T14:33:04Z</time>
      </trkpt>
      <trkpt lat="42.6266" lon="0.92183">
        <ele>2131.86</ele>
        <time>2011-02-20T14:33:16Z</time>
      </trkpt>
      <trkpt lat="42.62663" lon="0.92188">
        <ele>2131.38</ele>
        <time>2011-02-20T14:33:26Z</time>
      </trkpt>
      <trkpt lat="42.62667" lon="0.92188">
        <ele>2131.38</ele>
        <time>2011-02-20T14:33:36Z</time>
      </trkpt>
      <trkpt lat="42.62668" lon="0.92192">
        <ele>2128.98</ele>
        <time>2011-02-20T14:33:45Z</time>
      </trkpt>
      <trkpt lat="42.62668" lon="0.92196">
        <ele>2128.5</ele>
        <time>2011-02-20T14:33:49Z</time>
      </trkpt>
      <trkpt lat="42.62667" lon="0.92198">
        <ele>2127.53</ele>
        <time>2011-02-20T14:33:51Z</time>
      </trkpt>
      <trkpt lat="42.62661" lon="0.92198">
        <ele>2125.61</ele>
        <time>2011-02-20T14:34:00Z</time>
      </trkpt>
      <trkpt lat="42.62654" lon="0.92193">
        <ele>2123.69</ele>
        <time>2011-02-20T14:34:13Z</time>
      </trkpt>
      <trkpt lat="42.62654" lon="0.92195">
        <ele>2123.21</ele>
        <time>2011-02-20T14:34:15Z</time>
      </trkpt>
      <trkpt lat="42.62653" lon="0.92199">
        <ele>2121.77</ele>
        <time>2011-02-20T14:34:18Z</time>
      </trkpt>
      <trkpt lat="42.62651" lon="0.922">
        <ele>2121.29</ele>
        <time>2011-02-20T14:34:22Z</time>
      </trkpt>
      <trkpt lat="42.62651" lon="0.92205">
        <ele>2121.29</ele>
        <time>2011-02-20T14:34:25Z</time>
      </trkpt>
      <trkpt lat="42.62653" lon="0.92208">
        <ele>2121.29</ele>
        <time>2011-02-20T14:34:37Z</time>
      </trkpt>
      <trkpt lat="42.62653" lon="0.92209">
        <ele>2120.81</ele>
        <time>2011-02-20T14:34:48Z</time>
      </trkpt>
      <trkpt lat="42.62653" lon="0.92207">
        <ele>2120.32</ele>
        <time>2011-02-20T14:34:50Z</time>
      </trkpt>
      <trkpt lat="42.62653" lon="0.92207">
        <ele>2123.21</ele>
        <time>2011-02-20T14:34:54Z</time>
      </trkpt>
      <trkpt lat="42.62653" lon="0.92207">
        <ele>2119.84</ele>
        <time>2011-02-20T14:34:57Z</time>
      </trkpt>
      <trkpt lat="42.62653" lon="0.92207">
        <ele>2119.36</ele>
        <time>2011-02-20T14:36:02Z</time>
      </trkpt>
      <trkpt lat="42.62653" lon="0.92208">
        <ele>2119.36</ele>
        <time>2011-02-20T14:38:19Z</time>
      </trkpt>
      <trkpt lat="42.62653" lon="0.92207">
        <ele>2116</ele>
        <time>2011-02-20T14:41:46Z</time>
      </trkpt>
      <trkpt lat="42.62654" lon="0.92208">
        <ele>2119.84</ele>
        <time>2011-02-20T14:41:47Z</time>
      </trkpt>
      <trkpt lat="42.62654" lon="0.92208">
        <ele>2116.48</ele>
        <time>2011-02-20T14:41:52Z</time>
      </trkpt>
      <trkpt lat="42.62654" lon="0.92208">
        <ele>2122.73</ele>
        <time>2011-02-20T14:41:54Z</time>
      </trkpt>
      <trkpt lat="42.62654" lon="0.92208">
        <ele>2121.29</ele>
        <time>2011-02-20T14:41:55Z</time>
      </trkpt>
      <trkpt lat="42.62654" lon="0.92208">
        <ele>2118.4</ele>
        <time>2011-02-20T14:41:58Z</time>
      </trkpt>
      <trkpt lat="42.62654" lon="0.92208">
        <ele>2120.81</ele>
        <time>2011-02-20T14:42:48Z</time>
      </trkpt>
      <trkpt lat="42.62655" lon="0.92207">
        <ele>2119.84</ele>
        <time>2011-02-20T14:43:14Z</time>
      </trkpt>
      <trkpt lat="42.62655" lon="0.92208">
        <ele>2120.32</ele>
        <time>2011-02-20T14:43:54Z</time>
      </trkpt>
      <trkpt lat="42.62654" lon="0.92209">
        <ele>2119.84</ele>
        <time>2011-02-20T14:44:14Z</time>
      </trkpt>
      <trkpt lat="42.62654" lon="0.92207">
        <ele>2120.32</ele>
        <time>2011-02-20T14:44:34Z</time>
      </trkpt>
      <trkpt lat="42.62653" lon="0.92207">
        <ele>2119.36</ele>
        <time>2011-02-20T14:45:29Z</time>
      </trkpt>
      <trkpt lat="42.62653" lon="0.92207">
        <ele>2120.32</ele>
        <time>2011-02-20T14:45:37Z</time>
      </trkpt>
      <trkpt lat="42.62653" lon="0.92207">
        <ele>2120.32</ele>
        <time>2011-02-20T14:46:10Z</time>
      </trkpt>
      <trkpt lat="42.62654" lon="0.92207">
        <ele>2119.84</ele>
        <time>2011-02-20T14:46:30Z</time>
      </trkpt>
      <trkpt lat="42.62654" lon="0.92208">
        <ele>2120.32</ele>
        <time>2011-02-20T14:46:48Z</time>
      </trkpt>
      <trkpt lat="42.62654" lon="0.92208">
        <ele>2119.84</ele>
        <time>2011-02-20T14:47:29Z</time>
      </trkpt>
      <trkpt lat="42.62654" lon="0.92208">
        <ele>2119.36</ele>
        <time>2011-02-20T14:48:21Z</time>
      </trkpt>
      <trkpt lat="42.6265" lon="0.9221">
        <ele>2118.4</ele>
        <time>2011-02-20T14:48:30Z</time>
      </trkpt>
      <trkpt lat="42.6265" lon="0.9221">
        <ele>2118.88</ele>
        <time>2011-02-20T14:48:39Z</time>
      </trkpt>
      <trkpt lat="42.62646" lon="0.92211">
        <ele>2116.48</ele>
        <time>2011-02-20T14:48:46Z</time>
      </trkpt>
      <trkpt lat="42.62646" lon="0.92215">
        <ele>2116.96</ele>
        <time>2011-02-20T14:48:52Z</time>
      </trkpt>
      <trkpt lat="42.62645" lon="0.92224">
        <ele>2116</ele>
        <time>2011-02-20T14:48:58Z</time>
      </trkpt>
      <trkpt lat="42.62643" lon="0.92239">
        <ele>2112.63</ele>
        <time>2011-02-20T14:49:01Z</time>
      </trkpt>
      <trkpt lat="42.62642" lon="0.9224">
        <ele>2111.67</ele>
        <time>2011-02-20T14:49:03Z</time>
      </trkpt>
      <trkpt lat="42.62642" lon="0.9224">
        <ele>2111.19</ele>
        <time>2011-02-20T14:49:07Z</time>
      </trkpt>
      <trkpt lat="42.62646" lon="0.92249">
        <ele>2108.79</ele>
        <time>2011-02-20T14:49:13Z</time>
      </trkpt>
      <trkpt lat="42.62646" lon="0.92248">
        <ele>2108.79</ele>
        <time>2011-02-20T14:49:15Z</time>
      </trkpt>
      <trkpt lat="42.62657" lon="0.92248">
        <ele>2105.91</ele>
        <time>2011-02-20T14:49:22Z</time>
      </trkpt>
      <trkpt lat="42.62657" lon="0.92247">
        <ele>2106.39</ele>
        <time>2011-02-20T14:49:23Z</time>
      </trkpt>
      <trkpt lat="42.62668" lon="0.92236">
        <ele>2102.54</ele>
        <time>2011-02-20T14:49:30Z</time>
      </trkpt>
      <trkpt lat="42.62671" lon="0.92236">
        <ele>2103.02</ele>
        <time>2011-02-20T14:49:35Z</time>
      </trkpt>
      <trkpt lat="42.62673" lon="0.92243">
        <ele>2101.58</ele>
        <time>2011-02-20T14:49:38Z</time>
      </trkpt>
      <trkpt lat="42.6267" lon="0.92255">
        <ele>2098.7</ele>
        <time>2011-02-20T14:49:41Z</time>
      </trkpt>
      <trkpt lat="42.62669" lon="0.92271">
        <ele>2098.7</ele>
        <time>2011-02-20T14:49:49Z</time>
      </trkpt>
      <trkpt lat="42.62675" lon="0.92286">
        <ele>2098.21</ele>
        <time>2011-02-20T14:50:02Z</time>
      </trkpt>
      <trkpt lat="42.62676" lon="0.92293">
        <ele>2098.21</ele>
        <time>2011-02-20T14:50:13Z</time>
      </trkpt>
      <trkpt lat="42.62679" lon="0.92299">
        <ele>2096.77</ele>
        <time>2011-02-20T14:50:21Z</time>
      </trkpt>
      <trkpt lat="42.6268" lon="0.92303">
        <ele>2097.25</ele>
        <time>2011-02-20T14:50:29Z</time>
      </trkpt>
      <trkpt lat="42.62681" lon="0.92306">
        <ele>2097.73</ele>
        <time>2011-02-20T14:50:38Z</time>
      </trkpt>
      <trkpt lat="42.62683" lon="0.92307">
        <ele>2097.25</ele>
        <time>2011-02-20T14:50:49Z</time>
      </trkpt>
      <trkpt lat="42.62684" lon="0.92307">
        <ele>2097.25</ele>
        <time>2011-02-20T14:51:37Z</time>
      </trkpt>
      <trkpt lat="42.62694" lon="0.92329">
        <ele>2094.37</ele>
        <time>2011-02-20T14:52:00Z</time>
      </trkpt>
      <trkpt lat="42.62695" lon="0.9233">
        <ele>2093.89</ele>
        <time>2011-02-20T14:52:10Z</time>
      </trkpt>
      <trkpt lat="42.62698" lon="0.92331">
        <ele>2093.41</ele>
        <time>2011-02-20T14:52:19Z</time>
      </trkpt>
      <trkpt lat="42.627" lon="0.92329">
        <ele>2092.93</ele>
        <time>2011-02-20T14:52:30Z</time>
      </trkpt>
      <trkpt lat="42.62702" lon="0.92326">
        <ele>2093.41</ele>
        <time>2011-02-20T14:52:39Z</time>
      </trkpt>
      <trkpt lat="42.62705" lon="0.92324">
        <ele>2092.93</ele>
        <time>2011-02-20T14:52:49Z</time>
      </trkpt>
      <trkpt lat="42.62707" lon="0.92324">
        <ele>2091.49</ele>
        <time>2011-02-20T14:53:02Z</time>
      </trkpt>
      <trkpt lat="42.62709" lon="0.92325">
        <ele>2091.49</ele>
        <time>2011-02-20T14:53:28Z</time>
      </trkpt>
      <trkpt lat="42.62713" lon="0.92321">
        <ele>2091</ele>
        <time>2011-02-20T14:53:40Z</time>
      </trkpt>
      <trkpt lat="42.62716" lon="0.92317">
        <ele>2088.6</ele>
        <time>2011-02-20T14:53:52Z</time>
      </trkpt>
      <trkpt lat="42.6272" lon="0.92313">
        <ele>2086.68</ele>
        <time>2011-02-20T14:54:03Z</time>
      </trkpt>
      <trkpt lat="42.62726" lon="0.92307">
        <ele>2084.76</ele>
        <time>2011-02-20T14:54:14Z</time>
      </trkpt>
      <trkpt lat="42.6273" lon="0.92305">
        <ele>2083.31</ele>
        <time>2011-02-20T14:54:22Z</time>
      </trkpt>
      <trkpt lat="42.62732" lon="0.92301">
        <ele>2081.87</ele>
        <time>2011-02-20T14:54:41Z</time>
      </trkpt>
      <trkpt lat="42.62734" lon="0.923">
        <ele>2081.87</ele>
        <time>2011-02-20T14:54:53Z</time>
      </trkpt>
      <trkpt lat="42.62736" lon="0.92299">
        <ele>2081.87</ele>
        <time>2011-02-20T14:54:56Z</time>
      </trkpt>
      <trkpt lat="42.62741" lon="0.92302">
        <ele>2079.95</ele>
        <time>2011-02-20T14:54:59Z</time>
      </trkpt>
      <trkpt lat="42.62744" lon="0.92307">
        <ele>2078.51</ele>
        <time>2011-02-20T14:55:03Z</time>
      </trkpt>
      <trkpt lat="42.62746" lon="0.92318">
        <ele>2075.62</ele>
        <time>2011-02-20T14:55:08Z</time>
      </trkpt>
      <trkpt lat="42.62747" lon="0.92319">
        <ele>2075.14</ele>
        <time>2011-02-20T14:55:11Z</time>
      </trkpt>
      <trkpt lat="42.62756" lon="0.92332">
        <ele>2070.34</ele>
        <time>2011-02-20T14:55:15Z</time>
      </trkpt>
      <trkpt lat="42.6276" lon="0.92339">
        <ele>2067.45</ele>
        <time>2011-02-20T14:55:18Z</time>
      </trkpt>
      <trkpt lat="42.62762" lon="0.9234">
        <ele>2066.97</ele>
        <time>2011-02-20T14:55:27Z</time>
      </trkpt>
      <trkpt lat="42.62763" lon="0.92341">
        <ele>2066.01</ele>
        <time>2011-02-20T14:55:39Z</time>
      </trkpt>
      <trkpt lat="42.62768" lon="0.92352">
        <ele>2057.84</ele>
        <time>2011-02-20T14:55:51Z</time>
      </trkpt>
      <trkpt lat="42.62768" lon="0.92352">
        <ele>2066.01</ele>
        <time>2011-02-20T14:55:52Z</time>
      </trkpt>
      <trkpt lat="42.62774" lon="0.92357">
        <ele>2065.53</ele>
        <time>2011-02-20T14:56:02Z</time>
      </trkpt>
      <trkpt lat="42.62774" lon="0.92359">
        <ele>2065.05</ele>
        <time>2011-02-20T14:56:06Z</time>
      </trkpt>
      <trkpt lat="42.62777" lon="0.92369">
        <ele>2064.09</ele>
        <time>2011-02-20T14:56:18Z</time>
      </trkpt>
      <trkpt lat="42.62778" lon="0.92377">
        <ele>2063.13</ele>
        <time>2011-02-20T14:56:32Z</time>
      </trkpt>
      <trkpt lat="42.6278" lon="0.9238">
        <ele>2062.65</ele>
        <time>2011-02-20T14:56:40Z</time>
      </trkpt>
      <trkpt lat="42.62781" lon="0.92381">
        <ele>2062.17</ele>
        <time>2011-02-20T14:56:53Z</time>
      </trkpt>
      <trkpt lat="42.6279" lon="0.92385">
        <ele>2061.2</ele>
        <time>2011-02-20T14:57:10Z</time>
      </trkpt>
      <trkpt lat="42.62793" lon="0.92386">
        <ele>2060.72</ele>
        <time>2011-02-20T14:57:15Z</time>
      </trkpt>
      <trkpt lat="42.62797" lon="0.92387">
        <ele>2060.24</ele>
        <time>2011-02-20T14:57:18Z</time>
      </trkpt>
      <trkpt lat="42.628" lon="0.92388">
        <ele>2060.24</ele>
        <time>2011-02-20T14:57:22Z</time>
      </trkpt>
      <trkpt lat="42.6281" lon="0.92395">
        <ele>2059.28</ele>
        <time>2011-02-20T14:57:32Z</time>
      </trkpt>
      <trkpt lat="42.62811" lon="0.92399">
        <ele>2059.28</ele>
        <time>2011-02-20T14:57:44Z</time>
      </trkpt>
      <trkpt lat="42.62816" lon="0.92405">
        <ele>2058.32</ele>
        <time>2011-02-20T14:57:55Z</time>
      </trkpt>
      <trkpt lat="42.6282" lon="0.92408">
        <ele>2057.84</ele>
        <time>2011-02-20T14:58:10Z</time>
      </trkpt>
      <trkpt lat="42.62831" lon="0.92421">
        <ele>2055.92</ele>
        <time>2011-02-20T14:58:20Z</time>
      </trkpt>
      <trkpt lat="42.62832" lon="0.92423">
        <ele>2056.4</ele>
        <time>2011-02-20T14:58:37Z</time>
      </trkpt>
      <trkpt lat="42.62833" lon="0.92423">
        <ele>2056.4</ele>
        <time>2011-02-20T14:59:12Z</time>
      </trkpt>
      <trkpt lat="42.62835" lon="0.92427">
        <ele>2056.4</ele>
        <time>2011-02-20T14:59:28Z</time>
      </trkpt>
      <trkpt lat="42.62835" lon="0.92426">
        <ele>2056.4</ele>
        <time>2011-02-20T15:00:00Z</time>
      </trkpt>
      <trkpt lat="42.62841" lon="0.92428">
        <ele>2054.47</ele>
        <time>2011-02-20T15:00:05Z</time>
      </trkpt>
      <trkpt lat="42.62842" lon="0.92429">
        <ele>2054.47</ele>
        <time>2011-02-20T15:00:10Z</time>
      </trkpt>
      <trkpt lat="42.62863" lon="0.92431">
        <ele>2050.63</ele>
        <time>2011-02-20T15:00:15Z</time>
      </trkpt>
      <trkpt lat="42.62871" lon="0.92438">
        <ele>2049.19</ele>
        <time>2011-02-20T15:00:17Z</time>
      </trkpt>
      <trkpt lat="42.62894" lon="0.9246">
        <ele>2046.3</ele>
        <time>2011-02-20T15:00:25Z</time>
      </trkpt>
      <trkpt lat="42.62899" lon="0.92465">
        <ele>2046.3</ele>
        <time>2011-02-20T15:00:27Z</time>
      </trkpt>
      <trkpt lat="42.62905" lon="0.92471">
        <ele>2045.82</ele>
        <time>2011-02-20T15:00:29Z</time>
      </trkpt>
      <trkpt lat="42.62909" lon="0.92479">
        <ele>2045.34</ele>
        <time>2011-02-20T15:00:39Z</time>
      </trkpt>
      <trkpt lat="42.62912" lon="0.92486">
        <ele>2045.34</ele>
        <time>2011-02-20T15:00:44Z</time>
      </trkpt>
      <trkpt lat="42.6293" lon="0.92502">
        <ele>2043.9</ele>
        <time>2011-02-20T15:00:55Z</time>
      </trkpt>
      <trkpt lat="42.62934" lon="0.92509">
        <ele>2043.42</ele>
        <time>2011-02-20T15:01:05Z</time>
      </trkpt>
      <trkpt lat="42.62936" lon="0.92516">
        <ele>2043.9</ele>
        <time>2011-02-20T15:01:17Z</time>
      </trkpt>
      <trkpt lat="42.62938" lon="0.92519">
        <ele>2044.86</ele>
        <time>2011-02-20T15:01:21Z</time>
      </trkpt>
      <trkpt lat="42.62947" lon="0.92529">
        <ele>2043.9</ele>
        <time>2011-02-20T15:01:32Z</time>
      </trkpt>
      <trkpt lat="42.62948" lon="0.92528">
        <ele>2043.9</ele>
        <time>2011-02-20T15:01:42Z</time>
      </trkpt>
      <trkpt lat="42.62958" lon="0.9252">
        <ele>2043.9</ele>
        <time>2011-02-20T15:01:54Z</time>
      </trkpt>
      <trkpt lat="42.62961" lon="0.92518">
        <ele>2044.38</ele>
        <time>2011-02-20T15:01:57Z</time>
      </trkpt>
      <trkpt lat="42.62962" lon="0.92516">
        <ele>2043.42</ele>
        <time>2011-02-20T15:01:59Z</time>
      </trkpt>
      <trkpt lat="42.62977" lon="0.92508">
        <ele>2043.42</ele>
        <time>2011-02-20T15:02:12Z</time>
      </trkpt>
      <trkpt lat="42.62989" lon="0.92496">
        <ele>2042.94</ele>
        <time>2011-02-20T15:02:25Z</time>
      </trkpt>
      <trkpt lat="42.62992" lon="0.92492">
        <ele>2044.38</ele>
        <time>2011-02-20T15:02:34Z</time>
      </trkpt>
      <trkpt lat="42.62997" lon="0.92474">
        <ele>2043.42</ele>
        <time>2011-02-20T15:02:47Z</time>
      </trkpt>
      <trkpt lat="42.62998" lon="0.92473">
        <ele>2043.9</ele>
        <time>2011-02-20T15:02:48Z</time>
      </trkpt>
      <trkpt lat="42.63005" lon="0.92455">
        <ele>2044.38</ele>
        <time>2011-02-20T15:03:02Z</time>
      </trkpt>
      <trkpt lat="42.63011" lon="0.9244">
        <ele>2043.42</ele>
        <time>2011-02-20T15:03:15Z</time>
      </trkpt>
      <trkpt lat="42.63019" lon="0.92427">
        <ele>2043.42</ele>
        <time>2011-02-20T15:03:28Z</time>
      </trkpt>
      <trkpt lat="42.63023" lon="0.9242">
        <ele>2043.9</ele>
        <time>2011-02-20T15:03:38Z</time>
      </trkpt>
      <trkpt lat="42.63028" lon="0.92409">
        <ele>2043.9</ele>
        <time>2011-02-20T15:03:49Z</time>
      </trkpt>
      <trkpt lat="42.63033" lon="0.92398">
        <ele>2044.38</ele>
        <time>2011-02-20T15:04:01Z</time>
      </trkpt>
      <trkpt lat="42.63039" lon="0.92383">
        <ele>2043.9</ele>
        <time>2011-02-20T15:04:12Z</time>
      </trkpt>
      <trkpt lat="42.63039" lon="0.92381">
        <ele>2042.94</ele>
        <time>2011-02-20T15:04:25Z</time>
      </trkpt>
      <trkpt lat="42.63041" lon="0.92377">
        <ele>2043.9</ele>
        <time>2011-02-20T15:04:35Z</time>
      </trkpt>
      <trkpt lat="42.63041" lon="0.92366">
        <ele>2044.86</ele>
        <time>2011-02-20T15:04:45Z</time>
      </trkpt>
      <trkpt lat="42.63046" lon="0.9236">
        <ele>2043.9</ele>
        <time>2011-02-20T15:04:59Z</time>
      </trkpt>
      <trkpt lat="42.63046" lon="0.9236">
        <ele>2044.38</ele>
        <time>2011-02-20T15:05:05Z</time>
      </trkpt>
      <trkpt lat="42.63046" lon="0.92353">
        <ele>2043.42</ele>
        <time>2011-02-20T15:05:17Z</time>
      </trkpt>
      <trkpt lat="42.63046" lon="0.92352">
        <ele>2043.42</ele>
        <time>2011-02-20T15:05:28Z</time>
      </trkpt>
      <trkpt lat="42.63047" lon="0.92348">
        <ele>2042.46</ele>
        <time>2011-02-20T15:05:32Z</time>
      </trkpt>
      <trkpt lat="42.6305" lon="0.92341">
        <ele>2041.98</ele>
        <time>2011-02-20T15:05:37Z</time>
      </trkpt>
      <trkpt lat="42.63051" lon="0.92338">
        <ele>2040.54</ele>
        <time>2011-02-20T15:05:46Z</time>
      </trkpt>
      <trkpt lat="42.63051" lon="0.92337">
        <ele>2040.05</ele>
        <time>2011-02-20T15:05:48Z</time>
      </trkpt>
      <trkpt lat="42.63051" lon="0.92334">
        <ele>2040.05</ele>
        <time>2011-02-20T15:06:01Z</time>
      </trkpt>
      <trkpt lat="42.63051" lon="0.92329">
        <ele>2039.09</ele>
        <time>2011-02-20T15:06:14Z</time>
      </trkpt>
      <trkpt lat="42.63054" lon="0.92323">
        <ele>2037.65</ele>
        <time>2011-02-20T15:06:20Z</time>
      </trkpt>
      <trkpt lat="42.63057" lon="0.92317">
        <ele>2037.65</ele>
        <time>2011-02-20T15:06:31Z</time>
      </trkpt>
      <trkpt lat="42.63058" lon="0.92317">
        <ele>2037.17</ele>
        <time>2011-02-20T15:06:35Z</time>
      </trkpt>
      <trkpt lat="42.63059" lon="0.92316">
        <ele>2036.69</ele>
        <time>2011-02-20T15:06:47Z</time>
      </trkpt>
      <trkpt lat="42.63058" lon="0.92317">
        <ele>2035.25</ele>
        <time>2011-02-20T15:06:54Z</time>
      </trkpt>
      <trkpt lat="42.63055" lon="0.92314">
        <ele>2034.29</ele>
        <time>2011-02-20T15:06:59Z</time>
      </trkpt>
      <trkpt lat="42.63049" lon="0.92299">
        <ele>2031.88</ele>
        <time>2011-02-20T15:07:04Z</time>
      </trkpt>
      <trkpt lat="42.63053" lon="0.92297">
        <ele>2029.96</ele>
        <time>2011-02-20T15:07:09Z</time>
      </trkpt>
      <trkpt lat="42.63053" lon="0.92296">
        <ele>2030.44</ele>
        <time>2011-02-20T15:07:10Z</time>
      </trkpt>
      <trkpt lat="42.63059" lon="0.92285">
        <ele>2028.52</ele>
        <time>2011-02-20T15:07:16Z</time>
      </trkpt>
      <trkpt lat="42.63064" lon="0.92272">
        <ele>2026.12</ele>
        <time>2011-02-20T15:07:23Z</time>
      </trkpt>
      <trkpt lat="42.63066" lon="0.92268">
        <ele>2025.64</ele>
        <time>2011-02-20T15:07:34Z</time>
      </trkpt>
      <trkpt lat="42.63067" lon="0.92266">
        <ele>2025.15</ele>
        <time>2011-02-20T15:07:59Z</time>
      </trkpt>
      <trkpt lat="42.63068" lon="0.92265">
        <ele>2024.67</ele>
        <time>2011-02-20T15:08:25Z</time>
      </trkpt>
      <trkpt lat="42.6308" lon="0.92256">
        <ele>2022.27</ele>
        <time>2011-02-20T15:08:31Z</time>
      </trkpt>
      <trkpt lat="42.63079" lon="0.92255">
        <ele>2022.75</ele>
        <time>2011-02-20T15:08:33Z</time>
      </trkpt>
      <trkpt lat="42.63085" lon="0.92248">
        <ele>2020.35</ele>
        <time>2011-02-20T15:08:37Z</time>
      </trkpt>
      <trkpt lat="42.63088" lon="0.92245">
        <ele>2019.39</ele>
        <time>2011-02-20T15:08:45Z</time>
      </trkpt>
      <trkpt lat="42.63092" lon="0.92235">
        <ele>2016.98</ele>
        <time>2011-02-20T15:08:49Z</time>
      </trkpt>
      <trkpt lat="42.63091" lon="0.92233">
        <ele>2016.02</ele>
        <time>2011-02-20T15:08:52Z</time>
      </trkpt>
      <trkpt lat="42.63083" lon="0.92225">
        <ele>2013.14</ele>
        <time>2011-02-20T15:08:58Z</time>
      </trkpt>
      <trkpt lat="42.63083" lon="0.92225">
        <ele>2013.62</ele>
        <time>2011-02-20T15:09:17Z</time>
      </trkpt>
      <trkpt lat="42.63083" lon="0.92225">
        <ele>2012.66</ele>
        <time>2011-02-20T15:09:19Z</time>
      </trkpt>
      <trkpt lat="42.63091" lon="0.92215">
        <ele>2009.77</ele>
        <time>2011-02-20T15:09:24Z</time>
      </trkpt>
      <trkpt lat="42.63101" lon="0.92205">
        <ele>2005.93</ele>
        <time>2011-02-20T15:09:28Z</time>
      </trkpt>
      <trkpt lat="42.6311" lon="0.92202">
        <ele>2004.01</ele>
        <time>2011-02-20T15:09:31Z</time>
      </trkpt>
      <trkpt lat="42.63118" lon="0.92201">
        <ele>2003.04</ele>
        <time>2011-02-20T15:09:37Z</time>
      </trkpt>
      <trkpt lat="42.63125" lon="0.92202">
        <ele>2002.08</ele>
        <time>2011-02-20T15:09:56Z</time>
      </trkpt>
      <trkpt lat="42.63127" lon="0.92203">
        <ele>2001.6</ele>
        <time>2011-02-20T15:10:05Z</time>
      </trkpt>
      <trkpt lat="42.63133" lon="0.92201">
        <ele>2000.64</ele>
        <time>2011-02-20T15:10:13Z</time>
      </trkpt>
      <trkpt lat="42.63146" lon="0.92199">
        <ele>1998.72</ele>
        <time>2011-02-20T15:10:21Z</time>
      </trkpt>
      <trkpt lat="42.63149" lon="0.92183">
        <ele>1995.35</ele>
        <time>2011-02-20T15:10:26Z</time>
      </trkpt>
      <trkpt lat="42.63155" lon="0.92173">
        <ele>1991.51</ele>
        <time>2011-02-20T15:10:29Z</time>
      </trkpt>
      <trkpt lat="42.63156" lon="0.9217">
        <ele>1991.03</ele>
        <time>2011-02-20T15:10:30Z</time>
      </trkpt>
      <trkpt lat="42.63157" lon="0.92169">
        <ele>1989.59</ele>
        <time>2011-02-20T15:10:33Z</time>
      </trkpt>
      <trkpt lat="42.63162" lon="0.92162">
        <ele>1988.14</ele>
        <time>2011-02-20T15:10:51Z</time>
      </trkpt>
      <trkpt lat="42.63164" lon="0.92156">
        <ele>1986.22</ele>
        <time>2011-02-20T15:10:55Z</time>
      </trkpt>
      <trkpt lat="42.63166" lon="0.92155">
        <ele>1985.74</ele>
        <time>2011-02-20T15:11:06Z</time>
      </trkpt>
      <trkpt lat="42.63165" lon="0.92157">
        <ele>1986.22</ele>
        <time>2011-02-20T15:11:09Z</time>
      </trkpt>
      <trkpt lat="42.63164" lon="0.92145">
        <ele>1983.34</ele>
        <time>2011-02-20T15:11:13Z</time>
      </trkpt>
      <trkpt lat="42.63176" lon="0.92133">
        <ele>1979.97</ele>
        <time>2011-02-20T15:11:16Z</time>
      </trkpt>
      <trkpt lat="42.63205" lon="0.92123">
        <ele>1976.61</ele>
        <time>2011-02-20T15:11:26Z</time>
      </trkpt>
      <trkpt lat="42.63211" lon="0.92123">
        <ele>1975.17</ele>
        <time>2011-02-20T15:11:29Z</time>
      </trkpt>
      <trkpt lat="42.63212" lon="0.92123">
        <ele>1975.65</ele>
        <time>2011-02-20T15:11:58Z</time>
      </trkpt>
      <trkpt lat="42.63212" lon="0.92124">
        <ele>1976.13</ele>
        <time>2011-02-20T15:12:19Z</time>
      </trkpt>
      <trkpt lat="42.6323" lon="0.92136">
        <ele>1974.69</ele>
        <time>2011-02-20T15:12:27Z</time>
      </trkpt>
      <trkpt lat="42.6327" lon="0.92132">
        <ele>1971.32</ele>
        <time>2011-02-20T15:12:37Z</time>
      </trkpt>
      <trkpt lat="42.63276" lon="0.92121">
        <ele>1971.8</ele>
        <time>2011-02-20T15:12:42Z</time>
      </trkpt>
      <trkpt lat="42.63301" lon="0.92067">
        <ele>1969.88</ele>
        <time>2011-02-20T15:12:59Z</time>
      </trkpt>
      <trkpt lat="42.63332" lon="0.92047">
        <ele>1968.92</ele>
        <time>2011-02-20T15:13:11Z</time>
      </trkpt>
      <trkpt lat="42.63361" lon="0.92039">
        <ele>1967.48</ele>
        <time>2011-02-20T15:13:21Z</time>
      </trkpt>
      <trkpt lat="42.63377" lon="0.92039">
        <ele>1966.03</ele>
        <time>2011-02-20T15:13:24Z</time>
      </trkpt>
      <trkpt lat="42.63414" lon="0.92041">
        <ele>1962.19</ele>
        <time>2011-02-20T15:13:30Z</time>
      </trkpt>
      <trkpt lat="42.63427" lon="0.92044">
        <ele>1960.75</ele>
        <time>2011-02-20T15:13:32Z</time>
      </trkpt>
      <trkpt lat="42.63447" lon="0.92061">
        <ele>1957.38</ele>
        <time>2011-02-20T15:13:36Z</time>
      </trkpt>
      <trkpt lat="42.63449" lon="0.92069">
        <ele>1957.38</ele>
        <time>2011-02-20T15:13:37Z</time>
      </trkpt>
      <trkpt lat="42.63452" lon="0.92116">
        <ele>1953.54</ele>
        <time>2011-02-20T15:13:43Z</time>
      </trkpt>
      <trkpt lat="42.63457" lon="0.92129">
        <ele>1952.57</ele>
        <time>2011-02-20T15:13:45Z</time>
      </trkpt>
      <trkpt lat="42.63464" lon="0.92141">
        <ele>1952.09</ele>
        <time>2011-02-20T15:13:47Z</time>
      </trkpt>
      <trkpt lat="42.63483" lon="0.92157">
        <ele>1949.69</ele>
        <time>2011-02-20T15:13:51Z</time>
      </trkpt>
      <trkpt lat="42.63502" lon="0.92151">
        <ele>1947.29</ele>
        <time>2011-02-20T15:13:54Z</time>
      </trkpt>
      <trkpt lat="42.63537" lon="0.92153">
        <ele>1943.44</ele>
        <time>2011-02-20T15:14:01Z</time>
      </trkpt>
      <trkpt lat="42.63537" lon="0.92152">
        <ele>1942.48</ele>
        <time>2011-02-20T15:14:05Z</time>
      </trkpt>
      <trkpt lat="42.63547" lon="0.92161">
        <ele>1941.52</ele>
        <time>2011-02-20T15:14:10Z</time>
      </trkpt>
      <trkpt lat="42.63554" lon="0.9217">
        <ele>1940.08</ele>
        <time>2011-02-20T15:14:12Z</time>
      </trkpt>
      <trkpt lat="42.63562" lon="0.92179">
        <ele>1939.12</ele>
        <time>2011-02-20T15:14:14Z</time>
      </trkpt>
      <trkpt lat="42.63582" lon="0.92192">
        <ele>1936.23</ele>
        <time>2011-02-20T15:14:18Z</time>
      </trkpt>
      <trkpt lat="42.63586" lon="0.92197">
        <ele>1935.75</ele>
        <time>2011-02-20T15:14:19Z</time>
      </trkpt>
      <trkpt lat="42.63601" lon="0.92213">
        <ele>1933.83</ele>
        <time>2011-02-20T15:14:22Z</time>
      </trkpt>
      <trkpt lat="42.63625" lon="0.92233">
        <ele>1931.43</ele>
        <time>2011-02-20T15:14:26Z</time>
      </trkpt>
      <trkpt lat="42.63649" lon="0.92255">
        <ele>1928.54</ele>
        <time>2011-02-20T15:14:30Z</time>
      </trkpt>
      <trkpt lat="42.63678" lon="0.92312">
        <ele>1924.7</ele>
        <time>2011-02-20T15:14:37Z</time>
      </trkpt>
      <trkpt lat="42.63665" lon="0.92375">
        <ele>1922.29</ele>
        <time>2011-02-20T15:14:46Z</time>
      </trkpt>
      <trkpt lat="42.63654" lon="0.92382">
        <ele>1920.85</ele>
        <time>2011-02-20T15:14:49Z</time>
      </trkpt>
      <trkpt lat="42.63647" lon="0.92387">
        <ele>1921.33</ele>
        <time>2011-02-20T15:14:51Z</time>
      </trkpt>
      <trkpt lat="42.63633" lon="0.92413">
        <ele>1919.41</ele>
        <time>2011-02-20T15:14:57Z</time>
      </trkpt>
      <trkpt lat="42.63631" lon="0.92449">
        <ele>1917.97</ele>
        <time>2011-02-20T15:15:03Z</time>
      </trkpt>
      <trkpt lat="42.63622" lon="0.92472">
        <ele>1917.01</ele>
        <time>2011-02-20T15:15:07Z</time>
      </trkpt>
      <trkpt lat="42.63614" lon="0.9248">
        <ele>1916.04</ele>
        <time>2011-02-20T15:15:09Z</time>
      </trkpt>
      <trkpt lat="42.636" lon="0.92497">
        <ele>1913.16</ele>
        <time>2011-02-20T15:15:13Z</time>
      </trkpt>
      <trkpt lat="42.63602" lon="0.92525">
        <ele>1911.72</ele>
        <time>2011-02-20T15:15:18Z</time>
      </trkpt>
      <trkpt lat="42.63605" lon="0.92531">
        <ele>1911.24</ele>
        <time>2011-02-20T15:15:19Z</time>
      </trkpt>
      <trkpt lat="42.63615" lon="0.9255">
        <ele>1909.8</ele>
        <time>2011-02-20T15:15:22Z</time>
      </trkpt>
      <trkpt lat="42.63634" lon="0.92577">
        <ele>1907.87</ele>
        <time>2011-02-20T15:15:27Z</time>
      </trkpt>
      <trkpt lat="42.63648" lon="0.92593">
        <ele>1906.43</ele>
        <time>2011-02-20T15:15:31Z</time>
      </trkpt>
      <trkpt lat="42.63682" lon="0.92607">
        <ele>1905.95</ele>
        <time>2011-02-20T15:15:41Z</time>
      </trkpt>
      <trkpt lat="42.63698" lon="0.92599">
        <ele>1904.51</ele>
        <time>2011-02-20T15:15:45Z</time>
      </trkpt>
      <trkpt lat="42.63712" lon="0.92594">
        <ele>1903.07</ele>
        <time>2011-02-20T15:15:48Z</time>
      </trkpt>
      <trkpt lat="42.63722" lon="0.92598">
        <ele>1903.07</ele>
        <time>2011-02-20T15:15:50Z</time>
      </trkpt>
      <trkpt lat="42.63739" lon="0.9261">
        <ele>1900.18</ele>
        <time>2011-02-20T15:15:54Z</time>
      </trkpt>
      <trkpt lat="42.63737" lon="0.92642">
        <ele>1897.78</ele>
        <time>2011-02-20T15:16:02Z</time>
      </trkpt>
      <trkpt lat="42.63733" lon="0.92644">
        <ele>1897.78</ele>
        <time>2011-02-20T15:16:03Z</time>
      </trkpt>
      <trkpt lat="42.63714" lon="0.92659">
        <ele>1895.86</ele>
        <time>2011-02-20T15:16:08Z</time>
      </trkpt>
      <trkpt lat="42.63699" lon="0.92683">
        <ele>1893.45</ele>
        <time>2011-02-20T15:16:13Z</time>
      </trkpt>
      <trkpt lat="42.63686" lon="0.92702">
        <ele>1890.57</ele>
        <time>2011-02-20T15:16:17Z</time>
      </trkpt>
      <trkpt lat="42.63683" lon="0.92706">
        <ele>1890.57</ele>
        <time>2011-02-20T15:16:18Z</time>
      </trkpt>
      <trkpt lat="42.63677" lon="0.92714">
        <ele>1890.09</ele>
        <time>2011-02-20T15:16:20Z</time>
      </trkpt>
      <trkpt lat="42.63661" lon="0.92728">
        <ele>1887.69</ele>
        <time>2011-02-20T15:16:24Z</time>
      </trkpt>
      <trkpt lat="42.63649" lon="0.92741">
        <ele>1886.24</ele>
        <time>2011-02-20T15:16:27Z</time>
      </trkpt>
      <trkpt lat="42.63636" lon="0.92771">
        <ele>1882.88</ele>
        <time>2011-02-20T15:16:32Z</time>
      </trkpt>
      <trkpt lat="42.63623" lon="0.92806">
        <ele>1879.03</ele>
        <time>2011-02-20T15:16:39Z</time>
      </trkpt>
      <trkpt lat="42.63642" lon="0.92815">
        <ele>1876.15</ele>
        <time>2011-02-20T15:16:44Z</time>
      </trkpt>
      <trkpt lat="42.63681" lon="0.92786">
        <ele>1873.75</ele>
        <time>2011-02-20T15:16:53Z</time>
      </trkpt>
      <trkpt lat="42.63693" lon="0.92777">
        <ele>1872.3</ele>
        <time>2011-02-20T15:16:56Z</time>
      </trkpt>
      <trkpt lat="42.63702" lon="0.92773">
        <ele>1872.79</ele>
        <time>2011-02-20T15:16:58Z</time>
      </trkpt>
      <trkpt lat="42.63716" lon="0.92772">
        <ele>1870.86</ele>
        <time>2011-02-20T15:17:01Z</time>
      </trkpt>
      <trkpt lat="42.63736" lon="0.92802">
        <ele>1869.9</ele>
        <time>2011-02-20T15:17:09Z</time>
      </trkpt>
      <trkpt lat="42.63736" lon="0.92818">
        <ele>1868.46</ele>
        <time>2011-02-20T15:17:12Z</time>
      </trkpt>
      <trkpt lat="42.63744" lon="0.92845">
        <ele>1868.46</ele>
        <time>2011-02-20T15:17:17Z</time>
      </trkpt>
      <trkpt lat="42.63768" lon="0.92863">
        <ele>1865.58</ele>
        <time>2011-02-20T15:17:23Z</time>
      </trkpt>
      <trkpt lat="42.63782" lon="0.92883">
        <ele>1864.61</ele>
        <time>2011-02-20T15:17:27Z</time>
      </trkpt>
      <trkpt lat="42.63789" lon="0.92909">
        <ele>1862.69</ele>
        <time>2011-02-20T15:17:31Z</time>
      </trkpt>
      <trkpt lat="42.63788" lon="0.92936">
        <ele>1861.25</ele>
        <time>2011-02-20T15:17:35Z</time>
      </trkpt>
      <trkpt lat="42.63799" lon="0.92979">
        <ele>1861.25</ele>
        <time>2011-02-20T15:17:44Z</time>
      </trkpt>
      <trkpt lat="42.63819" lon="0.93009">
        <ele>1860.77</ele>
        <time>2011-02-20T15:17:52Z</time>
      </trkpt>
      <trkpt lat="42.63841" lon="0.93026">
        <ele>1860.29</ele>
        <time>2011-02-20T15:18:01Z</time>
      </trkpt>
      <trkpt lat="42.63843" lon="0.93026">
        <ele>1859.81</ele>
        <time>2011-02-20T15:18:02Z</time>
      </trkpt>
      <trkpt lat="42.63853" lon="0.93029">
        <ele>1858.85</ele>
        <time>2011-02-20T15:18:06Z</time>
      </trkpt>
      <trkpt lat="42.63862" lon="0.93027">
        <ele>1857.89</ele>
        <time>2011-02-20T15:18:19Z</time>
      </trkpt>
      <trkpt lat="42.63862" lon="0.93027">
        <ele>1857.89</ele>
        <time>2011-02-20T15:18:52Z</time>
      </trkpt>
      <trkpt lat="42.63862" lon="0.93026">
        <ele>1857.4</ele>
        <time>2011-02-20T15:19:10Z</time>
      </trkpt>
      <trkpt lat="42.63862" lon="0.93026">
        <ele>1857.89</ele>
        <time>2011-02-20T15:19:47Z</time>
      </trkpt>
      <trkpt lat="42.63862" lon="0.93026">
        <ele>1858.37</ele>
        <time>2011-02-20T15:20:09Z</time>
      </trkpt>
      <trkpt lat="42.63862" lon="0.93025">
        <ele>1857.4</ele>
        <time>2011-02-20T15:20:28Z</time>
      </trkpt>
      <trkpt lat="42.63862" lon="0.93026">
        <ele>1857.4</ele>
        <time>2011-02-20T15:20:58Z</time>
      </trkpt>
      <trkpt lat="42.63872" lon="0.93022">
        <ele>1857.89</ele>
        <time>2011-02-20T15:21:35Z</time>
      </trkpt>
      <trkpt lat="42.63898" lon="0.93007">
        <ele>1856.92</ele>
        <time>2011-02-20T15:21:47Z</time>
      </trkpt>
      <trkpt lat="42.63926" lon="0.92991">
        <ele>1857.4</ele>
        <time>2011-02-20T15:22:00Z</time>
      </trkpt>
      <trkpt lat="42.63939" lon="0.92988">
        <ele>1857.4</ele>
        <time>2011-02-20T15:22:05Z</time>
      </trkpt>
      <trkpt lat="42.63945" lon="0.92986">
        <ele>1857.4</ele>
        <time>2011-02-20T15:22:07Z</time>
      </trkpt>
      <trkpt lat="42.63962" lon="0.92984">
        <ele>1856.92</ele>
        <time>2011-02-20T15:22:13Z</time>
      </trkpt>
      <trkpt lat="42.63979" lon="0.92982">
        <ele>1856.92</ele>
        <time>2011-02-20T15:22:19Z</time>
      </trkpt>
      <trkpt lat="42.63996" lon="0.92991">
        <ele>1856.44</ele>
        <time>2011-02-20T15:22:25Z</time>
      </trkpt>
      <trkpt lat="42.64014" lon="0.93006">
        <ele>1856.44</ele>
        <time>2011-02-20T15:22:33Z</time>
      </trkpt>
      <trkpt lat="42.64022" lon="0.93012">
        <ele>1856.92</ele>
        <time>2011-02-20T15:22:37Z</time>
      </trkpt>
      <trkpt lat="42.64031" lon="0.93019">
        <ele>1857.4</ele>
        <time>2011-02-20T15:22:42Z</time>
      </trkpt>
      <trkpt lat="42.64034" lon="0.93021">
        <ele>1858.37</ele>
        <time>2011-02-20T15:22:44Z</time>
      </trkpt>
      <trkpt lat="42.64043" lon="0.93032">
        <ele>1858.37</ele>
        <time>2011-02-20T15:22:53Z</time>
      </trkpt>
      <trkpt lat="42.64043" lon="0.93033">
        <ele>1858.85</ele>
        <time>2011-02-20T15:22:54Z</time>
      </trkpt>
      <trkpt lat="42.6405" lon="0.93038">
        <ele>1859.33</ele>
        <time>2011-02-20T15:23:01Z</time>
      </trkpt>
      <trkpt lat="42.64055" lon="0.93045">
        <ele>1859.33</ele>
        <time>2011-02-20T15:23:08Z</time>
      </trkpt>
      <trkpt lat="42.64063" lon="0.93054">
        <ele>1861.25</ele>
        <time>2011-02-20T15:23:16Z</time>
      </trkpt>
      <trkpt lat="42.64071" lon="0.93061">
        <ele>1860.29</ele>
        <time>2011-02-20T15:23:22Z</time>
      </trkpt>
      <trkpt lat="42.64086" lon="0.93078">
        <ele>1861.73</ele>
        <time>2011-02-20T15:23:31Z</time>
      </trkpt>
      <trkpt lat="42.64099" lon="0.93088">
        <ele>1862.21</ele>
        <time>2011-02-20T15:23:41Z</time>
      </trkpt>
      <trkpt lat="42.64122" lon="0.93112">
        <ele>1860.77</ele>
        <time>2011-02-20T15:23:57Z</time>
      </trkpt>
      <trkpt lat="42.64151" lon="0.9314">
        <ele>1859.81</ele>
        <time>2011-02-20T15:24:10Z</time>
      </trkpt>
      <trkpt lat="42.64181" lon="0.93165">
        <ele>1859.33</ele>
        <time>2011-02-20T15:24:23Z</time>
      </trkpt>
      <trkpt lat="42.64191" lon="0.93181">
        <ele>1859.33</ele>
        <time>2011-02-20T15:24:29Z</time>
      </trkpt>
      <trkpt lat="42.64196" lon="0.93209">
        <ele>1858.85</ele>
        <time>2011-02-20T15:24:40Z</time>
      </trkpt>
      <trkpt lat="42.64208" lon="0.93247">
        <ele>1857.4</ele>
        <time>2011-02-20T15:24:54Z</time>
      </trkpt>
      <trkpt lat="42.64217" lon="0.93263">
        <ele>1856.44</ele>
        <time>2011-02-20T15:24:58Z</time>
      </trkpt>
      <trkpt lat="42.64249" lon="0.93306">
        <ele>1855.48</ele>
        <time>2011-02-20T15:25:07Z</time>
      </trkpt>
      <trkpt lat="42.64291" lon="0.9333">
        <ele>1854.04</ele>
        <time>2011-02-20T15:25:19Z</time>
      </trkpt>
      <trkpt lat="42.6433" lon="0.93329">
        <ele>1854.52</ele>
        <time>2011-02-20T15:25:32Z</time>
      </trkpt>
      <trkpt lat="42.64339" lon="0.93331">
        <ele>1854.04</ele>
        <time>2011-02-20T15:25:36Z</time>
      </trkpt>
      <trkpt lat="42.64363" lon="0.93331">
        <ele>1854.04</ele>
        <time>2011-02-20T15:25:46Z</time>
      </trkpt>
      <trkpt lat="42.64379" lon="0.9333">
        <ele>1855</ele>
        <time>2011-02-20T15:25:51Z</time>
      </trkpt>
      <trkpt lat="42.64407" lon="0.93321">
        <ele>1855</ele>
        <time>2011-02-20T15:26:01Z</time>
      </trkpt>
      <trkpt lat="42.64429" lon="0.93319">
        <ele>1854.52</ele>
        <time>2011-02-20T15:26:08Z</time>
      </trkpt>
      <trkpt lat="42.64452" lon="0.93318">
        <ele>1854.04</ele>
        <time>2011-02-20T15:26:16Z</time>
      </trkpt>
      <trkpt lat="42.6446" lon="0.93317">
        <ele>1853.56</ele>
        <time>2011-02-20T15:26:19Z</time>
      </trkpt>
      <trkpt lat="42.64477" lon="0.93316">
        <ele>1853.08</ele>
        <time>2011-02-20T15:26:33Z</time>
      </trkpt>
      <trkpt lat="42.64477" lon="0.93316">
        <ele>1852.6</ele>
        <time>2011-02-20T15:26:51Z</time>
      </trkpt>
      <trkpt lat="42.64477" lon="0.93316">
        <ele>1853.08</ele>
        <time>2011-02-20T15:27:05Z</time>
      </trkpt>
      <trkpt lat="42.64477" lon="0.93316">
        <ele>1853.08</ele>
        <time>2011-02-20T15:27:27Z</time>
      </trkpt>
      <trkpt lat="42.64477" lon="0.93317">
        <ele>1853.08</ele>
        <time>2011-02-20T15:27:51Z</time>
      </trkpt>
      <trkpt lat="42.64478" lon="0.93317">
        <ele>1853.08</ele>
        <time>2011-02-20T15:28:31Z</time>
      </trkpt>
      <trkpt lat="42.64477" lon="0.93317">
        <ele>1852.6</ele>
        <time>2011-02-20T15:29:05Z</time>
      </trkpt>
      <trkpt lat="42.64478" lon="0.93317">
        <ele>1853.08</ele>
        <time>2011-02-20T15:29:28Z</time>
      </trkpt>
      <trkpt lat="42.64479" lon="0.93318">
        <ele>1853.08</ele>
        <time>2011-02-20T15:30:06Z</time>
      </trkpt>
      <trkpt lat="42.64481" lon="0.93317">
        <ele>1853.08</ele>
        <time>2011-02-20T15:30:19Z</time>
      </trkpt>
      <trkpt lat="42.64489" lon="0.93318">
        <ele>1853.08</ele>
        <time>2011-02-20T15:30:22Z</time>
      </trkpt>
      <trkpt lat="42.6453" lon="0.93324">
        <ele>1852.12</ele>
        <time>2011-02-20T15:30:33Z</time>
      </trkpt>
      <trkpt lat="42.64575" lon="0.93329">
        <ele>1849.71</ele>
        <time>2011-02-20T15:30:44Z</time>
      </trkpt>
      <trkpt lat="42.64609" lon="0.93333">
        <ele>1849.23</ele>
        <time>2011-02-20T15:30:52Z</time>
      </trkpt>
      <trkpt lat="42.64652" lon="0.93345">
        <ele>1849.71</ele>
        <time>2011-02-20T15:31:05Z</time>
      </trkpt>
      <trkpt lat="42.6468" lon="0.93359">
        <ele>1848.75</ele>
        <time>2011-02-20T15:31:15Z</time>
      </trkpt>
      <trkpt lat="42.64711" lon="0.93374">
        <ele>1847.79</ele>
        <time>2011-02-20T15:31:26Z</time>
      </trkpt>
      <trkpt lat="42.64754" lon="0.93403">
        <ele>1846.83</ele>
        <time>2011-02-20T15:31:40Z</time>
      </trkpt>
      <trkpt lat="42.64781" lon="0.93437">
        <ele>1844.91</ele>
        <time>2011-02-20T15:31:53Z</time>
      </trkpt>
      <trkpt lat="42.64799" lon="0.93453">
        <ele>1842.98</ele>
        <time>2011-02-20T15:31:59Z</time>
      </trkpt>
      <trkpt lat="42.64809" lon="0.93457">
        <ele>1842.02</ele>
        <time>2011-02-20T15:32:01Z</time>
      </trkpt>
      <trkpt lat="42.64839" lon="0.93439">
        <ele>1839.62</ele>
        <time>2011-02-20T15:32:08Z</time>
      </trkpt>
      <trkpt lat="42.64847" lon="0.93424">
        <ele>1838.66</ele>
        <time>2011-02-20T15:32:10Z</time>
      </trkpt>
      <trkpt lat="42.64875" lon="0.93394">
        <ele>1834.81</ele>
        <time>2011-02-20T15:32:15Z</time>
      </trkpt>
      <trkpt lat="42.64897" lon="0.93382">
        <ele>1832.41</ele>
        <time>2011-02-20T15:32:18Z</time>
      </trkpt>
      <trkpt lat="42.64927" lon="0.93366">
        <ele>1828.56</ele>
        <time>2011-02-20T15:32:22Z</time>
      </trkpt>
      <trkpt lat="42.64935" lon="0.93363">
        <ele>1827.6</ele>
        <time>2011-02-20T15:32:23Z</time>
      </trkpt>
      <trkpt lat="42.64959" lon="0.9336">
        <ele>1825.2</ele>
        <time>2011-02-20T15:32:26Z</time>
      </trkpt>
      <trkpt lat="42.64975" lon="0.93362">
        <ele>1824.24</ele>
        <time>2011-02-20T15:32:28Z</time>
      </trkpt>
      <trkpt lat="42.65001" lon="0.9336">
        <ele>1820.39</ele>
        <time>2011-02-20T15:32:31Z</time>
      </trkpt>
      <trkpt lat="42.65009" lon="0.93359">
        <ele>1818.95</ele>
        <time>2011-02-20T15:32:32Z</time>
      </trkpt>
      <trkpt lat="42.65042" lon="0.93371">
        <ele>1815.59</ele>
        <time>2011-02-20T15:32:36Z</time>
      </trkpt>
      <trkpt lat="42.65057" lon="0.93377">
        <ele>1814.63</ele>
        <time>2011-02-20T15:32:38Z</time>
      </trkpt>
      <trkpt lat="42.65077" lon="0.93378">
        <ele>1811.74</ele>
        <time>2011-02-20T15:32:41Z</time>
      </trkpt>
      <trkpt lat="42.65097" lon="0.93359">
        <ele>1812.22</ele>
        <time>2011-02-20T15:32:46Z</time>
      </trkpt>
      <trkpt lat="42.65123" lon="0.933">
        <ele>1811.74</ele>
        <time>2011-02-20T15:32:58Z</time>
      </trkpt>
      <trkpt lat="42.65149" lon="0.93256">
        <ele>1809.82</ele>
        <time>2011-02-20T15:33:09Z</time>
      </trkpt>
      <trkpt lat="42.65176" lon="0.93215">
        <ele>1806.94</ele>
        <time>2011-02-20T15:33:20Z</time>
      </trkpt>
      <trkpt lat="42.65179" lon="0.93211">
        <ele>1806.94</ele>
        <time>2011-02-20T15:33:21Z</time>
      </trkpt>
      <trkpt lat="42.65202" lon="0.93183">
        <ele>1805.49</ele>
        <time>2011-02-20T15:33:29Z</time>
      </trkpt>
      <trkpt lat="42.65227" lon="0.93152">
        <ele>1804.05</ele>
        <time>2011-02-20T15:33:37Z</time>
      </trkpt>
      <trkpt lat="42.65253" lon="0.93127">
        <ele>1802.61</ele>
        <time>2011-02-20T15:33:45Z</time>
      </trkpt>
      <trkpt lat="42.65283" lon="0.9311">
        <ele>1802.13</ele>
        <time>2011-02-20T15:33:54Z</time>
      </trkpt>
      <trkpt lat="42.65286" lon="0.93109">
        <ele>1802.13</ele>
        <time>2011-02-20T15:33:55Z</time>
      </trkpt>
      <trkpt lat="42.65299" lon="0.93103">
        <ele>1801.17</ele>
        <time>2011-02-20T15:34:00Z</time>
      </trkpt>
      <trkpt lat="42.65325" lon="0.93085">
        <ele>1801.17</ele>
        <time>2011-02-20T15:34:09Z</time>
      </trkpt>
      <trkpt lat="42.65347" lon="0.93073">
        <ele>1800.69</ele>
        <time>2011-02-20T15:34:15Z</time>
      </trkpt>
      <trkpt lat="42.65363" lon="0.93063">
        <ele>1798.76</ele>
        <time>2011-02-20T15:34:19Z</time>
      </trkpt>
      <trkpt lat="42.6541" lon="0.93036">
        <ele>1797.32</ele>
        <time>2011-02-20T15:34:32Z</time>
      </trkpt>
      <trkpt lat="42.65429" lon="0.93022">
        <ele>1795.4</ele>
        <time>2011-02-20T15:34:36Z</time>
      </trkpt>
      <trkpt lat="42.65452" lon="0.93003">
        <ele>1792.52</ele>
        <time>2011-02-20T15:34:40Z</time>
      </trkpt>
      <trkpt lat="42.65477" lon="0.92981">
        <ele>1789.15</ele>
        <time>2011-02-20T15:34:44Z</time>
      </trkpt>
      <trkpt lat="42.65507" lon="0.92957">
        <ele>1785.79</ele>
        <time>2011-02-20T15:34:48Z</time>
      </trkpt>
      <trkpt lat="42.65532" lon="0.92937">
        <ele>1783.38</ele>
        <time>2011-02-20T15:34:51Z</time>
      </trkpt>
      <trkpt lat="42.65556" lon="0.92917">
        <ele>1779.06</ele>
        <time>2011-02-20T15:34:54Z</time>
      </trkpt>
      <trkpt lat="42.6558" lon="0.92896">
        <ele>1775.21</ele>
        <time>2011-02-20T15:34:57Z</time>
      </trkpt>
      <trkpt lat="42.65612" lon="0.92868">
        <ele>1771.85</ele>
        <time>2011-02-20T15:35:01Z</time>
      </trkpt>
      <trkpt lat="42.65636" lon="0.92847">
        <ele>1768</ele>
        <time>2011-02-20T15:35:04Z</time>
      </trkpt>
      <trkpt lat="42.65661" lon="0.92829">
        <ele>1766.08</ele>
        <time>2011-02-20T15:35:07Z</time>
      </trkpt>
      <trkpt lat="42.65669" lon="0.92823">
        <ele>1764.64</ele>
        <time>2011-02-20T15:35:08Z</time>
      </trkpt>
      <trkpt lat="42.65681" lon="0.92808">
        <ele>1763.68</ele>
        <time>2011-02-20T15:35:10Z</time>
      </trkpt>
      <trkpt lat="42.65707" lon="0.92777">
        <ele>1758.87</ele>
        <time>2011-02-20T15:35:14Z</time>
      </trkpt>
      <trkpt lat="42.65718" lon="0.92747">
        <ele>1755.5</ele>
        <time>2011-02-20T15:35:17Z</time>
      </trkpt>
      <trkpt lat="42.65717" lon="0.92737">
        <ele>1755.02</ele>
        <time>2011-02-20T15:35:18Z</time>
      </trkpt>
      <trkpt lat="42.65712" lon="0.92707">
        <ele>1752.62</ele>
        <time>2011-02-20T15:35:21Z</time>
      </trkpt>
      <trkpt lat="42.65702" lon="0.92666">
        <ele>1752.14</ele>
        <time>2011-02-20T15:35:26Z</time>
      </trkpt>
      <trkpt lat="42.657" lon="0.92651">
        <ele>1750.22</ele>
        <time>2011-02-20T15:35:28Z</time>
      </trkpt>
      <trkpt lat="42.65697" lon="0.92603">
        <ele>1748.78</ele>
        <time>2011-02-20T15:35:34Z</time>
      </trkpt>
      <trkpt lat="42.65711" lon="0.9253">
        <ele>1746.85</ele>
        <time>2011-02-20T15:35:44Z</time>
      </trkpt>
      <trkpt lat="42.65721" lon="0.92491">
        <ele>1744.93</ele>
        <time>2011-02-20T15:35:50Z</time>
      </trkpt>
      <trkpt lat="42.65724" lon="0.92477">
        <ele>1745.41</ele>
        <time>2011-02-20T15:35:52Z</time>
      </trkpt>
      <trkpt lat="42.65734" lon="0.92435">
        <ele>1743.01</ele>
        <time>2011-02-20T15:35:58Z</time>
      </trkpt>
      <trkpt lat="42.65748" lon="0.92379">
        <ele>1741.08</ele>
        <time>2011-02-20T15:36:07Z</time>
      </trkpt>
      <trkpt lat="42.6576" lon="0.92334">
        <ele>1739.16</ele>
        <time>2011-02-20T15:36:15Z</time>
      </trkpt>
      <trkpt lat="42.65763" lon="0.92322">
        <ele>1739.64</ele>
        <time>2011-02-20T15:36:17Z</time>
      </trkpt>
      <trkpt lat="42.65773" lon="0.92278">
        <ele>1739.64</ele>
        <time>2011-02-20T15:36:26Z</time>
      </trkpt>
      <trkpt lat="42.65777" lon="0.92268">
        <ele>1739.16</ele>
        <time>2011-02-20T15:36:29Z</time>
      </trkpt>
      <trkpt lat="42.6578" lon="0.92263">
        <ele>1739.64</ele>
        <time>2011-02-20T15:36:31Z</time>
      </trkpt>
      <trkpt lat="42.65786" lon="0.92256">
        <ele>1739.16</ele>
        <time>2011-02-20T15:36:35Z</time>
      </trkpt>
      <trkpt lat="42.65788" lon="0.92254">
        <ele>1739.16</ele>
        <time>2011-02-20T15:36:48Z</time>
      </trkpt>
      <trkpt lat="42.65788" lon="0.92254">
        <ele>1739.16</ele>
        <time>2011-02-20T15:37:08Z</time>
      </trkpt>
      <trkpt lat="42.65788" lon="0.92254">
        <ele>1738.68</ele>
        <time>2011-02-20T15:37:56Z</time>
      </trkpt>
      <trkpt lat="42.65788" lon="0.92254">
        <ele>1737.72</ele>
        <time>2011-02-20T15:38:31Z</time>
      </trkpt>
      <trkpt lat="42.65787" lon="0.92254">
        <ele>1737.24</ele>
        <time>2011-02-20T15:39:39Z</time>
      </trkpt>
      <trkpt lat="42.65786" lon="0.92254">
        <ele>1737.24</ele>
        <time>2011-02-20T15:40:01Z</time>
      </trkpt>
      <trkpt lat="42.65786" lon="0.92254">
        <ele>1737.24</ele>
        <time>2011-02-20T15:40:50Z</time>
      </trkpt>
      <trkpt lat="42.65786" lon="0.92254">
        <ele>1736.28</ele>
        <time>2011-02-20T15:41:17Z</time>
      </trkpt>
      <trkpt lat="42.65787" lon="0.92253">
        <ele>1736.76</ele>
        <time>2011-02-20T15:41:59Z</time>
      </trkpt>
      <trkpt lat="42.65794" lon="0.9225">
        <ele>1737.24</ele>
        <time>2011-02-20T15:42:03Z</time>
      </trkpt>
      <trkpt lat="42.65822" lon="0.92244">
        <ele>1736.76</ele>
        <time>2011-02-20T15:42:13Z</time>
      </trkpt>
      <trkpt lat="42.65862" lon="0.92234">
        <ele>1734.36</ele>
        <time>2011-02-20T15:42:24Z</time>
      </trkpt>
      <trkpt lat="42.65883" lon="0.92223">
        <ele>1732.91</ele>
        <time>2011-02-20T15:42:29Z</time>
      </trkpt>
      <trkpt lat="42.65919" lon="0.92199">
        <ele>1730.51</ele>
        <time>2011-02-20T15:42:36Z</time>
      </trkpt>
      <trkpt lat="42.65924" lon="0.92196">
        <ele>1730.51</ele>
        <time>2011-02-20T15:42:37Z</time>
      </trkpt>
      <trkpt lat="42.65945" lon="0.92182">
        <ele>1729.07</ele>
        <time>2011-02-20T15:42:41Z</time>
      </trkpt>
      <trkpt lat="42.65983" lon="0.92167">
        <ele>1725.7</ele>
        <time>2011-02-20T15:42:47Z</time>
      </trkpt>
      <trkpt lat="42.66019" lon="0.92157">
        <ele>1722.82</ele>
        <time>2011-02-20T15:42:52Z</time>
      </trkpt>
      <trkpt lat="42.66033" lon="0.92154">
        <ele>1721.38</ele>
        <time>2011-02-20T15:42:54Z</time>
      </trkpt>
      <trkpt lat="42.66048" lon="0.92151">
        <ele>1720.42</ele>
        <time>2011-02-20T15:42:56Z</time>
      </trkpt>
      <trkpt lat="42.66081" lon="0.92162">
        <ele>1718.01</ele>
        <time>2011-02-20T15:43:01Z</time>
      </trkpt>
      <trkpt lat="42.66118" lon="0.92152">
        <ele>1714.65</ele>
        <time>2011-02-20T15:43:07Z</time>
      </trkpt>
      <trkpt lat="42.66162" lon="0.92129">
        <ele>1709.84</ele>
        <time>2011-02-20T15:43:13Z</time>
      </trkpt>
      <trkpt lat="42.66171" lon="0.92132">
        <ele>1707.92</ele>
        <time>2011-02-20T15:43:15Z</time>
      </trkpt>
      <trkpt lat="42.66175" lon="0.92137">
        <ele>1706</ele>
        <time>2011-02-20T15:43:18Z</time>
      </trkpt>
      <trkpt lat="42.66183" lon="0.92143">
        <ele>1705.52</ele>
        <time>2011-02-20T15:43:27Z</time>
      </trkpt>
      <trkpt lat="42.66199" lon="0.92141">
        <ele>1704.55</ele>
        <time>2011-02-20T15:43:34Z</time>
      </trkpt>
      <trkpt lat="42.66212" lon="0.92123">
        <ele>1702.63</ele>
        <time>2011-02-20T15:43:38Z</time>
      </trkpt>
      <trkpt lat="42.66218" lon="0.92116">
        <ele>1701.19</ele>
        <time>2011-02-20T15:43:40Z</time>
      </trkpt>
      <trkpt lat="42.66227" lon="0.92117">
        <ele>1700.23</ele>
        <time>2011-02-20T15:43:42Z</time>
      </trkpt>
      <trkpt lat="42.6623" lon="0.92127">
        <ele>1698.31</ele>
        <time>2011-02-20T15:43:44Z</time>
      </trkpt>
      <trkpt lat="42.66218" lon="0.92153">
        <ele>1695.9</ele>
        <time>2011-02-20T15:43:49Z</time>
      </trkpt>
      <trkpt lat="42.66198" lon="0.92178">
        <ele>1692.06</ele>
        <time>2011-02-20T15:43:55Z</time>
      </trkpt>
      <trkpt lat="42.6621" lon="0.92181">
        <ele>1689.65</ele>
        <time>2011-02-20T15:43:58Z</time>
      </trkpt>
      <trkpt lat="42.66224" lon="0.92172">
        <ele>1689.65</ele>
        <time>2011-02-20T15:44:01Z</time>
      </trkpt>
      <trkpt lat="42.66257" lon="0.92144">
        <ele>1685.33</ele>
        <time>2011-02-20T15:44:08Z</time>
      </trkpt>
      <trkpt lat="42.66264" lon="0.92142">
        <ele>1685.33</ele>
        <time>2011-02-20T15:44:09Z</time>
      </trkpt>
      <trkpt lat="42.66279" lon="0.92137">
        <ele>1683.41</ele>
        <time>2011-02-20T15:44:11Z</time>
      </trkpt>
      <trkpt lat="42.66309" lon="0.92134">
        <ele>1680.04</ele>
        <time>2011-02-20T15:44:15Z</time>
      </trkpt>
      <trkpt lat="42.66325" lon="0.92131">
        <ele>1679.08</ele>
        <time>2011-02-20T15:44:17Z</time>
      </trkpt>
      <trkpt lat="42.66332" lon="0.92128">
        <ele>1677.64</ele>
        <time>2011-02-20T15:44:18Z</time>
      </trkpt>
      <trkpt lat="42.66355" lon="0.92087">
        <ele>1674.27</ele>
        <time>2011-02-20T15:44:24Z</time>
      </trkpt>
      <trkpt lat="42.66365" lon="0.92076">
        <ele>1671.39</ele>
        <time>2011-02-20T15:44:27Z</time>
      </trkpt>
      <trkpt lat="42.66373" lon="0.92113">
        <ele>1668.02</ele>
        <time>2011-02-20T15:44:34Z</time>
      </trkpt>
      <trkpt lat="42.66373" lon="0.92128">
        <ele>1667.54</ele>
        <time>2011-02-20T15:44:36Z</time>
      </trkpt>
      <trkpt lat="42.66371" lon="0.92143">
        <ele>1666.58</ele>
        <time>2011-02-20T15:44:38Z</time>
      </trkpt>
      <trkpt lat="42.66364" lon="0.92169">
        <ele>1665.62</ele>
        <time>2011-02-20T15:44:42Z</time>
      </trkpt>
      <trkpt lat="42.66387" lon="0.92147">
        <ele>1660.81</ele>
        <time>2011-02-20T15:44:49Z</time>
      </trkpt>
      <trkpt lat="42.66398" lon="0.92112">
        <ele>1659.37</ele>
        <time>2011-02-20T15:44:53Z</time>
      </trkpt>
      <trkpt lat="42.66406" lon="0.92075">
        <ele>1657.45</ele>
        <time>2011-02-20T15:44:57Z</time>
      </trkpt>
      <trkpt lat="42.66413" lon="0.92046">
        <ele>1655.53</ele>
        <time>2011-02-20T15:45:00Z</time>
      </trkpt>
      <trkpt lat="42.66423" lon="0.92021">
        <ele>1654.09</ele>
        <time>2011-02-20T15:45:03Z</time>
      </trkpt>
      <trkpt lat="42.66427" lon="0.92013">
        <ele>1653.12</ele>
        <time>2011-02-20T15:45:04Z</time>
      </trkpt>
      <trkpt lat="42.66434" lon="0.91996">
        <ele>1652.64</ele>
        <time>2011-02-20T15:45:06Z</time>
      </trkpt>
      <trkpt lat="42.66438" lon="0.91986">
        <ele>1651.2</ele>
        <time>2011-02-20T15:45:07Z</time>
      </trkpt>
      <trkpt lat="42.66461" lon="0.91962">
        <ele>1647.36</ele>
        <time>2011-02-20T15:45:11Z</time>
      </trkpt>
      <trkpt lat="42.66487" lon="0.91944">
        <ele>1643.99</ele>
        <time>2011-02-20T15:45:15Z</time>
      </trkpt>
      <trkpt lat="42.66491" lon="0.91936">
        <ele>1643.51</ele>
        <time>2011-02-20T15:45:16Z</time>
      </trkpt>
      <trkpt lat="42.66502" lon="0.9192">
        <ele>1642.07</ele>
        <time>2011-02-20T15:45:18Z</time>
      </trkpt>
      <trkpt lat="42.66533" lon="0.91878">
        <ele>1633.9</ele>
        <time>2011-02-20T15:45:24Z</time>
      </trkpt>
      <trkpt lat="42.66557" lon="0.91883">
        <ele>1630.53</ele>
        <time>2011-02-20T15:45:28Z</time>
      </trkpt>
      <trkpt lat="42.6658" lon="0.91872">
        <ele>1625.73</ele>
        <time>2011-02-20T15:45:33Z</time>
      </trkpt>
      <trkpt lat="42.66593" lon="0.91857">
        <ele>1622.84</ele>
        <time>2011-02-20T15:45:37Z</time>
      </trkpt>
      <trkpt lat="42.66598" lon="0.91847">
        <ele>1621.4</ele>
        <time>2011-02-20T15:45:39Z</time>
      </trkpt>
      <trkpt lat="42.66605" lon="0.91835">
        <ele>1620.44</ele>
        <time>2011-02-20T15:45:41Z</time>
      </trkpt>
      <trkpt lat="42.66618" lon="0.91805">
        <ele>1616.59</ele>
        <time>2011-02-20T15:45:45Z</time>
      </trkpt>
      <trkpt lat="42.66623" lon="0.91801">
        <ele>1617.07</ele>
        <time>2011-02-20T15:45:46Z</time>
      </trkpt>
      <trkpt lat="42.66636" lon="0.91799">
        <ele>1615.15</ele>
        <time>2011-02-20T15:45:48Z</time>
      </trkpt>
      <trkpt lat="42.6665" lon="0.91796">
        <ele>1614.19</ele>
        <time>2011-02-20T15:45:50Z</time>
      </trkpt>
      <trkpt lat="42.66675" lon="0.91775">
        <ele>1609.38</ele>
        <time>2011-02-20T15:45:54Z</time>
      </trkpt>
      <trkpt lat="42.66689" lon="0.91748">
        <ele>1605.06</ele>
        <time>2011-02-20T15:45:58Z</time>
      </trkpt>
      <trkpt lat="42.66711" lon="0.91761">
        <ele>1601.69</ele>
        <time>2011-02-20T15:46:02Z</time>
      </trkpt>
      <trkpt lat="42.66722" lon="0.91782">
        <ele>1599.29</ele>
        <time>2011-02-20T15:46:10Z</time>
      </trkpt>
      <trkpt lat="42.66722" lon="0.91783">
        <ele>1599.77</ele>
        <time>2011-02-20T15:46:30Z</time>
      </trkpt>
      <trkpt lat="42.66722" lon="0.91802">
        <ele>1597.37</ele>
        <time>2011-02-20T15:46:46Z</time>
      </trkpt>
      <trkpt lat="42.66719" lon="0.91818">
        <ele>1595.93</ele>
        <time>2011-02-20T15:46:53Z</time>
      </trkpt>
      <trkpt lat="42.66716" lon="0.91827">
        <ele>1595.93</ele>
        <time>2011-02-20T15:46:57Z</time>
      </trkpt>
      <trkpt lat="42.66713" lon="0.9184">
        <ele>1594.96</ele>
        <time>2011-02-20T15:47:01Z</time>
      </trkpt>
      <trkpt lat="42.66716" lon="0.91848">
        <ele>1594</ele>
        <time>2011-02-20T15:47:03Z</time>
      </trkpt>
      <trkpt lat="42.66742" lon="0.91849">
        <ele>1591.6</ele>
        <time>2011-02-20T15:47:11Z</time>
      </trkpt>
      <trkpt lat="42.66744" lon="0.91846">
        <ele>1591.6</ele>
        <time>2011-02-20T15:47:12Z</time>
      </trkpt>
      <trkpt lat="42.66765" lon="0.91814">
        <ele>1587.27</ele>
        <time>2011-02-20T15:47:20Z</time>
      </trkpt>
      <trkpt lat="42.66786" lon="0.91769">
        <ele>1584.87</ele>
        <time>2011-02-20T15:47:29Z</time>
      </trkpt>
      <trkpt lat="42.668" lon="0.91736">
        <ele>1581.03</ele>
        <time>2011-02-20T15:47:34Z</time>
      </trkpt>
      <trkpt lat="42.66816" lon="0.9169">
        <ele>1578.14</ele>
        <time>2011-02-20T15:47:41Z</time>
      </trkpt>
      <trkpt lat="42.66833" lon="0.91642">
        <ele>1574.78</ele>
        <time>2011-02-20T15:47:49Z</time>
      </trkpt>
      <trkpt lat="42.66839" lon="0.91623">
        <ele>1572.85</ele>
        <time>2011-02-20T15:47:53Z</time>
      </trkpt>
      <trkpt lat="42.66851" lon="0.91586">
        <ele>1569.49</ele>
        <time>2011-02-20T15:48:00Z</time>
      </trkpt>
      <trkpt lat="42.66853" lon="0.9158">
        <ele>1569.01</ele>
        <time>2011-02-20T15:48:01Z</time>
      </trkpt>
      <trkpt lat="42.66857" lon="0.91567">
        <ele>1568.53</ele>
        <time>2011-02-20T15:48:03Z</time>
      </trkpt>
      <trkpt lat="42.66885" lon="0.91548">
        <ele>1563.72</ele>
        <time>2011-02-20T15:48:09Z</time>
      </trkpt>
      <trkpt lat="42.66891" lon="0.91552">
        <ele>1562.76</ele>
        <time>2011-02-20T15:48:10Z</time>
      </trkpt>
      <trkpt lat="42.66901" lon="0.91564">
        <ele>1561.8</ele>
        <time>2011-02-20T15:48:12Z</time>
      </trkpt>
      <trkpt lat="42.66925" lon="0.91594">
        <ele>1557.47</ele>
        <time>2011-02-20T15:48:17Z</time>
      </trkpt>
      <trkpt lat="42.66933" lon="0.91606">
        <ele>1556.03</ele>
        <time>2011-02-20T15:48:19Z</time>
      </trkpt>
      <trkpt lat="42.6696" lon="0.91634">
        <ele>1551.71</ele>
        <time>2011-02-20T15:48:26Z</time>
      </trkpt>
      <trkpt lat="42.66967" lon="0.91642">
        <ele>1550.74</ele>
        <time>2011-02-20T15:48:28Z</time>
      </trkpt>
      <trkpt lat="42.66992" lon="0.91663">
        <ele>1547.38</ele>
        <time>2011-02-20T15:48:34Z</time>
      </trkpt>
      <trkpt lat="42.66997" lon="0.91661">
        <ele>1546.9</ele>
        <time>2011-02-20T15:48:35Z</time>
      </trkpt>
      <trkpt lat="42.67008" lon="0.91648">
        <ele>1544.98</ele>
        <time>2011-02-20T15:48:38Z</time>
      </trkpt>
      <trkpt lat="42.67011" lon="0.91643">
        <ele>1544.01</ele>
        <time>2011-02-20T15:48:39Z</time>
      </trkpt>
      <trkpt lat="42.67028" lon="0.91595">
        <ele>1540.17</ele>
        <time>2011-02-20T15:48:47Z</time>
      </trkpt>
      <trkpt lat="42.6703" lon="0.9159">
        <ele>1540.17</ele>
        <time>2011-02-20T15:48:48Z</time>
      </trkpt>
      <trkpt lat="42.67034" lon="0.91579">
        <ele>1539.21</ele>
        <time>2011-02-20T15:48:50Z</time>
      </trkpt>
      <trkpt lat="42.67037" lon="0.91567">
        <ele>1537.77</ele>
        <time>2011-02-20T15:48:52Z</time>
      </trkpt>
      <trkpt lat="42.67059" lon="0.91536">
        <ele>1534.4</ele>
        <time>2011-02-20T15:48:58Z</time>
      </trkpt>
      <trkpt lat="42.67064" lon="0.91532">
        <ele>1533.92</ele>
        <time>2011-02-20T15:48:59Z</time>
      </trkpt>
      <trkpt lat="42.67095" lon="0.91511">
        <ele>1529.59</ele>
        <time>2011-02-20T15:49:06Z</time>
      </trkpt>
      <trkpt lat="42.67099" lon="0.91509">
        <ele>1529.11</ele>
        <time>2011-02-20T15:49:07Z</time>
      </trkpt>
      <trkpt lat="42.6713" lon="0.91499">
        <ele>1525.27</ele>
        <time>2011-02-20T15:49:15Z</time>
      </trkpt>
      <trkpt lat="42.67134" lon="0.91499">
        <ele>1525.27</ele>
        <time>2011-02-20T15:49:16Z</time>
      </trkpt>
      <trkpt lat="42.67151" lon="0.91496">
        <ele>1523.35</ele>
        <time>2011-02-20T15:49:20Z</time>
      </trkpt>
      <trkpt lat="42.67159" lon="0.91496">
        <ele>1522.87</ele>
        <time>2011-02-20T15:49:22Z</time>
      </trkpt>
      <trkpt lat="42.67168" lon="0.91495">
        <ele>1521.42</ele>
        <time>2011-02-20T15:49:24Z</time>
      </trkpt>
      <trkpt lat="42.67175" lon="0.91492">
        <ele>1520.94</ele>
        <time>2011-02-20T15:49:26Z</time>
      </trkpt>
      <trkpt lat="42.67184" lon="0.9149">
        <ele>1519.5</ele>
        <time>2011-02-20T15:49:29Z</time>
      </trkpt>
      <trkpt lat="42.67208" lon="0.9149">
        <ele>1516.14</ele>
        <time>2011-02-20T15:49:39Z</time>
      </trkpt>
      <trkpt lat="42.67209" lon="0.91491">
        <ele>1516.62</ele>
        <time>2011-02-20T15:49:41Z</time>
      </trkpt>
      <trkpt lat="42.67225" lon="0.91488">
        <ele>1515.18</ele>
        <time>2011-02-20T15:49:55Z</time>
      </trkpt>
      <trkpt lat="42.6724" lon="0.91483">
        <ele>1512.29</ele>
        <time>2011-02-20T15:50:03Z</time>
      </trkpt>
      <trkpt lat="42.67248" lon="0.91476">
        <ele>1511.33</ele>
        <time>2011-02-20T15:50:15Z</time>
      </trkpt>
      <trkpt lat="42.6725" lon="0.91474">
        <ele>1511.81</ele>
        <time>2011-02-20T15:50:19Z</time>
      </trkpt>
      <trkpt lat="42.67255" lon="0.91468">
        <ele>1511.33</ele>
        <time>2011-02-20T15:50:25Z</time>
      </trkpt>
      <trkpt lat="42.67259" lon="0.91461">
        <ele>1511.81</ele>
        <time>2011-02-20T15:50:37Z</time>
      </trkpt>
      <trkpt lat="42.67259" lon="0.9146">
        <ele>1511.33</ele>
        <time>2011-02-20T15:50:52Z</time>
      </trkpt>
      <trkpt lat="42.67259" lon="0.9146">
        <ele>1511.33</ele>
        <time>2011-02-20T15:51:23Z</time>
      </trkpt>
      <trkpt lat="42.67259" lon="0.9146">
        <ele>1511.81</ele>
        <time>2011-02-20T15:51:39Z</time>
      </trkpt>
      <trkpt lat="42.6726" lon="0.9146">
        <ele>1511.33</ele>
        <time>2011-02-20T15:51:53Z</time>
      </trkpt>
      <trkpt lat="42.67259" lon="0.9146">
        <ele>1558.92</ele>
        <time>2011-02-20T16:00:18Z</time>
      </trkpt>
      <trkpt lat="42.67259" lon="0.9146">
        <ele>1477.68</ele>
        <time>2011-02-20T16:00:19Z</time>
      </trkpt>
      <trkpt lat="42.67843" lon="0.91581">
        <ele>1478.16</ele>
        <time>2011-02-20T16:00:24Z</time>
      </trkpt>
      <trkpt lat="42.67839" lon="0.91568">
        <ele>1474.32</ele>
        <time>2011-02-20T16:00:29Z</time>
      </trkpt>
      <trkpt lat="42.67839" lon="0.91567">
        <ele>1475.28</ele>
        <time>2011-02-20T16:00:30Z</time>
      </trkpt>
      <trkpt lat="42.67841" lon="0.91566">
        <ele>1478.16</ele>
        <time>2011-02-20T16:00:35Z</time>
      </trkpt>
      <trkpt lat="42.67841" lon="0.91565">
        <ele>1473.36</ele>
        <time>2011-02-20T16:00:36Z</time>
      </trkpt>
    </trkseg>
  </trk>
</gpx>